<?xml version="1.0" encoding="UTF-8" standalone="no" ?>
<gpx xmlns="http://www.topografix.com/GPX/1/1" xmlns:xsi="http://www.w3.org/2001/XMLSchema-instance" xsi:schemaLocation="http://www.topografix.com/GPX/1/1 http://www.topografix.com/GPX/1/1/gpx.xsd" version="1.1" creator="VisuGPX - https://www.visugpx.com">
  <metadata>
    <name>vtt Tournon</name>
    <desc><![CDATA[
]]></desc>
  </metadata>
  <trk>
    <name><![CDATA[Mauroux - Thézac 30km]]></name>
    <trkseg>
      <trkpt lat="44.45369" lon="1.04804">
        <ele>212</ele>
        <time>2020-01-13T17:49:16Z</time>
      </trkpt>
      <trkpt lat="44.45343" lon="1.04789">
        <ele>212</ele>
        <time>2020-01-13T17:49:17Z</time>
      </trkpt>
      <trkpt lat="44.45338" lon="1.04795">
        <ele>212</ele>
        <time>2020-01-13T17:49:18Z</time>
      </trkpt>
      <trkpt lat="44.45335" lon="1.048">
        <ele>211</ele>
        <time>2020-01-13T17:49:19Z</time>
      </trkpt>
      <trkpt lat="44.45329" lon="1.04808">
        <ele>211</ele>
        <time>2020-01-13T17:49:20Z</time>
      </trkpt>
      <trkpt lat="44.45328" lon="1.04811">
        <ele>211</ele>
        <time>2020-01-13T17:49:21Z</time>
      </trkpt>
      <trkpt lat="44.45325" lon="1.04816">
        <ele>211</ele>
        <time>2020-01-13T17:49:22Z</time>
      </trkpt>
      <trkpt lat="44.45322" lon="1.04818">
        <ele>211</ele>
        <time>2020-01-13T17:49:23Z</time>
      </trkpt>
      <trkpt lat="44.4532" lon="1.04818">
        <ele>211</ele>
        <time>2020-01-13T17:49:24Z</time>
      </trkpt>
      <trkpt lat="44.45319" lon="1.04817">
        <ele>211</ele>
        <time>2020-01-13T17:49:25Z</time>
      </trkpt>
      <trkpt lat="44.45318" lon="1.04814">
        <ele>211</ele>
        <time>2020-01-13T17:49:26Z</time>
      </trkpt>
      <trkpt lat="44.45319" lon="1.04808">
        <ele>211</ele>
        <time>2020-01-13T17:49:27Z</time>
      </trkpt>
      <trkpt lat="44.45319" lon="1.04805">
        <ele>211</ele>
        <time>2020-01-13T17:49:28Z</time>
      </trkpt>
      <trkpt lat="44.45319" lon="1.04801">
        <ele>211</ele>
        <time>2020-01-13T17:49:29Z</time>
      </trkpt>
      <trkpt lat="44.4532" lon="1.04798">
        <ele>211</ele>
        <time>2020-01-13T17:49:30Z</time>
      </trkpt>
      <trkpt lat="44.4532" lon="1.04794">
        <ele>211</ele>
        <time>2020-01-13T17:49:31Z</time>
      </trkpt>
      <trkpt lat="44.45318" lon="1.0479">
        <ele>212</ele>
        <time>2020-01-13T17:49:32Z</time>
      </trkpt>
      <trkpt lat="44.45316" lon="1.04788">
        <ele>212</ele>
        <time>2020-01-13T17:49:33Z</time>
      </trkpt>
      <trkpt lat="44.45313" lon="1.04786">
        <ele>212</ele>
        <time>2020-01-13T17:49:34Z</time>
      </trkpt>
      <trkpt lat="44.4531" lon="1.04786">
        <ele>212</ele>
        <time>2020-01-13T17:49:35Z</time>
      </trkpt>
      <trkpt lat="44.453" lon="1.04785">
        <ele>212</ele>
        <time>2020-01-13T17:49:36Z</time>
      </trkpt>
      <trkpt lat="44.45292" lon="1.04786">
        <ele>212</ele>
        <time>2020-01-13T17:49:37Z</time>
      </trkpt>
      <trkpt lat="44.45288" lon="1.04787">
        <ele>211</ele>
        <time>2020-01-13T17:49:38Z</time>
      </trkpt>
      <trkpt lat="44.45272" lon="1.04791">
        <ele>211</ele>
        <time>2020-01-13T17:49:39Z</time>
      </trkpt>
      <trkpt lat="44.45269" lon="1.04792">
        <ele>212</ele>
        <time>2020-01-13T17:49:40Z</time>
      </trkpt>
      <trkpt lat="44.45266" lon="1.0479">
        <ele>211</ele>
        <time>2020-01-13T17:49:41Z</time>
      </trkpt>
      <trkpt lat="44.45264" lon="1.04788">
        <ele>211</ele>
        <time>2020-01-13T17:49:42Z</time>
      </trkpt>
      <trkpt lat="44.45265" lon="1.04778">
        <ele>211</ele>
        <time>2020-01-13T17:49:43Z</time>
      </trkpt>
      <trkpt lat="44.45267" lon="1.04773">
        <ele>211</ele>
        <time>2020-01-13T17:49:44Z</time>
      </trkpt>
      <trkpt lat="44.45268" lon="1.04771">
        <ele>211</ele>
        <time>2020-01-13T17:49:45Z</time>
      </trkpt>
      <trkpt lat="44.4527" lon="1.04771">
        <ele>211</ele>
        <time>2020-01-13T17:49:46Z</time>
      </trkpt>
      <trkpt lat="44.45274" lon="1.04767">
        <ele>211</ele>
        <time>2020-01-13T17:49:47Z</time>
      </trkpt>
      <trkpt lat="44.45283" lon="1.04761">
        <ele>211</ele>
        <time>2020-01-13T17:49:48Z</time>
      </trkpt>
      <trkpt lat="44.45294" lon="1.04755">
        <ele>212</ele>
        <time>2020-01-13T17:49:49Z</time>
      </trkpt>
      <trkpt lat="44.45301" lon="1.04753">
        <ele>212</ele>
        <time>2020-01-13T17:49:50Z</time>
      </trkpt>
      <trkpt lat="44.45306" lon="1.04751">
        <ele>212</ele>
        <time>2020-01-13T17:49:51Z</time>
      </trkpt>
      <trkpt lat="44.45309" lon="1.0475">
        <ele>212</ele>
        <time>2020-01-13T17:49:52Z</time>
      </trkpt>
      <trkpt lat="44.4532" lon="1.0474">
        <ele>211</ele>
        <time>2020-01-13T17:49:53Z</time>
      </trkpt>
      <trkpt lat="44.45326" lon="1.04734">
        <ele>211</ele>
        <time>2020-01-13T17:49:54Z</time>
      </trkpt>
      <trkpt lat="44.45337" lon="1.04718">
        <ele>210</ele>
        <time>2020-01-13T17:49:55Z</time>
      </trkpt>
      <trkpt lat="44.45342" lon="1.04711">
        <ele>210</ele>
        <time>2020-01-13T17:49:56Z</time>
      </trkpt>
      <trkpt lat="44.45346" lon="1.04702">
        <ele>209</ele>
        <time>2020-01-13T17:49:57Z</time>
      </trkpt>
      <trkpt lat="44.45348" lon="1.04698">
        <ele>209</ele>
        <time>2020-01-13T17:49:58Z</time>
      </trkpt>
      <trkpt lat="44.4535" lon="1.04694">
        <ele>209</ele>
        <time>2020-01-13T17:49:59Z</time>
      </trkpt>
      <trkpt lat="44.45352" lon="1.0469">
        <ele>209</ele>
        <time>2020-01-13T17:50:00Z</time>
      </trkpt>
      <trkpt lat="44.45355" lon="1.04685">
        <ele>209</ele>
        <time>2020-01-13T17:50:01Z</time>
      </trkpt>
      <trkpt lat="44.45363" lon="1.04671">
        <ele>208</ele>
        <time>2020-01-13T17:50:02Z</time>
      </trkpt>
      <trkpt lat="44.45369" lon="1.04662">
        <ele>208</ele>
        <time>2020-01-13T17:50:03Z</time>
      </trkpt>
      <trkpt lat="44.45372" lon="1.04657">
        <ele>208</ele>
        <time>2020-01-13T17:50:04Z</time>
      </trkpt>
      <trkpt lat="44.45374" lon="1.04653">
        <ele>208</ele>
        <time>2020-01-13T17:50:05Z</time>
      </trkpt>
      <trkpt lat="44.45377" lon="1.04648">
        <ele>208</ele>
        <time>2020-01-13T17:50:06Z</time>
      </trkpt>
      <trkpt lat="44.45385" lon="1.04634">
        <ele>208</ele>
        <time>2020-01-13T17:50:07Z</time>
      </trkpt>
      <trkpt lat="44.45389" lon="1.04625">
        <ele>208</ele>
        <time>2020-01-13T17:50:08Z</time>
      </trkpt>
      <trkpt lat="44.45392" lon="1.04621">
        <ele>208</ele>
        <time>2020-01-13T17:50:09Z</time>
      </trkpt>
      <trkpt lat="44.45394" lon="1.04616">
        <ele>208</ele>
        <time>2020-01-13T17:50:10Z</time>
      </trkpt>
      <trkpt lat="44.45398" lon="1.04607">
        <ele>208</ele>
        <time>2020-01-13T17:50:11Z</time>
      </trkpt>
      <trkpt lat="44.45408" lon="1.04582">
        <ele>207</ele>
        <time>2020-01-13T17:50:12Z</time>
      </trkpt>
      <trkpt lat="44.4541" lon="1.04576">
        <ele>208</ele>
        <time>2020-01-13T17:50:13Z</time>
      </trkpt>
      <trkpt lat="44.45413" lon="1.04564">
        <ele>208</ele>
        <time>2020-01-13T17:50:14Z</time>
      </trkpt>
      <trkpt lat="44.45415" lon="1.0456">
        <ele>208</ele>
        <time>2020-01-13T17:50:15Z</time>
      </trkpt>
      <trkpt lat="44.45417" lon="1.04554">
        <ele>208</ele>
        <time>2020-01-13T17:50:16Z</time>
      </trkpt>
      <trkpt lat="44.4542" lon="1.04551">
        <ele>209</ele>
        <time>2020-01-13T17:50:17Z</time>
      </trkpt>
      <trkpt lat="44.45423" lon="1.04547">
        <ele>209</ele>
        <time>2020-01-13T17:50:18Z</time>
      </trkpt>
      <trkpt lat="44.45426" lon="1.04544">
        <ele>209</ele>
        <time>2020-01-13T17:50:19Z</time>
      </trkpt>
      <trkpt lat="44.45431" lon="1.04537">
        <ele>209</ele>
        <time>2020-01-13T17:50:20Z</time>
      </trkpt>
      <trkpt lat="44.45441" lon="1.04527">
        <ele>210</ele>
        <time>2020-01-13T17:50:21Z</time>
      </trkpt>
      <trkpt lat="44.45443" lon="1.04524">
        <ele>210</ele>
        <time>2020-01-13T17:50:22Z</time>
      </trkpt>
      <trkpt lat="44.45446" lon="1.04522">
        <ele>210</ele>
        <time>2020-01-13T17:50:23Z</time>
      </trkpt>
      <trkpt lat="44.45448" lon="1.04519">
        <ele>210</ele>
        <time>2020-01-13T17:50:24Z</time>
      </trkpt>
      <trkpt lat="44.45449" lon="1.04516">
        <ele>210</ele>
        <time>2020-01-13T17:50:25Z</time>
      </trkpt>
      <trkpt lat="44.45453" lon="1.04507">
        <ele>210</ele>
        <time>2020-01-13T17:50:26Z</time>
      </trkpt>
      <trkpt lat="44.45455" lon="1.04502">
        <ele>210</ele>
        <time>2020-01-13T17:50:27Z</time>
      </trkpt>
      <trkpt lat="44.45464" lon="1.04476">
        <ele>210</ele>
        <time>2020-01-13T17:50:28Z</time>
      </trkpt>
      <trkpt lat="44.45466" lon="1.04471">
        <ele>210</ele>
        <time>2020-01-13T17:50:29Z</time>
      </trkpt>
      <trkpt lat="44.45468" lon="1.04466">
        <ele>211</ele>
        <time>2020-01-13T17:50:30Z</time>
      </trkpt>
      <trkpt lat="44.4547" lon="1.04457">
        <ele>211</ele>
        <time>2020-01-13T17:50:31Z</time>
      </trkpt>
      <trkpt lat="44.45472" lon="1.04454">
        <ele>211</ele>
        <time>2020-01-13T17:50:32Z</time>
      </trkpt>
      <trkpt lat="44.45474" lon="1.04451">
        <ele>211</ele>
        <time>2020-01-13T17:50:33Z</time>
      </trkpt>
      <trkpt lat="44.45477" lon="1.04448">
        <ele>211</ele>
        <time>2020-01-13T17:50:34Z</time>
      </trkpt>
      <trkpt lat="44.4548" lon="1.04447">
        <ele>211</ele>
        <time>2020-01-13T17:50:35Z</time>
      </trkpt>
      <trkpt lat="44.45493" lon="1.04446">
        <ele>211</ele>
        <time>2020-01-13T17:50:36Z</time>
      </trkpt>
      <trkpt lat="44.45509" lon="1.04443">
        <ele>210</ele>
        <time>2020-01-13T17:50:37Z</time>
      </trkpt>
      <trkpt lat="44.45525" lon="1.04442">
        <ele>209</ele>
        <time>2020-01-13T17:50:38Z</time>
      </trkpt>
      <trkpt lat="44.45535" lon="1.04443">
        <ele>208</ele>
        <time>2020-01-13T17:50:39Z</time>
      </trkpt>
      <trkpt lat="44.4554" lon="1.04444">
        <ele>207</ele>
        <time>2020-01-13T17:50:40Z</time>
      </trkpt>
      <trkpt lat="44.45551" lon="1.04447">
        <ele>206</ele>
        <time>2020-01-13T17:50:41Z</time>
      </trkpt>
      <trkpt lat="44.45555" lon="1.04447">
        <ele>206</ele>
        <time>2020-01-13T17:50:42Z</time>
      </trkpt>
      <trkpt lat="44.45567" lon="1.04452">
        <ele>205</ele>
        <time>2020-01-13T17:50:43Z</time>
      </trkpt>
      <trkpt lat="44.45569" lon="1.04452">
        <ele>205</ele>
        <time>2020-01-13T17:50:44Z</time>
      </trkpt>
      <trkpt lat="44.45573" lon="1.04452">
        <ele>204</ele>
        <time>2020-01-13T17:50:45Z</time>
      </trkpt>
      <trkpt lat="44.45576" lon="1.04452">
        <ele>204</ele>
        <time>2020-01-13T17:50:46Z</time>
      </trkpt>
      <trkpt lat="44.45582" lon="1.04452">
        <ele>204</ele>
        <time>2020-01-13T17:50:47Z</time>
      </trkpt>
      <trkpt lat="44.45589" lon="1.04452">
        <ele>203</ele>
        <time>2020-01-13T17:50:48Z</time>
      </trkpt>
      <trkpt lat="44.45596" lon="1.04453">
        <ele>202</ele>
        <time>2020-01-13T17:50:49Z</time>
      </trkpt>
      <trkpt lat="44.45615" lon="1.04454">
        <ele>199</ele>
        <time>2020-01-13T17:50:50Z</time>
      </trkpt>
      <trkpt lat="44.45626" lon="1.04456">
        <ele>198</ele>
        <time>2020-01-13T17:50:51Z</time>
      </trkpt>
      <trkpt lat="44.45632" lon="1.04458">
        <ele>197</ele>
        <time>2020-01-13T17:50:52Z</time>
      </trkpt>
      <trkpt lat="44.45639" lon="1.04459">
        <ele>196</ele>
        <time>2020-01-13T17:50:53Z</time>
      </trkpt>
      <trkpt lat="44.45655" lon="1.0446">
        <ele>194</ele>
        <time>2020-01-13T17:50:54Z</time>
      </trkpt>
      <trkpt lat="44.45673" lon="1.04459">
        <ele>192</ele>
        <time>2020-01-13T17:50:55Z</time>
      </trkpt>
      <trkpt lat="44.45692" lon="1.0446">
        <ele>190</ele>
        <time>2020-01-13T17:50:56Z</time>
      </trkpt>
      <trkpt lat="44.45722" lon="1.04463">
        <ele>186</ele>
        <time>2020-01-13T17:50:57Z</time>
      </trkpt>
      <trkpt lat="44.45759" lon="1.04465">
        <ele>183</ele>
        <time>2020-01-13T17:50:58Z</time>
      </trkpt>
      <trkpt lat="44.45794" lon="1.0447">
        <ele>181</ele>
        <time>2020-01-13T17:50:59Z</time>
      </trkpt>
      <trkpt lat="44.45802" lon="1.04471">
        <ele>181</ele>
        <time>2020-01-13T17:51:00Z</time>
      </trkpt>
      <trkpt lat="44.45818" lon="1.04471">
        <ele>180</ele>
        <time>2020-01-13T17:51:01Z</time>
      </trkpt>
      <trkpt lat="44.45825" lon="1.0447">
        <ele>180</ele>
        <time>2020-01-13T17:51:02Z</time>
      </trkpt>
      <trkpt lat="44.45832" lon="1.04467">
        <ele>179</ele>
        <time>2020-01-13T17:51:03Z</time>
      </trkpt>
      <trkpt lat="44.45842" lon="1.04461">
        <ele>180</ele>
        <time>2020-01-13T17:51:04Z</time>
      </trkpt>
      <trkpt lat="44.45849" lon="1.04455">
        <ele>181</ele>
        <time>2020-01-13T17:51:05Z</time>
      </trkpt>
      <trkpt lat="44.45852" lon="1.04451">
        <ele>181</ele>
        <time>2020-01-13T17:51:06Z</time>
      </trkpt>
      <trkpt lat="44.45862" lon="1.04439">
        <ele>182</ele>
        <time>2020-01-13T17:51:07Z</time>
      </trkpt>
      <trkpt lat="44.45871" lon="1.04428">
        <ele>182</ele>
        <time>2020-01-13T17:51:08Z</time>
      </trkpt>
      <trkpt lat="44.45875" lon="1.04425">
        <ele>182</ele>
        <time>2020-01-13T17:51:09Z</time>
      </trkpt>
      <trkpt lat="44.4588" lon="1.04418">
        <ele>182</ele>
        <time>2020-01-13T17:51:10Z</time>
      </trkpt>
      <trkpt lat="44.45886" lon="1.04411">
        <ele>183</ele>
        <time>2020-01-13T17:51:11Z</time>
      </trkpt>
      <trkpt lat="44.4589" lon="1.04408">
        <ele>183</ele>
        <time>2020-01-13T17:51:12Z</time>
      </trkpt>
      <trkpt lat="44.45894" lon="1.04404">
        <ele>183</ele>
        <time>2020-01-13T17:51:13Z</time>
      </trkpt>
      <trkpt lat="44.45895" lon="1.04403">
        <ele>183</ele>
        <time>2020-01-13T17:51:14Z</time>
      </trkpt>
      <trkpt lat="44.45896" lon="1.04402">
        <ele>183</ele>
        <time>2020-01-13T17:51:15Z</time>
      </trkpt>
      <trkpt lat="44.45898" lon="1.044">
        <ele>183</ele>
        <time>2020-01-13T17:51:16Z</time>
      </trkpt>
      <trkpt lat="44.45901" lon="1.04396">
        <ele>183</ele>
        <time>2020-01-13T17:51:17Z</time>
      </trkpt>
      <trkpt lat="44.45907" lon="1.04386">
        <ele>183</ele>
        <time>2020-01-13T17:51:18Z</time>
      </trkpt>
      <trkpt lat="44.45911" lon="1.04381">
        <ele>183</ele>
        <time>2020-01-13T17:51:19Z</time>
      </trkpt>
      <trkpt lat="44.45919" lon="1.04368">
        <ele>182</ele>
        <time>2020-01-13T17:51:20Z</time>
      </trkpt>
      <trkpt lat="44.45921" lon="1.04364">
        <ele>182</ele>
        <time>2020-01-13T17:51:21Z</time>
      </trkpt>
      <trkpt lat="44.4593" lon="1.0435">
        <ele>181</ele>
        <time>2020-01-13T17:51:22Z</time>
      </trkpt>
      <trkpt lat="44.45934" lon="1.04344">
        <ele>181</ele>
        <time>2020-01-13T17:51:23Z</time>
      </trkpt>
      <trkpt lat="44.45937" lon="1.04341">
        <ele>181</ele>
        <time>2020-01-13T17:51:24Z</time>
      </trkpt>
      <trkpt lat="44.45939" lon="1.04336">
        <ele>180</ele>
        <time>2020-01-13T17:51:25Z</time>
      </trkpt>
      <trkpt lat="44.45942" lon="1.04331">
        <ele>180</ele>
        <time>2020-01-13T17:51:26Z</time>
      </trkpt>
      <trkpt lat="44.45948" lon="1.04323">
        <ele>180</ele>
        <time>2020-01-13T17:51:27Z</time>
      </trkpt>
      <trkpt lat="44.45951" lon="1.04319">
        <ele>180</ele>
        <time>2020-01-13T17:51:28Z</time>
      </trkpt>
      <trkpt lat="44.45954" lon="1.04315">
        <ele>180</ele>
        <time>2020-01-13T17:51:29Z</time>
      </trkpt>
      <trkpt lat="44.45958" lon="1.04311">
        <ele>180</ele>
        <time>2020-01-13T17:51:30Z</time>
      </trkpt>
      <trkpt lat="44.45972" lon="1.04297">
        <ele>179</ele>
        <time>2020-01-13T17:51:31Z</time>
      </trkpt>
      <trkpt lat="44.45978" lon="1.04293">
        <ele>179</ele>
        <time>2020-01-13T17:51:32Z</time>
      </trkpt>
      <trkpt lat="44.45989" lon="1.04285">
        <ele>179</ele>
        <time>2020-01-13T17:51:33Z</time>
      </trkpt>
      <trkpt lat="44.46" lon="1.04275">
        <ele>177</ele>
        <time>2020-01-13T17:51:34Z</time>
      </trkpt>
      <trkpt lat="44.46006" lon="1.04271">
        <ele>178</ele>
        <time>2020-01-13T17:51:35Z</time>
      </trkpt>
      <trkpt lat="44.46016" lon="1.04265">
        <ele>178</ele>
        <time>2020-01-13T17:51:36Z</time>
      </trkpt>
      <trkpt lat="44.4602" lon="1.04261">
        <ele>178</ele>
        <time>2020-01-13T17:51:37Z</time>
      </trkpt>
      <trkpt lat="44.46024" lon="1.04256">
        <ele>178</ele>
        <time>2020-01-13T17:51:38Z</time>
      </trkpt>
      <trkpt lat="44.46033" lon="1.04246">
        <ele>179</ele>
        <time>2020-01-13T17:51:39Z</time>
      </trkpt>
      <trkpt lat="44.46038" lon="1.04244">
        <ele>179</ele>
        <time>2020-01-13T17:51:40Z</time>
      </trkpt>
      <trkpt lat="44.46043" lon="1.04242">
        <ele>180</ele>
        <time>2020-01-13T17:51:41Z</time>
      </trkpt>
      <trkpt lat="44.46051" lon="1.04238">
        <ele>181</ele>
        <time>2020-01-13T17:51:42Z</time>
      </trkpt>
      <trkpt lat="44.46056" lon="1.04236">
        <ele>181</ele>
        <time>2020-01-13T17:51:43Z</time>
      </trkpt>
      <trkpt lat="44.46061" lon="1.04236">
        <ele>182</ele>
        <time>2020-01-13T17:51:44Z</time>
      </trkpt>
      <trkpt lat="44.46074" lon="1.04233">
        <ele>184</ele>
        <time>2020-01-13T17:51:45Z</time>
      </trkpt>
      <trkpt lat="44.46078" lon="1.04233">
        <ele>184</ele>
        <time>2020-01-13T17:51:46Z</time>
      </trkpt>
      <trkpt lat="44.46083" lon="1.04234">
        <ele>185</ele>
        <time>2020-01-13T17:51:47Z</time>
      </trkpt>
      <trkpt lat="44.46087" lon="1.04235">
        <ele>185</ele>
        <time>2020-01-13T17:51:48Z</time>
      </trkpt>
      <trkpt lat="44.46089" lon="1.04237">
        <ele>185</ele>
        <time>2020-01-13T17:51:49Z</time>
      </trkpt>
      <trkpt lat="44.46096" lon="1.04242">
        <ele>186</ele>
        <time>2020-01-13T17:51:50Z</time>
      </trkpt>
      <trkpt lat="44.46103" lon="1.04243">
        <ele>187</ele>
        <time>2020-01-13T17:51:51Z</time>
      </trkpt>
      <trkpt lat="44.46106" lon="1.04244">
        <ele>187</ele>
        <time>2020-01-13T17:51:52Z</time>
      </trkpt>
      <trkpt lat="44.46108" lon="1.04244">
        <ele>188</ele>
        <time>2020-01-13T17:51:53Z</time>
      </trkpt>
      <trkpt lat="44.46111" lon="1.04243">
        <ele>188</ele>
        <time>2020-01-13T17:51:54Z</time>
      </trkpt>
      <trkpt lat="44.46112" lon="1.04242">
        <ele>188</ele>
        <time>2020-01-13T17:51:55Z</time>
      </trkpt>
      <trkpt lat="44.46115" lon="1.04241">
        <ele>189</ele>
        <time>2020-01-13T17:51:56Z</time>
      </trkpt>
      <trkpt lat="44.46118" lon="1.04242">
        <ele>189</ele>
        <time>2020-01-13T17:51:57Z</time>
      </trkpt>
      <trkpt lat="44.46121" lon="1.04242">
        <ele>190</ele>
        <time>2020-01-13T17:51:58Z</time>
      </trkpt>
      <trkpt lat="44.46124" lon="1.0424">
        <ele>190</ele>
        <time>2020-01-13T17:51:59Z</time>
      </trkpt>
      <trkpt lat="44.46126" lon="1.04239">
        <ele>190</ele>
        <time>2020-01-13T17:52:00Z</time>
      </trkpt>
      <trkpt lat="44.46128" lon="1.04238">
        <ele>191</ele>
        <time>2020-01-13T17:52:01Z</time>
      </trkpt>
      <trkpt lat="44.4613" lon="1.04236">
        <ele>191</ele>
        <time>2020-01-13T17:52:02Z</time>
      </trkpt>
      <trkpt lat="44.46132" lon="1.04235">
        <ele>192</ele>
        <time>2020-01-13T17:52:03Z</time>
      </trkpt>
      <trkpt lat="44.46133" lon="1.04234">
        <ele>192</ele>
        <time>2020-01-13T17:52:04Z</time>
      </trkpt>
      <trkpt lat="44.46136" lon="1.0423">
        <ele>193</ele>
        <time>2020-01-13T17:52:05Z</time>
      </trkpt>
      <trkpt lat="44.46139" lon="1.04228">
        <ele>193</ele>
        <time>2020-01-13T17:52:06Z</time>
      </trkpt>
      <trkpt lat="44.46148" lon="1.04223">
        <ele>195</ele>
        <time>2020-01-13T17:52:07Z</time>
      </trkpt>
      <trkpt lat="44.46151" lon="1.0422">
        <ele>196</ele>
        <time>2020-01-13T17:52:08Z</time>
      </trkpt>
      <trkpt lat="44.46154" lon="1.04221">
        <ele>196</ele>
        <time>2020-01-13T17:52:09Z</time>
      </trkpt>
      <trkpt lat="44.46157" lon="1.04219">
        <ele>197</ele>
        <time>2020-01-13T17:52:10Z</time>
      </trkpt>
      <trkpt lat="44.46159" lon="1.04219">
        <ele>197</ele>
        <time>2020-01-13T17:52:11Z</time>
      </trkpt>
      <trkpt lat="44.46162" lon="1.0422">
        <ele>198</ele>
        <time>2020-01-13T17:52:12Z</time>
      </trkpt>
      <trkpt lat="44.46168" lon="1.04221">
        <ele>198</ele>
        <time>2020-01-13T17:52:13Z</time>
      </trkpt>
      <trkpt lat="44.46171" lon="1.04219">
        <ele>199</ele>
        <time>2020-01-13T17:52:14Z</time>
      </trkpt>
      <trkpt lat="44.46175" lon="1.0422">
        <ele>199</ele>
        <time>2020-01-13T17:52:15Z</time>
      </trkpt>
      <trkpt lat="44.46181" lon="1.04221">
        <ele>199</ele>
        <time>2020-01-13T17:52:16Z</time>
      </trkpt>
      <trkpt lat="44.46184" lon="1.04221">
        <ele>200</ele>
        <time>2020-01-13T17:52:17Z</time>
      </trkpt>
      <trkpt lat="44.46187" lon="1.04221">
        <ele>200</ele>
        <time>2020-01-13T17:52:18Z</time>
      </trkpt>
      <trkpt lat="44.4619" lon="1.0422">
        <ele>200</ele>
        <time>2020-01-13T17:52:19Z</time>
      </trkpt>
      <trkpt lat="44.46192" lon="1.04219">
        <ele>201</ele>
        <time>2020-01-13T17:52:20Z</time>
      </trkpt>
      <trkpt lat="44.46196" lon="1.04218">
        <ele>201</ele>
        <time>2020-01-13T17:52:21Z</time>
      </trkpt>
      <trkpt lat="44.46199" lon="1.04217">
        <ele>202</ele>
        <time>2020-01-13T17:52:22Z</time>
      </trkpt>
      <trkpt lat="44.46204" lon="1.04218">
        <ele>202</ele>
        <time>2020-01-13T17:52:23Z</time>
      </trkpt>
      <trkpt lat="44.46206" lon="1.04217">
        <ele>202</ele>
        <time>2020-01-13T17:52:24Z</time>
      </trkpt>
      <trkpt lat="44.46208" lon="1.04218">
        <ele>202</ele>
        <time>2020-01-13T17:52:25Z</time>
      </trkpt>
      <trkpt lat="44.46211" lon="1.04217">
        <ele>203</ele>
        <time>2020-01-13T17:52:26Z</time>
      </trkpt>
      <trkpt lat="44.46213" lon="1.04216">
        <ele>203</ele>
        <time>2020-01-13T17:52:27Z</time>
      </trkpt>
      <trkpt lat="44.46215" lon="1.04215">
        <ele>203</ele>
        <time>2020-01-13T17:52:28Z</time>
      </trkpt>
      <trkpt lat="44.46216" lon="1.04216">
        <ele>203</ele>
        <time>2020-01-13T17:52:29Z</time>
      </trkpt>
      <trkpt lat="44.46218" lon="1.04217">
        <ele>203</ele>
        <time>2020-01-13T17:52:30Z</time>
      </trkpt>
      <trkpt lat="44.46227" lon="1.0422">
        <ele>204</ele>
        <time>2020-01-13T17:52:31Z</time>
      </trkpt>
      <trkpt lat="44.4623" lon="1.0422">
        <ele>204</ele>
        <time>2020-01-13T17:52:32Z</time>
      </trkpt>
      <trkpt lat="44.46231" lon="1.04221">
        <ele>204</ele>
        <time>2020-01-13T17:52:33Z</time>
      </trkpt>
      <trkpt lat="44.46235" lon="1.04219">
        <ele>205</ele>
        <time>2020-01-13T17:52:34Z</time>
      </trkpt>
      <trkpt lat="44.46237" lon="1.04218">
        <ele>205</ele>
        <time>2020-01-13T17:52:35Z</time>
      </trkpt>
      <trkpt lat="44.46239" lon="1.04218">
        <ele>205</ele>
        <time>2020-01-13T17:52:36Z</time>
      </trkpt>
      <trkpt lat="44.46242" lon="1.04218">
        <ele>205</ele>
        <time>2020-01-13T17:52:37Z</time>
      </trkpt>
      <trkpt lat="44.46244" lon="1.04219">
        <ele>205</ele>
        <time>2020-01-13T17:52:38Z</time>
      </trkpt>
      <trkpt lat="44.46248" lon="1.04218">
        <ele>206</ele>
        <time>2020-01-13T17:52:39Z</time>
      </trkpt>
      <trkpt lat="44.46249" lon="1.04218">
        <ele>206</ele>
        <time>2020-01-13T17:52:40Z</time>
      </trkpt>
      <trkpt lat="44.46251" lon="1.04217">
        <ele>206</ele>
        <time>2020-01-13T17:52:41Z</time>
      </trkpt>
      <trkpt lat="44.46256" lon="1.04218">
        <ele>206</ele>
        <time>2020-01-13T17:52:42Z</time>
      </trkpt>
      <trkpt lat="44.46262" lon="1.04219">
        <ele>206</ele>
        <time>2020-01-13T17:52:43Z</time>
      </trkpt>
      <trkpt lat="44.46267" lon="1.04215">
        <ele>207</ele>
        <time>2020-01-13T17:52:44Z</time>
      </trkpt>
      <trkpt lat="44.4627" lon="1.04213">
        <ele>207</ele>
        <time>2020-01-13T17:52:45Z</time>
      </trkpt>
      <trkpt lat="44.46272" lon="1.04211">
        <ele>207</ele>
        <time>2020-01-13T17:52:46Z</time>
      </trkpt>
      <trkpt lat="44.46274" lon="1.0421">
        <ele>208</ele>
        <time>2020-01-13T17:52:47Z</time>
      </trkpt>
      <trkpt lat="44.46276" lon="1.04209">
        <ele>208</ele>
        <time>2020-01-13T17:52:48Z</time>
      </trkpt>
      <trkpt lat="44.46278" lon="1.0421">
        <ele>208</ele>
        <time>2020-01-13T17:52:49Z</time>
      </trkpt>
      <trkpt lat="44.4628" lon="1.04208">
        <ele>208</ele>
        <time>2020-01-13T17:52:50Z</time>
      </trkpt>
      <trkpt lat="44.46282" lon="1.04207">
        <ele>208</ele>
        <time>2020-01-13T17:52:51Z</time>
      </trkpt>
      <trkpt lat="44.46284" lon="1.04207">
        <ele>208</ele>
        <time>2020-01-13T17:52:52Z</time>
      </trkpt>
      <trkpt lat="44.46289" lon="1.04206">
        <ele>208</ele>
        <time>2020-01-13T17:52:53Z</time>
      </trkpt>
      <trkpt lat="44.46291" lon="1.04206">
        <ele>208</ele>
        <time>2020-01-13T17:52:54Z</time>
      </trkpt>
      <trkpt lat="44.46295" lon="1.04206">
        <ele>208</ele>
        <time>2020-01-13T17:52:55Z</time>
      </trkpt>
      <trkpt lat="44.46299" lon="1.04206">
        <ele>209</ele>
        <time>2020-01-13T17:52:56Z</time>
      </trkpt>
      <trkpt lat="44.463" lon="1.04206">
        <ele>209</ele>
        <time>2020-01-13T17:52:57Z</time>
      </trkpt>
      <trkpt lat="44.46305" lon="1.04206">
        <ele>209</ele>
        <time>2020-01-13T17:52:58Z</time>
      </trkpt>
      <trkpt lat="44.4631" lon="1.04206">
        <ele>209</ele>
        <time>2020-01-13T17:52:59Z</time>
      </trkpt>
      <trkpt lat="44.46313" lon="1.04207">
        <ele>209</ele>
        <time>2020-01-13T17:53:00Z</time>
      </trkpt>
      <trkpt lat="44.46318" lon="1.04209">
        <ele>209</ele>
        <time>2020-01-13T17:53:01Z</time>
      </trkpt>
      <trkpt lat="44.46323" lon="1.04212">
        <ele>209</ele>
        <time>2020-01-13T17:53:02Z</time>
      </trkpt>
      <trkpt lat="44.46325" lon="1.04212">
        <ele>209</ele>
        <time>2020-01-13T17:53:03Z</time>
      </trkpt>
      <trkpt lat="44.4633" lon="1.04212">
        <ele>209</ele>
        <time>2020-01-13T17:53:04Z</time>
      </trkpt>
      <trkpt lat="44.46342" lon="1.04213">
        <ele>210</ele>
        <time>2020-01-13T17:53:05Z</time>
      </trkpt>
      <trkpt lat="44.46344" lon="1.04213">
        <ele>210</ele>
        <time>2020-01-13T17:53:06Z</time>
      </trkpt>
      <trkpt lat="44.46351" lon="1.04214">
        <ele>210</ele>
        <time>2020-01-13T17:53:07Z</time>
      </trkpt>
      <trkpt lat="44.4636" lon="1.04215">
        <ele>211</ele>
        <time>2020-01-13T17:53:08Z</time>
      </trkpt>
      <trkpt lat="44.46367" lon="1.04215">
        <ele>211</ele>
        <time>2020-01-13T17:53:09Z</time>
      </trkpt>
      <trkpt lat="44.46375" lon="1.04216">
        <ele>211</ele>
        <time>2020-01-13T17:53:10Z</time>
      </trkpt>
      <trkpt lat="44.46386" lon="1.04216">
        <ele>212</ele>
        <time>2020-01-13T17:53:11Z</time>
      </trkpt>
      <trkpt lat="44.46395" lon="1.04218">
        <ele>212</ele>
        <time>2020-01-13T17:53:12Z</time>
      </trkpt>
      <trkpt lat="44.46404" lon="1.04218">
        <ele>213</ele>
        <time>2020-01-13T17:53:13Z</time>
      </trkpt>
      <trkpt lat="44.46407" lon="1.04218">
        <ele>213</ele>
        <time>2020-01-13T17:53:14Z</time>
      </trkpt>
      <trkpt lat="44.46415" lon="1.04218">
        <ele>213</ele>
        <time>2020-01-13T17:53:15Z</time>
      </trkpt>
      <trkpt lat="44.46423" lon="1.04218">
        <ele>214</ele>
        <time>2020-01-13T17:53:16Z</time>
      </trkpt>
      <trkpt lat="44.46425" lon="1.04219">
        <ele>214</ele>
        <time>2020-01-13T17:53:17Z</time>
      </trkpt>
      <trkpt lat="44.46427" lon="1.04219">
        <ele>214</ele>
        <time>2020-01-13T17:53:18Z</time>
      </trkpt>
      <trkpt lat="44.46429" lon="1.04218">
        <ele>214</ele>
        <time>2020-01-13T17:53:19Z</time>
      </trkpt>
      <trkpt lat="44.46434" lon="1.04218">
        <ele>215</ele>
        <time>2020-01-13T17:53:20Z</time>
      </trkpt>
      <trkpt lat="44.46441" lon="1.04218">
        <ele>215</ele>
        <time>2020-01-13T17:53:21Z</time>
      </trkpt>
      <trkpt lat="44.46443" lon="1.04218">
        <ele>215</ele>
        <time>2020-01-13T17:53:22Z</time>
      </trkpt>
      <trkpt lat="44.46447" lon="1.04217">
        <ele>216</ele>
        <time>2020-01-13T17:53:23Z</time>
      </trkpt>
      <trkpt lat="44.46453" lon="1.04218">
        <ele>216</ele>
        <time>2020-01-13T17:53:24Z</time>
      </trkpt>
      <trkpt lat="44.46462" lon="1.04218">
        <ele>217</ele>
        <time>2020-01-13T17:53:25Z</time>
      </trkpt>
      <trkpt lat="44.46469" lon="1.04218">
        <ele>217</ele>
        <time>2020-01-13T17:53:26Z</time>
      </trkpt>
      <trkpt lat="44.46471" lon="1.04219">
        <ele>217</ele>
        <time>2020-01-13T17:53:27Z</time>
      </trkpt>
      <trkpt lat="44.46483" lon="1.04219">
        <ele>218</ele>
        <time>2020-01-13T17:53:28Z</time>
      </trkpt>
      <trkpt lat="44.46485" lon="1.0422">
        <ele>219</ele>
        <time>2020-01-13T17:53:29Z</time>
      </trkpt>
      <trkpt lat="44.46492" lon="1.04221">
        <ele>219</ele>
        <time>2020-01-13T17:53:30Z</time>
      </trkpt>
      <trkpt lat="44.46494" lon="1.04221">
        <ele>219</ele>
        <time>2020-01-13T17:53:31Z</time>
      </trkpt>
      <trkpt lat="44.465" lon="1.04222">
        <ele>220</ele>
        <time>2020-01-13T17:53:32Z</time>
      </trkpt>
      <trkpt lat="44.46505" lon="1.04222">
        <ele>220</ele>
        <time>2020-01-13T17:53:33Z</time>
      </trkpt>
      <trkpt lat="44.46521" lon="1.04222">
        <ele>221</ele>
        <time>2020-01-13T17:53:34Z</time>
      </trkpt>
      <trkpt lat="44.46541" lon="1.04224">
        <ele>222</ele>
        <time>2020-01-13T17:53:35Z</time>
      </trkpt>
      <trkpt lat="44.46548" lon="1.04223">
        <ele>223</ele>
        <time>2020-01-13T17:53:36Z</time>
      </trkpt>
      <trkpt lat="44.46555" lon="1.04222">
        <ele>223</ele>
        <time>2020-01-13T17:53:37Z</time>
      </trkpt>
      <trkpt lat="44.46558" lon="1.04223">
        <ele>224</ele>
        <time>2020-01-13T17:53:38Z</time>
      </trkpt>
      <trkpt lat="44.46561" lon="1.04223">
        <ele>224</ele>
        <time>2020-01-13T17:53:39Z</time>
      </trkpt>
      <trkpt lat="44.46568" lon="1.0422">
        <ele>224</ele>
        <time>2020-01-13T17:53:40Z</time>
      </trkpt>
      <trkpt lat="44.46574" lon="1.04217">
        <ele>225</ele>
        <time>2020-01-13T17:53:41Z</time>
      </trkpt>
      <trkpt lat="44.46578" lon="1.04215">
        <ele>225</ele>
        <time>2020-01-13T17:53:42Z</time>
      </trkpt>
      <trkpt lat="44.46583" lon="1.04215">
        <ele>225</ele>
        <time>2020-01-13T17:53:43Z</time>
      </trkpt>
      <trkpt lat="44.46587" lon="1.04213">
        <ele>225</ele>
        <time>2020-01-13T17:53:44Z</time>
      </trkpt>
      <trkpt lat="44.46589" lon="1.04211">
        <ele>226</ele>
        <time>2020-01-13T17:53:45Z</time>
      </trkpt>
      <trkpt lat="44.46592" lon="1.0421">
        <ele>226</ele>
        <time>2020-01-13T17:53:46Z</time>
      </trkpt>
      <trkpt lat="44.46595" lon="1.04208">
        <ele>226</ele>
        <time>2020-01-13T17:53:47Z</time>
      </trkpt>
      <trkpt lat="44.46597" lon="1.04206">
        <ele>226</ele>
        <time>2020-01-13T17:53:48Z</time>
      </trkpt>
      <trkpt lat="44.46598" lon="1.04203">
        <ele>226</ele>
        <time>2020-01-13T17:53:49Z</time>
      </trkpt>
      <trkpt lat="44.466" lon="1.04202">
        <ele>226</ele>
        <time>2020-01-13T17:53:50Z</time>
      </trkpt>
      <trkpt lat="44.46603" lon="1.04201">
        <ele>226</ele>
        <time>2020-01-13T17:53:51Z</time>
      </trkpt>
      <trkpt lat="44.46605" lon="1.042">
        <ele>226</ele>
        <time>2020-01-13T17:53:52Z</time>
      </trkpt>
      <trkpt lat="44.46607" lon="1.04199">
        <ele>226</ele>
        <time>2020-01-13T17:53:53Z</time>
      </trkpt>
      <trkpt lat="44.46609" lon="1.04199">
        <ele>226</ele>
        <time>2020-01-13T17:53:54Z</time>
      </trkpt>
      <trkpt lat="44.46611" lon="1.04198">
        <ele>226</ele>
        <time>2020-01-13T17:53:55Z</time>
      </trkpt>
      <trkpt lat="44.46613" lon="1.04196">
        <ele>226</ele>
        <time>2020-01-13T17:53:56Z</time>
      </trkpt>
      <trkpt lat="44.46621" lon="1.04192">
        <ele>226</ele>
        <time>2020-01-13T17:53:57Z</time>
      </trkpt>
      <trkpt lat="44.46625" lon="1.0419">
        <ele>226</ele>
        <time>2020-01-13T17:53:58Z</time>
      </trkpt>
      <trkpt lat="44.46633" lon="1.04189">
        <ele>227</ele>
        <time>2020-01-13T17:53:59Z</time>
      </trkpt>
      <trkpt lat="44.46638" lon="1.04188">
        <ele>227</ele>
        <time>2020-01-13T17:54:00Z</time>
      </trkpt>
      <trkpt lat="44.46647" lon="1.04187">
        <ele>227</ele>
        <time>2020-01-13T17:54:01Z</time>
      </trkpt>
      <trkpt lat="44.46653" lon="1.04188">
        <ele>227</ele>
        <time>2020-01-13T17:54:02Z</time>
      </trkpt>
      <trkpt lat="44.46656" lon="1.04188">
        <ele>227</ele>
        <time>2020-01-13T17:54:03Z</time>
      </trkpt>
      <trkpt lat="44.46658" lon="1.04189">
        <ele>227</ele>
        <time>2020-01-13T17:54:04Z</time>
      </trkpt>
      <trkpt lat="44.46661" lon="1.04189">
        <ele>227</ele>
        <time>2020-01-13T17:54:05Z</time>
      </trkpt>
      <trkpt lat="44.46664" lon="1.04188">
        <ele>227</ele>
        <time>2020-01-13T17:54:06Z</time>
      </trkpt>
      <trkpt lat="44.46671" lon="1.04188">
        <ele>227</ele>
        <time>2020-01-13T17:54:07Z</time>
      </trkpt>
      <trkpt lat="44.46674" lon="1.04187">
        <ele>227</ele>
        <time>2020-01-13T17:54:08Z</time>
      </trkpt>
      <trkpt lat="44.46677" lon="1.04186">
        <ele>227</ele>
        <time>2020-01-13T17:54:09Z</time>
      </trkpt>
      <trkpt lat="44.46681" lon="1.04185">
        <ele>227</ele>
        <time>2020-01-13T17:54:10Z</time>
      </trkpt>
      <trkpt lat="44.46692" lon="1.04183">
        <ele>227</ele>
        <time>2020-01-13T17:54:11Z</time>
      </trkpt>
      <trkpt lat="44.46702" lon="1.04183">
        <ele>227</ele>
        <time>2020-01-13T17:54:12Z</time>
      </trkpt>
      <trkpt lat="44.46706" lon="1.04183">
        <ele>227</ele>
        <time>2020-01-13T17:54:13Z</time>
      </trkpt>
      <trkpt lat="44.46709" lon="1.04183">
        <ele>227</ele>
        <time>2020-01-13T17:54:14Z</time>
      </trkpt>
      <trkpt lat="44.46713" lon="1.04185">
        <ele>226</ele>
        <time>2020-01-13T17:54:15Z</time>
      </trkpt>
      <trkpt lat="44.46726" lon="1.04188">
        <ele>226</ele>
        <time>2020-01-13T17:54:16Z</time>
      </trkpt>
      <trkpt lat="44.46735" lon="1.04189">
        <ele>226</ele>
        <time>2020-01-13T17:54:17Z</time>
      </trkpt>
      <trkpt lat="44.46742" lon="1.04191">
        <ele>226</ele>
        <time>2020-01-13T17:54:18Z</time>
      </trkpt>
      <trkpt lat="44.46753" lon="1.04191">
        <ele>226</ele>
        <time>2020-01-13T17:54:19Z</time>
      </trkpt>
      <trkpt lat="44.46763" lon="1.04191">
        <ele>225</ele>
        <time>2020-01-13T17:54:20Z</time>
      </trkpt>
      <trkpt lat="44.46772" lon="1.04191">
        <ele>225</ele>
        <time>2020-01-13T17:54:21Z</time>
      </trkpt>
      <trkpt lat="44.46776" lon="1.04192">
        <ele>225</ele>
        <time>2020-01-13T17:54:22Z</time>
      </trkpt>
      <trkpt lat="44.4678" lon="1.04192">
        <ele>225</ele>
        <time>2020-01-13T17:54:23Z</time>
      </trkpt>
      <trkpt lat="44.46784" lon="1.04193">
        <ele>225</ele>
        <time>2020-01-13T17:54:24Z</time>
      </trkpt>
      <trkpt lat="44.46801" lon="1.042">
        <ele>224</ele>
        <time>2020-01-13T17:54:25Z</time>
      </trkpt>
      <trkpt lat="44.46814" lon="1.04204">
        <ele>224</ele>
        <time>2020-01-13T17:54:26Z</time>
      </trkpt>
      <trkpt lat="44.46818" lon="1.04206">
        <ele>224</ele>
        <time>2020-01-13T17:54:27Z</time>
      </trkpt>
      <trkpt lat="44.46833" lon="1.04212">
        <ele>224</ele>
        <time>2020-01-13T17:54:28Z</time>
      </trkpt>
      <trkpt lat="44.46844" lon="1.04218">
        <ele>223</ele>
        <time>2020-01-13T17:54:29Z</time>
      </trkpt>
      <trkpt lat="44.46859" lon="1.04225">
        <ele>223</ele>
        <time>2020-01-13T17:54:30Z</time>
      </trkpt>
      <trkpt lat="44.46862" lon="1.04226">
        <ele>223</ele>
        <time>2020-01-13T17:54:31Z</time>
      </trkpt>
      <trkpt lat="44.46883" lon="1.04232">
        <ele>222</ele>
        <time>2020-01-13T17:54:32Z</time>
      </trkpt>
      <trkpt lat="44.46892" lon="1.04234">
        <ele>222</ele>
        <time>2020-01-13T17:54:33Z</time>
      </trkpt>
      <trkpt lat="44.46896" lon="1.04236">
        <ele>222</ele>
        <time>2020-01-13T17:54:34Z</time>
      </trkpt>
      <trkpt lat="44.46901" lon="1.04238">
        <ele>222</ele>
        <time>2020-01-13T17:54:35Z</time>
      </trkpt>
      <trkpt lat="44.4691" lon="1.04242">
        <ele>221</ele>
        <time>2020-01-13T17:54:36Z</time>
      </trkpt>
      <trkpt lat="44.4692" lon="1.04246">
        <ele>221</ele>
        <time>2020-01-13T17:54:37Z</time>
      </trkpt>
      <trkpt lat="44.4695" lon="1.04256">
        <ele>218</ele>
        <time>2020-01-13T17:54:38Z</time>
      </trkpt>
      <trkpt lat="44.46957" lon="1.04259">
        <ele>217</ele>
        <time>2020-01-13T17:54:39Z</time>
      </trkpt>
      <trkpt lat="44.4696" lon="1.0426">
        <ele>217</ele>
        <time>2020-01-13T17:54:40Z</time>
      </trkpt>
      <trkpt lat="44.46962" lon="1.04259">
        <ele>217</ele>
        <time>2020-01-13T17:54:41Z</time>
      </trkpt>
      <trkpt lat="44.46964" lon="1.04257">
        <ele>217</ele>
        <time>2020-01-13T17:54:42Z</time>
      </trkpt>
      <trkpt lat="44.46967" lon="1.04251">
        <ele>217</ele>
        <time>2020-01-13T17:54:43Z</time>
      </trkpt>
      <trkpt lat="44.46968" lon="1.04246">
        <ele>217</ele>
        <time>2020-01-13T17:54:44Z</time>
      </trkpt>
      <trkpt lat="44.4697" lon="1.04242">
        <ele>217</ele>
        <time>2020-01-13T17:54:45Z</time>
      </trkpt>
      <trkpt lat="44.46978" lon="1.04225">
        <ele>216</ele>
        <time>2020-01-13T17:54:46Z</time>
      </trkpt>
      <trkpt lat="44.46981" lon="1.04221">
        <ele>216</ele>
        <time>2020-01-13T17:54:47Z</time>
      </trkpt>
      <trkpt lat="44.46987" lon="1.04208">
        <ele>216</ele>
        <time>2020-01-13T17:54:48Z</time>
      </trkpt>
      <trkpt lat="44.4699" lon="1.04204">
        <ele>216</ele>
        <time>2020-01-13T17:54:49Z</time>
      </trkpt>
      <trkpt lat="44.46992" lon="1.04199">
        <ele>216</ele>
        <time>2020-01-13T17:54:50Z</time>
      </trkpt>
      <trkpt lat="44.46997" lon="1.04188">
        <ele>216</ele>
        <time>2020-01-13T17:54:51Z</time>
      </trkpt>
      <trkpt lat="44.47" lon="1.04183">
        <ele>216</ele>
        <time>2020-01-13T17:54:52Z</time>
      </trkpt>
      <trkpt lat="44.47007" lon="1.04168">
        <ele>215</ele>
        <time>2020-01-13T17:54:53Z</time>
      </trkpt>
      <trkpt lat="44.47009" lon="1.04162">
        <ele>214</ele>
        <time>2020-01-13T17:54:54Z</time>
      </trkpt>
      <trkpt lat="44.47016" lon="1.04145">
        <ele>213</ele>
        <time>2020-01-13T17:54:55Z</time>
      </trkpt>
      <trkpt lat="44.47025" lon="1.04117">
        <ele>212</ele>
        <time>2020-01-13T17:54:56Z</time>
      </trkpt>
      <trkpt lat="44.47034" lon="1.04092">
        <ele>210</ele>
        <time>2020-01-13T17:54:57Z</time>
      </trkpt>
      <trkpt lat="44.47044" lon="1.04066">
        <ele>209</ele>
        <time>2020-01-13T17:54:58Z</time>
      </trkpt>
      <trkpt lat="44.47047" lon="1.04057">
        <ele>209</ele>
        <time>2020-01-13T17:54:59Z</time>
      </trkpt>
      <trkpt lat="44.4705" lon="1.04048">
        <ele>209</ele>
        <time>2020-01-13T17:55:00Z</time>
      </trkpt>
      <trkpt lat="44.47056" lon="1.04028">
        <ele>209</ele>
        <time>2020-01-13T17:55:01Z</time>
      </trkpt>
      <trkpt lat="44.47063" lon="1.04009">
        <ele>209</ele>
        <time>2020-01-13T17:55:02Z</time>
      </trkpt>
      <trkpt lat="44.47067" lon="1.04">
        <ele>209</ele>
        <time>2020-01-13T17:55:03Z</time>
      </trkpt>
      <trkpt lat="44.4707" lon="1.0399">
        <ele>209</ele>
        <time>2020-01-13T17:55:04Z</time>
      </trkpt>
      <trkpt lat="44.47074" lon="1.03981">
        <ele>209</ele>
        <time>2020-01-13T17:55:05Z</time>
      </trkpt>
      <trkpt lat="44.47078" lon="1.03971">
        <ele>210</ele>
        <time>2020-01-13T17:55:06Z</time>
      </trkpt>
      <trkpt lat="44.47085" lon="1.03952">
        <ele>210</ele>
        <time>2020-01-13T17:55:07Z</time>
      </trkpt>
      <trkpt lat="44.47092" lon="1.03934">
        <ele>211</ele>
        <time>2020-01-13T17:55:08Z</time>
      </trkpt>
      <trkpt lat="44.47096" lon="1.03924">
        <ele>211</ele>
        <time>2020-01-13T17:55:09Z</time>
      </trkpt>
      <trkpt lat="44.47099" lon="1.03913">
        <ele>211</ele>
        <time>2020-01-13T17:55:10Z</time>
      </trkpt>
      <trkpt lat="44.47102" lon="1.03903">
        <ele>211</ele>
        <time>2020-01-13T17:55:11Z</time>
      </trkpt>
      <trkpt lat="44.47105" lon="1.03893">
        <ele>211</ele>
        <time>2020-01-13T17:55:12Z</time>
      </trkpt>
      <trkpt lat="44.47113" lon="1.03873">
        <ele>211</ele>
        <time>2020-01-13T17:55:13Z</time>
      </trkpt>
      <trkpt lat="44.47118" lon="1.03863">
        <ele>211</ele>
        <time>2020-01-13T17:55:14Z</time>
      </trkpt>
      <trkpt lat="44.47125" lon="1.03845">
        <ele>210</ele>
        <time>2020-01-13T17:55:15Z</time>
      </trkpt>
      <trkpt lat="44.47129" lon="1.03836">
        <ele>211</ele>
        <time>2020-01-13T17:55:16Z</time>
      </trkpt>
      <trkpt lat="44.47132" lon="1.03827">
        <ele>210</ele>
        <time>2020-01-13T17:55:17Z</time>
      </trkpt>
      <trkpt lat="44.47139" lon="1.03809">
        <ele>210</ele>
        <time>2020-01-13T17:55:18Z</time>
      </trkpt>
      <trkpt lat="44.47142" lon="1.038">
        <ele>209</ele>
        <time>2020-01-13T17:55:19Z</time>
      </trkpt>
      <trkpt lat="44.47148" lon="1.03781">
        <ele>208</ele>
        <time>2020-01-13T17:55:20Z</time>
      </trkpt>
      <trkpt lat="44.4715" lon="1.03771">
        <ele>208</ele>
        <time>2020-01-13T17:55:21Z</time>
      </trkpt>
      <trkpt lat="44.47152" lon="1.03761">
        <ele>208</ele>
        <time>2020-01-13T17:55:22Z</time>
      </trkpt>
      <trkpt lat="44.47153" lon="1.03751">
        <ele>207</ele>
        <time>2020-01-13T17:55:23Z</time>
      </trkpt>
      <trkpt lat="44.47162" lon="1.03704">
        <ele>205</ele>
        <time>2020-01-13T17:55:24Z</time>
      </trkpt>
      <trkpt lat="44.47166" lon="1.03689">
        <ele>205</ele>
        <time>2020-01-13T17:55:25Z</time>
      </trkpt>
      <trkpt lat="44.47172" lon="1.03667">
        <ele>203</ele>
        <time>2020-01-13T17:55:26Z</time>
      </trkpt>
      <trkpt lat="44.47175" lon="1.03654">
        <ele>202</ele>
        <time>2020-01-13T17:55:27Z</time>
      </trkpt>
      <trkpt lat="44.47178" lon="1.03648">
        <ele>201</ele>
        <time>2020-01-13T17:55:28Z</time>
      </trkpt>
      <trkpt lat="44.47179" lon="1.03641">
        <ele>200</ele>
        <time>2020-01-13T17:55:29Z</time>
      </trkpt>
      <trkpt lat="44.47181" lon="1.03635">
        <ele>199</ele>
        <time>2020-01-13T17:55:30Z</time>
      </trkpt>
      <trkpt lat="44.47184" lon="1.03624">
        <ele>197</ele>
        <time>2020-01-13T17:55:31Z</time>
      </trkpt>
      <trkpt lat="44.47186" lon="1.03619">
        <ele>197</ele>
        <time>2020-01-13T17:55:32Z</time>
      </trkpt>
      <trkpt lat="44.47188" lon="1.03612">
        <ele>196</ele>
        <time>2020-01-13T17:55:33Z</time>
      </trkpt>
      <trkpt lat="44.47192" lon="1.036">
        <ele>194</ele>
        <time>2020-01-13T17:55:34Z</time>
      </trkpt>
      <trkpt lat="44.47193" lon="1.03594">
        <ele>193</ele>
        <time>2020-01-13T17:55:35Z</time>
      </trkpt>
      <trkpt lat="44.47194" lon="1.03586">
        <ele>192</ele>
        <time>2020-01-13T17:55:36Z</time>
      </trkpt>
      <trkpt lat="44.47199" lon="1.03562">
        <ele>190</ele>
        <time>2020-01-13T17:55:37Z</time>
      </trkpt>
      <trkpt lat="44.47201" lon="1.03554">
        <ele>189</ele>
        <time>2020-01-13T17:55:38Z</time>
      </trkpt>
      <trkpt lat="44.47202" lon="1.03546">
        <ele>188</ele>
        <time>2020-01-13T17:55:39Z</time>
      </trkpt>
      <trkpt lat="44.47203" lon="1.03537">
        <ele>187</ele>
        <time>2020-01-13T17:55:40Z</time>
      </trkpt>
      <trkpt lat="44.47204" lon="1.03528">
        <ele>187</ele>
        <time>2020-01-13T17:55:41Z</time>
      </trkpt>
      <trkpt lat="44.47205" lon="1.03519">
        <ele>186</ele>
        <time>2020-01-13T17:55:42Z</time>
      </trkpt>
      <trkpt lat="44.47205" lon="1.03511">
        <ele>185</ele>
        <time>2020-01-13T17:55:43Z</time>
      </trkpt>
      <trkpt lat="44.47203" lon="1.035">
        <ele>184</ele>
        <time>2020-01-13T17:55:44Z</time>
      </trkpt>
      <trkpt lat="44.47202" lon="1.03495">
        <ele>184</ele>
        <time>2020-01-13T17:55:45Z</time>
      </trkpt>
      <trkpt lat="44.47202" lon="1.03491">
        <ele>184</ele>
        <time>2020-01-13T17:55:46Z</time>
      </trkpt>
      <trkpt lat="44.47202" lon="1.03481">
        <ele>183</ele>
        <time>2020-01-13T17:55:47Z</time>
      </trkpt>
      <trkpt lat="44.47201" lon="1.03477">
        <ele>183</ele>
        <time>2020-01-13T17:55:48Z</time>
      </trkpt>
      <trkpt lat="44.472" lon="1.03467">
        <ele>183</ele>
        <time>2020-01-13T17:55:49Z</time>
      </trkpt>
      <trkpt lat="44.47198" lon="1.0346">
        <ele>182</ele>
        <time>2020-01-13T17:55:50Z</time>
      </trkpt>
      <trkpt lat="44.47197" lon="1.03455">
        <ele>182</ele>
        <time>2020-01-13T17:55:51Z</time>
      </trkpt>
      <trkpt lat="44.47195" lon="1.03448">
        <ele>182</ele>
        <time>2020-01-13T17:55:52Z</time>
      </trkpt>
      <trkpt lat="44.47194" lon="1.03446">
        <ele>182</ele>
        <time>2020-01-13T17:55:53Z</time>
      </trkpt>
      <trkpt lat="44.47193" lon="1.03442">
        <ele>181</ele>
        <time>2020-01-13T17:55:54Z</time>
      </trkpt>
      <trkpt lat="44.47191" lon="1.03433">
        <ele>181</ele>
        <time>2020-01-13T17:55:55Z</time>
      </trkpt>
      <trkpt lat="44.4719" lon="1.03431">
        <ele>181</ele>
        <time>2020-01-13T17:55:56Z</time>
      </trkpt>
      <trkpt lat="44.47189" lon="1.03427">
        <ele>181</ele>
        <time>2020-01-13T17:55:57Z</time>
      </trkpt>
      <trkpt lat="44.47188" lon="1.03421">
        <ele>180</ele>
        <time>2020-01-13T17:55:58Z</time>
      </trkpt>
      <trkpt lat="44.47186" lon="1.03413">
        <ele>180</ele>
        <time>2020-01-13T17:55:59Z</time>
      </trkpt>
      <trkpt lat="44.47185" lon="1.03411">
        <ele>180</ele>
        <time>2020-01-13T17:56:00Z</time>
      </trkpt>
      <trkpt lat="44.47185" lon="1.03409">
        <ele>180</ele>
        <time>2020-01-13T17:56:01Z</time>
      </trkpt>
      <trkpt lat="44.47184" lon="1.03403">
        <ele>179</ele>
        <time>2020-01-13T17:56:02Z</time>
      </trkpt>
      <trkpt lat="44.47184" lon="1.03401">
        <ele>179</ele>
        <time>2020-01-13T17:56:03Z</time>
      </trkpt>
      <trkpt lat="44.47184" lon="1.03398">
        <ele>179</ele>
        <time>2020-01-13T17:56:04Z</time>
      </trkpt>
      <trkpt lat="44.47184" lon="1.03394">
        <ele>179</ele>
        <time>2020-01-13T17:56:05Z</time>
      </trkpt>
      <trkpt lat="44.47184" lon="1.03392">
        <ele>179</ele>
        <time>2020-01-13T17:56:06Z</time>
      </trkpt>
      <trkpt lat="44.47184" lon="1.03385">
        <ele>178</ele>
        <time>2020-01-13T17:56:07Z</time>
      </trkpt>
      <trkpt lat="44.47183" lon="1.03384">
        <ele>178</ele>
        <time>2020-01-13T17:56:08Z</time>
      </trkpt>
      <trkpt lat="44.47183" lon="1.03378">
        <ele>178</ele>
        <time>2020-01-13T17:56:09Z</time>
      </trkpt>
      <trkpt lat="44.47183" lon="1.03376">
        <ele>178</ele>
        <time>2020-01-13T17:56:10Z</time>
      </trkpt>
      <trkpt lat="44.47183" lon="1.03372">
        <ele>178</ele>
        <time>2020-01-13T17:56:11Z</time>
      </trkpt>
      <trkpt lat="44.47182" lon="1.0337">
        <ele>177</ele>
        <time>2020-01-13T17:56:12Z</time>
      </trkpt>
      <trkpt lat="44.47183" lon="1.03369">
        <ele>177</ele>
        <time>2020-01-13T17:56:13Z</time>
      </trkpt>
      <trkpt lat="44.47183" lon="1.03365">
        <ele>177</ele>
        <time>2020-01-13T17:56:14Z</time>
      </trkpt>
      <trkpt lat="44.47183" lon="1.03363">
        <ele>177</ele>
        <time>2020-01-13T17:56:15Z</time>
      </trkpt>
      <trkpt lat="44.47183" lon="1.03361">
        <ele>177</ele>
        <time>2020-01-13T17:56:16Z</time>
      </trkpt>
      <trkpt lat="44.47182" lon="1.03359">
        <ele>177</ele>
        <time>2020-01-13T17:56:17Z</time>
      </trkpt>
      <trkpt lat="44.47182" lon="1.03357">
        <ele>177</ele>
        <time>2020-01-13T17:56:18Z</time>
      </trkpt>
      <trkpt lat="44.47181" lon="1.03355">
        <ele>177</ele>
        <time>2020-01-13T17:56:19Z</time>
      </trkpt>
      <trkpt lat="44.47181" lon="1.03353">
        <ele>176</ele>
        <time>2020-01-13T17:56:20Z</time>
      </trkpt>
      <trkpt lat="44.4718" lon="1.03347">
        <ele>176</ele>
        <time>2020-01-13T17:56:21Z</time>
      </trkpt>
      <trkpt lat="44.47181" lon="1.03345">
        <ele>176</ele>
        <time>2020-01-13T17:56:22Z</time>
      </trkpt>
      <trkpt lat="44.47181" lon="1.03343">
        <ele>176</ele>
        <time>2020-01-13T17:56:23Z</time>
      </trkpt>
      <trkpt lat="44.4718" lon="1.03339">
        <ele>176</ele>
        <time>2020-01-13T17:56:24Z</time>
      </trkpt>
      <trkpt lat="44.47179" lon="1.03335">
        <ele>176</ele>
        <time>2020-01-13T17:56:25Z</time>
      </trkpt>
      <trkpt lat="44.47179" lon="1.03331">
        <ele>175</ele>
        <time>2020-01-13T17:56:26Z</time>
      </trkpt>
      <trkpt lat="44.47179" lon="1.03328">
        <ele>175</ele>
        <time>2020-01-13T17:56:27Z</time>
      </trkpt>
      <trkpt lat="44.47179" lon="1.03324">
        <ele>174</ele>
        <time>2020-01-13T17:56:28Z</time>
      </trkpt>
      <trkpt lat="44.47179" lon="1.03322">
        <ele>174</ele>
        <time>2020-01-13T17:56:29Z</time>
      </trkpt>
      <trkpt lat="44.47179" lon="1.03317">
        <ele>174</ele>
        <time>2020-01-13T17:56:30Z</time>
      </trkpt>
      <trkpt lat="44.47179" lon="1.03315">
        <ele>173</ele>
        <time>2020-01-13T17:56:31Z</time>
      </trkpt>
      <trkpt lat="44.47179" lon="1.0331">
        <ele>173</ele>
        <time>2020-01-13T17:56:32Z</time>
      </trkpt>
      <trkpt lat="44.47179" lon="1.03308">
        <ele>173</ele>
        <time>2020-01-13T17:56:33Z</time>
      </trkpt>
      <trkpt lat="44.47179" lon="1.03306">
        <ele>173</ele>
        <time>2020-01-13T17:56:34Z</time>
      </trkpt>
      <trkpt lat="44.47178" lon="1.03304">
        <ele>172</ele>
        <time>2020-01-13T17:56:35Z</time>
      </trkpt>
      <trkpt lat="44.47178" lon="1.03298">
        <ele>172</ele>
        <time>2020-01-13T17:56:36Z</time>
      </trkpt>
      <trkpt lat="44.4718" lon="1.03287">
        <ele>170</ele>
        <time>2020-01-13T17:56:37Z</time>
      </trkpt>
      <trkpt lat="44.47181" lon="1.03275">
        <ele>169</ele>
        <time>2020-01-13T17:56:38Z</time>
      </trkpt>
      <trkpt lat="44.47182" lon="1.03271">
        <ele>169</ele>
        <time>2020-01-13T17:56:39Z</time>
      </trkpt>
      <trkpt lat="44.47183" lon="1.0326">
        <ele>167</ele>
        <time>2020-01-13T17:56:40Z</time>
      </trkpt>
      <trkpt lat="44.47184" lon="1.03252">
        <ele>167</ele>
        <time>2020-01-13T17:56:41Z</time>
      </trkpt>
      <trkpt lat="44.47185" lon="1.03236">
        <ele>165</ele>
        <time>2020-01-13T17:56:42Z</time>
      </trkpt>
      <trkpt lat="44.47184" lon="1.03226">
        <ele>165</ele>
        <time>2020-01-13T17:56:43Z</time>
      </trkpt>
      <trkpt lat="44.47181" lon="1.03215">
        <ele>164</ele>
        <time>2020-01-13T17:56:44Z</time>
      </trkpt>
      <trkpt lat="44.47179" lon="1.03203">
        <ele>163</ele>
        <time>2020-01-13T17:56:45Z</time>
      </trkpt>
      <trkpt lat="44.47177" lon="1.03194">
        <ele>163</ele>
        <time>2020-01-13T17:56:46Z</time>
      </trkpt>
      <trkpt lat="44.47176" lon="1.03185">
        <ele>162</ele>
        <time>2020-01-13T17:56:47Z</time>
      </trkpt>
      <trkpt lat="44.47172" lon="1.03164">
        <ele>161</ele>
        <time>2020-01-13T17:56:48Z</time>
      </trkpt>
      <trkpt lat="44.47169" lon="1.03146">
        <ele>161</ele>
        <time>2020-01-13T17:56:49Z</time>
      </trkpt>
      <trkpt lat="44.47167" lon="1.0313">
        <ele>161</ele>
        <time>2020-01-13T17:56:50Z</time>
      </trkpt>
      <trkpt lat="44.47166" lon="1.03122">
        <ele>161</ele>
        <time>2020-01-13T17:56:51Z</time>
      </trkpt>
      <trkpt lat="44.47166" lon="1.03115">
        <ele>160</ele>
        <time>2020-01-13T17:56:52Z</time>
      </trkpt>
      <trkpt lat="44.47166" lon="1.03108">
        <ele>160</ele>
        <time>2020-01-13T17:56:53Z</time>
      </trkpt>
      <trkpt lat="44.47167" lon="1.03101">
        <ele>160</ele>
        <time>2020-01-13T17:56:54Z</time>
      </trkpt>
      <trkpt lat="44.47169" lon="1.03086">
        <ele>160</ele>
        <time>2020-01-13T17:56:55Z</time>
      </trkpt>
      <trkpt lat="44.47171" lon="1.03077">
        <ele>159</ele>
        <time>2020-01-13T17:56:56Z</time>
      </trkpt>
      <trkpt lat="44.47174" lon="1.03059">
        <ele>158</ele>
        <time>2020-01-13T17:56:57Z</time>
      </trkpt>
      <trkpt lat="44.4718" lon="1.0303">
        <ele>157</ele>
        <time>2020-01-13T17:56:58Z</time>
      </trkpt>
      <trkpt lat="44.47181" lon="1.03019">
        <ele>157</ele>
        <time>2020-01-13T17:56:59Z</time>
      </trkpt>
      <trkpt lat="44.47181" lon="1.03008">
        <ele>156</ele>
        <time>2020-01-13T17:57:00Z</time>
      </trkpt>
      <trkpt lat="44.47181" lon="1.02998">
        <ele>156</ele>
        <time>2020-01-13T17:57:01Z</time>
      </trkpt>
      <trkpt lat="44.4718" lon="1.02988">
        <ele>156</ele>
        <time>2020-01-13T17:57:02Z</time>
      </trkpt>
      <trkpt lat="44.47179" lon="1.02977">
        <ele>156</ele>
        <time>2020-01-13T17:57:03Z</time>
      </trkpt>
      <trkpt lat="44.47176" lon="1.02967">
        <ele>156</ele>
        <time>2020-01-13T17:57:04Z</time>
      </trkpt>
      <trkpt lat="44.47174" lon="1.02956">
        <ele>156</ele>
        <time>2020-01-13T17:57:05Z</time>
      </trkpt>
      <trkpt lat="44.47172" lon="1.02945">
        <ele>156</ele>
        <time>2020-01-13T17:57:06Z</time>
      </trkpt>
      <trkpt lat="44.47169" lon="1.02923">
        <ele>155</ele>
        <time>2020-01-13T17:57:07Z</time>
      </trkpt>
      <trkpt lat="44.47168" lon="1.02902">
        <ele>154</ele>
        <time>2020-01-13T17:57:08Z</time>
      </trkpt>
      <trkpt lat="44.47167" lon="1.02881">
        <ele>152</ele>
        <time>2020-01-13T17:57:09Z</time>
      </trkpt>
      <trkpt lat="44.47166" lon="1.0287">
        <ele>152</ele>
        <time>2020-01-13T17:57:10Z</time>
      </trkpt>
      <trkpt lat="44.47166" lon="1.02859">
        <ele>151</ele>
        <time>2020-01-13T17:57:11Z</time>
      </trkpt>
      <trkpt lat="44.47165" lon="1.02849">
        <ele>150</ele>
        <time>2020-01-13T17:57:12Z</time>
      </trkpt>
      <trkpt lat="44.47164" lon="1.02838">
        <ele>150</ele>
        <time>2020-01-13T17:57:13Z</time>
      </trkpt>
      <trkpt lat="44.47162" lon="1.02828">
        <ele>149</ele>
        <time>2020-01-13T17:57:14Z</time>
      </trkpt>
      <trkpt lat="44.47159" lon="1.02817">
        <ele>150</ele>
        <time>2020-01-13T17:57:15Z</time>
      </trkpt>
      <trkpt lat="44.47156" lon="1.02807">
        <ele>150</ele>
        <time>2020-01-13T17:57:16Z</time>
      </trkpt>
      <trkpt lat="44.47153" lon="1.02797">
        <ele>150</ele>
        <time>2020-01-13T17:57:17Z</time>
      </trkpt>
      <trkpt lat="44.47141" lon="1.02768">
        <ele>151</ele>
        <time>2020-01-13T17:57:18Z</time>
      </trkpt>
      <trkpt lat="44.47134" lon="1.02749">
        <ele>151</ele>
        <time>2020-01-13T17:57:19Z</time>
      </trkpt>
      <trkpt lat="44.47132" lon="1.0274">
        <ele>152</ele>
        <time>2020-01-13T17:57:20Z</time>
      </trkpt>
      <trkpt lat="44.4713" lon="1.02732">
        <ele>152</ele>
        <time>2020-01-13T17:57:21Z</time>
      </trkpt>
      <trkpt lat="44.47129" lon="1.02723">
        <ele>152</ele>
        <time>2020-01-13T17:57:22Z</time>
      </trkpt>
      <trkpt lat="44.47129" lon="1.02714">
        <ele>153</ele>
        <time>2020-01-13T17:57:23Z</time>
      </trkpt>
      <trkpt lat="44.47129" lon="1.02689">
        <ele>153</ele>
        <time>2020-01-13T17:57:24Z</time>
      </trkpt>
      <trkpt lat="44.47129" lon="1.02681">
        <ele>153</ele>
        <time>2020-01-13T17:57:25Z</time>
      </trkpt>
      <trkpt lat="44.4713" lon="1.02672">
        <ele>153</ele>
        <time>2020-01-13T17:57:26Z</time>
      </trkpt>
      <trkpt lat="44.4713" lon="1.02664">
        <ele>154</ele>
        <time>2020-01-13T17:57:27Z</time>
      </trkpt>
      <trkpt lat="44.47131" lon="1.02655">
        <ele>153</ele>
        <time>2020-01-13T17:57:28Z</time>
      </trkpt>
      <trkpt lat="44.47132" lon="1.02647">
        <ele>153</ele>
        <time>2020-01-13T17:57:29Z</time>
      </trkpt>
      <trkpt lat="44.47133" lon="1.02639">
        <ele>153</ele>
        <time>2020-01-13T17:57:30Z</time>
      </trkpt>
      <trkpt lat="44.47134" lon="1.02631">
        <ele>153</ele>
        <time>2020-01-13T17:57:31Z</time>
      </trkpt>
      <trkpt lat="44.47136" lon="1.02622">
        <ele>153</ele>
        <time>2020-01-13T17:57:32Z</time>
      </trkpt>
      <trkpt lat="44.47137" lon="1.02614">
        <ele>153</ele>
        <time>2020-01-13T17:57:33Z</time>
      </trkpt>
      <trkpt lat="44.47138" lon="1.02606">
        <ele>153</ele>
        <time>2020-01-13T17:57:34Z</time>
      </trkpt>
      <trkpt lat="44.4714" lon="1.02597">
        <ele>153</ele>
        <time>2020-01-13T17:57:35Z</time>
      </trkpt>
      <trkpt lat="44.47142" lon="1.02589">
        <ele>153</ele>
        <time>2020-01-13T17:57:36Z</time>
      </trkpt>
      <trkpt lat="44.47144" lon="1.0258">
        <ele>152</ele>
        <time>2020-01-13T17:57:37Z</time>
      </trkpt>
      <trkpt lat="44.47149" lon="1.02565">
        <ele>152</ele>
        <time>2020-01-13T17:57:38Z</time>
      </trkpt>
      <trkpt lat="44.47155" lon="1.0255">
        <ele>151</ele>
        <time>2020-01-13T17:57:39Z</time>
      </trkpt>
      <trkpt lat="44.47166" lon="1.02526">
        <ele>149</ele>
        <time>2020-01-13T17:57:40Z</time>
      </trkpt>
      <trkpt lat="44.47169" lon="1.02517">
        <ele>148</ele>
        <time>2020-01-13T17:57:41Z</time>
      </trkpt>
      <trkpt lat="44.47171" lon="1.02507">
        <ele>148</ele>
        <time>2020-01-13T17:57:42Z</time>
      </trkpt>
      <trkpt lat="44.47172" lon="1.02496">
        <ele>147</ele>
        <time>2020-01-13T17:57:43Z</time>
      </trkpt>
      <trkpt lat="44.47172" lon="1.02485">
        <ele>147</ele>
        <time>2020-01-13T17:57:44Z</time>
      </trkpt>
      <trkpt lat="44.47171" lon="1.02474">
        <ele>146</ele>
        <time>2020-01-13T17:57:45Z</time>
      </trkpt>
      <trkpt lat="44.47169" lon="1.02451">
        <ele>145</ele>
        <time>2020-01-13T17:57:46Z</time>
      </trkpt>
      <trkpt lat="44.47167" lon="1.02439">
        <ele>144</ele>
        <time>2020-01-13T17:57:47Z</time>
      </trkpt>
      <trkpt lat="44.47165" lon="1.02427">
        <ele>144</ele>
        <time>2020-01-13T17:57:48Z</time>
      </trkpt>
      <trkpt lat="44.47163" lon="1.02416">
        <ele>143</ele>
        <time>2020-01-13T17:57:49Z</time>
      </trkpt>
      <trkpt lat="44.4716" lon="1.02403">
        <ele>143</ele>
        <time>2020-01-13T17:57:50Z</time>
      </trkpt>
      <trkpt lat="44.47158" lon="1.02391">
        <ele>143</ele>
        <time>2020-01-13T17:57:51Z</time>
      </trkpt>
      <trkpt lat="44.47155" lon="1.02379">
        <ele>142</ele>
        <time>2020-01-13T17:57:52Z</time>
      </trkpt>
      <trkpt lat="44.47153" lon="1.02368">
        <ele>142</ele>
        <time>2020-01-13T17:57:53Z</time>
      </trkpt>
      <trkpt lat="44.47151" lon="1.02356">
        <ele>141</ele>
        <time>2020-01-13T17:57:54Z</time>
      </trkpt>
      <trkpt lat="44.47148" lon="1.02345">
        <ele>141</ele>
        <time>2020-01-13T17:57:55Z</time>
      </trkpt>
      <trkpt lat="44.47142" lon="1.02321">
        <ele>140</ele>
        <time>2020-01-13T17:57:56Z</time>
      </trkpt>
      <trkpt lat="44.47139" lon="1.0231">
        <ele>140</ele>
        <time>2020-01-13T17:57:57Z</time>
      </trkpt>
      <trkpt lat="44.47136" lon="1.02297">
        <ele>140</ele>
        <time>2020-01-13T17:57:58Z</time>
      </trkpt>
      <trkpt lat="44.47133" lon="1.02285">
        <ele>139</ele>
        <time>2020-01-13T17:57:59Z</time>
      </trkpt>
      <trkpt lat="44.4713" lon="1.02273">
        <ele>139</ele>
        <time>2020-01-13T17:58:00Z</time>
      </trkpt>
      <trkpt lat="44.47124" lon="1.0225">
        <ele>138</ele>
        <time>2020-01-13T17:58:01Z</time>
      </trkpt>
      <trkpt lat="44.47112" lon="1.02203">
        <ele>135</ele>
        <time>2020-01-13T17:58:02Z</time>
      </trkpt>
      <trkpt lat="44.47101" lon="1.02163">
        <ele>133</ele>
        <time>2020-01-13T17:58:03Z</time>
      </trkpt>
      <trkpt lat="44.47096" lon="1.02137">
        <ele>132</ele>
        <time>2020-01-13T17:58:04Z</time>
      </trkpt>
      <trkpt lat="44.47094" lon="1.02124">
        <ele>132</ele>
        <time>2020-01-13T17:58:05Z</time>
      </trkpt>
      <trkpt lat="44.47087" lon="1.02081">
        <ele>129</ele>
        <time>2020-01-13T17:58:06Z</time>
      </trkpt>
      <trkpt lat="44.47084" lon="1.02067">
        <ele>129</ele>
        <time>2020-01-13T17:58:07Z</time>
      </trkpt>
      <trkpt lat="44.4708" lon="1.0204">
        <ele>129</ele>
        <time>2020-01-13T17:58:08Z</time>
      </trkpt>
      <trkpt lat="44.47079" lon="1.02027">
        <ele>129</ele>
        <time>2020-01-13T17:58:09Z</time>
      </trkpt>
      <trkpt lat="44.47076" lon="1.01978">
        <ele>128</ele>
        <time>2020-01-13T17:58:10Z</time>
      </trkpt>
      <trkpt lat="44.47075" lon="1.01966">
        <ele>128</ele>
        <time>2020-01-13T17:58:11Z</time>
      </trkpt>
      <trkpt lat="44.47074" lon="1.01955">
        <ele>128</ele>
        <time>2020-01-13T17:58:12Z</time>
      </trkpt>
      <trkpt lat="44.47073" lon="1.01944">
        <ele>128</ele>
        <time>2020-01-13T17:58:13Z</time>
      </trkpt>
      <trkpt lat="44.47073" lon="1.01924">
        <ele>127</ele>
        <time>2020-01-13T17:58:14Z</time>
      </trkpt>
      <trkpt lat="44.47073" lon="1.01914">
        <ele>127</ele>
        <time>2020-01-13T17:58:15Z</time>
      </trkpt>
      <trkpt lat="44.47074" lon="1.01895">
        <ele>126</ele>
        <time>2020-01-13T17:58:16Z</time>
      </trkpt>
      <trkpt lat="44.47075" lon="1.01885">
        <ele>125</ele>
        <time>2020-01-13T17:58:17Z</time>
      </trkpt>
      <trkpt lat="44.47076" lon="1.01876">
        <ele>125</ele>
        <time>2020-01-13T17:58:18Z</time>
      </trkpt>
      <trkpt lat="44.47077" lon="1.01867">
        <ele>124</ele>
        <time>2020-01-13T17:58:19Z</time>
      </trkpt>
      <trkpt lat="44.47079" lon="1.01858">
        <ele>124</ele>
        <time>2020-01-13T17:58:20Z</time>
      </trkpt>
      <trkpt lat="44.47081" lon="1.01849">
        <ele>123</ele>
        <time>2020-01-13T17:58:21Z</time>
      </trkpt>
      <trkpt lat="44.47083" lon="1.01839">
        <ele>122</ele>
        <time>2020-01-13T17:58:22Z</time>
      </trkpt>
      <trkpt lat="44.47087" lon="1.0181">
        <ele>123</ele>
        <time>2020-01-13T17:58:23Z</time>
      </trkpt>
      <trkpt lat="44.4709" lon="1.01788">
        <ele>123</ele>
        <time>2020-01-13T17:58:24Z</time>
      </trkpt>
      <trkpt lat="44.47093" lon="1.01765">
        <ele>124</ele>
        <time>2020-01-13T17:58:25Z</time>
      </trkpt>
      <trkpt lat="44.47094" lon="1.01743">
        <ele>124</ele>
        <time>2020-01-13T17:58:26Z</time>
      </trkpt>
      <trkpt lat="44.47097" lon="1.01722">
        <ele>123</ele>
        <time>2020-01-13T17:58:27Z</time>
      </trkpt>
      <trkpt lat="44.47097" lon="1.01711">
        <ele>122</ele>
        <time>2020-01-13T17:58:28Z</time>
      </trkpt>
      <trkpt lat="44.47097" lon="1.017">
        <ele>121</ele>
        <time>2020-01-13T17:58:29Z</time>
      </trkpt>
      <trkpt lat="44.47097" lon="1.01688">
        <ele>120</ele>
        <time>2020-01-13T17:58:30Z</time>
      </trkpt>
      <trkpt lat="44.47098" lon="1.01676">
        <ele>120</ele>
        <time>2020-01-13T17:58:31Z</time>
      </trkpt>
      <trkpt lat="44.47099" lon="1.01664">
        <ele>119</ele>
        <time>2020-01-13T17:58:32Z</time>
      </trkpt>
      <trkpt lat="44.47099" lon="1.01651">
        <ele>118</ele>
        <time>2020-01-13T17:58:33Z</time>
      </trkpt>
      <trkpt lat="44.471" lon="1.01638">
        <ele>117</ele>
        <time>2020-01-13T17:58:34Z</time>
      </trkpt>
      <trkpt lat="44.47099" lon="1.01623">
        <ele>116</ele>
        <time>2020-01-13T17:58:35Z</time>
      </trkpt>
      <trkpt lat="44.471" lon="1.01609">
        <ele>116</ele>
        <time>2020-01-13T17:58:36Z</time>
      </trkpt>
      <trkpt lat="44.471" lon="1.01581">
        <ele>114</ele>
        <time>2020-01-13T17:58:37Z</time>
      </trkpt>
      <trkpt lat="44.471" lon="1.01569">
        <ele>114</ele>
        <time>2020-01-13T17:58:38Z</time>
      </trkpt>
      <trkpt lat="44.47101" lon="1.01557">
        <ele>114</ele>
        <time>2020-01-13T17:58:39Z</time>
      </trkpt>
      <trkpt lat="44.47101" lon="1.01545">
        <ele>113</ele>
        <time>2020-01-13T17:58:40Z</time>
      </trkpt>
      <trkpt lat="44.47101" lon="1.01534">
        <ele>113</ele>
        <time>2020-01-13T17:58:41Z</time>
      </trkpt>
      <trkpt lat="44.47102" lon="1.01523">
        <ele>113</ele>
        <time>2020-01-13T17:58:42Z</time>
      </trkpt>
      <trkpt lat="44.47102" lon="1.01513">
        <ele>113</ele>
        <time>2020-01-13T17:58:43Z</time>
      </trkpt>
      <trkpt lat="44.47098" lon="1.01483">
        <ele>113</ele>
        <time>2020-01-13T17:58:44Z</time>
      </trkpt>
      <trkpt lat="44.47097" lon="1.01474">
        <ele>113</ele>
        <time>2020-01-13T17:58:45Z</time>
      </trkpt>
      <trkpt lat="44.47096" lon="1.01466">
        <ele>113</ele>
        <time>2020-01-13T17:58:46Z</time>
      </trkpt>
      <trkpt lat="44.47096" lon="1.01459">
        <ele>113</ele>
        <time>2020-01-13T17:58:47Z</time>
      </trkpt>
      <trkpt lat="44.47095" lon="1.01451">
        <ele>114</ele>
        <time>2020-01-13T17:58:48Z</time>
      </trkpt>
      <trkpt lat="44.47093" lon="1.01442">
        <ele>114</ele>
        <time>2020-01-13T17:58:49Z</time>
      </trkpt>
      <trkpt lat="44.47091" lon="1.01411">
        <ele>115</ele>
        <time>2020-01-13T17:58:50Z</time>
      </trkpt>
      <trkpt lat="44.4709" lon="1.01404">
        <ele>116</ele>
        <time>2020-01-13T17:58:51Z</time>
      </trkpt>
      <trkpt lat="44.47088" lon="1.01376">
        <ele>118</ele>
        <time>2020-01-13T17:58:52Z</time>
      </trkpt>
      <trkpt lat="44.47087" lon="1.0137">
        <ele>119</ele>
        <time>2020-01-13T17:58:53Z</time>
      </trkpt>
      <trkpt lat="44.47087" lon="1.01359">
        <ele>119</ele>
        <time>2020-01-13T17:58:54Z</time>
      </trkpt>
      <trkpt lat="44.47087" lon="1.01336">
        <ele>121</ele>
        <time>2020-01-13T17:58:55Z</time>
      </trkpt>
      <trkpt lat="44.47087" lon="1.01331">
        <ele>122</ele>
        <time>2020-01-13T17:58:56Z</time>
      </trkpt>
      <trkpt lat="44.47087" lon="1.01326">
        <ele>122</ele>
        <time>2020-01-13T17:58:57Z</time>
      </trkpt>
      <trkpt lat="44.47088" lon="1.01312">
        <ele>123</ele>
        <time>2020-01-13T17:58:58Z</time>
      </trkpt>
      <trkpt lat="44.47089" lon="1.01308">
        <ele>123</ele>
        <time>2020-01-13T17:58:59Z</time>
      </trkpt>
      <trkpt lat="44.4709" lon="1.01298">
        <ele>123</ele>
        <time>2020-01-13T17:59:00Z</time>
      </trkpt>
      <trkpt lat="44.47092" lon="1.0129">
        <ele>123</ele>
        <time>2020-01-13T17:59:01Z</time>
      </trkpt>
      <trkpt lat="44.47093" lon="1.01277">
        <ele>124</ele>
        <time>2020-01-13T17:59:02Z</time>
      </trkpt>
      <trkpt lat="44.47093" lon="1.01263">
        <ele>125</ele>
        <time>2020-01-13T17:59:03Z</time>
      </trkpt>
      <trkpt lat="44.47093" lon="1.01259">
        <ele>125</ele>
        <time>2020-01-13T17:59:04Z</time>
      </trkpt>
      <trkpt lat="44.47093" lon="1.01255">
        <ele>125</ele>
        <time>2020-01-13T17:59:05Z</time>
      </trkpt>
      <trkpt lat="44.47093" lon="1.01251">
        <ele>125</ele>
        <time>2020-01-13T17:59:06Z</time>
      </trkpt>
      <trkpt lat="44.47093" lon="1.01246">
        <ele>125</ele>
        <time>2020-01-13T17:59:07Z</time>
      </trkpt>
      <trkpt lat="44.47092" lon="1.01242">
        <ele>125</ele>
        <time>2020-01-13T17:59:08Z</time>
      </trkpt>
      <trkpt lat="44.47092" lon="1.01238">
        <ele>125</ele>
        <time>2020-01-13T17:59:09Z</time>
      </trkpt>
      <trkpt lat="44.47092" lon="1.0123">
        <ele>126</ele>
        <time>2020-01-13T17:59:10Z</time>
      </trkpt>
      <trkpt lat="44.47092" lon="1.01225">
        <ele>126</ele>
        <time>2020-01-13T17:59:11Z</time>
      </trkpt>
      <trkpt lat="44.47091" lon="1.01221">
        <ele>126</ele>
        <time>2020-01-13T17:59:12Z</time>
      </trkpt>
      <trkpt lat="44.47089" lon="1.01216">
        <ele>126</ele>
        <time>2020-01-13T17:59:13Z</time>
      </trkpt>
      <trkpt lat="44.47087" lon="1.01212">
        <ele>126</ele>
        <time>2020-01-13T17:59:14Z</time>
      </trkpt>
      <trkpt lat="44.47085" lon="1.01211">
        <ele>126</ele>
        <time>2020-01-13T17:59:15Z</time>
      </trkpt>
      <trkpt lat="44.47081" lon="1.0121">
        <ele>126</ele>
        <time>2020-01-13T17:59:16Z</time>
      </trkpt>
      <trkpt lat="44.47073" lon="1.01213">
        <ele>127</ele>
        <time>2020-01-13T17:59:17Z</time>
      </trkpt>
      <trkpt lat="44.47062" lon="1.01215">
        <ele>128</ele>
        <time>2020-01-13T17:59:18Z</time>
      </trkpt>
      <trkpt lat="44.47056" lon="1.01216">
        <ele>128</ele>
        <time>2020-01-13T17:59:19Z</time>
      </trkpt>
      <trkpt lat="44.47051" lon="1.01217">
        <ele>128</ele>
        <time>2020-01-13T17:59:20Z</time>
      </trkpt>
      <trkpt lat="44.47048" lon="1.01218">
        <ele>129</ele>
        <time>2020-01-13T17:59:21Z</time>
      </trkpt>
      <trkpt lat="44.47041" lon="1.0122">
        <ele>129</ele>
        <time>2020-01-13T17:59:22Z</time>
      </trkpt>
      <trkpt lat="44.47033" lon="1.01222">
        <ele>130</ele>
        <time>2020-01-13T17:59:23Z</time>
      </trkpt>
      <trkpt lat="44.47029" lon="1.01222">
        <ele>130</ele>
        <time>2020-01-13T17:59:24Z</time>
      </trkpt>
      <trkpt lat="44.47018" lon="1.0122">
        <ele>131</ele>
        <time>2020-01-13T17:59:25Z</time>
      </trkpt>
      <trkpt lat="44.47015" lon="1.01219">
        <ele>131</ele>
        <time>2020-01-13T17:59:26Z</time>
      </trkpt>
      <trkpt lat="44.47012" lon="1.01219">
        <ele>131</ele>
        <time>2020-01-13T17:59:27Z</time>
      </trkpt>
      <trkpt lat="44.47008" lon="1.01218">
        <ele>132</ele>
        <time>2020-01-13T17:59:28Z</time>
      </trkpt>
      <trkpt lat="44.47005" lon="1.01218">
        <ele>132</ele>
        <time>2020-01-13T17:59:29Z</time>
      </trkpt>
      <trkpt lat="44.47002" lon="1.01216">
        <ele>132</ele>
        <time>2020-01-13T17:59:30Z</time>
      </trkpt>
      <trkpt lat="44.47" lon="1.01215">
        <ele>132</ele>
        <time>2020-01-13T17:59:31Z</time>
      </trkpt>
      <trkpt lat="44.46997" lon="1.01213">
        <ele>133</ele>
        <time>2020-01-13T17:59:32Z</time>
      </trkpt>
      <trkpt lat="44.4699" lon="1.01204">
        <ele>134</ele>
        <time>2020-01-13T17:59:33Z</time>
      </trkpt>
      <trkpt lat="44.46984" lon="1.01195">
        <ele>134</ele>
        <time>2020-01-13T17:59:34Z</time>
      </trkpt>
      <trkpt lat="44.46979" lon="1.01186">
        <ele>135</ele>
        <time>2020-01-13T17:59:35Z</time>
      </trkpt>
      <trkpt lat="44.46972" lon="1.01175">
        <ele>136</ele>
        <time>2020-01-13T17:59:36Z</time>
      </trkpt>
      <trkpt lat="44.46964" lon="1.01164">
        <ele>137</ele>
        <time>2020-01-13T17:59:37Z</time>
      </trkpt>
      <trkpt lat="44.46958" lon="1.01161">
        <ele>137</ele>
        <time>2020-01-13T17:59:38Z</time>
      </trkpt>
      <trkpt lat="44.46955" lon="1.0116">
        <ele>137</ele>
        <time>2020-01-13T17:59:39Z</time>
      </trkpt>
      <trkpt lat="44.4695" lon="1.01159">
        <ele>138</ele>
        <time>2020-01-13T17:59:40Z</time>
      </trkpt>
      <trkpt lat="44.46939" lon="1.01153">
        <ele>139</ele>
        <time>2020-01-13T17:59:41Z</time>
      </trkpt>
      <trkpt lat="44.46935" lon="1.0115">
        <ele>140</ele>
        <time>2020-01-13T17:59:42Z</time>
      </trkpt>
      <trkpt lat="44.46934" lon="1.01147">
        <ele>140</ele>
        <time>2020-01-13T17:59:43Z</time>
      </trkpt>
      <trkpt lat="44.46931" lon="1.01144">
        <ele>140</ele>
        <time>2020-01-13T17:59:44Z</time>
      </trkpt>
      <trkpt lat="44.46927" lon="1.01137">
        <ele>141</ele>
        <time>2020-01-13T17:59:45Z</time>
      </trkpt>
      <trkpt lat="44.46926" lon="1.01135">
        <ele>141</ele>
        <time>2020-01-13T17:59:46Z</time>
      </trkpt>
      <trkpt lat="44.46923" lon="1.01131">
        <ele>142</ele>
        <time>2020-01-13T17:59:47Z</time>
      </trkpt>
      <trkpt lat="44.46922" lon="1.01129">
        <ele>142</ele>
        <time>2020-01-13T17:59:48Z</time>
      </trkpt>
      <trkpt lat="44.46916" lon="1.01118">
        <ele>143</ele>
        <time>2020-01-13T17:59:49Z</time>
      </trkpt>
      <trkpt lat="44.46913" lon="1.01114">
        <ele>144</ele>
        <time>2020-01-13T17:59:50Z</time>
      </trkpt>
      <trkpt lat="44.46911" lon="1.01112">
        <ele>144</ele>
        <time>2020-01-13T17:59:51Z</time>
      </trkpt>
      <trkpt lat="44.46908" lon="1.01108">
        <ele>145</ele>
        <time>2020-01-13T17:59:52Z</time>
      </trkpt>
      <trkpt lat="44.46904" lon="1.01104">
        <ele>146</ele>
        <time>2020-01-13T17:59:53Z</time>
      </trkpt>
      <trkpt lat="44.46901" lon="1.011">
        <ele>146</ele>
        <time>2020-01-13T17:59:54Z</time>
      </trkpt>
      <trkpt lat="44.46896" lon="1.01094">
        <ele>147</ele>
        <time>2020-01-13T17:59:55Z</time>
      </trkpt>
      <trkpt lat="44.46892" lon="1.01091">
        <ele>148</ele>
        <time>2020-01-13T17:59:56Z</time>
      </trkpt>
      <trkpt lat="44.46891" lon="1.0109">
        <ele>148</ele>
        <time>2020-01-13T17:59:57Z</time>
      </trkpt>
      <trkpt lat="44.46887" lon="1.01085">
        <ele>149</ele>
        <time>2020-01-13T17:59:58Z</time>
      </trkpt>
      <trkpt lat="44.46885" lon="1.01084">
        <ele>150</ele>
        <time>2020-01-13T17:59:59Z</time>
      </trkpt>
      <trkpt lat="44.46883" lon="1.01083">
        <ele>150</ele>
        <time>2020-01-13T18:00:00Z</time>
      </trkpt>
      <trkpt lat="44.46881" lon="1.01082">
        <ele>150</ele>
        <time>2020-01-13T18:00:01Z</time>
      </trkpt>
      <trkpt lat="44.46878" lon="1.01079">
        <ele>151</ele>
        <time>2020-01-13T18:00:02Z</time>
      </trkpt>
      <trkpt lat="44.46874" lon="1.01075">
        <ele>152</ele>
        <time>2020-01-13T18:00:03Z</time>
      </trkpt>
      <trkpt lat="44.46873" lon="1.01073">
        <ele>152</ele>
        <time>2020-01-13T18:00:04Z</time>
      </trkpt>
      <trkpt lat="44.46869" lon="1.0107">
        <ele>153</ele>
        <time>2020-01-13T18:00:05Z</time>
      </trkpt>
      <trkpt lat="44.46864" lon="1.01068">
        <ele>154</ele>
        <time>2020-01-13T18:00:06Z</time>
      </trkpt>
      <trkpt lat="44.46861" lon="1.01065">
        <ele>154</ele>
        <time>2020-01-13T18:00:07Z</time>
      </trkpt>
      <trkpt lat="44.46859" lon="1.01063">
        <ele>154</ele>
        <time>2020-01-13T18:00:08Z</time>
      </trkpt>
      <trkpt lat="44.46857" lon="1.01058">
        <ele>155</ele>
        <time>2020-01-13T18:00:09Z</time>
      </trkpt>
      <trkpt lat="44.46855" lon="1.01054">
        <ele>155</ele>
        <time>2020-01-13T18:00:10Z</time>
      </trkpt>
      <trkpt lat="44.46854" lon="1.01049">
        <ele>155</ele>
        <time>2020-01-13T18:00:11Z</time>
      </trkpt>
      <trkpt lat="44.46854" lon="1.01039">
        <ele>156</ele>
        <time>2020-01-13T18:00:12Z</time>
      </trkpt>
      <trkpt lat="44.46853" lon="1.01034">
        <ele>156</ele>
        <time>2020-01-13T18:00:13Z</time>
      </trkpt>
      <trkpt lat="44.46854" lon="1.01022">
        <ele>156</ele>
        <time>2020-01-13T18:00:14Z</time>
      </trkpt>
      <trkpt lat="44.46857" lon="1.01008">
        <ele>155</ele>
        <time>2020-01-13T18:00:15Z</time>
      </trkpt>
      <trkpt lat="44.4686" lon="1.00985">
        <ele>154</ele>
        <time>2020-01-13T18:00:16Z</time>
      </trkpt>
      <trkpt lat="44.46862" lon="1.00976">
        <ele>154</ele>
        <time>2020-01-13T18:00:17Z</time>
      </trkpt>
      <trkpt lat="44.46864" lon="1.00967">
        <ele>153</ele>
        <time>2020-01-13T18:00:18Z</time>
      </trkpt>
      <trkpt lat="44.46867" lon="1.0095">
        <ele>152</ele>
        <time>2020-01-13T18:00:19Z</time>
      </trkpt>
      <trkpt lat="44.46868" lon="1.00931">
        <ele>152</ele>
        <time>2020-01-13T18:00:20Z</time>
      </trkpt>
      <trkpt lat="44.46868" lon="1.00911">
        <ele>152</ele>
        <time>2020-01-13T18:00:21Z</time>
      </trkpt>
      <trkpt lat="44.4687" lon="1.0089">
        <ele>151</ele>
        <time>2020-01-13T18:00:22Z</time>
      </trkpt>
      <trkpt lat="44.46871" lon="1.00859">
        <ele>150</ele>
        <time>2020-01-13T18:00:23Z</time>
      </trkpt>
      <trkpt lat="44.46871" lon="1.00851">
        <ele>149</ele>
        <time>2020-01-13T18:00:24Z</time>
      </trkpt>
      <trkpt lat="44.46871" lon="1.00844">
        <ele>149</ele>
        <time>2020-01-13T18:00:25Z</time>
      </trkpt>
      <trkpt lat="44.46871" lon="1.00832">
        <ele>149</ele>
        <time>2020-01-13T18:00:26Z</time>
      </trkpt>
      <trkpt lat="44.4687" lon="1.00828">
        <ele>149</ele>
        <time>2020-01-13T18:00:27Z</time>
      </trkpt>
      <trkpt lat="44.46867" lon="1.00824">
        <ele>149</ele>
        <time>2020-01-13T18:00:28Z</time>
      </trkpt>
      <trkpt lat="44.46864" lon="1.00821">
        <ele>149</ele>
        <time>2020-01-13T18:00:29Z</time>
      </trkpt>
      <trkpt lat="44.46861" lon="1.00819">
        <ele>149</ele>
        <time>2020-01-13T18:00:30Z</time>
      </trkpt>
      <trkpt lat="44.46851" lon="1.00814">
        <ele>150</ele>
        <time>2020-01-13T18:00:31Z</time>
      </trkpt>
      <trkpt lat="44.46838" lon="1.00804">
        <ele>151</ele>
        <time>2020-01-13T18:00:32Z</time>
      </trkpt>
      <trkpt lat="44.46833" lon="1.00801">
        <ele>151</ele>
        <time>2020-01-13T18:00:33Z</time>
      </trkpt>
      <trkpt lat="44.46824" lon="1.00794">
        <ele>151</ele>
        <time>2020-01-13T18:00:34Z</time>
      </trkpt>
      <trkpt lat="44.46795" lon="1.00772">
        <ele>152</ele>
        <time>2020-01-13T18:00:35Z</time>
      </trkpt>
      <trkpt lat="44.46784" lon="1.00765">
        <ele>152</ele>
        <time>2020-01-13T18:00:36Z</time>
      </trkpt>
      <trkpt lat="44.46772" lon="1.0076">
        <ele>152</ele>
        <time>2020-01-13T18:00:37Z</time>
      </trkpt>
      <trkpt lat="44.46766" lon="1.00758">
        <ele>152</ele>
        <time>2020-01-13T18:00:38Z</time>
      </trkpt>
      <trkpt lat="44.46759" lon="1.00757">
        <ele>152</ele>
        <time>2020-01-13T18:00:39Z</time>
      </trkpt>
      <trkpt lat="44.46752" lon="1.00757">
        <ele>153</ele>
        <time>2020-01-13T18:00:40Z</time>
      </trkpt>
      <trkpt lat="44.4674" lon="1.00759">
        <ele>154</ele>
        <time>2020-01-13T18:00:41Z</time>
      </trkpt>
      <trkpt lat="44.46735" lon="1.00761">
        <ele>154</ele>
        <time>2020-01-13T18:00:42Z</time>
      </trkpt>
      <trkpt lat="44.4673" lon="1.00763">
        <ele>155</ele>
        <time>2020-01-13T18:00:43Z</time>
      </trkpt>
      <trkpt lat="44.46725" lon="1.00764">
        <ele>155</ele>
        <time>2020-01-13T18:00:44Z</time>
      </trkpt>
      <trkpt lat="44.46721" lon="1.00763">
        <ele>155</ele>
        <time>2020-01-13T18:00:45Z</time>
      </trkpt>
      <trkpt lat="44.46718" lon="1.00763">
        <ele>155</ele>
        <time>2020-01-13T18:00:46Z</time>
      </trkpt>
      <trkpt lat="44.46715" lon="1.00761">
        <ele>155</ele>
        <time>2020-01-13T18:00:47Z</time>
      </trkpt>
      <trkpt lat="44.46712" lon="1.00758">
        <ele>155</ele>
        <time>2020-01-13T18:00:48Z</time>
      </trkpt>
      <trkpt lat="44.46703" lon="1.00748">
        <ele>154</ele>
        <time>2020-01-13T18:00:49Z</time>
      </trkpt>
      <trkpt lat="44.46699" lon="1.00742">
        <ele>154</ele>
        <time>2020-01-13T18:00:50Z</time>
      </trkpt>
      <trkpt lat="44.46697" lon="1.00741">
        <ele>154</ele>
        <time>2020-01-13T18:00:51Z</time>
      </trkpt>
      <trkpt lat="44.46694" lon="1.00737">
        <ele>154</ele>
        <time>2020-01-13T18:00:52Z</time>
      </trkpt>
      <trkpt lat="44.46691" lon="1.00734">
        <ele>154</ele>
        <time>2020-01-13T18:00:53Z</time>
      </trkpt>
      <trkpt lat="44.4669" lon="1.00732">
        <ele>154</ele>
        <time>2020-01-13T18:00:54Z</time>
      </trkpt>
      <trkpt lat="44.46685" lon="1.00728">
        <ele>154</ele>
        <time>2020-01-13T18:00:55Z</time>
      </trkpt>
      <trkpt lat="44.46684" lon="1.00726">
        <ele>154</ele>
        <time>2020-01-13T18:00:56Z</time>
      </trkpt>
      <trkpt lat="44.46682" lon="1.00723">
        <ele>154</ele>
        <time>2020-01-13T18:00:57Z</time>
      </trkpt>
      <trkpt lat="44.4668" lon="1.0072">
        <ele>154</ele>
        <time>2020-01-13T18:00:58Z</time>
      </trkpt>
      <trkpt lat="44.46679" lon="1.00718">
        <ele>154</ele>
        <time>2020-01-13T18:00:59Z</time>
      </trkpt>
      <trkpt lat="44.46678" lon="1.00714">
        <ele>154</ele>
        <time>2020-01-13T18:01:00Z</time>
      </trkpt>
      <trkpt lat="44.46677" lon="1.00712">
        <ele>154</ele>
        <time>2020-01-13T18:01:01Z</time>
      </trkpt>
      <trkpt lat="44.46677" lon="1.00709">
        <ele>154</ele>
        <time>2020-01-13T18:01:02Z</time>
      </trkpt>
      <trkpt lat="44.46677" lon="1.00705">
        <ele>154</ele>
        <time>2020-01-13T18:01:03Z</time>
      </trkpt>
      <trkpt lat="44.46676" lon="1.00702">
        <ele>154</ele>
        <time>2020-01-13T18:01:04Z</time>
      </trkpt>
      <trkpt lat="44.46674" lon="1.007">
        <ele>154</ele>
        <time>2020-01-13T18:01:05Z</time>
      </trkpt>
      <trkpt lat="44.46674" lon="1.00697">
        <ele>154</ele>
        <time>2020-01-13T18:01:06Z</time>
      </trkpt>
      <trkpt lat="44.46672" lon="1.00697">
        <ele>154</ele>
        <time>2020-01-13T18:01:07Z</time>
      </trkpt>
      <trkpt lat="44.46671" lon="1.00696">
        <ele>155</ele>
        <time>2020-01-13T18:01:08Z</time>
      </trkpt>
      <trkpt lat="44.46672" lon="1.00694">
        <ele>154</ele>
        <time>2020-01-13T18:01:09Z</time>
      </trkpt>
      <trkpt lat="44.4667" lon="1.00693">
        <ele>155</ele>
        <time>2020-01-13T18:01:10Z</time>
      </trkpt>
      <trkpt lat="44.46667" lon="1.0069">
        <ele>155</ele>
        <time>2020-01-13T18:01:11Z</time>
      </trkpt>
      <trkpt lat="44.46664" lon="1.00687">
        <ele>155</ele>
        <time>2020-01-13T18:01:12Z</time>
      </trkpt>
      <trkpt lat="44.46663" lon="1.00686">
        <ele>156</ele>
        <time>2020-01-13T18:01:13Z</time>
      </trkpt>
      <trkpt lat="44.46659" lon="1.00681">
        <ele>156</ele>
        <time>2020-01-13T18:01:14Z</time>
      </trkpt>
      <trkpt lat="44.46658" lon="1.0068">
        <ele>156</ele>
        <time>2020-01-13T18:01:15Z</time>
      </trkpt>
      <trkpt lat="44.46654" lon="1.00676">
        <ele>157</ele>
        <time>2020-01-13T18:01:16Z</time>
      </trkpt>
      <trkpt lat="44.46652" lon="1.00674">
        <ele>157</ele>
        <time>2020-01-13T18:01:17Z</time>
      </trkpt>
      <trkpt lat="44.46649" lon="1.0067">
        <ele>158</ele>
        <time>2020-01-13T18:01:18Z</time>
      </trkpt>
      <trkpt lat="44.46648" lon="1.00668">
        <ele>158</ele>
        <time>2020-01-13T18:01:19Z</time>
      </trkpt>
      <trkpt lat="44.46647" lon="1.00667">
        <ele>158</ele>
        <time>2020-01-13T18:01:20Z</time>
      </trkpt>
      <trkpt lat="44.46646" lon="1.00665">
        <ele>159</ele>
        <time>2020-01-13T18:01:21Z</time>
      </trkpt>
      <trkpt lat="44.46645" lon="1.00663">
        <ele>159</ele>
        <time>2020-01-13T18:01:22Z</time>
      </trkpt>
      <trkpt lat="44.46644" lon="1.00661">
        <ele>159</ele>
        <time>2020-01-13T18:01:23Z</time>
      </trkpt>
      <trkpt lat="44.46643" lon="1.00659">
        <ele>159</ele>
        <time>2020-01-13T18:01:24Z</time>
      </trkpt>
      <trkpt lat="44.4664" lon="1.00657">
        <ele>160</ele>
        <time>2020-01-13T18:01:25Z</time>
      </trkpt>
      <trkpt lat="44.4664" lon="1.00655">
        <ele>160</ele>
        <time>2020-01-13T18:01:26Z</time>
      </trkpt>
      <trkpt lat="44.46638" lon="1.00654">
        <ele>160</ele>
        <time>2020-01-13T18:01:27Z</time>
      </trkpt>
      <trkpt lat="44.46637" lon="1.00653">
        <ele>161</ele>
        <time>2020-01-13T18:01:28Z</time>
      </trkpt>
      <trkpt lat="44.46636" lon="1.00651">
        <ele>161</ele>
        <time>2020-01-13T18:01:29Z</time>
      </trkpt>
      <trkpt lat="44.46636" lon="1.00649">
        <ele>161</ele>
        <time>2020-01-13T18:01:30Z</time>
      </trkpt>
      <trkpt lat="44.46632" lon="1.00645">
        <ele>162</ele>
        <time>2020-01-13T18:01:31Z</time>
      </trkpt>
      <trkpt lat="44.46631" lon="1.00644">
        <ele>162</ele>
        <time>2020-01-13T18:01:32Z</time>
      </trkpt>
      <trkpt lat="44.46628" lon="1.00639">
        <ele>163</ele>
        <time>2020-01-13T18:01:33Z</time>
      </trkpt>
      <trkpt lat="44.46626" lon="1.00637">
        <ele>164</ele>
        <time>2020-01-13T18:01:34Z</time>
      </trkpt>
      <trkpt lat="44.46621" lon="1.0063">
        <ele>165</ele>
        <time>2020-01-13T18:01:35Z</time>
      </trkpt>
      <trkpt lat="44.46617" lon="1.00626">
        <ele>166</ele>
        <time>2020-01-13T18:01:36Z</time>
      </trkpt>
      <trkpt lat="44.46615" lon="1.00625">
        <ele>166</ele>
        <time>2020-01-13T18:01:37Z</time>
      </trkpt>
      <trkpt lat="44.46613" lon="1.00625">
        <ele>167</ele>
        <time>2020-01-13T18:01:38Z</time>
      </trkpt>
      <trkpt lat="44.46611" lon="1.00624">
        <ele>167</ele>
        <time>2020-01-13T18:01:39Z</time>
      </trkpt>
      <trkpt lat="44.46606" lon="1.00623">
        <ele>168</ele>
        <time>2020-01-13T18:01:40Z</time>
      </trkpt>
      <trkpt lat="44.466" lon="1.00621">
        <ele>170</ele>
        <time>2020-01-13T18:01:41Z</time>
      </trkpt>
      <trkpt lat="44.46596" lon="1.0062">
        <ele>170</ele>
        <time>2020-01-13T18:01:42Z</time>
      </trkpt>
      <trkpt lat="44.46591" lon="1.00619">
        <ele>172</ele>
        <time>2020-01-13T18:01:43Z</time>
      </trkpt>
      <trkpt lat="44.46587" lon="1.00619">
        <ele>172</ele>
        <time>2020-01-13T18:01:44Z</time>
      </trkpt>
      <trkpt lat="44.46581" lon="1.00616">
        <ele>173</ele>
        <time>2020-01-13T18:01:45Z</time>
      </trkpt>
      <trkpt lat="44.46579" lon="1.00615">
        <ele>174</ele>
        <time>2020-01-13T18:01:46Z</time>
      </trkpt>
      <trkpt lat="44.46578" lon="1.00614">
        <ele>174</ele>
        <time>2020-01-13T18:01:47Z</time>
      </trkpt>
      <trkpt lat="44.46577" lon="1.00613">
        <ele>174</ele>
        <time>2020-01-13T18:01:48Z</time>
      </trkpt>
      <trkpt lat="44.46574" lon="1.00612">
        <ele>174</ele>
        <time>2020-01-13T18:01:49Z</time>
      </trkpt>
      <trkpt lat="44.4657" lon="1.00608">
        <ele>175</ele>
        <time>2020-01-13T18:01:50Z</time>
      </trkpt>
      <trkpt lat="44.46568" lon="1.00606">
        <ele>175</ele>
        <time>2020-01-13T18:01:51Z</time>
      </trkpt>
      <trkpt lat="44.46565" lon="1.00603">
        <ele>176</ele>
        <time>2020-01-13T18:01:52Z</time>
      </trkpt>
      <trkpt lat="44.46561" lon="1.006">
        <ele>176</ele>
        <time>2020-01-13T18:01:53Z</time>
      </trkpt>
      <trkpt lat="44.46551" lon="1.00589">
        <ele>178</ele>
        <time>2020-01-13T18:01:54Z</time>
      </trkpt>
      <trkpt lat="44.46545" lon="1.00583">
        <ele>178</ele>
        <time>2020-01-13T18:01:55Z</time>
      </trkpt>
      <trkpt lat="44.46543" lon="1.00581">
        <ele>179</ele>
        <time>2020-01-13T18:01:56Z</time>
      </trkpt>
      <trkpt lat="44.46539" lon="1.00577">
        <ele>179</ele>
        <time>2020-01-13T18:01:57Z</time>
      </trkpt>
      <trkpt lat="44.46535" lon="1.00571">
        <ele>180</ele>
        <time>2020-01-13T18:01:58Z</time>
      </trkpt>
      <trkpt lat="44.46534" lon="1.00569">
        <ele>180</ele>
        <time>2020-01-13T18:01:59Z</time>
      </trkpt>
      <trkpt lat="44.46527" lon="1.0056">
        <ele>181</ele>
        <time>2020-01-13T18:02:00Z</time>
      </trkpt>
      <trkpt lat="44.46526" lon="1.00558">
        <ele>181</ele>
        <time>2020-01-13T18:02:01Z</time>
      </trkpt>
      <trkpt lat="44.46525" lon="1.00554">
        <ele>181</ele>
        <time>2020-01-13T18:02:02Z</time>
      </trkpt>
      <trkpt lat="44.46521" lon="1.00549">
        <ele>182</ele>
        <time>2020-01-13T18:02:03Z</time>
      </trkpt>
      <trkpt lat="44.4652" lon="1.00547">
        <ele>182</ele>
        <time>2020-01-13T18:02:04Z</time>
      </trkpt>
      <trkpt lat="44.46518" lon="1.00544">
        <ele>183</ele>
        <time>2020-01-13T18:02:05Z</time>
      </trkpt>
      <trkpt lat="44.46514" lon="1.0054">
        <ele>183</ele>
        <time>2020-01-13T18:02:06Z</time>
      </trkpt>
      <trkpt lat="44.4651" lon="1.00535">
        <ele>184</ele>
        <time>2020-01-13T18:02:07Z</time>
      </trkpt>
      <trkpt lat="44.46507" lon="1.00532">
        <ele>185</ele>
        <time>2020-01-13T18:02:08Z</time>
      </trkpt>
      <trkpt lat="44.46506" lon="1.00531">
        <ele>185</ele>
        <time>2020-01-13T18:02:09Z</time>
      </trkpt>
      <trkpt lat="44.46504" lon="1.0053">
        <ele>185</ele>
        <time>2020-01-13T18:02:10Z</time>
      </trkpt>
      <trkpt lat="44.46503" lon="1.00528">
        <ele>185</ele>
        <time>2020-01-13T18:02:11Z</time>
      </trkpt>
      <trkpt lat="44.46498" lon="1.00525">
        <ele>186</ele>
        <time>2020-01-13T18:02:12Z</time>
      </trkpt>
      <trkpt lat="44.46495" lon="1.00523">
        <ele>186</ele>
        <time>2020-01-13T18:02:13Z</time>
      </trkpt>
      <trkpt lat="44.46494" lon="1.00522">
        <ele>187</ele>
        <time>2020-01-13T18:02:14Z</time>
      </trkpt>
      <trkpt lat="44.46481" lon="1.00512">
        <ele>188</ele>
        <time>2020-01-13T18:02:15Z</time>
      </trkpt>
      <trkpt lat="44.46479" lon="1.0051">
        <ele>189</ele>
        <time>2020-01-13T18:02:16Z</time>
      </trkpt>
      <trkpt lat="44.46474" lon="1.00506">
        <ele>189</ele>
        <time>2020-01-13T18:02:17Z</time>
      </trkpt>
      <trkpt lat="44.46471" lon="1.00504">
        <ele>190</ele>
        <time>2020-01-13T18:02:18Z</time>
      </trkpt>
      <trkpt lat="44.46467" lon="1.00501">
        <ele>190</ele>
        <time>2020-01-13T18:02:19Z</time>
      </trkpt>
      <trkpt lat="44.46465" lon="1.005">
        <ele>191</ele>
        <time>2020-01-13T18:02:20Z</time>
      </trkpt>
      <trkpt lat="44.46462" lon="1.00497">
        <ele>191</ele>
        <time>2020-01-13T18:02:21Z</time>
      </trkpt>
      <trkpt lat="44.46458" lon="1.00494">
        <ele>191</ele>
        <time>2020-01-13T18:02:22Z</time>
      </trkpt>
      <trkpt lat="44.46452" lon="1.00491">
        <ele>192</ele>
        <time>2020-01-13T18:02:23Z</time>
      </trkpt>
      <trkpt lat="44.4645" lon="1.00491">
        <ele>192</ele>
        <time>2020-01-13T18:02:24Z</time>
      </trkpt>
      <trkpt lat="44.46447" lon="1.00488">
        <ele>192</ele>
        <time>2020-01-13T18:02:25Z</time>
      </trkpt>
      <trkpt lat="44.46443" lon="1.00485">
        <ele>193</ele>
        <time>2020-01-13T18:02:26Z</time>
      </trkpt>
      <trkpt lat="44.46439" lon="1.0048">
        <ele>193</ele>
        <time>2020-01-13T18:02:27Z</time>
      </trkpt>
      <trkpt lat="44.46436" lon="1.00475">
        <ele>194</ele>
        <time>2020-01-13T18:02:28Z</time>
      </trkpt>
      <trkpt lat="44.46431" lon="1.00468">
        <ele>195</ele>
        <time>2020-01-13T18:02:29Z</time>
      </trkpt>
      <trkpt lat="44.4642" lon="1.00445">
        <ele>196</ele>
        <time>2020-01-13T18:02:30Z</time>
      </trkpt>
      <trkpt lat="44.46419" lon="1.00442">
        <ele>197</ele>
        <time>2020-01-13T18:02:31Z</time>
      </trkpt>
      <trkpt lat="44.46417" lon="1.00439">
        <ele>197</ele>
        <time>2020-01-13T18:02:32Z</time>
      </trkpt>
      <trkpt lat="44.46414" lon="1.00433">
        <ele>197</ele>
        <time>2020-01-13T18:02:33Z</time>
      </trkpt>
      <trkpt lat="44.4641" lon="1.00427">
        <ele>197</ele>
        <time>2020-01-13T18:02:34Z</time>
      </trkpt>
      <trkpt lat="44.46399" lon="1.00415">
        <ele>198</ele>
        <time>2020-01-13T18:02:35Z</time>
      </trkpt>
      <trkpt lat="44.4639" lon="1.00405">
        <ele>197</ele>
        <time>2020-01-13T18:02:36Z</time>
      </trkpt>
      <trkpt lat="44.46387" lon="1.00401">
        <ele>197</ele>
        <time>2020-01-13T18:02:37Z</time>
      </trkpt>
      <trkpt lat="44.46384" lon="1.00398">
        <ele>197</ele>
        <time>2020-01-13T18:02:38Z</time>
      </trkpt>
      <trkpt lat="44.46382" lon="1.00394">
        <ele>197</ele>
        <time>2020-01-13T18:02:39Z</time>
      </trkpt>
      <trkpt lat="44.46381" lon="1.0039">
        <ele>197</ele>
        <time>2020-01-13T18:02:40Z</time>
      </trkpt>
      <trkpt lat="44.46381" lon="1.00385">
        <ele>197</ele>
        <time>2020-01-13T18:02:41Z</time>
      </trkpt>
      <trkpt lat="44.46382" lon="1.0038">
        <ele>197</ele>
        <time>2020-01-13T18:02:42Z</time>
      </trkpt>
      <trkpt lat="44.46385" lon="1.00371">
        <ele>197</ele>
        <time>2020-01-13T18:02:43Z</time>
      </trkpt>
      <trkpt lat="44.46387" lon="1.00366">
        <ele>197</ele>
        <time>2020-01-13T18:02:44Z</time>
      </trkpt>
      <trkpt lat="44.46391" lon="1.00355">
        <ele>197</ele>
        <time>2020-01-13T18:02:45Z</time>
      </trkpt>
      <trkpt lat="44.46392" lon="1.00349">
        <ele>197</ele>
        <time>2020-01-13T18:02:46Z</time>
      </trkpt>
      <trkpt lat="44.46394" lon="1.00344">
        <ele>197</ele>
        <time>2020-01-13T18:02:47Z</time>
      </trkpt>
      <trkpt lat="44.46396" lon="1.00338">
        <ele>197</ele>
        <time>2020-01-13T18:02:48Z</time>
      </trkpt>
      <trkpt lat="44.46399" lon="1.00321">
        <ele>196</ele>
        <time>2020-01-13T18:02:49Z</time>
      </trkpt>
      <trkpt lat="44.46401" lon="1.00315">
        <ele>196</ele>
        <time>2020-01-13T18:02:50Z</time>
      </trkpt>
      <trkpt lat="44.46402" lon="1.00309">
        <ele>196</ele>
        <time>2020-01-13T18:02:51Z</time>
      </trkpt>
      <trkpt lat="44.46403" lon="1.00303">
        <ele>196</ele>
        <time>2020-01-13T18:02:52Z</time>
      </trkpt>
      <trkpt lat="44.46404" lon="1.00284">
        <ele>196</ele>
        <time>2020-01-13T18:02:53Z</time>
      </trkpt>
      <trkpt lat="44.46404" lon="1.00276">
        <ele>195</ele>
        <time>2020-01-13T18:02:54Z</time>
      </trkpt>
      <trkpt lat="44.46403" lon="1.00261">
        <ele>195</ele>
        <time>2020-01-13T18:02:55Z</time>
      </trkpt>
      <trkpt lat="44.46401" lon="1.00236">
        <ele>194</ele>
        <time>2020-01-13T18:02:56Z</time>
      </trkpt>
      <trkpt lat="44.46399" lon="1.0022">
        <ele>194</ele>
        <time>2020-01-13T18:02:57Z</time>
      </trkpt>
      <trkpt lat="44.46398" lon="1.00211">
        <ele>194</ele>
        <time>2020-01-13T18:02:58Z</time>
      </trkpt>
      <trkpt lat="44.46397" lon="1.00203">
        <ele>194</ele>
        <time>2020-01-13T18:02:59Z</time>
      </trkpt>
      <trkpt lat="44.46395" lon="1.00194">
        <ele>194</ele>
        <time>2020-01-13T18:03:00Z</time>
      </trkpt>
      <trkpt lat="44.46394" lon="1.00186">
        <ele>194</ele>
        <time>2020-01-13T18:03:01Z</time>
      </trkpt>
      <trkpt lat="44.46391" lon="1.00168">
        <ele>194</ele>
        <time>2020-01-13T18:03:02Z</time>
      </trkpt>
      <trkpt lat="44.4639" lon="1.00159">
        <ele>193</ele>
        <time>2020-01-13T18:03:03Z</time>
      </trkpt>
      <trkpt lat="44.46387" lon="1.00141">
        <ele>193</ele>
        <time>2020-01-13T18:03:04Z</time>
      </trkpt>
      <trkpt lat="44.46382" lon="1.00125">
        <ele>192</ele>
        <time>2020-01-13T18:03:05Z</time>
      </trkpt>
      <trkpt lat="44.4638" lon="1.00118">
        <ele>192</ele>
        <time>2020-01-13T18:03:06Z</time>
      </trkpt>
      <trkpt lat="44.46378" lon="1.00112">
        <ele>192</ele>
        <time>2020-01-13T18:03:07Z</time>
      </trkpt>
      <trkpt lat="44.46376" lon="1.00108">
        <ele>192</ele>
        <time>2020-01-13T18:03:08Z</time>
      </trkpt>
      <trkpt lat="44.46373" lon="1.00107">
        <ele>192</ele>
        <time>2020-01-13T18:03:09Z</time>
      </trkpt>
      <trkpt lat="44.46369" lon="1.00108">
        <ele>192</ele>
        <time>2020-01-13T18:03:10Z</time>
      </trkpt>
      <trkpt lat="44.46365" lon="1.0011">
        <ele>192</ele>
        <time>2020-01-13T18:03:11Z</time>
      </trkpt>
      <trkpt lat="44.46355" lon="1.0012">
        <ele>192</ele>
        <time>2020-01-13T18:03:12Z</time>
      </trkpt>
      <trkpt lat="44.4635" lon="1.00124">
        <ele>192</ele>
        <time>2020-01-13T18:03:13Z</time>
      </trkpt>
      <trkpt lat="44.46337" lon="1.00134">
        <ele>193</ele>
        <time>2020-01-13T18:03:14Z</time>
      </trkpt>
      <trkpt lat="44.46324" lon="1.00148">
        <ele>192</ele>
        <time>2020-01-13T18:03:15Z</time>
      </trkpt>
      <trkpt lat="44.46318" lon="1.00156">
        <ele>192</ele>
        <time>2020-01-13T18:03:16Z</time>
      </trkpt>
      <trkpt lat="44.46312" lon="1.00165">
        <ele>191</ele>
        <time>2020-01-13T18:03:17Z</time>
      </trkpt>
      <trkpt lat="44.46299" lon="1.00185">
        <ele>189</ele>
        <time>2020-01-13T18:03:18Z</time>
      </trkpt>
      <trkpt lat="44.46278" lon="1.00216">
        <ele>186</ele>
        <time>2020-01-13T18:03:19Z</time>
      </trkpt>
      <trkpt lat="44.46271" lon="1.00225">
        <ele>185</ele>
        <time>2020-01-13T18:03:20Z</time>
      </trkpt>
      <trkpt lat="44.46262" lon="1.00234">
        <ele>184</ele>
        <time>2020-01-13T18:03:21Z</time>
      </trkpt>
      <trkpt lat="44.46253" lon="1.0024">
        <ele>183</ele>
        <time>2020-01-13T18:03:22Z</time>
      </trkpt>
      <trkpt lat="44.46243" lon="1.00243">
        <ele>182</ele>
        <time>2020-01-13T18:03:23Z</time>
      </trkpt>
      <trkpt lat="44.46233" lon="1.00244">
        <ele>181</ele>
        <time>2020-01-13T18:03:24Z</time>
      </trkpt>
      <trkpt lat="44.46223" lon="1.00244">
        <ele>180</ele>
        <time>2020-01-13T18:03:25Z</time>
      </trkpt>
      <trkpt lat="44.46213" lon="1.00243">
        <ele>180</ele>
        <time>2020-01-13T18:03:26Z</time>
      </trkpt>
      <trkpt lat="44.46193" lon="1.00241">
        <ele>179</ele>
        <time>2020-01-13T18:03:27Z</time>
      </trkpt>
      <trkpt lat="44.46183" lon="1.0024">
        <ele>178</ele>
        <time>2020-01-13T18:03:28Z</time>
      </trkpt>
      <trkpt lat="44.46174" lon="1.00239">
        <ele>177</ele>
        <time>2020-01-13T18:03:29Z</time>
      </trkpt>
      <trkpt lat="44.46164" lon="1.00238">
        <ele>177</ele>
        <time>2020-01-13T18:03:30Z</time>
      </trkpt>
      <trkpt lat="44.46146" lon="1.0024">
        <ele>176</ele>
        <time>2020-01-13T18:03:31Z</time>
      </trkpt>
      <trkpt lat="44.46118" lon="1.00245">
        <ele>175</ele>
        <time>2020-01-13T18:03:32Z</time>
      </trkpt>
      <trkpt lat="44.46089" lon="1.00253">
        <ele>174</ele>
        <time>2020-01-13T18:03:33Z</time>
      </trkpt>
      <trkpt lat="44.46079" lon="1.00254">
        <ele>174</ele>
        <time>2020-01-13T18:03:34Z</time>
      </trkpt>
      <trkpt lat="44.46069" lon="1.00253">
        <ele>173</ele>
        <time>2020-01-13T18:03:35Z</time>
      </trkpt>
      <trkpt lat="44.46049" lon="1.00251">
        <ele>172</ele>
        <time>2020-01-13T18:03:36Z</time>
      </trkpt>
      <trkpt lat="44.4604" lon="1.00249">
        <ele>171</ele>
        <time>2020-01-13T18:03:37Z</time>
      </trkpt>
      <trkpt lat="44.46031" lon="1.00247">
        <ele>170</ele>
        <time>2020-01-13T18:03:38Z</time>
      </trkpt>
      <trkpt lat="44.46022" lon="1.00245">
        <ele>170</ele>
        <time>2020-01-13T18:03:39Z</time>
      </trkpt>
      <trkpt lat="44.46012" lon="1.00242">
        <ele>169</ele>
        <time>2020-01-13T18:03:40Z</time>
      </trkpt>
      <trkpt lat="44.46003" lon="1.00239">
        <ele>168</ele>
        <time>2020-01-13T18:03:41Z</time>
      </trkpt>
      <trkpt lat="44.45994" lon="1.00237">
        <ele>168</ele>
        <time>2020-01-13T18:03:42Z</time>
      </trkpt>
      <trkpt lat="44.45983" lon="1.00235">
        <ele>168</ele>
        <time>2020-01-13T18:03:43Z</time>
      </trkpt>
      <trkpt lat="44.45973" lon="1.00235">
        <ele>167</ele>
        <time>2020-01-13T18:03:44Z</time>
      </trkpt>
      <trkpt lat="44.45963" lon="1.00235">
        <ele>167</ele>
        <time>2020-01-13T18:03:45Z</time>
      </trkpt>
      <trkpt lat="44.45953" lon="1.00235">
        <ele>167</ele>
        <time>2020-01-13T18:03:46Z</time>
      </trkpt>
      <trkpt lat="44.45944" lon="1.00236">
        <ele>167</ele>
        <time>2020-01-13T18:03:47Z</time>
      </trkpt>
      <trkpt lat="44.45935" lon="1.00238">
        <ele>167</ele>
        <time>2020-01-13T18:03:48Z</time>
      </trkpt>
      <trkpt lat="44.45926" lon="1.00239">
        <ele>166</ele>
        <time>2020-01-13T18:03:49Z</time>
      </trkpt>
      <trkpt lat="44.45917" lon="1.0024">
        <ele>166</ele>
        <time>2020-01-13T18:03:50Z</time>
      </trkpt>
      <trkpt lat="44.45908" lon="1.00242">
        <ele>166</ele>
        <time>2020-01-13T18:03:51Z</time>
      </trkpt>
      <trkpt lat="44.459" lon="1.00245">
        <ele>166</ele>
        <time>2020-01-13T18:03:52Z</time>
      </trkpt>
      <trkpt lat="44.45892" lon="1.00248">
        <ele>165</ele>
        <time>2020-01-13T18:03:53Z</time>
      </trkpt>
      <trkpt lat="44.45875" lon="1.00254">
        <ele>165</ele>
        <time>2020-01-13T18:03:54Z</time>
      </trkpt>
      <trkpt lat="44.45866" lon="1.00258">
        <ele>165</ele>
        <time>2020-01-13T18:03:55Z</time>
      </trkpt>
      <trkpt lat="44.4585" lon="1.00266">
        <ele>165</ele>
        <time>2020-01-13T18:03:56Z</time>
      </trkpt>
      <trkpt lat="44.45842" lon="1.0027">
        <ele>165</ele>
        <time>2020-01-13T18:03:57Z</time>
      </trkpt>
      <trkpt lat="44.45827" lon="1.00278">
        <ele>165</ele>
        <time>2020-01-13T18:03:58Z</time>
      </trkpt>
      <trkpt lat="44.45812" lon="1.00286">
        <ele>164</ele>
        <time>2020-01-13T18:03:59Z</time>
      </trkpt>
      <trkpt lat="44.45805" lon="1.0029">
        <ele>164</ele>
        <time>2020-01-13T18:04:00Z</time>
      </trkpt>
      <trkpt lat="44.45797" lon="1.00294">
        <ele>163</ele>
        <time>2020-01-13T18:04:01Z</time>
      </trkpt>
      <trkpt lat="44.45782" lon="1.00301">
        <ele>162</ele>
        <time>2020-01-13T18:04:02Z</time>
      </trkpt>
      <trkpt lat="44.45774" lon="1.00305">
        <ele>161</ele>
        <time>2020-01-13T18:04:03Z</time>
      </trkpt>
      <trkpt lat="44.45759" lon="1.00313">
        <ele>160</ele>
        <time>2020-01-13T18:04:04Z</time>
      </trkpt>
      <trkpt lat="44.45752" lon="1.00318">
        <ele>159</ele>
        <time>2020-01-13T18:04:05Z</time>
      </trkpt>
      <trkpt lat="44.45729" lon="1.00332">
        <ele>159</ele>
        <time>2020-01-13T18:04:06Z</time>
      </trkpt>
      <trkpt lat="44.45715" lon="1.00343">
        <ele>160</ele>
        <time>2020-01-13T18:04:07Z</time>
      </trkpt>
      <trkpt lat="44.45701" lon="1.00353">
        <ele>161</ele>
        <time>2020-01-13T18:04:08Z</time>
      </trkpt>
      <trkpt lat="44.45695" lon="1.00359">
        <ele>161</ele>
        <time>2020-01-13T18:04:09Z</time>
      </trkpt>
      <trkpt lat="44.45688" lon="1.00364">
        <ele>161</ele>
        <time>2020-01-13T18:04:10Z</time>
      </trkpt>
      <trkpt lat="44.4567" lon="1.00383">
        <ele>161</ele>
        <time>2020-01-13T18:04:11Z</time>
      </trkpt>
      <trkpt lat="44.45663" lon="1.00389">
        <ele>161</ele>
        <time>2020-01-13T18:04:12Z</time>
      </trkpt>
      <trkpt lat="44.45657" lon="1.00396">
        <ele>160</ele>
        <time>2020-01-13T18:04:13Z</time>
      </trkpt>
      <trkpt lat="44.45651" lon="1.00402">
        <ele>160</ele>
        <time>2020-01-13T18:04:14Z</time>
      </trkpt>
      <trkpt lat="44.45644" lon="1.00409">
        <ele>159</ele>
        <time>2020-01-13T18:04:15Z</time>
      </trkpt>
      <trkpt lat="44.45638" lon="1.00414">
        <ele>158</ele>
        <time>2020-01-13T18:04:16Z</time>
      </trkpt>
      <trkpt lat="44.45631" lon="1.00418">
        <ele>158</ele>
        <time>2020-01-13T18:04:17Z</time>
      </trkpt>
      <trkpt lat="44.45625" lon="1.00419">
        <ele>157</ele>
        <time>2020-01-13T18:04:18Z</time>
      </trkpt>
      <trkpt lat="44.45617" lon="1.00418">
        <ele>157</ele>
        <time>2020-01-13T18:04:19Z</time>
      </trkpt>
      <trkpt lat="44.4561" lon="1.00417">
        <ele>156</ele>
        <time>2020-01-13T18:04:20Z</time>
      </trkpt>
      <trkpt lat="44.45596" lon="1.00418">
        <ele>155</ele>
        <time>2020-01-13T18:04:21Z</time>
      </trkpt>
      <trkpt lat="44.45581" lon="1.00422">
        <ele>155</ele>
        <time>2020-01-13T18:04:22Z</time>
      </trkpt>
      <trkpt lat="44.45574" lon="1.00424">
        <ele>155</ele>
        <time>2020-01-13T18:04:23Z</time>
      </trkpt>
      <trkpt lat="44.45552" lon="1.00433">
        <ele>155</ele>
        <time>2020-01-13T18:04:24Z</time>
      </trkpt>
      <trkpt lat="44.45544" lon="1.00436">
        <ele>155</ele>
        <time>2020-01-13T18:04:25Z</time>
      </trkpt>
      <trkpt lat="44.45536" lon="1.00439">
        <ele>155</ele>
        <time>2020-01-13T18:04:26Z</time>
      </trkpt>
      <trkpt lat="44.45504" lon="1.00453">
        <ele>154</ele>
        <time>2020-01-13T18:04:27Z</time>
      </trkpt>
      <trkpt lat="44.45496" lon="1.00458">
        <ele>154</ele>
        <time>2020-01-13T18:04:28Z</time>
      </trkpt>
      <trkpt lat="44.45488" lon="1.00463">
        <ele>154</ele>
        <time>2020-01-13T18:04:29Z</time>
      </trkpt>
      <trkpt lat="44.45473" lon="1.00475">
        <ele>154</ele>
        <time>2020-01-13T18:04:30Z</time>
      </trkpt>
      <trkpt lat="44.45459" lon="1.00486">
        <ele>154</ele>
        <time>2020-01-13T18:04:31Z</time>
      </trkpt>
      <trkpt lat="44.45438" lon="1.00503">
        <ele>153</ele>
        <time>2020-01-13T18:04:32Z</time>
      </trkpt>
      <trkpt lat="44.45412" lon="1.00526">
        <ele>152</ele>
        <time>2020-01-13T18:04:33Z</time>
      </trkpt>
      <trkpt lat="44.45405" lon="1.00531">
        <ele>152</ele>
        <time>2020-01-13T18:04:34Z</time>
      </trkpt>
      <trkpt lat="44.45399" lon="1.00537">
        <ele>152</ele>
        <time>2020-01-13T18:04:35Z</time>
      </trkpt>
      <trkpt lat="44.45393" lon="1.00544">
        <ele>151</ele>
        <time>2020-01-13T18:04:36Z</time>
      </trkpt>
      <trkpt lat="44.4538" lon="1.00556">
        <ele>150</ele>
        <time>2020-01-13T18:04:37Z</time>
      </trkpt>
      <trkpt lat="44.45368" lon="1.00567">
        <ele>148</ele>
        <time>2020-01-13T18:04:38Z</time>
      </trkpt>
      <trkpt lat="44.45355" lon="1.00578">
        <ele>146</ele>
        <time>2020-01-13T18:04:39Z</time>
      </trkpt>
      <trkpt lat="44.45335" lon="1.00592">
        <ele>144</ele>
        <time>2020-01-13T18:04:40Z</time>
      </trkpt>
      <trkpt lat="44.45327" lon="1.00596">
        <ele>143</ele>
        <time>2020-01-13T18:04:41Z</time>
      </trkpt>
      <trkpt lat="44.4532" lon="1.006">
        <ele>142</ele>
        <time>2020-01-13T18:04:42Z</time>
      </trkpt>
      <trkpt lat="44.45312" lon="1.00602">
        <ele>142</ele>
        <time>2020-01-13T18:04:43Z</time>
      </trkpt>
      <trkpt lat="44.45299" lon="1.00606">
        <ele>140</ele>
        <time>2020-01-13T18:04:44Z</time>
      </trkpt>
      <trkpt lat="44.4529" lon="1.00607">
        <ele>139</ele>
        <time>2020-01-13T18:04:45Z</time>
      </trkpt>
      <trkpt lat="44.45286" lon="1.00607">
        <ele>139</ele>
        <time>2020-01-13T18:04:46Z</time>
      </trkpt>
      <trkpt lat="44.45282" lon="1.00606">
        <ele>139</ele>
        <time>2020-01-13T18:04:47Z</time>
      </trkpt>
      <trkpt lat="44.45282" lon="1.00604">
        <ele>139</ele>
        <time>2020-01-13T18:04:48Z</time>
      </trkpt>
      <trkpt lat="44.45284" lon="1.00601">
        <ele>139</ele>
        <time>2020-01-13T18:04:49Z</time>
      </trkpt>
      <trkpt lat="44.45282" lon="1.006">
        <ele>138</ele>
        <time>2020-01-13T18:04:50Z</time>
      </trkpt>
      <trkpt lat="44.45281" lon="1.00599">
        <ele>138</ele>
        <time>2020-01-13T18:04:51Z</time>
      </trkpt>
      <trkpt lat="44.45279" lon="1.00599">
        <ele>138</ele>
        <time>2020-01-13T18:04:52Z</time>
      </trkpt>
      <trkpt lat="44.45275" lon="1.00593">
        <ele>138</ele>
        <time>2020-01-13T18:04:53Z</time>
      </trkpt>
      <trkpt lat="44.45273" lon="1.00592">
        <ele>137</ele>
        <time>2020-01-13T18:04:54Z</time>
      </trkpt>
      <trkpt lat="44.4527" lon="1.00592">
        <ele>137</ele>
        <time>2020-01-13T18:04:55Z</time>
      </trkpt>
      <trkpt lat="44.45264" lon="1.00593">
        <ele>136</ele>
        <time>2020-01-13T18:04:56Z</time>
      </trkpt>
      <trkpt lat="44.45259" lon="1.00594">
        <ele>136</ele>
        <time>2020-01-13T18:04:57Z</time>
      </trkpt>
      <trkpt lat="44.45251" lon="1.00595">
        <ele>135</ele>
        <time>2020-01-13T18:04:58Z</time>
      </trkpt>
      <trkpt lat="44.45237" lon="1.00595">
        <ele>137</ele>
        <time>2020-01-13T18:04:59Z</time>
      </trkpt>
      <trkpt lat="44.45223" lon="1.00594">
        <ele>139</ele>
        <time>2020-01-13T18:05:00Z</time>
      </trkpt>
      <trkpt lat="44.45219" lon="1.00594">
        <ele>139</ele>
        <time>2020-01-13T18:05:01Z</time>
      </trkpt>
      <trkpt lat="44.45211" lon="1.00596">
        <ele>140</ele>
        <time>2020-01-13T18:05:02Z</time>
      </trkpt>
      <trkpt lat="44.45205" lon="1.00596">
        <ele>141</ele>
        <time>2020-01-13T18:05:03Z</time>
      </trkpt>
      <trkpt lat="44.452" lon="1.00596">
        <ele>142</ele>
        <time>2020-01-13T18:05:04Z</time>
      </trkpt>
      <trkpt lat="44.45194" lon="1.00595">
        <ele>142</ele>
        <time>2020-01-13T18:05:05Z</time>
      </trkpt>
      <trkpt lat="44.45192" lon="1.00593">
        <ele>143</ele>
        <time>2020-01-13T18:05:06Z</time>
      </trkpt>
      <trkpt lat="44.45189" lon="1.00591">
        <ele>143</ele>
        <time>2020-01-13T18:05:07Z</time>
      </trkpt>
      <trkpt lat="44.45187" lon="1.00588">
        <ele>143</ele>
        <time>2020-01-13T18:05:08Z</time>
      </trkpt>
      <trkpt lat="44.45184" lon="1.00579">
        <ele>143</ele>
        <time>2020-01-13T18:05:09Z</time>
      </trkpt>
      <trkpt lat="44.45182" lon="1.00569">
        <ele>143</ele>
        <time>2020-01-13T18:05:10Z</time>
      </trkpt>
      <trkpt lat="44.45181" lon="1.00564">
        <ele>143</ele>
        <time>2020-01-13T18:05:11Z</time>
      </trkpt>
      <trkpt lat="44.4518" lon="1.0056">
        <ele>143</ele>
        <time>2020-01-13T18:05:12Z</time>
      </trkpt>
      <trkpt lat="44.45178" lon="1.00558">
        <ele>144</ele>
        <time>2020-01-13T18:05:13Z</time>
      </trkpt>
      <trkpt lat="44.45171" lon="1.00558">
        <ele>144</ele>
        <time>2020-01-13T18:05:14Z</time>
      </trkpt>
      <trkpt lat="44.45169" lon="1.0056">
        <ele>145</ele>
        <time>2020-01-13T18:05:15Z</time>
      </trkpt>
      <trkpt lat="44.45161" lon="1.00562">
        <ele>146</ele>
        <time>2020-01-13T18:05:16Z</time>
      </trkpt>
      <trkpt lat="44.45156" lon="1.00565">
        <ele>147</ele>
        <time>2020-01-13T18:05:17Z</time>
      </trkpt>
      <trkpt lat="44.45154" lon="1.00568">
        <ele>147</ele>
        <time>2020-01-13T18:05:18Z</time>
      </trkpt>
      <trkpt lat="44.45148" lon="1.0057">
        <ele>148</ele>
        <time>2020-01-13T18:05:19Z</time>
      </trkpt>
      <trkpt lat="44.45145" lon="1.00571">
        <ele>149</ele>
        <time>2020-01-13T18:05:20Z</time>
      </trkpt>
      <trkpt lat="44.4514" lon="1.00574">
        <ele>150</ele>
        <time>2020-01-13T18:05:21Z</time>
      </trkpt>
      <trkpt lat="44.45133" lon="1.00579">
        <ele>151</ele>
        <time>2020-01-13T18:05:22Z</time>
      </trkpt>
      <trkpt lat="44.45131" lon="1.00581">
        <ele>151</ele>
        <time>2020-01-13T18:05:23Z</time>
      </trkpt>
      <trkpt lat="44.45127" lon="1.00583">
        <ele>152</ele>
        <time>2020-01-13T18:05:24Z</time>
      </trkpt>
      <trkpt lat="44.45125" lon="1.00585">
        <ele>152</ele>
        <time>2020-01-13T18:05:25Z</time>
      </trkpt>
      <trkpt lat="44.45119" lon="1.00588">
        <ele>153</ele>
        <time>2020-01-13T18:05:26Z</time>
      </trkpt>
      <trkpt lat="44.45114" lon="1.0059">
        <ele>154</ele>
        <time>2020-01-13T18:05:27Z</time>
      </trkpt>
      <trkpt lat="44.4511" lon="1.00592">
        <ele>155</ele>
        <time>2020-01-13T18:05:28Z</time>
      </trkpt>
      <trkpt lat="44.45102" lon="1.00595">
        <ele>157</ele>
        <time>2020-01-13T18:05:29Z</time>
      </trkpt>
      <trkpt lat="44.45094" lon="1.006">
        <ele>158</ele>
        <time>2020-01-13T18:05:30Z</time>
      </trkpt>
      <trkpt lat="44.45092" lon="1.00601">
        <ele>158</ele>
        <time>2020-01-13T18:05:31Z</time>
      </trkpt>
      <trkpt lat="44.45084" lon="1.00606">
        <ele>160</ele>
        <time>2020-01-13T18:05:32Z</time>
      </trkpt>
      <trkpt lat="44.45079" lon="1.00608">
        <ele>161</ele>
        <time>2020-01-13T18:05:33Z</time>
      </trkpt>
      <trkpt lat="44.45075" lon="1.00612">
        <ele>162</ele>
        <time>2020-01-13T18:05:34Z</time>
      </trkpt>
      <trkpt lat="44.45073" lon="1.00613">
        <ele>162</ele>
        <time>2020-01-13T18:05:35Z</time>
      </trkpt>
      <trkpt lat="44.45071" lon="1.00615">
        <ele>162</ele>
        <time>2020-01-13T18:05:36Z</time>
      </trkpt>
      <trkpt lat="44.45068" lon="1.00616">
        <ele>163</ele>
        <time>2020-01-13T18:05:37Z</time>
      </trkpt>
      <trkpt lat="44.45061" lon="1.00619">
        <ele>164</ele>
        <time>2020-01-13T18:05:38Z</time>
      </trkpt>
      <trkpt lat="44.4506" lon="1.0062">
        <ele>164</ele>
        <time>2020-01-13T18:05:39Z</time>
      </trkpt>
      <trkpt lat="44.45058" lon="1.00621">
        <ele>164</ele>
        <time>2020-01-13T18:05:40Z</time>
      </trkpt>
      <trkpt lat="44.45055" lon="1.00621">
        <ele>165</ele>
        <time>2020-01-13T18:05:41Z</time>
      </trkpt>
      <trkpt lat="44.45051" lon="1.00623">
        <ele>165</ele>
        <time>2020-01-13T18:05:42Z</time>
      </trkpt>
      <trkpt lat="44.45047" lon="1.00626">
        <ele>166</ele>
        <time>2020-01-13T18:05:43Z</time>
      </trkpt>
      <trkpt lat="44.45045" lon="1.00627">
        <ele>166</ele>
        <time>2020-01-13T18:05:44Z</time>
      </trkpt>
      <trkpt lat="44.45044" lon="1.00628">
        <ele>166</ele>
        <time>2020-01-13T18:05:45Z</time>
      </trkpt>
      <trkpt lat="44.45042" lon="1.00628">
        <ele>166</ele>
        <time>2020-01-13T18:05:46Z</time>
      </trkpt>
      <trkpt lat="44.4504" lon="1.00629">
        <ele>166</ele>
        <time>2020-01-13T18:05:47Z</time>
      </trkpt>
      <trkpt lat="44.45037" lon="1.00633">
        <ele>167</ele>
        <time>2020-01-13T18:05:48Z</time>
      </trkpt>
      <trkpt lat="44.45036" lon="1.00636">
        <ele>167</ele>
        <time>2020-01-13T18:05:49Z</time>
      </trkpt>
      <trkpt lat="44.45033" lon="1.00642">
        <ele>167</ele>
        <time>2020-01-13T18:05:50Z</time>
      </trkpt>
      <trkpt lat="44.45033" lon="1.00644">
        <ele>166</ele>
        <time>2020-01-13T18:05:51Z</time>
      </trkpt>
      <trkpt lat="44.45034" lon="1.00647">
        <ele>166</ele>
        <time>2020-01-13T18:05:52Z</time>
      </trkpt>
      <trkpt lat="44.45037" lon="1.00652">
        <ele>166</ele>
        <time>2020-01-13T18:05:53Z</time>
      </trkpt>
      <trkpt lat="44.45039" lon="1.00657">
        <ele>165</ele>
        <time>2020-01-13T18:05:54Z</time>
      </trkpt>
      <trkpt lat="44.4504" lon="1.0066">
        <ele>165</ele>
        <time>2020-01-13T18:05:55Z</time>
      </trkpt>
      <trkpt lat="44.45039" lon="1.00662">
        <ele>165</ele>
        <time>2020-01-13T18:05:56Z</time>
      </trkpt>
      <trkpt lat="44.45036" lon="1.00668">
        <ele>165</ele>
        <time>2020-01-13T18:05:57Z</time>
      </trkpt>
      <trkpt lat="44.45035" lon="1.0067">
        <ele>166</ele>
        <time>2020-01-13T18:05:58Z</time>
      </trkpt>
      <trkpt lat="44.45033" lon="1.00672">
        <ele>166</ele>
        <time>2020-01-13T18:05:59Z</time>
      </trkpt>
      <trkpt lat="44.45032" lon="1.00674">
        <ele>166</ele>
        <time>2020-01-13T18:06:00Z</time>
      </trkpt>
      <trkpt lat="44.45031" lon="1.00677">
        <ele>167</ele>
        <time>2020-01-13T18:06:01Z</time>
      </trkpt>
      <trkpt lat="44.45029" lon="1.00678">
        <ele>167</ele>
        <time>2020-01-13T18:06:02Z</time>
      </trkpt>
      <trkpt lat="44.45026" lon="1.00685">
        <ele>168</ele>
        <time>2020-01-13T18:06:03Z</time>
      </trkpt>
      <trkpt lat="44.45025" lon="1.00687">
        <ele>169</ele>
        <time>2020-01-13T18:06:04Z</time>
      </trkpt>
      <trkpt lat="44.45023" lon="1.0069">
        <ele>169</ele>
        <time>2020-01-13T18:06:05Z</time>
      </trkpt>
      <trkpt lat="44.45019" lon="1.00695">
        <ele>170</ele>
        <time>2020-01-13T18:06:06Z</time>
      </trkpt>
      <trkpt lat="44.45014" lon="1.007">
        <ele>170</ele>
        <time>2020-01-13T18:06:07Z</time>
      </trkpt>
      <trkpt lat="44.4501" lon="1.00704">
        <ele>171</ele>
        <time>2020-01-13T18:06:08Z</time>
      </trkpt>
      <trkpt lat="44.45008" lon="1.00706">
        <ele>171</ele>
        <time>2020-01-13T18:06:09Z</time>
      </trkpt>
      <trkpt lat="44.45003" lon="1.0071">
        <ele>172</ele>
        <time>2020-01-13T18:06:10Z</time>
      </trkpt>
      <trkpt lat="44.45002" lon="1.00712">
        <ele>172</ele>
        <time>2020-01-13T18:06:11Z</time>
      </trkpt>
      <trkpt lat="44.45001" lon="1.00713">
        <ele>172</ele>
        <time>2020-01-13T18:06:12Z</time>
      </trkpt>
      <trkpt lat="44.44997" lon="1.00717">
        <ele>173</ele>
        <time>2020-01-13T18:06:13Z</time>
      </trkpt>
      <trkpt lat="44.44995" lon="1.00722">
        <ele>174</ele>
        <time>2020-01-13T18:06:14Z</time>
      </trkpt>
      <trkpt lat="44.44994" lon="1.00725">
        <ele>174</ele>
        <time>2020-01-13T18:06:15Z</time>
      </trkpt>
      <trkpt lat="44.4499" lon="1.00734">
        <ele>176</ele>
        <time>2020-01-13T18:06:16Z</time>
      </trkpt>
      <trkpt lat="44.44989" lon="1.00736">
        <ele>176</ele>
        <time>2020-01-13T18:06:17Z</time>
      </trkpt>
      <trkpt lat="44.44988" lon="1.00738">
        <ele>176</ele>
        <time>2020-01-13T18:06:18Z</time>
      </trkpt>
      <trkpt lat="44.44985" lon="1.00743">
        <ele>177</ele>
        <time>2020-01-13T18:06:19Z</time>
      </trkpt>
      <trkpt lat="44.44983" lon="1.00747">
        <ele>177</ele>
        <time>2020-01-13T18:06:20Z</time>
      </trkpt>
      <trkpt lat="44.44981" lon="1.00749">
        <ele>178</ele>
        <time>2020-01-13T18:06:21Z</time>
      </trkpt>
      <trkpt lat="44.44979" lon="1.00751">
        <ele>178</ele>
        <time>2020-01-13T18:06:22Z</time>
      </trkpt>
      <trkpt lat="44.44976" lon="1.00756">
        <ele>179</ele>
        <time>2020-01-13T18:06:23Z</time>
      </trkpt>
      <trkpt lat="44.44975" lon="1.00758">
        <ele>179</ele>
        <time>2020-01-13T18:06:24Z</time>
      </trkpt>
      <trkpt lat="44.44974" lon="1.0076">
        <ele>180</ele>
        <time>2020-01-13T18:06:25Z</time>
      </trkpt>
      <trkpt lat="44.44971" lon="1.00763">
        <ele>180</ele>
        <time>2020-01-13T18:06:26Z</time>
      </trkpt>
      <trkpt lat="44.4497" lon="1.00766">
        <ele>181</ele>
        <time>2020-01-13T18:06:27Z</time>
      </trkpt>
      <trkpt lat="44.44967" lon="1.00769">
        <ele>181</ele>
        <time>2020-01-13T18:06:28Z</time>
      </trkpt>
      <trkpt lat="44.44965" lon="1.00774">
        <ele>182</ele>
        <time>2020-01-13T18:06:29Z</time>
      </trkpt>
      <trkpt lat="44.44963" lon="1.00776">
        <ele>182</ele>
        <time>2020-01-13T18:06:30Z</time>
      </trkpt>
      <trkpt lat="44.44961" lon="1.0078">
        <ele>183</ele>
        <time>2020-01-13T18:06:31Z</time>
      </trkpt>
      <trkpt lat="44.44959" lon="1.00781">
        <ele>183</ele>
        <time>2020-01-13T18:06:32Z</time>
      </trkpt>
      <trkpt lat="44.44952" lon="1.00792">
        <ele>184</ele>
        <time>2020-01-13T18:06:33Z</time>
      </trkpt>
      <trkpt lat="44.44949" lon="1.00793">
        <ele>185</ele>
        <time>2020-01-13T18:06:34Z</time>
      </trkpt>
      <trkpt lat="44.44948" lon="1.00795">
        <ele>185</ele>
        <time>2020-01-13T18:06:35Z</time>
      </trkpt>
      <trkpt lat="44.44946" lon="1.00796">
        <ele>185</ele>
        <time>2020-01-13T18:06:36Z</time>
      </trkpt>
      <trkpt lat="44.44944" lon="1.00798">
        <ele>185</ele>
        <time>2020-01-13T18:06:37Z</time>
      </trkpt>
      <trkpt lat="44.44941" lon="1.00801">
        <ele>185</ele>
        <time>2020-01-13T18:06:38Z</time>
      </trkpt>
      <trkpt lat="44.4494" lon="1.00803">
        <ele>186</ele>
        <time>2020-01-13T18:06:39Z</time>
      </trkpt>
      <trkpt lat="44.44938" lon="1.00804">
        <ele>186</ele>
        <time>2020-01-13T18:06:40Z</time>
      </trkpt>
      <trkpt lat="44.44933" lon="1.0081">
        <ele>186</ele>
        <time>2020-01-13T18:06:41Z</time>
      </trkpt>
      <trkpt lat="44.44932" lon="1.00812">
        <ele>186</ele>
        <time>2020-01-13T18:06:42Z</time>
      </trkpt>
      <trkpt lat="44.44926" lon="1.00821">
        <ele>187</ele>
        <time>2020-01-13T18:06:43Z</time>
      </trkpt>
      <trkpt lat="44.44923" lon="1.00824">
        <ele>187</ele>
        <time>2020-01-13T18:06:44Z</time>
      </trkpt>
      <trkpt lat="44.44922" lon="1.00827">
        <ele>187</ele>
        <time>2020-01-13T18:06:45Z</time>
      </trkpt>
      <trkpt lat="44.4492" lon="1.00829">
        <ele>187</ele>
        <time>2020-01-13T18:06:46Z</time>
      </trkpt>
      <trkpt lat="44.44916" lon="1.00832">
        <ele>187</ele>
        <time>2020-01-13T18:06:47Z</time>
      </trkpt>
      <trkpt lat="44.44913" lon="1.00833">
        <ele>188</ele>
        <time>2020-01-13T18:06:48Z</time>
      </trkpt>
      <trkpt lat="44.44911" lon="1.00833">
        <ele>188</ele>
        <time>2020-01-13T18:06:49Z</time>
      </trkpt>
      <trkpt lat="44.44909" lon="1.00838">
        <ele>189</ele>
        <time>2020-01-13T18:06:50Z</time>
      </trkpt>
      <trkpt lat="44.44908" lon="1.0084">
        <ele>189</ele>
        <time>2020-01-13T18:06:51Z</time>
      </trkpt>
      <trkpt lat="44.44907" lon="1.00843">
        <ele>190</ele>
        <time>2020-01-13T18:06:52Z</time>
      </trkpt>
      <trkpt lat="44.44905" lon="1.00845">
        <ele>190</ele>
        <time>2020-01-13T18:06:53Z</time>
      </trkpt>
      <trkpt lat="44.44904" lon="1.00847">
        <ele>190</ele>
        <time>2020-01-13T18:06:54Z</time>
      </trkpt>
      <trkpt lat="44.44903" lon="1.00857">
        <ele>191</ele>
        <time>2020-01-13T18:06:55Z</time>
      </trkpt>
      <trkpt lat="44.44902" lon="1.00859">
        <ele>192</ele>
        <time>2020-01-13T18:06:56Z</time>
      </trkpt>
      <trkpt lat="44.44903" lon="1.00863">
        <ele>192</ele>
        <time>2020-01-13T18:06:57Z</time>
      </trkpt>
      <trkpt lat="44.44903" lon="1.00865">
        <ele>192</ele>
        <time>2020-01-13T18:06:58Z</time>
      </trkpt>
      <trkpt lat="44.44903" lon="1.00867">
        <ele>192</ele>
        <time>2020-01-13T18:06:59Z</time>
      </trkpt>
      <trkpt lat="44.44901" lon="1.00874">
        <ele>193</ele>
        <time>2020-01-13T18:07:00Z</time>
      </trkpt>
      <trkpt lat="44.449" lon="1.00876">
        <ele>193</ele>
        <time>2020-01-13T18:07:01Z</time>
      </trkpt>
      <trkpt lat="44.44899" lon="1.00878">
        <ele>193</ele>
        <time>2020-01-13T18:07:02Z</time>
      </trkpt>
      <trkpt lat="44.44898" lon="1.0088">
        <ele>194</ele>
        <time>2020-01-13T18:07:03Z</time>
      </trkpt>
      <trkpt lat="44.44898" lon="1.00882">
        <ele>194</ele>
        <time>2020-01-13T18:07:04Z</time>
      </trkpt>
      <trkpt lat="44.44895" lon="1.00887">
        <ele>194</ele>
        <time>2020-01-13T18:07:05Z</time>
      </trkpt>
      <trkpt lat="44.44894" lon="1.00889">
        <ele>195</ele>
        <time>2020-01-13T18:07:06Z</time>
      </trkpt>
      <trkpt lat="44.44893" lon="1.00893">
        <ele>195</ele>
        <time>2020-01-13T18:07:07Z</time>
      </trkpt>
      <trkpt lat="44.44892" lon="1.00895">
        <ele>195</ele>
        <time>2020-01-13T18:07:08Z</time>
      </trkpt>
      <trkpt lat="44.44891" lon="1.00897">
        <ele>195</ele>
        <time>2020-01-13T18:07:09Z</time>
      </trkpt>
      <trkpt lat="44.44888" lon="1.00904">
        <ele>196</ele>
        <time>2020-01-13T18:07:10Z</time>
      </trkpt>
      <trkpt lat="44.44886" lon="1.00908">
        <ele>197</ele>
        <time>2020-01-13T18:07:11Z</time>
      </trkpt>
      <trkpt lat="44.44885" lon="1.0091">
        <ele>197</ele>
        <time>2020-01-13T18:07:12Z</time>
      </trkpt>
      <trkpt lat="44.44884" lon="1.00913">
        <ele>197</ele>
        <time>2020-01-13T18:07:13Z</time>
      </trkpt>
      <trkpt lat="44.44883" lon="1.00916">
        <ele>197</ele>
        <time>2020-01-13T18:07:14Z</time>
      </trkpt>
      <trkpt lat="44.44882" lon="1.00921">
        <ele>198</ele>
        <time>2020-01-13T18:07:15Z</time>
      </trkpt>
      <trkpt lat="44.44881" lon="1.00927">
        <ele>198</ele>
        <time>2020-01-13T18:07:16Z</time>
      </trkpt>
      <trkpt lat="44.4488" lon="1.00929">
        <ele>199</ele>
        <time>2020-01-13T18:07:17Z</time>
      </trkpt>
      <trkpt lat="44.44879" lon="1.00931">
        <ele>199</ele>
        <time>2020-01-13T18:07:18Z</time>
      </trkpt>
      <trkpt lat="44.44878" lon="1.00933">
        <ele>199</ele>
        <time>2020-01-13T18:07:19Z</time>
      </trkpt>
      <trkpt lat="44.44873" lon="1.00943">
        <ele>200</ele>
        <time>2020-01-13T18:07:20Z</time>
      </trkpt>
      <trkpt lat="44.44872" lon="1.00944">
        <ele>201</ele>
        <time>2020-01-13T18:07:21Z</time>
      </trkpt>
      <trkpt lat="44.44871" lon="1.00946">
        <ele>201</ele>
        <time>2020-01-13T18:07:22Z</time>
      </trkpt>
      <trkpt lat="44.44867" lon="1.00952">
        <ele>202</ele>
        <time>2020-01-13T18:07:23Z</time>
      </trkpt>
      <trkpt lat="44.44866" lon="1.00955">
        <ele>202</ele>
        <time>2020-01-13T18:07:24Z</time>
      </trkpt>
      <trkpt lat="44.44863" lon="1.00958">
        <ele>202</ele>
        <time>2020-01-13T18:07:25Z</time>
      </trkpt>
      <trkpt lat="44.44863" lon="1.0096">
        <ele>202</ele>
        <time>2020-01-13T18:07:26Z</time>
      </trkpt>
      <trkpt lat="44.44861" lon="1.00963">
        <ele>203</ele>
        <time>2020-01-13T18:07:27Z</time>
      </trkpt>
      <trkpt lat="44.4486" lon="1.00964">
        <ele>203</ele>
        <time>2020-01-13T18:07:28Z</time>
      </trkpt>
      <trkpt lat="44.44858" lon="1.0097">
        <ele>204</ele>
        <time>2020-01-13T18:07:29Z</time>
      </trkpt>
      <trkpt lat="44.44857" lon="1.00971">
        <ele>204</ele>
        <time>2020-01-13T18:07:30Z</time>
      </trkpt>
      <trkpt lat="44.44856" lon="1.00973">
        <ele>204</ele>
        <time>2020-01-13T18:07:31Z</time>
      </trkpt>
      <trkpt lat="44.44854" lon="1.00974">
        <ele>204</ele>
        <time>2020-01-13T18:07:32Z</time>
      </trkpt>
      <trkpt lat="44.44852" lon="1.00978">
        <ele>205</ele>
        <time>2020-01-13T18:07:33Z</time>
      </trkpt>
      <trkpt lat="44.44851" lon="1.00981">
        <ele>205</ele>
        <time>2020-01-13T18:07:34Z</time>
      </trkpt>
      <trkpt lat="44.44846" lon="1.00985">
        <ele>205</ele>
        <time>2020-01-13T18:07:35Z</time>
      </trkpt>
      <trkpt lat="44.44843" lon="1.00987">
        <ele>206</ele>
        <time>2020-01-13T18:07:36Z</time>
      </trkpt>
      <trkpt lat="44.44842" lon="1.00988">
        <ele>206</ele>
        <time>2020-01-13T18:07:37Z</time>
      </trkpt>
      <trkpt lat="44.44839" lon="1.0099">
        <ele>206</ele>
        <time>2020-01-13T18:07:38Z</time>
      </trkpt>
      <trkpt lat="44.44836" lon="1.00995">
        <ele>207</ele>
        <time>2020-01-13T18:07:39Z</time>
      </trkpt>
      <trkpt lat="44.44835" lon="1.00999">
        <ele>207</ele>
        <time>2020-01-13T18:07:40Z</time>
      </trkpt>
      <trkpt lat="44.44832" lon="1.01001">
        <ele>207</ele>
        <time>2020-01-13T18:07:41Z</time>
      </trkpt>
      <trkpt lat="44.44832" lon="1.01003">
        <ele>207</ele>
        <time>2020-01-13T18:07:42Z</time>
      </trkpt>
      <trkpt lat="44.4483" lon="1.01006">
        <ele>208</ele>
        <time>2020-01-13T18:07:43Z</time>
      </trkpt>
      <trkpt lat="44.44826" lon="1.01012">
        <ele>208</ele>
        <time>2020-01-13T18:07:44Z</time>
      </trkpt>
      <trkpt lat="44.44824" lon="1.01013">
        <ele>209</ele>
        <time>2020-01-13T18:07:45Z</time>
      </trkpt>
      <trkpt lat="44.4482" lon="1.01019">
        <ele>209</ele>
        <time>2020-01-13T18:07:46Z</time>
      </trkpt>
      <trkpt lat="44.44818" lon="1.0102">
        <ele>209</ele>
        <time>2020-01-13T18:07:47Z</time>
      </trkpt>
      <trkpt lat="44.44817" lon="1.01023">
        <ele>210</ele>
        <time>2020-01-13T18:07:48Z</time>
      </trkpt>
      <trkpt lat="44.44813" lon="1.01026">
        <ele>210</ele>
        <time>2020-01-13T18:07:49Z</time>
      </trkpt>
      <trkpt lat="44.44805" lon="1.01031">
        <ele>211</ele>
        <time>2020-01-13T18:07:50Z</time>
      </trkpt>
      <trkpt lat="44.44803" lon="1.01033">
        <ele>211</ele>
        <time>2020-01-13T18:07:51Z</time>
      </trkpt>
      <trkpt lat="44.44783" lon="1.01043">
        <ele>212</ele>
        <time>2020-01-13T18:07:52Z</time>
      </trkpt>
      <trkpt lat="44.44781" lon="1.01043">
        <ele>212</ele>
        <time>2020-01-13T18:07:53Z</time>
      </trkpt>
      <trkpt lat="44.44777" lon="1.01044">
        <ele>212</ele>
        <time>2020-01-13T18:07:54Z</time>
      </trkpt>
      <trkpt lat="44.44773" lon="1.01045">
        <ele>212</ele>
        <time>2020-01-13T18:07:55Z</time>
      </trkpt>
      <trkpt lat="44.44771" lon="1.01046">
        <ele>212</ele>
        <time>2020-01-13T18:07:56Z</time>
      </trkpt>
      <trkpt lat="44.44769" lon="1.01047">
        <ele>212</ele>
        <time>2020-01-13T18:07:57Z</time>
      </trkpt>
      <trkpt lat="44.44764" lon="1.01047">
        <ele>213</ele>
        <time>2020-01-13T18:07:58Z</time>
      </trkpt>
      <trkpt lat="44.44762" lon="1.01048">
        <ele>213</ele>
        <time>2020-01-13T18:07:59Z</time>
      </trkpt>
      <trkpt lat="44.44749" lon="1.01052">
        <ele>213</ele>
        <time>2020-01-13T18:08:00Z</time>
      </trkpt>
      <trkpt lat="44.44747" lon="1.01053">
        <ele>213</ele>
        <time>2020-01-13T18:08:01Z</time>
      </trkpt>
      <trkpt lat="44.44742" lon="1.01055">
        <ele>213</ele>
        <time>2020-01-13T18:08:02Z</time>
      </trkpt>
      <trkpt lat="44.44734" lon="1.01058">
        <ele>214</ele>
        <time>2020-01-13T18:08:03Z</time>
      </trkpt>
      <trkpt lat="44.44731" lon="1.01059">
        <ele>214</ele>
        <time>2020-01-13T18:08:04Z</time>
      </trkpt>
      <trkpt lat="44.44726" lon="1.01061">
        <ele>214</ele>
        <time>2020-01-13T18:08:05Z</time>
      </trkpt>
      <trkpt lat="44.44715" lon="1.01065">
        <ele>215</ele>
        <time>2020-01-13T18:08:06Z</time>
      </trkpt>
      <trkpt lat="44.44713" lon="1.01065">
        <ele>215</ele>
        <time>2020-01-13T18:08:07Z</time>
      </trkpt>
      <trkpt lat="44.4471" lon="1.01064">
        <ele>215</ele>
        <time>2020-01-13T18:08:08Z</time>
      </trkpt>
      <trkpt lat="44.44705" lon="1.01064">
        <ele>216</ele>
        <time>2020-01-13T18:08:09Z</time>
      </trkpt>
      <trkpt lat="44.44698" lon="1.01064">
        <ele>216</ele>
        <time>2020-01-13T18:08:10Z</time>
      </trkpt>
      <trkpt lat="44.44693" lon="1.01065">
        <ele>216</ele>
        <time>2020-01-13T18:08:11Z</time>
      </trkpt>
      <trkpt lat="44.44681" lon="1.01071">
        <ele>217</ele>
        <time>2020-01-13T18:08:12Z</time>
      </trkpt>
      <trkpt lat="44.44674" lon="1.01073">
        <ele>217</ele>
        <time>2020-01-13T18:08:13Z</time>
      </trkpt>
      <trkpt lat="44.44672" lon="1.01074">
        <ele>217</ele>
        <time>2020-01-13T18:08:14Z</time>
      </trkpt>
      <trkpt lat="44.44664" lon="1.01076">
        <ele>217</ele>
        <time>2020-01-13T18:08:15Z</time>
      </trkpt>
      <trkpt lat="44.44659" lon="1.01079">
        <ele>218</ele>
        <time>2020-01-13T18:08:16Z</time>
      </trkpt>
      <trkpt lat="44.44654" lon="1.01079">
        <ele>218</ele>
        <time>2020-01-13T18:08:17Z</time>
      </trkpt>
      <trkpt lat="44.44653" lon="1.01079">
        <ele>218</ele>
        <time>2020-01-13T18:08:18Z</time>
      </trkpt>
      <trkpt lat="44.44651" lon="1.01079">
        <ele>218</ele>
        <time>2020-01-13T18:08:19Z</time>
      </trkpt>
      <trkpt lat="44.44647" lon="1.0108">
        <ele>218</ele>
        <time>2020-01-13T18:08:20Z</time>
      </trkpt>
      <trkpt lat="44.44645" lon="1.0108">
        <ele>218</ele>
        <time>2020-01-13T18:08:21Z</time>
      </trkpt>
      <trkpt lat="44.44641" lon="1.01082">
        <ele>218</ele>
        <time>2020-01-13T18:08:22Z</time>
      </trkpt>
      <trkpt lat="44.44635" lon="1.01084">
        <ele>218</ele>
        <time>2020-01-13T18:08:23Z</time>
      </trkpt>
      <trkpt lat="44.44632" lon="1.01085">
        <ele>219</ele>
        <time>2020-01-13T18:08:24Z</time>
      </trkpt>
      <trkpt lat="44.44627" lon="1.01087">
        <ele>219</ele>
        <time>2020-01-13T18:08:25Z</time>
      </trkpt>
      <trkpt lat="44.44625" lon="1.01087">
        <ele>219</ele>
        <time>2020-01-13T18:08:26Z</time>
      </trkpt>
      <trkpt lat="44.44616" lon="1.01093">
        <ele>219</ele>
        <time>2020-01-13T18:08:27Z</time>
      </trkpt>
      <trkpt lat="44.44613" lon="1.01094">
        <ele>219</ele>
        <time>2020-01-13T18:08:28Z</time>
      </trkpt>
      <trkpt lat="44.44604" lon="1.011">
        <ele>219</ele>
        <time>2020-01-13T18:08:29Z</time>
      </trkpt>
      <trkpt lat="44.44598" lon="1.01104">
        <ele>219</ele>
        <time>2020-01-13T18:08:30Z</time>
      </trkpt>
      <trkpt lat="44.44589" lon="1.0111">
        <ele>220</ele>
        <time>2020-01-13T18:08:31Z</time>
      </trkpt>
      <trkpt lat="44.44583" lon="1.01113">
        <ele>220</ele>
        <time>2020-01-13T18:08:32Z</time>
      </trkpt>
      <trkpt lat="44.44578" lon="1.01116">
        <ele>220</ele>
        <time>2020-01-13T18:08:33Z</time>
      </trkpt>
      <trkpt lat="44.44575" lon="1.01117">
        <ele>220</ele>
        <time>2020-01-13T18:08:34Z</time>
      </trkpt>
      <trkpt lat="44.44568" lon="1.01123">
        <ele>220</ele>
        <time>2020-01-13T18:08:35Z</time>
      </trkpt>
      <trkpt lat="44.44564" lon="1.01128">
        <ele>220</ele>
        <time>2020-01-13T18:08:36Z</time>
      </trkpt>
      <trkpt lat="44.44559" lon="1.01131">
        <ele>221</ele>
        <time>2020-01-13T18:08:37Z</time>
      </trkpt>
      <trkpt lat="44.4455" lon="1.01136">
        <ele>221</ele>
        <time>2020-01-13T18:08:38Z</time>
      </trkpt>
      <trkpt lat="44.44547" lon="1.01137">
        <ele>221</ele>
        <time>2020-01-13T18:08:39Z</time>
      </trkpt>
      <trkpt lat="44.44538" lon="1.01145">
        <ele>221</ele>
        <time>2020-01-13T18:08:40Z</time>
      </trkpt>
      <trkpt lat="44.44526" lon="1.01158">
        <ele>222</ele>
        <time>2020-01-13T18:08:41Z</time>
      </trkpt>
      <trkpt lat="44.44521" lon="1.01164">
        <ele>222</ele>
        <time>2020-01-13T18:08:42Z</time>
      </trkpt>
      <trkpt lat="44.44505" lon="1.0118">
        <ele>222</ele>
        <time>2020-01-13T18:08:43Z</time>
      </trkpt>
      <trkpt lat="44.44493" lon="1.01197">
        <ele>222</ele>
        <time>2020-01-13T18:08:44Z</time>
      </trkpt>
      <trkpt lat="44.4449" lon="1.01201">
        <ele>222</ele>
        <time>2020-01-13T18:08:45Z</time>
      </trkpt>
      <trkpt lat="44.44486" lon="1.01205">
        <ele>222</ele>
        <time>2020-01-13T18:08:46Z</time>
      </trkpt>
      <trkpt lat="44.44482" lon="1.01206">
        <ele>222</ele>
        <time>2020-01-13T18:08:47Z</time>
      </trkpt>
      <trkpt lat="44.44479" lon="1.01205">
        <ele>222</ele>
        <time>2020-01-13T18:08:48Z</time>
      </trkpt>
      <trkpt lat="44.44476" lon="1.01202">
        <ele>222</ele>
        <time>2020-01-13T18:08:49Z</time>
      </trkpt>
      <trkpt lat="44.44473" lon="1.01198">
        <ele>222</ele>
        <time>2020-01-13T18:08:50Z</time>
      </trkpt>
      <trkpt lat="44.44471" lon="1.01194">
        <ele>222</ele>
        <time>2020-01-13T18:08:51Z</time>
      </trkpt>
      <trkpt lat="44.44466" lon="1.01184">
        <ele>223</ele>
        <time>2020-01-13T18:08:52Z</time>
      </trkpt>
      <trkpt lat="44.44463" lon="1.01179">
        <ele>223</ele>
        <time>2020-01-13T18:08:53Z</time>
      </trkpt>
      <trkpt lat="44.44451" lon="1.01159">
        <ele>223</ele>
        <time>2020-01-13T18:08:54Z</time>
      </trkpt>
      <trkpt lat="44.44446" lon="1.01148">
        <ele>223</ele>
        <time>2020-01-13T18:08:55Z</time>
      </trkpt>
      <trkpt lat="44.4444" lon="1.01138">
        <ele>223</ele>
        <time>2020-01-13T18:08:56Z</time>
      </trkpt>
      <trkpt lat="44.44437" lon="1.01134">
        <ele>223</ele>
        <time>2020-01-13T18:08:57Z</time>
      </trkpt>
      <trkpt lat="44.4443" lon="1.01122">
        <ele>224</ele>
        <time>2020-01-13T18:08:58Z</time>
      </trkpt>
      <trkpt lat="44.44419" lon="1.01108">
        <ele>224</ele>
        <time>2020-01-13T18:08:59Z</time>
      </trkpt>
      <trkpt lat="44.44411" lon="1.01099">
        <ele>224</ele>
        <time>2020-01-13T18:09:00Z</time>
      </trkpt>
      <trkpt lat="44.44401" lon="1.0109">
        <ele>224</ele>
        <time>2020-01-13T18:09:01Z</time>
      </trkpt>
      <trkpt lat="44.44382" lon="1.01072">
        <ele>224</ele>
        <time>2020-01-13T18:09:02Z</time>
      </trkpt>
      <trkpt lat="44.44374" lon="1.01063">
        <ele>225</ele>
        <time>2020-01-13T18:09:03Z</time>
      </trkpt>
      <trkpt lat="44.4437" lon="1.0106">
        <ele>225</ele>
        <time>2020-01-13T18:09:04Z</time>
      </trkpt>
      <trkpt lat="44.44366" lon="1.01057">
        <ele>225</ele>
        <time>2020-01-13T18:09:05Z</time>
      </trkpt>
      <trkpt lat="44.44356" lon="1.01052">
        <ele>225</ele>
        <time>2020-01-13T18:09:06Z</time>
      </trkpt>
      <trkpt lat="44.44351" lon="1.0105">
        <ele>225</ele>
        <time>2020-01-13T18:09:07Z</time>
      </trkpt>
      <trkpt lat="44.44335" lon="1.01046">
        <ele>225</ele>
        <time>2020-01-13T18:09:08Z</time>
      </trkpt>
      <trkpt lat="44.44326" lon="1.01042">
        <ele>226</ele>
        <time>2020-01-13T18:09:09Z</time>
      </trkpt>
      <trkpt lat="44.44323" lon="1.0104">
        <ele>226</ele>
        <time>2020-01-13T18:09:10Z</time>
      </trkpt>
      <trkpt lat="44.44321" lon="1.01037">
        <ele>226</ele>
        <time>2020-01-13T18:09:11Z</time>
      </trkpt>
      <trkpt lat="44.44321" lon="1.01032">
        <ele>226</ele>
        <time>2020-01-13T18:09:12Z</time>
      </trkpt>
      <trkpt lat="44.44323" lon="1.01026">
        <ele>226</ele>
        <time>2020-01-13T18:09:13Z</time>
      </trkpt>
      <trkpt lat="44.44325" lon="1.01022">
        <ele>226</ele>
        <time>2020-01-13T18:09:14Z</time>
      </trkpt>
      <trkpt lat="44.44327" lon="1.01017">
        <ele>226</ele>
        <time>2020-01-13T18:09:15Z</time>
      </trkpt>
      <trkpt lat="44.44329" lon="1.01012">
        <ele>226</ele>
        <time>2020-01-13T18:09:16Z</time>
      </trkpt>
      <trkpt lat="44.44332" lon="1.01007">
        <ele>226</ele>
        <time>2020-01-13T18:09:17Z</time>
      </trkpt>
      <trkpt lat="44.44342" lon="1.0098">
        <ele>225</ele>
        <time>2020-01-13T18:09:18Z</time>
      </trkpt>
      <trkpt lat="44.44345" lon="1.00973">
        <ele>224</ele>
        <time>2020-01-13T18:09:19Z</time>
      </trkpt>
      <trkpt lat="44.44354" lon="1.00951">
        <ele>223</ele>
        <time>2020-01-13T18:09:20Z</time>
      </trkpt>
      <trkpt lat="44.4436" lon="1.00936">
        <ele>222</ele>
        <time>2020-01-13T18:09:21Z</time>
      </trkpt>
      <trkpt lat="44.44368" lon="1.00916">
        <ele>221</ele>
        <time>2020-01-13T18:09:22Z</time>
      </trkpt>
      <trkpt lat="44.44371" lon="1.00909">
        <ele>220</ele>
        <time>2020-01-13T18:09:23Z</time>
      </trkpt>
      <trkpt lat="44.44374" lon="1.00901">
        <ele>220</ele>
        <time>2020-01-13T18:09:24Z</time>
      </trkpt>
      <trkpt lat="44.44375" lon="1.00893">
        <ele>219</ele>
        <time>2020-01-13T18:09:25Z</time>
      </trkpt>
      <trkpt lat="44.44375" lon="1.00884">
        <ele>218</ele>
        <time>2020-01-13T18:09:26Z</time>
      </trkpt>
      <trkpt lat="44.44375" lon="1.00874">
        <ele>217</ele>
        <time>2020-01-13T18:09:27Z</time>
      </trkpt>
      <trkpt lat="44.44376" lon="1.00866">
        <ele>217</ele>
        <time>2020-01-13T18:09:28Z</time>
      </trkpt>
      <trkpt lat="44.44376" lon="1.00858">
        <ele>216</ele>
        <time>2020-01-13T18:09:29Z</time>
      </trkpt>
      <trkpt lat="44.44374" lon="1.00852">
        <ele>216</ele>
        <time>2020-01-13T18:09:30Z</time>
      </trkpt>
      <trkpt lat="44.4437" lon="1.00849">
        <ele>215</ele>
        <time>2020-01-13T18:09:31Z</time>
      </trkpt>
      <trkpt lat="44.44364" lon="1.00847">
        <ele>215</ele>
        <time>2020-01-13T18:09:32Z</time>
      </trkpt>
      <trkpt lat="44.44358" lon="1.00846">
        <ele>215</ele>
        <time>2020-01-13T18:09:33Z</time>
      </trkpt>
      <trkpt lat="44.44353" lon="1.00844">
        <ele>215</ele>
        <time>2020-01-13T18:09:34Z</time>
      </trkpt>
      <trkpt lat="44.44349" lon="1.0084">
        <ele>215</ele>
        <time>2020-01-13T18:09:35Z</time>
      </trkpt>
      <trkpt lat="44.44342" lon="1.00832">
        <ele>214</ele>
        <time>2020-01-13T18:09:36Z</time>
      </trkpt>
      <trkpt lat="44.44337" lon="1.00829">
        <ele>214</ele>
        <time>2020-01-13T18:09:37Z</time>
      </trkpt>
      <trkpt lat="44.44331" lon="1.00827">
        <ele>213</ele>
        <time>2020-01-13T18:09:38Z</time>
      </trkpt>
      <trkpt lat="44.4432" lon="1.00824">
        <ele>212</ele>
        <time>2020-01-13T18:09:39Z</time>
      </trkpt>
      <trkpt lat="44.44307" lon="1.00821">
        <ele>212</ele>
        <time>2020-01-13T18:09:40Z</time>
      </trkpt>
      <trkpt lat="44.44289" lon="1.00815">
        <ele>210</ele>
        <time>2020-01-13T18:09:41Z</time>
      </trkpt>
      <trkpt lat="44.44278" lon="1.00813">
        <ele>209</ele>
        <time>2020-01-13T18:09:42Z</time>
      </trkpt>
      <trkpt lat="44.44273" lon="1.00811">
        <ele>209</ele>
        <time>2020-01-13T18:09:43Z</time>
      </trkpt>
      <trkpt lat="44.44269" lon="1.00807">
        <ele>208</ele>
        <time>2020-01-13T18:09:44Z</time>
      </trkpt>
      <trkpt lat="44.44267" lon="1.00803">
        <ele>208</ele>
        <time>2020-01-13T18:09:45Z</time>
      </trkpt>
      <trkpt lat="44.44265" lon="1.00797">
        <ele>207</ele>
        <time>2020-01-13T18:09:46Z</time>
      </trkpt>
      <trkpt lat="44.44264" lon="1.0079">
        <ele>206</ele>
        <time>2020-01-13T18:09:47Z</time>
      </trkpt>
      <trkpt lat="44.44265" lon="1.00782">
        <ele>205</ele>
        <time>2020-01-13T18:09:48Z</time>
      </trkpt>
      <trkpt lat="44.44266" lon="1.00773">
        <ele>204</ele>
        <time>2020-01-13T18:09:49Z</time>
      </trkpt>
      <trkpt lat="44.44267" lon="1.00764">
        <ele>203</ele>
        <time>2020-01-13T18:09:50Z</time>
      </trkpt>
      <trkpt lat="44.44268" lon="1.00755">
        <ele>202</ele>
        <time>2020-01-13T18:09:51Z</time>
      </trkpt>
      <trkpt lat="44.44268" lon="1.00746">
        <ele>201</ele>
        <time>2020-01-13T18:09:52Z</time>
      </trkpt>
      <trkpt lat="44.44267" lon="1.00738">
        <ele>200</ele>
        <time>2020-01-13T18:09:53Z</time>
      </trkpt>
      <trkpt lat="44.44265" lon="1.00731">
        <ele>199</ele>
        <time>2020-01-13T18:09:54Z</time>
      </trkpt>
      <trkpt lat="44.44258" lon="1.00719">
        <ele>198</ele>
        <time>2020-01-13T18:09:55Z</time>
      </trkpt>
      <trkpt lat="44.44251" lon="1.00711">
        <ele>197</ele>
        <time>2020-01-13T18:09:56Z</time>
      </trkpt>
      <trkpt lat="44.44248" lon="1.00707">
        <ele>197</ele>
        <time>2020-01-13T18:09:57Z</time>
      </trkpt>
      <trkpt lat="44.44246" lon="1.00701">
        <ele>196</ele>
        <time>2020-01-13T18:09:58Z</time>
      </trkpt>
      <trkpt lat="44.44244" lon="1.00695">
        <ele>196</ele>
        <time>2020-01-13T18:09:59Z</time>
      </trkpt>
      <trkpt lat="44.44241" lon="1.0068">
        <ele>195</ele>
        <time>2020-01-13T18:10:00Z</time>
      </trkpt>
      <trkpt lat="44.4424" lon="1.00671">
        <ele>194</ele>
        <time>2020-01-13T18:10:01Z</time>
      </trkpt>
      <trkpt lat="44.4424" lon="1.00663">
        <ele>193</ele>
        <time>2020-01-13T18:10:02Z</time>
      </trkpt>
      <trkpt lat="44.4424" lon="1.00655">
        <ele>193</ele>
        <time>2020-01-13T18:10:03Z</time>
      </trkpt>
      <trkpt lat="44.4424" lon="1.00646">
        <ele>192</ele>
        <time>2020-01-13T18:10:04Z</time>
      </trkpt>
      <trkpt lat="44.44241" lon="1.00637">
        <ele>191</ele>
        <time>2020-01-13T18:10:05Z</time>
      </trkpt>
      <trkpt lat="44.44243" lon="1.00627">
        <ele>190</ele>
        <time>2020-01-13T18:10:06Z</time>
      </trkpt>
      <trkpt lat="44.44245" lon="1.00619">
        <ele>189</ele>
        <time>2020-01-13T18:10:07Z</time>
      </trkpt>
      <trkpt lat="44.44248" lon="1.0061">
        <ele>188</ele>
        <time>2020-01-13T18:10:08Z</time>
      </trkpt>
      <trkpt lat="44.44251" lon="1.00601">
        <ele>187</ele>
        <time>2020-01-13T18:10:09Z</time>
      </trkpt>
      <trkpt lat="44.44255" lon="1.00594">
        <ele>186</ele>
        <time>2020-01-13T18:10:10Z</time>
      </trkpt>
      <trkpt lat="44.4426" lon="1.00587">
        <ele>186</ele>
        <time>2020-01-13T18:10:11Z</time>
      </trkpt>
      <trkpt lat="44.44265" lon="1.00581">
        <ele>185</ele>
        <time>2020-01-13T18:10:12Z</time>
      </trkpt>
      <trkpt lat="44.4427" lon="1.00576">
        <ele>185</ele>
        <time>2020-01-13T18:10:13Z</time>
      </trkpt>
      <trkpt lat="44.44275" lon="1.00573">
        <ele>185</ele>
        <time>2020-01-13T18:10:14Z</time>
      </trkpt>
      <trkpt lat="44.44281" lon="1.00571">
        <ele>185</ele>
        <time>2020-01-13T18:10:15Z</time>
      </trkpt>
      <trkpt lat="44.44287" lon="1.00572">
        <ele>186</ele>
        <time>2020-01-13T18:10:16Z</time>
      </trkpt>
      <trkpt lat="44.44293" lon="1.00574">
        <ele>186</ele>
        <time>2020-01-13T18:10:17Z</time>
      </trkpt>
      <trkpt lat="44.44299" lon="1.00578">
        <ele>187</ele>
        <time>2020-01-13T18:10:18Z</time>
      </trkpt>
      <trkpt lat="44.44304" lon="1.00584">
        <ele>188</ele>
        <time>2020-01-13T18:10:19Z</time>
      </trkpt>
      <trkpt lat="44.44312" lon="1.00596">
        <ele>189</ele>
        <time>2020-01-13T18:10:20Z</time>
      </trkpt>
      <trkpt lat="44.44316" lon="1.00601">
        <ele>190</ele>
        <time>2020-01-13T18:10:21Z</time>
      </trkpt>
      <trkpt lat="44.44321" lon="1.00604">
        <ele>190</ele>
        <time>2020-01-13T18:10:22Z</time>
      </trkpt>
      <trkpt lat="44.44325" lon="1.00604">
        <ele>191</ele>
        <time>2020-01-13T18:10:23Z</time>
      </trkpt>
      <trkpt lat="44.4433" lon="1.00601">
        <ele>191</ele>
        <time>2020-01-13T18:10:24Z</time>
      </trkpt>
      <trkpt lat="44.44332" lon="1.00597">
        <ele>190</ele>
        <time>2020-01-13T18:10:25Z</time>
      </trkpt>
      <trkpt lat="44.44334" lon="1.00591">
        <ele>190</ele>
        <time>2020-01-13T18:10:26Z</time>
      </trkpt>
      <trkpt lat="44.44333" lon="1.00584">
        <ele>189</ele>
        <time>2020-01-13T18:10:27Z</time>
      </trkpt>
      <trkpt lat="44.44331" lon="1.00566">
        <ele>188</ele>
        <time>2020-01-13T18:10:28Z</time>
      </trkpt>
      <trkpt lat="44.4433" lon="1.00556">
        <ele>188</ele>
        <time>2020-01-13T18:10:29Z</time>
      </trkpt>
      <trkpt lat="44.44331" lon="1.00546">
        <ele>188</ele>
        <time>2020-01-13T18:10:30Z</time>
      </trkpt>
      <trkpt lat="44.4433" lon="1.00536">
        <ele>188</ele>
        <time>2020-01-13T18:10:31Z</time>
      </trkpt>
      <trkpt lat="44.44325" lon="1.00517">
        <ele>186</ele>
        <time>2020-01-13T18:10:32Z</time>
      </trkpt>
      <trkpt lat="44.44322" lon="1.00507">
        <ele>186</ele>
        <time>2020-01-13T18:10:33Z</time>
      </trkpt>
      <trkpt lat="44.44319" lon="1.00498">
        <ele>185</ele>
        <time>2020-01-13T18:10:34Z</time>
      </trkpt>
      <trkpt lat="44.44314" lon="1.0049">
        <ele>185</ele>
        <time>2020-01-13T18:10:35Z</time>
      </trkpt>
      <trkpt lat="44.4431" lon="1.00482">
        <ele>185</ele>
        <time>2020-01-13T18:10:36Z</time>
      </trkpt>
      <trkpt lat="44.44304" lon="1.00475">
        <ele>184</ele>
        <time>2020-01-13T18:10:37Z</time>
      </trkpt>
      <trkpt lat="44.44291" lon="1.00462">
        <ele>183</ele>
        <time>2020-01-13T18:10:38Z</time>
      </trkpt>
      <trkpt lat="44.44284" lon="1.00455">
        <ele>182</ele>
        <time>2020-01-13T18:10:39Z</time>
      </trkpt>
      <trkpt lat="44.44276" lon="1.0045">
        <ele>181</ele>
        <time>2020-01-13T18:10:40Z</time>
      </trkpt>
      <trkpt lat="44.44268" lon="1.00445">
        <ele>179</ele>
        <time>2020-01-13T18:10:41Z</time>
      </trkpt>
      <trkpt lat="44.44252" lon="1.00436">
        <ele>177</ele>
        <time>2020-01-13T18:10:42Z</time>
      </trkpt>
      <trkpt lat="44.44235" lon="1.00425">
        <ele>176</ele>
        <time>2020-01-13T18:10:43Z</time>
      </trkpt>
      <trkpt lat="44.44226" lon="1.00419">
        <ele>175</ele>
        <time>2020-01-13T18:10:44Z</time>
      </trkpt>
      <trkpt lat="44.44217" lon="1.00414">
        <ele>175</ele>
        <time>2020-01-13T18:10:45Z</time>
      </trkpt>
      <trkpt lat="44.4421" lon="1.00409">
        <ele>175</ele>
        <time>2020-01-13T18:10:46Z</time>
      </trkpt>
      <trkpt lat="44.44201" lon="1.00404">
        <ele>175</ele>
        <time>2020-01-13T18:10:47Z</time>
      </trkpt>
      <trkpt lat="44.44193" lon="1.00399">
        <ele>175</ele>
        <time>2020-01-13T18:10:48Z</time>
      </trkpt>
      <trkpt lat="44.44178" lon="1.00388">
        <ele>175</ele>
        <time>2020-01-13T18:10:49Z</time>
      </trkpt>
      <trkpt lat="44.4417" lon="1.00385">
        <ele>174</ele>
        <time>2020-01-13T18:10:50Z</time>
      </trkpt>
      <trkpt lat="44.44162" lon="1.00384">
        <ele>174</ele>
        <time>2020-01-13T18:10:51Z</time>
      </trkpt>
      <trkpt lat="44.44155" lon="1.00384">
        <ele>173</ele>
        <time>2020-01-13T18:10:52Z</time>
      </trkpt>
      <trkpt lat="44.44148" lon="1.00387">
        <ele>173</ele>
        <time>2020-01-13T18:10:53Z</time>
      </trkpt>
      <trkpt lat="44.44132" lon="1.00389">
        <ele>172</ele>
        <time>2020-01-13T18:10:54Z</time>
      </trkpt>
      <trkpt lat="44.44125" lon="1.00391">
        <ele>172</ele>
        <time>2020-01-13T18:10:55Z</time>
      </trkpt>
      <trkpt lat="44.44116" lon="1.00391">
        <ele>171</ele>
        <time>2020-01-13T18:10:56Z</time>
      </trkpt>
      <trkpt lat="44.44107" lon="1.00391">
        <ele>171</ele>
        <time>2020-01-13T18:10:57Z</time>
      </trkpt>
      <trkpt lat="44.44098" lon="1.00391">
        <ele>171</ele>
        <time>2020-01-13T18:10:58Z</time>
      </trkpt>
      <trkpt lat="44.44089" lon="1.0039">
        <ele>171</ele>
        <time>2020-01-13T18:10:59Z</time>
      </trkpt>
      <trkpt lat="44.44072" lon="1.00386">
        <ele>170</ele>
        <time>2020-01-13T18:11:00Z</time>
      </trkpt>
      <trkpt lat="44.44064" lon="1.00383">
        <ele>170</ele>
        <time>2020-01-13T18:11:01Z</time>
      </trkpt>
      <trkpt lat="44.44056" lon="1.00379">
        <ele>170</ele>
        <time>2020-01-13T18:11:02Z</time>
      </trkpt>
      <trkpt lat="44.44048" lon="1.00374">
        <ele>169</ele>
        <time>2020-01-13T18:11:03Z</time>
      </trkpt>
      <trkpt lat="44.44034" lon="1.00362">
        <ele>168</ele>
        <time>2020-01-13T18:11:04Z</time>
      </trkpt>
      <trkpt lat="44.44026" lon="1.00355">
        <ele>166</ele>
        <time>2020-01-13T18:11:05Z</time>
      </trkpt>
      <trkpt lat="44.4402" lon="1.00349">
        <ele>165</ele>
        <time>2020-01-13T18:11:06Z</time>
      </trkpt>
      <trkpt lat="44.44015" lon="1.00344">
        <ele>164</ele>
        <time>2020-01-13T18:11:07Z</time>
      </trkpt>
      <trkpt lat="44.44011" lon="1.00338">
        <ele>163</ele>
        <time>2020-01-13T18:11:08Z</time>
      </trkpt>
      <trkpt lat="44.44006" lon="1.00332">
        <ele>162</ele>
        <time>2020-01-13T18:11:09Z</time>
      </trkpt>
      <trkpt lat="44.44001" lon="1.00325">
        <ele>161</ele>
        <time>2020-01-13T18:11:10Z</time>
      </trkpt>
      <trkpt lat="44.43994" lon="1.00318">
        <ele>162</ele>
        <time>2020-01-13T18:11:11Z</time>
      </trkpt>
      <trkpt lat="44.43983" lon="1.00303">
        <ele>163</ele>
        <time>2020-01-13T18:11:12Z</time>
      </trkpt>
      <trkpt lat="44.43977" lon="1.00296">
        <ele>163</ele>
        <time>2020-01-13T18:11:13Z</time>
      </trkpt>
      <trkpt lat="44.43972" lon="1.00288">
        <ele>163</ele>
        <time>2020-01-13T18:11:14Z</time>
      </trkpt>
      <trkpt lat="44.43968" lon="1.00279">
        <ele>163</ele>
        <time>2020-01-13T18:11:15Z</time>
      </trkpt>
      <trkpt lat="44.43963" lon="1.0027">
        <ele>163</ele>
        <time>2020-01-13T18:11:16Z</time>
      </trkpt>
      <trkpt lat="44.43953" lon="1.00251">
        <ele>162</ele>
        <time>2020-01-13T18:11:17Z</time>
      </trkpt>
      <trkpt lat="44.43945" lon="1.00231">
        <ele>161</ele>
        <time>2020-01-13T18:11:18Z</time>
      </trkpt>
      <trkpt lat="44.43941" lon="1.0022">
        <ele>161</ele>
        <time>2020-01-13T18:11:19Z</time>
      </trkpt>
      <trkpt lat="44.43935" lon="1.00197">
        <ele>159</ele>
        <time>2020-01-13T18:11:20Z</time>
      </trkpt>
      <trkpt lat="44.43932" lon="1.00186">
        <ele>159</ele>
        <time>2020-01-13T18:11:21Z</time>
      </trkpt>
      <trkpt lat="44.43928" lon="1.00175">
        <ele>157</ele>
        <time>2020-01-13T18:11:22Z</time>
      </trkpt>
      <trkpt lat="44.43918" lon="1.00154">
        <ele>154</ele>
        <time>2020-01-13T18:11:23Z</time>
      </trkpt>
      <trkpt lat="44.43915" lon="1.00143">
        <ele>153</ele>
        <time>2020-01-13T18:11:24Z</time>
      </trkpt>
      <trkpt lat="44.43912" lon="1.00131">
        <ele>152</ele>
        <time>2020-01-13T18:11:25Z</time>
      </trkpt>
      <trkpt lat="44.43909" lon="1.00119">
        <ele>151</ele>
        <time>2020-01-13T18:11:26Z</time>
      </trkpt>
      <trkpt lat="44.43906" lon="1.00107">
        <ele>150</ele>
        <time>2020-01-13T18:11:27Z</time>
      </trkpt>
      <trkpt lat="44.43903" lon="1.00096">
        <ele>149</ele>
        <time>2020-01-13T18:11:28Z</time>
      </trkpt>
      <trkpt lat="44.43902" lon="1.00086">
        <ele>148</ele>
        <time>2020-01-13T18:11:29Z</time>
      </trkpt>
      <trkpt lat="44.43905" lon="1.00062">
        <ele>146</ele>
        <time>2020-01-13T18:11:30Z</time>
      </trkpt>
      <trkpt lat="44.43905" lon="1.00049">
        <ele>145</ele>
        <time>2020-01-13T18:11:31Z</time>
      </trkpt>
      <trkpt lat="44.43907" lon="1.00036">
        <ele>144</ele>
        <time>2020-01-13T18:11:32Z</time>
      </trkpt>
      <trkpt lat="44.43907" lon="1.00023">
        <ele>143</ele>
        <time>2020-01-13T18:11:33Z</time>
      </trkpt>
      <trkpt lat="44.43908" lon="1.00009">
        <ele>142</ele>
        <time>2020-01-13T18:11:34Z</time>
      </trkpt>
      <trkpt lat="44.43908" lon="0.99996">
        <ele>141</ele>
        <time>2020-01-13T18:11:35Z</time>
      </trkpt>
      <trkpt lat="44.43908" lon="0.99984">
        <ele>140</ele>
        <time>2020-01-13T18:11:36Z</time>
      </trkpt>
      <trkpt lat="44.43907" lon="0.99973">
        <ele>140</ele>
        <time>2020-01-13T18:11:37Z</time>
      </trkpt>
      <trkpt lat="44.43905" lon="0.99964">
        <ele>139</ele>
        <time>2020-01-13T18:11:38Z</time>
      </trkpt>
      <trkpt lat="44.43902" lon="0.99957">
        <ele>139</ele>
        <time>2020-01-13T18:11:39Z</time>
      </trkpt>
      <trkpt lat="44.43899" lon="0.99951">
        <ele>138</ele>
        <time>2020-01-13T18:11:40Z</time>
      </trkpt>
      <trkpt lat="44.43896" lon="0.99946">
        <ele>138</ele>
        <time>2020-01-13T18:11:41Z</time>
      </trkpt>
      <trkpt lat="44.43892" lon="0.99943">
        <ele>138</ele>
        <time>2020-01-13T18:11:42Z</time>
      </trkpt>
      <trkpt lat="44.43888" lon="0.99941">
        <ele>138</ele>
        <time>2020-01-13T18:11:43Z</time>
      </trkpt>
      <trkpt lat="44.43885" lon="0.99942">
        <ele>138</ele>
        <time>2020-01-13T18:11:44Z</time>
      </trkpt>
      <trkpt lat="44.43879" lon="0.99949">
        <ele>138</ele>
        <time>2020-01-13T18:11:45Z</time>
      </trkpt>
      <trkpt lat="44.43874" lon="0.99959">
        <ele>138</ele>
        <time>2020-01-13T18:11:46Z</time>
      </trkpt>
      <trkpt lat="44.43871" lon="0.99963">
        <ele>138</ele>
        <time>2020-01-13T18:11:47Z</time>
      </trkpt>
      <trkpt lat="44.43868" lon="0.99967">
        <ele>138</ele>
        <time>2020-01-13T18:11:48Z</time>
      </trkpt>
      <trkpt lat="44.43864" lon="0.99972">
        <ele>138</ele>
        <time>2020-01-13T18:11:49Z</time>
      </trkpt>
      <trkpt lat="44.43861" lon="0.99976">
        <ele>138</ele>
        <time>2020-01-13T18:11:50Z</time>
      </trkpt>
      <trkpt lat="44.43855" lon="0.99985">
        <ele>137</ele>
        <time>2020-01-13T18:11:51Z</time>
      </trkpt>
      <trkpt lat="44.43847" lon="0.99997">
        <ele>136</ele>
        <time>2020-01-13T18:11:52Z</time>
      </trkpt>
      <trkpt lat="44.43838" lon="1.0001">
        <ele>136</ele>
        <time>2020-01-13T18:11:53Z</time>
      </trkpt>
      <trkpt lat="44.43835" lon="1.00015">
        <ele>137</ele>
        <time>2020-01-13T18:11:54Z</time>
      </trkpt>
      <trkpt lat="44.43832" lon="1.0002">
        <ele>137</ele>
        <time>2020-01-13T18:11:55Z</time>
      </trkpt>
      <trkpt lat="44.43824" lon="1.00035">
        <ele>139</ele>
        <time>2020-01-13T18:11:56Z</time>
      </trkpt>
      <trkpt lat="44.43822" lon="1.00041">
        <ele>140</ele>
        <time>2020-01-13T18:11:57Z</time>
      </trkpt>
      <trkpt lat="44.43819" lon="1.00047">
        <ele>140</ele>
        <time>2020-01-13T18:11:58Z</time>
      </trkpt>
      <trkpt lat="44.43809" lon="1.00069">
        <ele>142</ele>
        <time>2020-01-13T18:11:59Z</time>
      </trkpt>
      <trkpt lat="44.43798" lon="1.00093">
        <ele>143</ele>
        <time>2020-01-13T18:12:00Z</time>
      </trkpt>
      <trkpt lat="44.43791" lon="1.0011">
        <ele>145</ele>
        <time>2020-01-13T18:12:01Z</time>
      </trkpt>
      <trkpt lat="44.43786" lon="1.00121">
        <ele>145</ele>
        <time>2020-01-13T18:12:02Z</time>
      </trkpt>
      <trkpt lat="44.4377" lon="1.00151">
        <ele>145</ele>
        <time>2020-01-13T18:12:03Z</time>
      </trkpt>
      <trkpt lat="44.43764" lon="1.00161">
        <ele>145</ele>
        <time>2020-01-13T18:12:04Z</time>
      </trkpt>
      <trkpt lat="44.43758" lon="1.00167">
        <ele>144</ele>
        <time>2020-01-13T18:12:05Z</time>
      </trkpt>
      <trkpt lat="44.43754" lon="1.0017">
        <ele>144</ele>
        <time>2020-01-13T18:12:06Z</time>
      </trkpt>
      <trkpt lat="44.43751" lon="1.00173">
        <ele>144</ele>
        <time>2020-01-13T18:12:07Z</time>
      </trkpt>
      <trkpt lat="44.43744" lon="1.00177">
        <ele>144</ele>
        <time>2020-01-13T18:12:08Z</time>
      </trkpt>
      <trkpt lat="44.4374" lon="1.00178">
        <ele>144</ele>
        <time>2020-01-13T18:12:09Z</time>
      </trkpt>
      <trkpt lat="44.43737" lon="1.00179">
        <ele>145</ele>
        <time>2020-01-13T18:12:10Z</time>
      </trkpt>
      <trkpt lat="44.43732" lon="1.00176">
        <ele>145</ele>
        <time>2020-01-13T18:12:11Z</time>
      </trkpt>
      <trkpt lat="44.43728" lon="1.00173">
        <ele>145</ele>
        <time>2020-01-13T18:12:12Z</time>
      </trkpt>
      <trkpt lat="44.43718" lon="1.00158">
        <ele>145</ele>
        <time>2020-01-13T18:12:13Z</time>
      </trkpt>
      <trkpt lat="44.43715" lon="1.00154">
        <ele>145</ele>
        <time>2020-01-13T18:12:14Z</time>
      </trkpt>
      <trkpt lat="44.43712" lon="1.00152">
        <ele>145</ele>
        <time>2020-01-13T18:12:15Z</time>
      </trkpt>
      <trkpt lat="44.43709" lon="1.0015">
        <ele>145</ele>
        <time>2020-01-13T18:12:16Z</time>
      </trkpt>
      <trkpt lat="44.43701" lon="1.00147">
        <ele>146</ele>
        <time>2020-01-13T18:12:17Z</time>
      </trkpt>
      <trkpt lat="44.43698" lon="1.00145">
        <ele>146</ele>
        <time>2020-01-13T18:12:18Z</time>
      </trkpt>
      <trkpt lat="44.43694" lon="1.00142">
        <ele>146</ele>
        <time>2020-01-13T18:12:19Z</time>
      </trkpt>
      <trkpt lat="44.43689" lon="1.0014">
        <ele>146</ele>
        <time>2020-01-13T18:12:20Z</time>
      </trkpt>
      <trkpt lat="44.43687" lon="1.00139">
        <ele>147</ele>
        <time>2020-01-13T18:12:21Z</time>
      </trkpt>
      <trkpt lat="44.43684" lon="1.00137">
        <ele>147</ele>
        <time>2020-01-13T18:12:22Z</time>
      </trkpt>
      <trkpt lat="44.43681" lon="1.00137">
        <ele>147</ele>
        <time>2020-01-13T18:12:23Z</time>
      </trkpt>
      <trkpt lat="44.43677" lon="1.00135">
        <ele>147</ele>
        <time>2020-01-13T18:12:24Z</time>
      </trkpt>
      <trkpt lat="44.43673" lon="1.00132">
        <ele>148</ele>
        <time>2020-01-13T18:12:25Z</time>
      </trkpt>
      <trkpt lat="44.43668" lon="1.00129">
        <ele>148</ele>
        <time>2020-01-13T18:12:26Z</time>
      </trkpt>
      <trkpt lat="44.43663" lon="1.00129">
        <ele>148</ele>
        <time>2020-01-13T18:12:27Z</time>
      </trkpt>
      <trkpt lat="44.43661" lon="1.00129">
        <ele>148</ele>
        <time>2020-01-13T18:12:28Z</time>
      </trkpt>
      <trkpt lat="44.4366" lon="1.00128">
        <ele>148</ele>
        <time>2020-01-13T18:12:29Z</time>
      </trkpt>
      <trkpt lat="44.43653" lon="1.00126">
        <ele>149</ele>
        <time>2020-01-13T18:12:30Z</time>
      </trkpt>
      <trkpt lat="44.43651" lon="1.00126">
        <ele>149</ele>
        <time>2020-01-13T18:12:31Z</time>
      </trkpt>
      <trkpt lat="44.43646" lon="1.0013">
        <ele>149</ele>
        <time>2020-01-13T18:12:32Z</time>
      </trkpt>
      <trkpt lat="44.4364" lon="1.00133">
        <ele>149</ele>
        <time>2020-01-13T18:12:33Z</time>
      </trkpt>
      <trkpt lat="44.43635" lon="1.00135">
        <ele>150</ele>
        <time>2020-01-13T18:12:34Z</time>
      </trkpt>
      <trkpt lat="44.43633" lon="1.00135">
        <ele>150</ele>
        <time>2020-01-13T18:12:35Z</time>
      </trkpt>
      <trkpt lat="44.43629" lon="1.00136">
        <ele>150</ele>
        <time>2020-01-13T18:12:36Z</time>
      </trkpt>
      <trkpt lat="44.43624" lon="1.00137">
        <ele>150</ele>
        <time>2020-01-13T18:12:37Z</time>
      </trkpt>
      <trkpt lat="44.43622" lon="1.00138">
        <ele>150</ele>
        <time>2020-01-13T18:12:38Z</time>
      </trkpt>
      <trkpt lat="44.4362" lon="1.00138">
        <ele>151</ele>
        <time>2020-01-13T18:12:39Z</time>
      </trkpt>
      <trkpt lat="44.43617" lon="1.00139">
        <ele>151</ele>
        <time>2020-01-13T18:12:40Z</time>
      </trkpt>
      <trkpt lat="44.43615" lon="1.0014">
        <ele>151</ele>
        <time>2020-01-13T18:12:41Z</time>
      </trkpt>
      <trkpt lat="44.43612" lon="1.00141">
        <ele>151</ele>
        <time>2020-01-13T18:12:42Z</time>
      </trkpt>
      <trkpt lat="44.4361" lon="1.00142">
        <ele>151</ele>
        <time>2020-01-13T18:12:43Z</time>
      </trkpt>
      <trkpt lat="44.43603" lon="1.00147">
        <ele>152</ele>
        <time>2020-01-13T18:12:44Z</time>
      </trkpt>
      <trkpt lat="44.43599" lon="1.0015">
        <ele>152</ele>
        <time>2020-01-13T18:12:45Z</time>
      </trkpt>
      <trkpt lat="44.43596" lon="1.00151">
        <ele>152</ele>
        <time>2020-01-13T18:12:46Z</time>
      </trkpt>
      <trkpt lat="44.43592" lon="1.00152">
        <ele>152</ele>
        <time>2020-01-13T18:12:47Z</time>
      </trkpt>
      <trkpt lat="44.4359" lon="1.00152">
        <ele>152</ele>
        <time>2020-01-13T18:12:48Z</time>
      </trkpt>
      <trkpt lat="44.43588" lon="1.00151">
        <ele>153</ele>
        <time>2020-01-13T18:12:49Z</time>
      </trkpt>
      <trkpt lat="44.43584" lon="1.00149">
        <ele>153</ele>
        <time>2020-01-13T18:12:50Z</time>
      </trkpt>
      <trkpt lat="44.43581" lon="1.00147">
        <ele>153</ele>
        <time>2020-01-13T18:12:51Z</time>
      </trkpt>
      <trkpt lat="44.4358" lon="1.00146">
        <ele>153</ele>
        <time>2020-01-13T18:12:52Z</time>
      </trkpt>
      <trkpt lat="44.43576" lon="1.00144">
        <ele>153</ele>
        <time>2020-01-13T18:12:53Z</time>
      </trkpt>
      <trkpt lat="44.4357" lon="1.00141">
        <ele>154</ele>
        <time>2020-01-13T18:12:54Z</time>
      </trkpt>
      <trkpt lat="44.43563" lon="1.00138">
        <ele>155</ele>
        <time>2020-01-13T18:12:55Z</time>
      </trkpt>
      <trkpt lat="44.43558" lon="1.00138">
        <ele>155</ele>
        <time>2020-01-13T18:12:56Z</time>
      </trkpt>
      <trkpt lat="44.43557" lon="1.00139">
        <ele>155</ele>
        <time>2020-01-13T18:12:57Z</time>
      </trkpt>
      <trkpt lat="44.43554" lon="1.00141">
        <ele>156</ele>
        <time>2020-01-13T18:12:58Z</time>
      </trkpt>
      <trkpt lat="44.43549" lon="1.00143">
        <ele>156</ele>
        <time>2020-01-13T18:12:59Z</time>
      </trkpt>
      <trkpt lat="44.43545" lon="1.00144">
        <ele>157</ele>
        <time>2020-01-13T18:13:00Z</time>
      </trkpt>
      <trkpt lat="44.43542" lon="1.00143">
        <ele>157</ele>
        <time>2020-01-13T18:13:01Z</time>
      </trkpt>
      <trkpt lat="44.43539" lon="1.00144">
        <ele>157</ele>
        <time>2020-01-13T18:13:02Z</time>
      </trkpt>
      <trkpt lat="44.43533" lon="1.00145">
        <ele>158</ele>
        <time>2020-01-13T18:13:03Z</time>
      </trkpt>
      <trkpt lat="44.43521" lon="1.00148">
        <ele>159</ele>
        <time>2020-01-13T18:13:04Z</time>
      </trkpt>
      <trkpt lat="44.43518" lon="1.00148">
        <ele>160</ele>
        <time>2020-01-13T18:13:05Z</time>
      </trkpt>
      <trkpt lat="44.43515" lon="1.00148">
        <ele>160</ele>
        <time>2020-01-13T18:13:06Z</time>
      </trkpt>
      <trkpt lat="44.43512" lon="1.00148">
        <ele>160</ele>
        <time>2020-01-13T18:13:07Z</time>
      </trkpt>
      <trkpt lat="44.4351" lon="1.00147">
        <ele>160</ele>
        <time>2020-01-13T18:13:08Z</time>
      </trkpt>
      <trkpt lat="44.435" lon="1.00148">
        <ele>162</ele>
        <time>2020-01-13T18:13:09Z</time>
      </trkpt>
      <trkpt lat="44.43491" lon="1.0015">
        <ele>163</ele>
        <time>2020-01-13T18:13:10Z</time>
      </trkpt>
      <trkpt lat="44.43489" lon="1.00151">
        <ele>163</ele>
        <time>2020-01-13T18:13:11Z</time>
      </trkpt>
      <trkpt lat="44.43487" lon="1.00151">
        <ele>164</ele>
        <time>2020-01-13T18:13:12Z</time>
      </trkpt>
      <trkpt lat="44.43479" lon="1.00153">
        <ele>165</ele>
        <time>2020-01-13T18:13:13Z</time>
      </trkpt>
      <trkpt lat="44.43478" lon="1.00153">
        <ele>165</ele>
        <time>2020-01-13T18:13:14Z</time>
      </trkpt>
      <trkpt lat="44.43464" lon="1.00155">
        <ele>167</ele>
        <time>2020-01-13T18:13:15Z</time>
      </trkpt>
      <trkpt lat="44.43462" lon="1.00155">
        <ele>167</ele>
        <time>2020-01-13T18:13:16Z</time>
      </trkpt>
      <trkpt lat="44.43453" lon="1.00157">
        <ele>169</ele>
        <time>2020-01-13T18:13:17Z</time>
      </trkpt>
      <trkpt lat="44.43441" lon="1.0016">
        <ele>171</ele>
        <time>2020-01-13T18:13:18Z</time>
      </trkpt>
      <trkpt lat="44.43432" lon="1.00162">
        <ele>172</ele>
        <time>2020-01-13T18:13:19Z</time>
      </trkpt>
      <trkpt lat="44.43428" lon="1.00161">
        <ele>173</ele>
        <time>2020-01-13T18:13:20Z</time>
      </trkpt>
      <trkpt lat="44.43427" lon="1.00161">
        <ele>173</ele>
        <time>2020-01-13T18:13:21Z</time>
      </trkpt>
      <trkpt lat="44.43422" lon="1.00161">
        <ele>174</ele>
        <time>2020-01-13T18:13:22Z</time>
      </trkpt>
      <trkpt lat="44.4342" lon="1.0016">
        <ele>174</ele>
        <time>2020-01-13T18:13:23Z</time>
      </trkpt>
      <trkpt lat="44.43418" lon="1.00161">
        <ele>174</ele>
        <time>2020-01-13T18:13:24Z</time>
      </trkpt>
      <trkpt lat="44.43415" lon="1.00162">
        <ele>175</ele>
        <time>2020-01-13T18:13:25Z</time>
      </trkpt>
      <trkpt lat="44.43414" lon="1.00162">
        <ele>175</ele>
        <time>2020-01-13T18:13:26Z</time>
      </trkpt>
      <trkpt lat="44.43413" lon="1.00163">
        <ele>175</ele>
        <time>2020-01-13T18:13:27Z</time>
      </trkpt>
      <trkpt lat="44.43409" lon="1.00163">
        <ele>176</ele>
        <time>2020-01-13T18:13:28Z</time>
      </trkpt>
      <trkpt lat="44.43406" lon="1.00165">
        <ele>177</ele>
        <time>2020-01-13T18:13:29Z</time>
      </trkpt>
      <trkpt lat="44.43403" lon="1.00165">
        <ele>177</ele>
        <time>2020-01-13T18:13:30Z</time>
      </trkpt>
      <trkpt lat="44.43393" lon="1.0017">
        <ele>178</ele>
        <time>2020-01-13T18:13:31Z</time>
      </trkpt>
      <trkpt lat="44.4339" lon="1.0017">
        <ele>179</ele>
        <time>2020-01-13T18:13:32Z</time>
      </trkpt>
      <trkpt lat="44.43387" lon="1.00172">
        <ele>179</ele>
        <time>2020-01-13T18:13:33Z</time>
      </trkpt>
      <trkpt lat="44.43386" lon="1.00173">
        <ele>179</ele>
        <time>2020-01-13T18:13:34Z</time>
      </trkpt>
      <trkpt lat="44.43385" lon="1.00174">
        <ele>179</ele>
        <time>2020-01-13T18:13:35Z</time>
      </trkpt>
      <trkpt lat="44.43381" lon="1.00176">
        <ele>180</ele>
        <time>2020-01-13T18:13:36Z</time>
      </trkpt>
      <trkpt lat="44.43379" lon="1.00177">
        <ele>180</ele>
        <time>2020-01-13T18:13:37Z</time>
      </trkpt>
      <trkpt lat="44.43371" lon="1.00178">
        <ele>181</ele>
        <time>2020-01-13T18:13:38Z</time>
      </trkpt>
      <trkpt lat="44.43369" lon="1.0018">
        <ele>182</ele>
        <time>2020-01-13T18:13:39Z</time>
      </trkpt>
      <trkpt lat="44.43366" lon="1.00181">
        <ele>182</ele>
        <time>2020-01-13T18:13:40Z</time>
      </trkpt>
      <trkpt lat="44.43364" lon="1.00181">
        <ele>182</ele>
        <time>2020-01-13T18:13:41Z</time>
      </trkpt>
      <trkpt lat="44.43362" lon="1.00182">
        <ele>183</ele>
        <time>2020-01-13T18:13:42Z</time>
      </trkpt>
      <trkpt lat="44.43352" lon="1.00185">
        <ele>184</ele>
        <time>2020-01-13T18:13:43Z</time>
      </trkpt>
      <trkpt lat="44.43351" lon="1.00187">
        <ele>184</ele>
        <time>2020-01-13T18:13:44Z</time>
      </trkpt>
      <trkpt lat="44.43347" lon="1.00188">
        <ele>185</ele>
        <time>2020-01-13T18:13:45Z</time>
      </trkpt>
      <trkpt lat="44.43346" lon="1.00189">
        <ele>185</ele>
        <time>2020-01-13T18:13:46Z</time>
      </trkpt>
      <trkpt lat="44.43342" lon="1.0019">
        <ele>186</ele>
        <time>2020-01-13T18:13:47Z</time>
      </trkpt>
      <trkpt lat="44.43338" lon="1.00193">
        <ele>186</ele>
        <time>2020-01-13T18:13:48Z</time>
      </trkpt>
      <trkpt lat="44.43333" lon="1.00197">
        <ele>187</ele>
        <time>2020-01-13T18:13:49Z</time>
      </trkpt>
      <trkpt lat="44.43328" lon="1.002">
        <ele>187</ele>
        <time>2020-01-13T18:13:50Z</time>
      </trkpt>
      <trkpt lat="44.43315" lon="1.0021">
        <ele>188</ele>
        <time>2020-01-13T18:13:51Z</time>
      </trkpt>
      <trkpt lat="44.43308" lon="1.00214">
        <ele>189</ele>
        <time>2020-01-13T18:13:52Z</time>
      </trkpt>
      <trkpt lat="44.43304" lon="1.00217">
        <ele>189</ele>
        <time>2020-01-13T18:13:53Z</time>
      </trkpt>
      <trkpt lat="44.433" lon="1.00221">
        <ele>190</ele>
        <time>2020-01-13T18:13:54Z</time>
      </trkpt>
      <trkpt lat="44.43298" lon="1.00222">
        <ele>190</ele>
        <time>2020-01-13T18:13:55Z</time>
      </trkpt>
      <trkpt lat="44.43295" lon="1.00225">
        <ele>191</ele>
        <time>2020-01-13T18:13:56Z</time>
      </trkpt>
      <trkpt lat="44.43285" lon="1.00229">
        <ele>192</ele>
        <time>2020-01-13T18:13:57Z</time>
      </trkpt>
      <trkpt lat="44.43279" lon="1.00233">
        <ele>193</ele>
        <time>2020-01-13T18:13:58Z</time>
      </trkpt>
      <trkpt lat="44.43274" lon="1.00236">
        <ele>194</ele>
        <time>2020-01-13T18:13:59Z</time>
      </trkpt>
      <trkpt lat="44.4327" lon="1.0024">
        <ele>195</ele>
        <time>2020-01-13T18:14:00Z</time>
      </trkpt>
      <trkpt lat="44.43269" lon="1.00242">
        <ele>195</ele>
        <time>2020-01-13T18:14:01Z</time>
      </trkpt>
      <trkpt lat="44.43267" lon="1.00244">
        <ele>196</ele>
        <time>2020-01-13T18:14:02Z</time>
      </trkpt>
      <trkpt lat="44.43262" lon="1.00247">
        <ele>197</ele>
        <time>2020-01-13T18:14:03Z</time>
      </trkpt>
      <trkpt lat="44.43259" lon="1.00249">
        <ele>197</ele>
        <time>2020-01-13T18:14:04Z</time>
      </trkpt>
      <trkpt lat="44.43257" lon="1.00251">
        <ele>198</ele>
        <time>2020-01-13T18:14:05Z</time>
      </trkpt>
      <trkpt lat="44.43253" lon="1.00254">
        <ele>198</ele>
        <time>2020-01-13T18:14:06Z</time>
      </trkpt>
      <trkpt lat="44.43251" lon="1.00257">
        <ele>198</ele>
        <time>2020-01-13T18:14:07Z</time>
      </trkpt>
      <trkpt lat="44.43249" lon="1.00257">
        <ele>199</ele>
        <time>2020-01-13T18:14:08Z</time>
      </trkpt>
      <trkpt lat="44.43245" lon="1.00259">
        <ele>199</ele>
        <time>2020-01-13T18:14:09Z</time>
      </trkpt>
      <trkpt lat="44.43243" lon="1.00261">
        <ele>199</ele>
        <time>2020-01-13T18:14:10Z</time>
      </trkpt>
      <trkpt lat="44.43241" lon="1.00262">
        <ele>199</ele>
        <time>2020-01-13T18:14:11Z</time>
      </trkpt>
      <trkpt lat="44.43238" lon="1.00265">
        <ele>199</ele>
        <time>2020-01-13T18:14:12Z</time>
      </trkpt>
      <trkpt lat="44.43236" lon="1.00266">
        <ele>199</ele>
        <time>2020-01-13T18:14:13Z</time>
      </trkpt>
      <trkpt lat="44.43235" lon="1.00268">
        <ele>198</ele>
        <time>2020-01-13T18:14:14Z</time>
      </trkpt>
      <trkpt lat="44.43233" lon="1.0027">
        <ele>198</ele>
        <time>2020-01-13T18:14:15Z</time>
      </trkpt>
      <trkpt lat="44.4323" lon="1.00273">
        <ele>199</ele>
        <time>2020-01-13T18:14:16Z</time>
      </trkpt>
      <trkpt lat="44.43225" lon="1.00276">
        <ele>199</ele>
        <time>2020-01-13T18:14:17Z</time>
      </trkpt>
      <trkpt lat="44.43224" lon="1.00277">
        <ele>199</ele>
        <time>2020-01-13T18:14:18Z</time>
      </trkpt>
      <trkpt lat="44.43217" lon="1.00282">
        <ele>199</ele>
        <time>2020-01-13T18:14:19Z</time>
      </trkpt>
      <trkpt lat="44.43215" lon="1.00284">
        <ele>199</ele>
        <time>2020-01-13T18:14:20Z</time>
      </trkpt>
      <trkpt lat="44.43213" lon="1.00285">
        <ele>199</ele>
        <time>2020-01-13T18:14:21Z</time>
      </trkpt>
      <trkpt lat="44.43201" lon="1.00295">
        <ele>200</ele>
        <time>2020-01-13T18:14:22Z</time>
      </trkpt>
      <trkpt lat="44.43199" lon="1.00296">
        <ele>200</ele>
        <time>2020-01-13T18:14:23Z</time>
      </trkpt>
      <trkpt lat="44.43193" lon="1.00301">
        <ele>201</ele>
        <time>2020-01-13T18:14:24Z</time>
      </trkpt>
      <trkpt lat="44.4319" lon="1.00302">
        <ele>201</ele>
        <time>2020-01-13T18:14:25Z</time>
      </trkpt>
      <trkpt lat="44.43188" lon="1.00304">
        <ele>201</ele>
        <time>2020-01-13T18:14:26Z</time>
      </trkpt>
      <trkpt lat="44.43186" lon="1.00306">
        <ele>202</ele>
        <time>2020-01-13T18:14:27Z</time>
      </trkpt>
      <trkpt lat="44.43184" lon="1.00308">
        <ele>202</ele>
        <time>2020-01-13T18:14:28Z</time>
      </trkpt>
      <trkpt lat="44.43178" lon="1.00311">
        <ele>203</ele>
        <time>2020-01-13T18:14:29Z</time>
      </trkpt>
      <trkpt lat="44.43176" lon="1.00313">
        <ele>203</ele>
        <time>2020-01-13T18:14:30Z</time>
      </trkpt>
      <trkpt lat="44.43174" lon="1.00315">
        <ele>203</ele>
        <time>2020-01-13T18:14:31Z</time>
      </trkpt>
      <trkpt lat="44.43173" lon="1.00317">
        <ele>203</ele>
        <time>2020-01-13T18:14:32Z</time>
      </trkpt>
      <trkpt lat="44.43171" lon="1.00317">
        <ele>204</ele>
        <time>2020-01-13T18:14:33Z</time>
      </trkpt>
      <trkpt lat="44.43166" lon="1.00322">
        <ele>204</ele>
        <time>2020-01-13T18:14:34Z</time>
      </trkpt>
      <trkpt lat="44.43164" lon="1.00324">
        <ele>205</ele>
        <time>2020-01-13T18:14:35Z</time>
      </trkpt>
      <trkpt lat="44.4316" lon="1.00328">
        <ele>205</ele>
        <time>2020-01-13T18:14:36Z</time>
      </trkpt>
      <trkpt lat="44.43158" lon="1.00331">
        <ele>205</ele>
        <time>2020-01-13T18:14:37Z</time>
      </trkpt>
      <trkpt lat="44.43153" lon="1.00336">
        <ele>206</ele>
        <time>2020-01-13T18:14:38Z</time>
      </trkpt>
      <trkpt lat="44.43145" lon="1.00343">
        <ele>206</ele>
        <time>2020-01-13T18:14:39Z</time>
      </trkpt>
      <trkpt lat="44.43131" lon="1.00355">
        <ele>207</ele>
        <time>2020-01-13T18:14:40Z</time>
      </trkpt>
      <trkpt lat="44.43129" lon="1.00356">
        <ele>207</ele>
        <time>2020-01-13T18:14:41Z</time>
      </trkpt>
      <trkpt lat="44.43127" lon="1.00359">
        <ele>207</ele>
        <time>2020-01-13T18:14:42Z</time>
      </trkpt>
      <trkpt lat="44.43121" lon="1.00365">
        <ele>207</ele>
        <time>2020-01-13T18:14:43Z</time>
      </trkpt>
      <trkpt lat="44.43118" lon="1.00368">
        <ele>207</ele>
        <time>2020-01-13T18:14:44Z</time>
      </trkpt>
      <trkpt lat="44.43116" lon="1.0037">
        <ele>208</ele>
        <time>2020-01-13T18:14:45Z</time>
      </trkpt>
      <trkpt lat="44.43114" lon="1.00371">
        <ele>208</ele>
        <time>2020-01-13T18:14:46Z</time>
      </trkpt>
      <trkpt lat="44.43106" lon="1.00377">
        <ele>208</ele>
        <time>2020-01-13T18:14:47Z</time>
      </trkpt>
      <trkpt lat="44.431" lon="1.00383">
        <ele>209</ele>
        <time>2020-01-13T18:14:48Z</time>
      </trkpt>
      <trkpt lat="44.43095" lon="1.00386">
        <ele>209</ele>
        <time>2020-01-13T18:14:49Z</time>
      </trkpt>
      <trkpt lat="44.43091" lon="1.00388">
        <ele>210</ele>
        <time>2020-01-13T18:14:50Z</time>
      </trkpt>
      <trkpt lat="44.43084" lon="1.00393">
        <ele>210</ele>
        <time>2020-01-13T18:14:51Z</time>
      </trkpt>
      <trkpt lat="44.43082" lon="1.00395">
        <ele>210</ele>
        <time>2020-01-13T18:14:52Z</time>
      </trkpt>
      <trkpt lat="44.43076" lon="1.00399">
        <ele>211</ele>
        <time>2020-01-13T18:14:53Z</time>
      </trkpt>
      <trkpt lat="44.43068" lon="1.00406">
        <ele>211</ele>
        <time>2020-01-13T18:14:54Z</time>
      </trkpt>
      <trkpt lat="44.43065" lon="1.00408">
        <ele>211</ele>
        <time>2020-01-13T18:14:55Z</time>
      </trkpt>
      <trkpt lat="44.43061" lon="1.00409">
        <ele>211</ele>
        <time>2020-01-13T18:14:56Z</time>
      </trkpt>
      <trkpt lat="44.43059" lon="1.0041">
        <ele>211</ele>
        <time>2020-01-13T18:14:57Z</time>
      </trkpt>
      <trkpt lat="44.43057" lon="1.00412">
        <ele>211</ele>
        <time>2020-01-13T18:14:58Z</time>
      </trkpt>
      <trkpt lat="44.43055" lon="1.00413">
        <ele>211</ele>
        <time>2020-01-13T18:14:59Z</time>
      </trkpt>
      <trkpt lat="44.43051" lon="1.00416">
        <ele>212</ele>
        <time>2020-01-13T18:15:00Z</time>
      </trkpt>
      <trkpt lat="44.43049" lon="1.00418">
        <ele>212</ele>
        <time>2020-01-13T18:15:01Z</time>
      </trkpt>
      <trkpt lat="44.43045" lon="1.00422">
        <ele>212</ele>
        <time>2020-01-13T18:15:02Z</time>
      </trkpt>
      <trkpt lat="44.43037" lon="1.00426">
        <ele>212</ele>
        <time>2020-01-13T18:15:03Z</time>
      </trkpt>
      <trkpt lat="44.43035" lon="1.00428">
        <ele>212</ele>
        <time>2020-01-13T18:15:04Z</time>
      </trkpt>
      <trkpt lat="44.43032" lon="1.0043">
        <ele>212</ele>
        <time>2020-01-13T18:15:05Z</time>
      </trkpt>
      <trkpt lat="44.43021" lon="1.00441">
        <ele>212</ele>
        <time>2020-01-13T18:15:06Z</time>
      </trkpt>
      <trkpt lat="44.43018" lon="1.00444">
        <ele>213</ele>
        <time>2020-01-13T18:15:07Z</time>
      </trkpt>
      <trkpt lat="44.43011" lon="1.00452">
        <ele>213</ele>
        <time>2020-01-13T18:15:08Z</time>
      </trkpt>
      <trkpt lat="44.43008" lon="1.00455">
        <ele>213</ele>
        <time>2020-01-13T18:15:09Z</time>
      </trkpt>
      <trkpt lat="44.43003" lon="1.0046">
        <ele>213</ele>
        <time>2020-01-13T18:15:10Z</time>
      </trkpt>
      <trkpt lat="44.42997" lon="1.00469">
        <ele>214</ele>
        <time>2020-01-13T18:15:11Z</time>
      </trkpt>
      <trkpt lat="44.42995" lon="1.00471">
        <ele>214</ele>
        <time>2020-01-13T18:15:12Z</time>
      </trkpt>
      <trkpt lat="44.42991" lon="1.00476">
        <ele>214</ele>
        <time>2020-01-13T18:15:13Z</time>
      </trkpt>
      <trkpt lat="44.42989" lon="1.0048">
        <ele>214</ele>
        <time>2020-01-13T18:15:14Z</time>
      </trkpt>
      <trkpt lat="44.42982" lon="1.00489">
        <ele>214</ele>
        <time>2020-01-13T18:15:15Z</time>
      </trkpt>
      <trkpt lat="44.4298" lon="1.00491">
        <ele>214</ele>
        <time>2020-01-13T18:15:16Z</time>
      </trkpt>
      <trkpt lat="44.42976" lon="1.00495">
        <ele>214</ele>
        <time>2020-01-13T18:15:17Z</time>
      </trkpt>
      <trkpt lat="44.42974" lon="1.00498">
        <ele>214</ele>
        <time>2020-01-13T18:15:18Z</time>
      </trkpt>
      <trkpt lat="44.42966" lon="1.00506">
        <ele>214</ele>
        <time>2020-01-13T18:15:19Z</time>
      </trkpt>
      <trkpt lat="44.42964" lon="1.0051">
        <ele>214</ele>
        <time>2020-01-13T18:15:20Z</time>
      </trkpt>
      <trkpt lat="44.42957" lon="1.00521">
        <ele>214</ele>
        <time>2020-01-13T18:15:21Z</time>
      </trkpt>
      <trkpt lat="44.42954" lon="1.00525">
        <ele>214</ele>
        <time>2020-01-13T18:15:22Z</time>
      </trkpt>
      <trkpt lat="44.42952" lon="1.00529">
        <ele>214</ele>
        <time>2020-01-13T18:15:23Z</time>
      </trkpt>
      <trkpt lat="44.42949" lon="1.00532">
        <ele>214</ele>
        <time>2020-01-13T18:15:24Z</time>
      </trkpt>
      <trkpt lat="44.42943" lon="1.00541">
        <ele>214</ele>
        <time>2020-01-13T18:15:25Z</time>
      </trkpt>
      <trkpt lat="44.42939" lon="1.00548">
        <ele>215</ele>
        <time>2020-01-13T18:15:26Z</time>
      </trkpt>
      <trkpt lat="44.42936" lon="1.00551">
        <ele>215</ele>
        <time>2020-01-13T18:15:27Z</time>
      </trkpt>
      <trkpt lat="44.42933" lon="1.00553">
        <ele>215</ele>
        <time>2020-01-13T18:15:28Z</time>
      </trkpt>
      <trkpt lat="44.42926" lon="1.0055">
        <ele>215</ele>
        <time>2020-01-13T18:15:29Z</time>
      </trkpt>
      <trkpt lat="44.42918" lon="1.00546">
        <ele>215</ele>
        <time>2020-01-13T18:15:30Z</time>
      </trkpt>
      <trkpt lat="44.42903" lon="1.00534">
        <ele>216</ele>
        <time>2020-01-13T18:15:31Z</time>
      </trkpt>
      <trkpt lat="44.42891" lon="1.00527">
        <ele>216</ele>
        <time>2020-01-13T18:15:32Z</time>
      </trkpt>
      <trkpt lat="44.42886" lon="1.00526">
        <ele>216</ele>
        <time>2020-01-13T18:15:33Z</time>
      </trkpt>
      <trkpt lat="44.42882" lon="1.00525">
        <ele>217</ele>
        <time>2020-01-13T18:15:34Z</time>
      </trkpt>
      <trkpt lat="44.42879" lon="1.00528">
        <ele>217</ele>
        <time>2020-01-13T18:15:35Z</time>
      </trkpt>
      <trkpt lat="44.42876" lon="1.00533">
        <ele>217</ele>
        <time>2020-01-13T18:15:36Z</time>
      </trkpt>
      <trkpt lat="44.4287" lon="1.00542">
        <ele>217</ele>
        <time>2020-01-13T18:15:37Z</time>
      </trkpt>
      <trkpt lat="44.42867" lon="1.00547">
        <ele>217</ele>
        <time>2020-01-13T18:15:38Z</time>
      </trkpt>
      <trkpt lat="44.42864" lon="1.00552">
        <ele>218</ele>
        <time>2020-01-13T18:15:39Z</time>
      </trkpt>
      <trkpt lat="44.4286" lon="1.00556">
        <ele>218</ele>
        <time>2020-01-13T18:15:40Z</time>
      </trkpt>
      <trkpt lat="44.42858" lon="1.00561">
        <ele>218</ele>
        <time>2020-01-13T18:15:41Z</time>
      </trkpt>
      <trkpt lat="44.42852" lon="1.00568">
        <ele>218</ele>
        <time>2020-01-13T18:15:42Z</time>
      </trkpt>
      <trkpt lat="44.42849" lon="1.00573">
        <ele>218</ele>
        <time>2020-01-13T18:15:43Z</time>
      </trkpt>
      <trkpt lat="44.42846" lon="1.00579">
        <ele>218</ele>
        <time>2020-01-13T18:15:44Z</time>
      </trkpt>
      <trkpt lat="44.42843" lon="1.00582">
        <ele>219</ele>
        <time>2020-01-13T18:15:45Z</time>
      </trkpt>
      <trkpt lat="44.42826" lon="1.00603">
        <ele>219</ele>
        <time>2020-01-13T18:15:46Z</time>
      </trkpt>
      <trkpt lat="44.42823" lon="1.00609">
        <ele>219</ele>
        <time>2020-01-13T18:15:47Z</time>
      </trkpt>
      <trkpt lat="44.42815" lon="1.00619">
        <ele>219</ele>
        <time>2020-01-13T18:15:48Z</time>
      </trkpt>
      <trkpt lat="44.4281" lon="1.00624">
        <ele>219</ele>
        <time>2020-01-13T18:15:49Z</time>
      </trkpt>
      <trkpt lat="44.42806" lon="1.00629">
        <ele>219</ele>
        <time>2020-01-13T18:15:50Z</time>
      </trkpt>
      <trkpt lat="44.42798" lon="1.00635">
        <ele>219</ele>
        <time>2020-01-13T18:15:51Z</time>
      </trkpt>
      <trkpt lat="44.42794" lon="1.00639">
        <ele>219</ele>
        <time>2020-01-13T18:15:52Z</time>
      </trkpt>
      <trkpt lat="44.42792" lon="1.00642">
        <ele>219</ele>
        <time>2020-01-13T18:15:53Z</time>
      </trkpt>
      <trkpt lat="44.42792" lon="1.00646">
        <ele>219</ele>
        <time>2020-01-13T18:15:54Z</time>
      </trkpt>
      <trkpt lat="44.42792" lon="1.0065">
        <ele>219</ele>
        <time>2020-01-13T18:15:55Z</time>
      </trkpt>
      <trkpt lat="44.42793" lon="1.00656">
        <ele>219</ele>
        <time>2020-01-13T18:15:56Z</time>
      </trkpt>
      <trkpt lat="44.42792" lon="1.00662">
        <ele>219</ele>
        <time>2020-01-13T18:15:57Z</time>
      </trkpt>
      <trkpt lat="44.42794" lon="1.00677">
        <ele>218</ele>
        <time>2020-01-13T18:15:58Z</time>
      </trkpt>
      <trkpt lat="44.42795" lon="1.00686">
        <ele>217</ele>
        <time>2020-01-13T18:15:59Z</time>
      </trkpt>
      <trkpt lat="44.42799" lon="1.00716">
        <ele>215</ele>
        <time>2020-01-13T18:16:00Z</time>
      </trkpt>
      <trkpt lat="44.428" lon="1.00727">
        <ele>214</ele>
        <time>2020-01-13T18:16:01Z</time>
      </trkpt>
      <trkpt lat="44.42802" lon="1.00751">
        <ele>212</ele>
        <time>2020-01-13T18:16:02Z</time>
      </trkpt>
      <trkpt lat="44.42803" lon="1.00765">
        <ele>211</ele>
        <time>2020-01-13T18:16:03Z</time>
      </trkpt>
      <trkpt lat="44.42804" lon="1.00779">
        <ele>211</ele>
        <time>2020-01-13T18:16:04Z</time>
      </trkpt>
      <trkpt lat="44.42805" lon="1.00792">
        <ele>211</ele>
        <time>2020-01-13T18:16:05Z</time>
      </trkpt>
      <trkpt lat="44.42805" lon="1.00805">
        <ele>211</ele>
        <time>2020-01-13T18:16:06Z</time>
      </trkpt>
      <trkpt lat="44.42807" lon="1.00819">
        <ele>210</ele>
        <time>2020-01-13T18:16:07Z</time>
      </trkpt>
      <trkpt lat="44.4281" lon="1.00876">
        <ele>211</ele>
        <time>2020-01-13T18:16:08Z</time>
      </trkpt>
      <trkpt lat="44.4281" lon="1.0089">
        <ele>211</ele>
        <time>2020-01-13T18:16:09Z</time>
      </trkpt>
      <trkpt lat="44.42811" lon="1.00904">
        <ele>211</ele>
        <time>2020-01-13T18:16:10Z</time>
      </trkpt>
      <trkpt lat="44.42811" lon="1.00917">
        <ele>211</ele>
        <time>2020-01-13T18:16:11Z</time>
      </trkpt>
      <trkpt lat="44.42812" lon="1.00929">
        <ele>211</ele>
        <time>2020-01-13T18:16:12Z</time>
      </trkpt>
      <trkpt lat="44.42812" lon="1.0094">
        <ele>211</ele>
        <time>2020-01-13T18:16:13Z</time>
      </trkpt>
      <trkpt lat="44.42814" lon="1.00961">
        <ele>212</ele>
        <time>2020-01-13T18:16:14Z</time>
      </trkpt>
      <trkpt lat="44.42814" lon="1.0097">
        <ele>212</ele>
        <time>2020-01-13T18:16:15Z</time>
      </trkpt>
      <trkpt lat="44.42813" lon="1.00977">
        <ele>212</ele>
        <time>2020-01-13T18:16:16Z</time>
      </trkpt>
      <trkpt lat="44.42811" lon="1.00984">
        <ele>212</ele>
        <time>2020-01-13T18:16:17Z</time>
      </trkpt>
      <trkpt lat="44.42808" lon="1.00988">
        <ele>212</ele>
        <time>2020-01-13T18:16:18Z</time>
      </trkpt>
      <trkpt lat="44.428" lon="1.00994">
        <ele>211</ele>
        <time>2020-01-13T18:16:19Z</time>
      </trkpt>
      <trkpt lat="44.4279" lon="1.01002">
        <ele>211</ele>
        <time>2020-01-13T18:16:20Z</time>
      </trkpt>
      <trkpt lat="44.42781" lon="1.01011">
        <ele>211</ele>
        <time>2020-01-13T18:16:21Z</time>
      </trkpt>
      <trkpt lat="44.42775" lon="1.01015">
        <ele>211</ele>
        <time>2020-01-13T18:16:22Z</time>
      </trkpt>
      <trkpt lat="44.42771" lon="1.0102">
        <ele>211</ele>
        <time>2020-01-13T18:16:23Z</time>
      </trkpt>
      <trkpt lat="44.42743" lon="1.01047">
        <ele>210</ele>
        <time>2020-01-13T18:16:24Z</time>
      </trkpt>
      <trkpt lat="44.42738" lon="1.0105">
        <ele>210</ele>
        <time>2020-01-13T18:16:25Z</time>
      </trkpt>
      <trkpt lat="44.42733" lon="1.01052">
        <ele>210</ele>
        <time>2020-01-13T18:16:26Z</time>
      </trkpt>
      <trkpt lat="44.42727" lon="1.01051">
        <ele>209</ele>
        <time>2020-01-13T18:16:27Z</time>
      </trkpt>
      <trkpt lat="44.42721" lon="1.01047">
        <ele>209</ele>
        <time>2020-01-13T18:16:28Z</time>
      </trkpt>
      <trkpt lat="44.42716" lon="1.01041">
        <ele>208</ele>
        <time>2020-01-13T18:16:29Z</time>
      </trkpt>
      <trkpt lat="44.42711" lon="1.01034">
        <ele>208</ele>
        <time>2020-01-13T18:16:30Z</time>
      </trkpt>
      <trkpt lat="44.42706" lon="1.01028">
        <ele>207</ele>
        <time>2020-01-13T18:16:31Z</time>
      </trkpt>
      <trkpt lat="44.42701" lon="1.01022">
        <ele>207</ele>
        <time>2020-01-13T18:16:32Z</time>
      </trkpt>
      <trkpt lat="44.42696" lon="1.01017">
        <ele>206</ele>
        <time>2020-01-13T18:16:33Z</time>
      </trkpt>
      <trkpt lat="44.42691" lon="1.01015">
        <ele>206</ele>
        <time>2020-01-13T18:16:34Z</time>
      </trkpt>
      <trkpt lat="44.42685" lon="1.01015">
        <ele>206</ele>
        <time>2020-01-13T18:16:35Z</time>
      </trkpt>
      <trkpt lat="44.42679" lon="1.01018">
        <ele>205</ele>
        <time>2020-01-13T18:16:36Z</time>
      </trkpt>
      <trkpt lat="44.42666" lon="1.01025">
        <ele>205</ele>
        <time>2020-01-13T18:16:37Z</time>
      </trkpt>
      <trkpt lat="44.42652" lon="1.01032">
        <ele>205</ele>
        <time>2020-01-13T18:16:38Z</time>
      </trkpt>
      <trkpt lat="44.42645" lon="1.01036">
        <ele>205</ele>
        <time>2020-01-13T18:16:39Z</time>
      </trkpt>
      <trkpt lat="44.42631" lon="1.01046">
        <ele>205</ele>
        <time>2020-01-13T18:16:40Z</time>
      </trkpt>
      <trkpt lat="44.4261" lon="1.01061">
        <ele>205</ele>
        <time>2020-01-13T18:16:41Z</time>
      </trkpt>
      <trkpt lat="44.42602" lon="1.01065">
        <ele>205</ele>
        <time>2020-01-13T18:16:42Z</time>
      </trkpt>
      <trkpt lat="44.42594" lon="1.01069">
        <ele>204</ele>
        <time>2020-01-13T18:16:43Z</time>
      </trkpt>
      <trkpt lat="44.42586" lon="1.01071">
        <ele>204</ele>
        <time>2020-01-13T18:16:44Z</time>
      </trkpt>
      <trkpt lat="44.42578" lon="1.01072">
        <ele>204</ele>
        <time>2020-01-13T18:16:45Z</time>
      </trkpt>
      <trkpt lat="44.42563" lon="1.0107">
        <ele>204</ele>
        <time>2020-01-13T18:16:46Z</time>
      </trkpt>
      <trkpt lat="44.42556" lon="1.01069">
        <ele>204</ele>
        <time>2020-01-13T18:16:47Z</time>
      </trkpt>
      <trkpt lat="44.42548" lon="1.01069">
        <ele>204</ele>
        <time>2020-01-13T18:16:48Z</time>
      </trkpt>
      <trkpt lat="44.42541" lon="1.01069">
        <ele>204</ele>
        <time>2020-01-13T18:16:49Z</time>
      </trkpt>
      <trkpt lat="44.42534" lon="1.01071">
        <ele>204</ele>
        <time>2020-01-13T18:16:50Z</time>
      </trkpt>
      <trkpt lat="44.42526" lon="1.01073">
        <ele>204</ele>
        <time>2020-01-13T18:16:51Z</time>
      </trkpt>
      <trkpt lat="44.42519" lon="1.01076">
        <ele>203</ele>
        <time>2020-01-13T18:16:52Z</time>
      </trkpt>
      <trkpt lat="44.42511" lon="1.0108">
        <ele>203</ele>
        <time>2020-01-13T18:16:53Z</time>
      </trkpt>
      <trkpt lat="44.42504" lon="1.01084">
        <ele>203</ele>
        <time>2020-01-13T18:16:54Z</time>
      </trkpt>
      <trkpt lat="44.42497" lon="1.01089">
        <ele>203</ele>
        <time>2020-01-13T18:16:55Z</time>
      </trkpt>
      <trkpt lat="44.42484" lon="1.01099">
        <ele>202</ele>
        <time>2020-01-13T18:16:56Z</time>
      </trkpt>
      <trkpt lat="44.42464" lon="1.01118">
        <ele>200</ele>
        <time>2020-01-13T18:16:57Z</time>
      </trkpt>
      <trkpt lat="44.42457" lon="1.01124">
        <ele>200</ele>
        <time>2020-01-13T18:16:58Z</time>
      </trkpt>
      <trkpt lat="44.42445" lon="1.01137">
        <ele>199</ele>
        <time>2020-01-13T18:16:59Z</time>
      </trkpt>
      <trkpt lat="44.42433" lon="1.01149">
        <ele>198</ele>
        <time>2020-01-13T18:17:00Z</time>
      </trkpt>
      <trkpt lat="44.42428" lon="1.01153">
        <ele>197</ele>
        <time>2020-01-13T18:17:01Z</time>
      </trkpt>
      <trkpt lat="44.42418" lon="1.01162">
        <ele>196</ele>
        <time>2020-01-13T18:17:02Z</time>
      </trkpt>
      <trkpt lat="44.42413" lon="1.01168">
        <ele>196</ele>
        <time>2020-01-13T18:17:03Z</time>
      </trkpt>
      <trkpt lat="44.42409" lon="1.01174">
        <ele>196</ele>
        <time>2020-01-13T18:17:04Z</time>
      </trkpt>
      <trkpt lat="44.42403" lon="1.01189">
        <ele>196</ele>
        <time>2020-01-13T18:17:05Z</time>
      </trkpt>
      <trkpt lat="44.42398" lon="1.01197">
        <ele>196</ele>
        <time>2020-01-13T18:17:06Z</time>
      </trkpt>
      <trkpt lat="44.42393" lon="1.01203">
        <ele>196</ele>
        <time>2020-01-13T18:17:07Z</time>
      </trkpt>
      <trkpt lat="44.4238" lon="1.01213">
        <ele>197</ele>
        <time>2020-01-13T18:17:08Z</time>
      </trkpt>
      <trkpt lat="44.42361" lon="1.01234">
        <ele>197</ele>
        <time>2020-01-13T18:17:09Z</time>
      </trkpt>
      <trkpt lat="44.42355" lon="1.0124">
        <ele>197</ele>
        <time>2020-01-13T18:17:10Z</time>
      </trkpt>
      <trkpt lat="44.42342" lon="1.01256">
        <ele>197</ele>
        <time>2020-01-13T18:17:11Z</time>
      </trkpt>
      <trkpt lat="44.42339" lon="1.01261">
        <ele>197</ele>
        <time>2020-01-13T18:17:12Z</time>
      </trkpt>
      <trkpt lat="44.42337" lon="1.01267">
        <ele>197</ele>
        <time>2020-01-13T18:17:13Z</time>
      </trkpt>
      <trkpt lat="44.42334" lon="1.01272">
        <ele>198</ele>
        <time>2020-01-13T18:17:14Z</time>
      </trkpt>
      <trkpt lat="44.42331" lon="1.01276">
        <ele>198</ele>
        <time>2020-01-13T18:17:15Z</time>
      </trkpt>
      <trkpt lat="44.42328" lon="1.01277">
        <ele>198</ele>
        <time>2020-01-13T18:17:16Z</time>
      </trkpt>
      <trkpt lat="44.42326" lon="1.01276">
        <ele>199</ele>
        <time>2020-01-13T18:17:17Z</time>
      </trkpt>
      <trkpt lat="44.42315" lon="1.01267">
        <ele>200</ele>
        <time>2020-01-13T18:17:18Z</time>
      </trkpt>
      <trkpt lat="44.42313" lon="1.01265">
        <ele>200</ele>
        <time>2020-01-13T18:17:19Z</time>
      </trkpt>
      <trkpt lat="44.42302" lon="1.01257">
        <ele>201</ele>
        <time>2020-01-13T18:17:20Z</time>
      </trkpt>
      <trkpt lat="44.42299" lon="1.01254">
        <ele>201</ele>
        <time>2020-01-13T18:17:21Z</time>
      </trkpt>
      <trkpt lat="44.4229" lon="1.01249">
        <ele>202</ele>
        <time>2020-01-13T18:17:22Z</time>
      </trkpt>
      <trkpt lat="44.42288" lon="1.01247">
        <ele>202</ele>
        <time>2020-01-13T18:17:23Z</time>
      </trkpt>
      <trkpt lat="44.42283" lon="1.01244">
        <ele>203</ele>
        <time>2020-01-13T18:17:24Z</time>
      </trkpt>
      <trkpt lat="44.42278" lon="1.01241">
        <ele>203</ele>
        <time>2020-01-13T18:17:25Z</time>
      </trkpt>
      <trkpt lat="44.42273" lon="1.01238">
        <ele>204</ele>
        <time>2020-01-13T18:17:26Z</time>
      </trkpt>
      <trkpt lat="44.42266" lon="1.01233">
        <ele>204</ele>
        <time>2020-01-13T18:17:27Z</time>
      </trkpt>
      <trkpt lat="44.42262" lon="1.0123">
        <ele>205</ele>
        <time>2020-01-13T18:17:28Z</time>
      </trkpt>
      <trkpt lat="44.4226" lon="1.01229">
        <ele>205</ele>
        <time>2020-01-13T18:17:29Z</time>
      </trkpt>
      <trkpt lat="44.42253" lon="1.01227">
        <ele>206</ele>
        <time>2020-01-13T18:17:30Z</time>
      </trkpt>
      <trkpt lat="44.42249" lon="1.01225">
        <ele>206</ele>
        <time>2020-01-13T18:17:31Z</time>
      </trkpt>
      <trkpt lat="44.42247" lon="1.01226">
        <ele>206</ele>
        <time>2020-01-13T18:17:32Z</time>
      </trkpt>
      <trkpt lat="44.42245" lon="1.01228">
        <ele>206</ele>
        <time>2020-01-13T18:17:33Z</time>
      </trkpt>
      <trkpt lat="44.42244" lon="1.01231">
        <ele>206</ele>
        <time>2020-01-13T18:17:34Z</time>
      </trkpt>
      <trkpt lat="44.42244" lon="1.01234">
        <ele>206</ele>
        <time>2020-01-13T18:17:35Z</time>
      </trkpt>
      <trkpt lat="44.42244" lon="1.01237">
        <ele>207</ele>
        <time>2020-01-13T18:17:36Z</time>
      </trkpt>
      <trkpt lat="44.42248" lon="1.01246">
        <ele>207</ele>
        <time>2020-01-13T18:17:37Z</time>
      </trkpt>
      <trkpt lat="44.4225" lon="1.01253">
        <ele>207</ele>
        <time>2020-01-13T18:17:38Z</time>
      </trkpt>
      <trkpt lat="44.42255" lon="1.01271">
        <ele>207</ele>
        <time>2020-01-13T18:17:39Z</time>
      </trkpt>
      <trkpt lat="44.42256" lon="1.01281">
        <ele>207</ele>
        <time>2020-01-13T18:17:40Z</time>
      </trkpt>
      <trkpt lat="44.42258" lon="1.01287">
        <ele>207</ele>
        <time>2020-01-13T18:17:41Z</time>
      </trkpt>
      <trkpt lat="44.4226" lon="1.013">
        <ele>207</ele>
        <time>2020-01-13T18:17:42Z</time>
      </trkpt>
      <trkpt lat="44.42264" lon="1.01312">
        <ele>207</ele>
        <time>2020-01-13T18:17:43Z</time>
      </trkpt>
      <trkpt lat="44.42266" lon="1.0132">
        <ele>207</ele>
        <time>2020-01-13T18:17:44Z</time>
      </trkpt>
      <trkpt lat="44.4227" lon="1.01336">
        <ele>207</ele>
        <time>2020-01-13T18:17:45Z</time>
      </trkpt>
      <trkpt lat="44.42274" lon="1.01352">
        <ele>206</ele>
        <time>2020-01-13T18:17:46Z</time>
      </trkpt>
      <trkpt lat="44.42276" lon="1.0136">
        <ele>206</ele>
        <time>2020-01-13T18:17:47Z</time>
      </trkpt>
      <trkpt lat="44.42282" lon="1.01383">
        <ele>206</ele>
        <time>2020-01-13T18:17:48Z</time>
      </trkpt>
      <trkpt lat="44.42283" lon="1.0139">
        <ele>206</ele>
        <time>2020-01-13T18:17:49Z</time>
      </trkpt>
      <trkpt lat="44.42285" lon="1.01397">
        <ele>205</ele>
        <time>2020-01-13T18:17:50Z</time>
      </trkpt>
      <trkpt lat="44.42286" lon="1.01403">
        <ele>205</ele>
        <time>2020-01-13T18:17:51Z</time>
      </trkpt>
      <trkpt lat="44.42289" lon="1.01429">
        <ele>205</ele>
        <time>2020-01-13T18:17:52Z</time>
      </trkpt>
      <trkpt lat="44.42291" lon="1.01437">
        <ele>205</ele>
        <time>2020-01-13T18:17:53Z</time>
      </trkpt>
      <trkpt lat="44.42292" lon="1.01444">
        <ele>205</ele>
        <time>2020-01-13T18:17:54Z</time>
      </trkpt>
      <trkpt lat="44.42293" lon="1.01452">
        <ele>205</ele>
        <time>2020-01-13T18:17:55Z</time>
      </trkpt>
      <trkpt lat="44.42294" lon="1.0146">
        <ele>205</ele>
        <time>2020-01-13T18:17:56Z</time>
      </trkpt>
      <trkpt lat="44.42296" lon="1.01485">
        <ele>204</ele>
        <time>2020-01-13T18:17:57Z</time>
      </trkpt>
      <trkpt lat="44.42297" lon="1.01493">
        <ele>204</ele>
        <time>2020-01-13T18:17:58Z</time>
      </trkpt>
      <trkpt lat="44.42297" lon="1.01501">
        <ele>204</ele>
        <time>2020-01-13T18:17:59Z</time>
      </trkpt>
      <trkpt lat="44.42299" lon="1.01509">
        <ele>204</ele>
        <time>2020-01-13T18:18:00Z</time>
      </trkpt>
      <trkpt lat="44.42302" lon="1.01516">
        <ele>203</ele>
        <time>2020-01-13T18:18:01Z</time>
      </trkpt>
      <trkpt lat="44.42306" lon="1.01522">
        <ele>203</ele>
        <time>2020-01-13T18:18:02Z</time>
      </trkpt>
      <trkpt lat="44.42318" lon="1.01541">
        <ele>202</ele>
        <time>2020-01-13T18:18:03Z</time>
      </trkpt>
      <trkpt lat="44.4233" lon="1.0156">
        <ele>201</ele>
        <time>2020-01-13T18:18:04Z</time>
      </trkpt>
      <trkpt lat="44.4235" lon="1.01592">
        <ele>200</ele>
        <time>2020-01-13T18:18:05Z</time>
      </trkpt>
      <trkpt lat="44.42354" lon="1.01598">
        <ele>200</ele>
        <time>2020-01-13T18:18:06Z</time>
      </trkpt>
      <trkpt lat="44.42369" lon="1.01622">
        <ele>200</ele>
        <time>2020-01-13T18:18:07Z</time>
      </trkpt>
      <trkpt lat="44.42374" lon="1.01628">
        <ele>199</ele>
        <time>2020-01-13T18:18:08Z</time>
      </trkpt>
      <trkpt lat="44.42387" lon="1.01647">
        <ele>199</ele>
        <time>2020-01-13T18:18:09Z</time>
      </trkpt>
      <trkpt lat="44.424" lon="1.01666">
        <ele>199</ele>
        <time>2020-01-13T18:18:10Z</time>
      </trkpt>
      <trkpt lat="44.42405" lon="1.01672">
        <ele>199</ele>
        <time>2020-01-13T18:18:11Z</time>
      </trkpt>
      <trkpt lat="44.42418" lon="1.0169">
        <ele>199</ele>
        <time>2020-01-13T18:18:12Z</time>
      </trkpt>
      <trkpt lat="44.42426" lon="1.01701">
        <ele>199</ele>
        <time>2020-01-13T18:18:13Z</time>
      </trkpt>
      <trkpt lat="44.42431" lon="1.01707">
        <ele>199</ele>
        <time>2020-01-13T18:18:14Z</time>
      </trkpt>
      <trkpt lat="44.42435" lon="1.01713">
        <ele>199</ele>
        <time>2020-01-13T18:18:15Z</time>
      </trkpt>
      <trkpt lat="44.4244" lon="1.01718">
        <ele>200</ele>
        <time>2020-01-13T18:18:16Z</time>
      </trkpt>
      <trkpt lat="44.4245" lon="1.0173">
        <ele>200</ele>
        <time>2020-01-13T18:18:17Z</time>
      </trkpt>
      <trkpt lat="44.42463" lon="1.01749">
        <ele>200</ele>
        <time>2020-01-13T18:18:18Z</time>
      </trkpt>
      <trkpt lat="44.42468" lon="1.01755">
        <ele>200</ele>
        <time>2020-01-13T18:18:19Z</time>
      </trkpt>
      <trkpt lat="44.42479" lon="1.01767">
        <ele>200</ele>
        <time>2020-01-13T18:18:20Z</time>
      </trkpt>
      <trkpt lat="44.42485" lon="1.01772">
        <ele>200</ele>
        <time>2020-01-13T18:18:21Z</time>
      </trkpt>
      <trkpt lat="44.42492" lon="1.01776">
        <ele>201</ele>
        <time>2020-01-13T18:18:22Z</time>
      </trkpt>
      <trkpt lat="44.42504" lon="1.01784">
        <ele>201</ele>
        <time>2020-01-13T18:18:23Z</time>
      </trkpt>
      <trkpt lat="44.42517" lon="1.01792">
        <ele>201</ele>
        <time>2020-01-13T18:18:24Z</time>
      </trkpt>
      <trkpt lat="44.42536" lon="1.01803">
        <ele>202</ele>
        <time>2020-01-13T18:18:25Z</time>
      </trkpt>
      <trkpt lat="44.42567" lon="1.01821">
        <ele>203</ele>
        <time>2020-01-13T18:18:26Z</time>
      </trkpt>
      <trkpt lat="44.42585" lon="1.01832">
        <ele>203</ele>
        <time>2020-01-13T18:18:27Z</time>
      </trkpt>
      <trkpt lat="44.42591" lon="1.01836">
        <ele>203</ele>
        <time>2020-01-13T18:18:28Z</time>
      </trkpt>
      <trkpt lat="44.42596" lon="1.0184">
        <ele>203</ele>
        <time>2020-01-13T18:18:29Z</time>
      </trkpt>
      <trkpt lat="44.42602" lon="1.01844">
        <ele>204</ele>
        <time>2020-01-13T18:18:30Z</time>
      </trkpt>
      <trkpt lat="44.42611" lon="1.0185">
        <ele>204</ele>
        <time>2020-01-13T18:18:31Z</time>
      </trkpt>
      <trkpt lat="44.42613" lon="1.01854">
        <ele>204</ele>
        <time>2020-01-13T18:18:32Z</time>
      </trkpt>
      <trkpt lat="44.42614" lon="1.01858">
        <ele>204</ele>
        <time>2020-01-13T18:18:33Z</time>
      </trkpt>
      <trkpt lat="44.42613" lon="1.01862">
        <ele>204</ele>
        <time>2020-01-13T18:18:34Z</time>
      </trkpt>
      <trkpt lat="44.42612" lon="1.01866">
        <ele>204</ele>
        <time>2020-01-13T18:18:35Z</time>
      </trkpt>
      <trkpt lat="44.42607" lon="1.01878">
        <ele>204</ele>
        <time>2020-01-13T18:18:36Z</time>
      </trkpt>
      <trkpt lat="44.42602" lon="1.01886">
        <ele>204</ele>
        <time>2020-01-13T18:18:37Z</time>
      </trkpt>
      <trkpt lat="44.4259" lon="1.01907">
        <ele>203</ele>
        <time>2020-01-13T18:18:38Z</time>
      </trkpt>
      <trkpt lat="44.42587" lon="1.01912">
        <ele>203</ele>
        <time>2020-01-13T18:18:39Z</time>
      </trkpt>
      <trkpt lat="44.4258" lon="1.01924">
        <ele>203</ele>
        <time>2020-01-13T18:18:40Z</time>
      </trkpt>
      <trkpt lat="44.42569" lon="1.01942">
        <ele>204</ele>
        <time>2020-01-13T18:18:41Z</time>
      </trkpt>
      <trkpt lat="44.42566" lon="1.01946">
        <ele>204</ele>
        <time>2020-01-13T18:18:42Z</time>
      </trkpt>
      <trkpt lat="44.42563" lon="1.01951">
        <ele>204</ele>
        <time>2020-01-13T18:18:43Z</time>
      </trkpt>
      <trkpt lat="44.4256" lon="1.01955">
        <ele>204</ele>
        <time>2020-01-13T18:18:44Z</time>
      </trkpt>
      <trkpt lat="44.42558" lon="1.0196">
        <ele>204</ele>
        <time>2020-01-13T18:18:45Z</time>
      </trkpt>
      <trkpt lat="44.42556" lon="1.01966">
        <ele>205</ele>
        <time>2020-01-13T18:18:46Z</time>
      </trkpt>
      <trkpt lat="44.42556" lon="1.01971">
        <ele>205</ele>
        <time>2020-01-13T18:18:47Z</time>
      </trkpt>
      <trkpt lat="44.42556" lon="1.01982">
        <ele>205</ele>
        <time>2020-01-13T18:18:48Z</time>
      </trkpt>
      <trkpt lat="44.42556" lon="1.01987">
        <ele>206</ele>
        <time>2020-01-13T18:18:49Z</time>
      </trkpt>
      <trkpt lat="44.42558" lon="1.01992">
        <ele>206</ele>
        <time>2020-01-13T18:18:50Z</time>
      </trkpt>
      <trkpt lat="44.42559" lon="1.01997">
        <ele>206</ele>
        <time>2020-01-13T18:18:51Z</time>
      </trkpt>
      <trkpt lat="44.42564" lon="1.02006">
        <ele>207</ele>
        <time>2020-01-13T18:18:52Z</time>
      </trkpt>
      <trkpt lat="44.42567" lon="1.02016">
        <ele>207</ele>
        <time>2020-01-13T18:18:53Z</time>
      </trkpt>
      <trkpt lat="44.4257" lon="1.02024">
        <ele>208</ele>
        <time>2020-01-13T18:18:54Z</time>
      </trkpt>
      <trkpt lat="44.4257" lon="1.02029">
        <ele>208</ele>
        <time>2020-01-13T18:18:55Z</time>
      </trkpt>
      <trkpt lat="44.4257" lon="1.02038">
        <ele>208</ele>
        <time>2020-01-13T18:18:56Z</time>
      </trkpt>
      <trkpt lat="44.42569" lon="1.02045">
        <ele>209</ele>
        <time>2020-01-13T18:18:57Z</time>
      </trkpt>
      <trkpt lat="44.42568" lon="1.02052">
        <ele>209</ele>
        <time>2020-01-13T18:18:58Z</time>
      </trkpt>
      <trkpt lat="44.42567" lon="1.02056">
        <ele>209</ele>
        <time>2020-01-13T18:18:59Z</time>
      </trkpt>
      <trkpt lat="44.42566" lon="1.0206">
        <ele>209</ele>
        <time>2020-01-13T18:19:00Z</time>
      </trkpt>
      <trkpt lat="44.42562" lon="1.02068">
        <ele>210</ele>
        <time>2020-01-13T18:19:01Z</time>
      </trkpt>
      <trkpt lat="44.42561" lon="1.0207">
        <ele>210</ele>
        <time>2020-01-13T18:19:02Z</time>
      </trkpt>
      <trkpt lat="44.4256" lon="1.02071">
        <ele>210</ele>
        <time>2020-01-13T18:19:03Z</time>
      </trkpt>
      <trkpt lat="44.42558" lon="1.02073">
        <ele>210</ele>
        <time>2020-01-13T18:19:04Z</time>
      </trkpt>
      <trkpt lat="44.42556" lon="1.02073">
        <ele>210</ele>
        <time>2020-01-13T18:19:05Z</time>
      </trkpt>
      <trkpt lat="44.42555" lon="1.02074">
        <ele>210</ele>
        <time>2020-01-13T18:19:06Z</time>
      </trkpt>
      <trkpt lat="44.42555" lon="1.02072">
        <ele>209</ele>
        <time>2020-01-13T18:19:07Z</time>
      </trkpt>
      <trkpt lat="44.42555" lon="1.0207">
        <ele>209</ele>
        <time>2020-01-13T18:19:08Z</time>
      </trkpt>
      <trkpt lat="44.42554" lon="1.02069">
        <ele>209</ele>
        <time>2020-01-13T18:19:09Z</time>
      </trkpt>
      <trkpt lat="44.42552" lon="1.02067">
        <ele>209</ele>
        <time>2020-01-13T18:19:10Z</time>
      </trkpt>
      <trkpt lat="44.42551" lon="1.02067">
        <ele>209</ele>
        <time>2020-01-13T18:19:11Z</time>
      </trkpt>
      <trkpt lat="44.4255" lon="1.02067">
        <ele>209</ele>
        <time>2020-01-13T18:19:12Z</time>
      </trkpt>
      <trkpt lat="44.42548" lon="1.02068">
        <ele>209</ele>
        <time>2020-01-13T18:19:13Z</time>
      </trkpt>
      <trkpt lat="44.42547" lon="1.02068">
        <ele>209</ele>
        <time>2020-01-13T18:19:14Z</time>
      </trkpt>
      <trkpt lat="44.42546" lon="1.02067">
        <ele>209</ele>
        <time>2020-01-13T18:19:15Z</time>
      </trkpt>
      <trkpt lat="44.42545" lon="1.02067">
        <ele>209</ele>
        <time>2020-01-13T18:19:16Z</time>
      </trkpt>
      <trkpt lat="44.42544" lon="1.02067">
        <ele>209</ele>
        <time>2020-01-13T18:19:17Z</time>
      </trkpt>
      <trkpt lat="44.42545" lon="1.02067">
        <ele>209</ele>
        <time>2020-01-13T18:19:18Z</time>
      </trkpt>
      <trkpt lat="44.42548" lon="1.0207">
        <ele>209</ele>
        <time>2020-01-13T18:19:19Z</time>
      </trkpt>
      <trkpt lat="44.42543" lon="1.02067">
        <ele>209</ele>
        <time>2020-01-13T18:19:20Z</time>
      </trkpt>
      <trkpt lat="44.42546" lon="1.02069">
        <ele>209</ele>
        <time>2020-01-13T18:19:21Z</time>
      </trkpt>
      <trkpt lat="44.42548" lon="1.0207">
        <ele>209</ele>
        <time>2020-01-13T18:19:22Z</time>
      </trkpt>
      <trkpt lat="44.42549" lon="1.02075">
        <ele>209</ele>
        <time>2020-01-13T18:19:23Z</time>
      </trkpt>
      <trkpt lat="44.42551" lon="1.0208">
        <ele>210</ele>
        <time>2020-01-13T18:19:24Z</time>
      </trkpt>
      <trkpt lat="44.42553" lon="1.0208">
        <ele>210</ele>
        <time>2020-01-13T18:19:25Z</time>
      </trkpt>
      <trkpt lat="44.42554" lon="1.02076">
        <ele>210</ele>
        <time>2020-01-13T18:19:26Z</time>
      </trkpt>
      <trkpt lat="44.42554" lon="1.02073">
        <ele>209</ele>
        <time>2020-01-13T18:19:27Z</time>
      </trkpt>
      <trkpt lat="44.42553" lon="1.02075">
        <ele>210</ele>
        <time>2020-01-13T18:19:28Z</time>
      </trkpt>
      <trkpt lat="44.42554" lon="1.02074">
        <ele>210</ele>
        <time>2020-01-13T18:19:29Z</time>
      </trkpt>
      <trkpt lat="44.42556" lon="1.02075">
        <ele>210</ele>
        <time>2020-01-13T18:19:30Z</time>
      </trkpt>
      <trkpt lat="44.42556" lon="1.02076">
        <ele>210</ele>
        <time>2020-01-13T18:19:31Z</time>
      </trkpt>
      <trkpt lat="44.42555" lon="1.02078">
        <ele>210</ele>
        <time>2020-01-13T18:19:32Z</time>
      </trkpt>
      <trkpt lat="44.42554" lon="1.02079">
        <ele>210</ele>
        <time>2020-01-13T18:19:33Z</time>
      </trkpt>
      <trkpt lat="44.42554" lon="1.02081">
        <ele>210</ele>
        <time>2020-01-13T18:19:34Z</time>
      </trkpt>
      <trkpt lat="44.42556" lon="1.0208">
        <ele>210</ele>
        <time>2020-01-13T18:19:35Z</time>
      </trkpt>
      <trkpt lat="44.42555" lon="1.02078">
        <ele>210</ele>
        <time>2020-01-13T18:19:36Z</time>
      </trkpt>
      <trkpt lat="44.42554" lon="1.02077">
        <ele>210</ele>
        <time>2020-01-13T18:19:37Z</time>
      </trkpt>
      <trkpt lat="44.42554" lon="1.02079">
        <ele>210</ele>
        <time>2020-01-13T18:19:38Z</time>
      </trkpt>
      <trkpt lat="44.42554" lon="1.02081">
        <ele>210</ele>
        <time>2020-01-13T18:19:39Z</time>
      </trkpt>
      <trkpt lat="44.42553" lon="1.02082">
        <ele>210</ele>
        <time>2020-01-13T18:19:40Z</time>
      </trkpt>
      <trkpt lat="44.42554" lon="1.02078">
        <ele>210</ele>
        <time>2020-01-13T18:19:41Z</time>
      </trkpt>
      <trkpt lat="44.42555" lon="1.02077">
        <ele>210</ele>
        <time>2020-01-13T18:19:42Z</time>
      </trkpt>
      <trkpt lat="44.42557" lon="1.02077">
        <ele>210</ele>
        <time>2020-01-13T18:19:43Z</time>
      </trkpt>
      <trkpt lat="44.42555" lon="1.02076">
        <ele>210</ele>
        <time>2020-01-13T18:19:44Z</time>
      </trkpt>
      <trkpt lat="44.42552" lon="1.02079">
        <ele>210</ele>
        <time>2020-01-13T18:19:45Z</time>
      </trkpt>
      <trkpt lat="44.4255" lon="1.0208">
        <ele>210</ele>
        <time>2020-01-13T18:19:46Z</time>
      </trkpt>
      <trkpt lat="44.42547" lon="1.02081">
        <ele>210</ele>
        <time>2020-01-13T18:19:47Z</time>
      </trkpt>
      <trkpt lat="44.42544" lon="1.02081">
        <ele>209</ele>
        <time>2020-01-13T18:19:48Z</time>
      </trkpt>
      <trkpt lat="44.4254" lon="1.0208">
        <ele>209</ele>
        <time>2020-01-13T18:19:49Z</time>
      </trkpt>
      <trkpt lat="44.42537" lon="1.02078">
        <ele>209</ele>
        <time>2020-01-13T18:19:50Z</time>
      </trkpt>
      <trkpt lat="44.42533" lon="1.02074">
        <ele>209</ele>
        <time>2020-01-13T18:19:51Z</time>
      </trkpt>
      <trkpt lat="44.42511" lon="1.02045">
        <ele>207</ele>
        <time>2020-01-13T18:19:52Z</time>
      </trkpt>
      <trkpt lat="44.42507" lon="1.02039">
        <ele>207</ele>
        <time>2020-01-13T18:19:53Z</time>
      </trkpt>
      <trkpt lat="44.425" lon="1.0203">
        <ele>206</ele>
        <time>2020-01-13T18:19:54Z</time>
      </trkpt>
      <trkpt lat="44.42497" lon="1.02028">
        <ele>206</ele>
        <time>2020-01-13T18:19:55Z</time>
      </trkpt>
      <trkpt lat="44.42493" lon="1.02027">
        <ele>206</ele>
        <time>2020-01-13T18:19:56Z</time>
      </trkpt>
      <trkpt lat="44.4249" lon="1.02028">
        <ele>206</ele>
        <time>2020-01-13T18:19:57Z</time>
      </trkpt>
      <trkpt lat="44.42483" lon="1.02033">
        <ele>206</ele>
        <time>2020-01-13T18:19:58Z</time>
      </trkpt>
      <trkpt lat="44.42471" lon="1.02041">
        <ele>206</ele>
        <time>2020-01-13T18:19:59Z</time>
      </trkpt>
      <trkpt lat="44.42467" lon="1.02043">
        <ele>206</ele>
        <time>2020-01-13T18:20:00Z</time>
      </trkpt>
      <trkpt lat="44.42463" lon="1.02045">
        <ele>206</ele>
        <time>2020-01-13T18:20:01Z</time>
      </trkpt>
      <trkpt lat="44.42455" lon="1.02048">
        <ele>206</ele>
        <time>2020-01-13T18:20:02Z</time>
      </trkpt>
      <trkpt lat="44.42444" lon="1.0205">
        <ele>206</ele>
        <time>2020-01-13T18:20:03Z</time>
      </trkpt>
      <trkpt lat="44.4243" lon="1.0205">
        <ele>206</ele>
        <time>2020-01-13T18:20:04Z</time>
      </trkpt>
      <trkpt lat="44.42421" lon="1.0205">
        <ele>205</ele>
        <time>2020-01-13T18:20:05Z</time>
      </trkpt>
      <trkpt lat="44.42417" lon="1.02051">
        <ele>205</ele>
        <time>2020-01-13T18:20:06Z</time>
      </trkpt>
      <trkpt lat="44.42412" lon="1.02052">
        <ele>205</ele>
        <time>2020-01-13T18:20:07Z</time>
      </trkpt>
      <trkpt lat="44.42403" lon="1.02055">
        <ele>205</ele>
        <time>2020-01-13T18:20:08Z</time>
      </trkpt>
      <trkpt lat="44.42395" lon="1.0206">
        <ele>206</ele>
        <time>2020-01-13T18:20:09Z</time>
      </trkpt>
      <trkpt lat="44.42387" lon="1.02066">
        <ele>206</ele>
        <time>2020-01-13T18:20:10Z</time>
      </trkpt>
      <trkpt lat="44.42379" lon="1.02072">
        <ele>206</ele>
        <time>2020-01-13T18:20:11Z</time>
      </trkpt>
      <trkpt lat="44.42368" lon="1.02083">
        <ele>206</ele>
        <time>2020-01-13T18:20:12Z</time>
      </trkpt>
      <trkpt lat="44.42364" lon="1.02087">
        <ele>207</ele>
        <time>2020-01-13T18:20:13Z</time>
      </trkpt>
      <trkpt lat="44.4236" lon="1.02091">
        <ele>207</ele>
        <time>2020-01-13T18:20:14Z</time>
      </trkpt>
      <trkpt lat="44.42346" lon="1.02107">
        <ele>207</ele>
        <time>2020-01-13T18:20:15Z</time>
      </trkpt>
      <trkpt lat="44.42336" lon="1.0212">
        <ele>208</ele>
        <time>2020-01-13T18:20:16Z</time>
      </trkpt>
      <trkpt lat="44.42325" lon="1.02135">
        <ele>209</ele>
        <time>2020-01-13T18:20:17Z</time>
      </trkpt>
      <trkpt lat="44.42322" lon="1.0214">
        <ele>209</ele>
        <time>2020-01-13T18:20:18Z</time>
      </trkpt>
      <trkpt lat="44.42319" lon="1.02146">
        <ele>209</ele>
        <time>2020-01-13T18:20:19Z</time>
      </trkpt>
      <trkpt lat="44.42309" lon="1.02161">
        <ele>210</ele>
        <time>2020-01-13T18:20:20Z</time>
      </trkpt>
      <trkpt lat="44.42304" lon="1.0217">
        <ele>210</ele>
        <time>2020-01-13T18:20:21Z</time>
      </trkpt>
      <trkpt lat="44.42302" lon="1.02174">
        <ele>211</ele>
        <time>2020-01-13T18:20:22Z</time>
      </trkpt>
      <trkpt lat="44.42291" lon="1.02193">
        <ele>211</ele>
        <time>2020-01-13T18:20:23Z</time>
      </trkpt>
      <trkpt lat="44.42288" lon="1.02197">
        <ele>212</ele>
        <time>2020-01-13T18:20:24Z</time>
      </trkpt>
      <trkpt lat="44.42285" lon="1.02201">
        <ele>212</ele>
        <time>2020-01-13T18:20:25Z</time>
      </trkpt>
      <trkpt lat="44.42279" lon="1.02209">
        <ele>212</ele>
        <time>2020-01-13T18:20:26Z</time>
      </trkpt>
      <trkpt lat="44.42277" lon="1.02214">
        <ele>212</ele>
        <time>2020-01-13T18:20:27Z</time>
      </trkpt>
      <trkpt lat="44.42274" lon="1.02218">
        <ele>213</ele>
        <time>2020-01-13T18:20:28Z</time>
      </trkpt>
      <trkpt lat="44.42271" lon="1.02222">
        <ele>213</ele>
        <time>2020-01-13T18:20:29Z</time>
      </trkpt>
      <trkpt lat="44.42268" lon="1.02226">
        <ele>213</ele>
        <time>2020-01-13T18:20:30Z</time>
      </trkpt>
      <trkpt lat="44.42265" lon="1.0223">
        <ele>213</ele>
        <time>2020-01-13T18:20:31Z</time>
      </trkpt>
      <trkpt lat="44.42263" lon="1.02234">
        <ele>213</ele>
        <time>2020-01-13T18:20:32Z</time>
      </trkpt>
      <trkpt lat="44.42255" lon="1.02246">
        <ele>214</ele>
        <time>2020-01-13T18:20:33Z</time>
      </trkpt>
      <trkpt lat="44.42249" lon="1.02255">
        <ele>214</ele>
        <time>2020-01-13T18:20:34Z</time>
      </trkpt>
      <trkpt lat="44.42243" lon="1.02263">
        <ele>215</ele>
        <time>2020-01-13T18:20:35Z</time>
      </trkpt>
      <trkpt lat="44.42231" lon="1.02287">
        <ele>216</ele>
        <time>2020-01-13T18:20:36Z</time>
      </trkpt>
      <trkpt lat="44.42222" lon="1.02307">
        <ele>217</ele>
        <time>2020-01-13T18:20:37Z</time>
      </trkpt>
      <trkpt lat="44.42218" lon="1.02318">
        <ele>217</ele>
        <time>2020-01-13T18:20:38Z</time>
      </trkpt>
      <trkpt lat="44.42214" lon="1.02336">
        <ele>218</ele>
        <time>2020-01-13T18:20:39Z</time>
      </trkpt>
      <trkpt lat="44.42213" lon="1.02341">
        <ele>218</ele>
        <time>2020-01-13T18:20:40Z</time>
      </trkpt>
      <trkpt lat="44.42211" lon="1.02347">
        <ele>218</ele>
        <time>2020-01-13T18:20:41Z</time>
      </trkpt>
      <trkpt lat="44.42209" lon="1.02353">
        <ele>218</ele>
        <time>2020-01-13T18:20:42Z</time>
      </trkpt>
      <trkpt lat="44.42208" lon="1.02358">
        <ele>218</ele>
        <time>2020-01-13T18:20:43Z</time>
      </trkpt>
      <trkpt lat="44.42204" lon="1.02375">
        <ele>218</ele>
        <time>2020-01-13T18:20:44Z</time>
      </trkpt>
      <trkpt lat="44.422" lon="1.02385">
        <ele>218</ele>
        <time>2020-01-13T18:20:45Z</time>
      </trkpt>
      <trkpt lat="44.42197" lon="1.02391">
        <ele>218</ele>
        <time>2020-01-13T18:20:46Z</time>
      </trkpt>
      <trkpt lat="44.42194" lon="1.02395">
        <ele>218</ele>
        <time>2020-01-13T18:20:47Z</time>
      </trkpt>
      <trkpt lat="44.42189" lon="1.02398">
        <ele>218</ele>
        <time>2020-01-13T18:20:48Z</time>
      </trkpt>
      <trkpt lat="44.42185" lon="1.02399">
        <ele>218</ele>
        <time>2020-01-13T18:20:49Z</time>
      </trkpt>
      <trkpt lat="44.4218" lon="1.02398">
        <ele>218</ele>
        <time>2020-01-13T18:20:50Z</time>
      </trkpt>
      <trkpt lat="44.4217" lon="1.02396">
        <ele>218</ele>
        <time>2020-01-13T18:20:51Z</time>
      </trkpt>
      <trkpt lat="44.42128" lon="1.02382">
        <ele>217</ele>
        <time>2020-01-13T18:20:52Z</time>
      </trkpt>
      <trkpt lat="44.42119" lon="1.02379">
        <ele>217</ele>
        <time>2020-01-13T18:20:53Z</time>
      </trkpt>
      <trkpt lat="44.42115" lon="1.02379">
        <ele>216</ele>
        <time>2020-01-13T18:20:54Z</time>
      </trkpt>
      <trkpt lat="44.4211" lon="1.02379">
        <ele>216</ele>
        <time>2020-01-13T18:20:55Z</time>
      </trkpt>
      <trkpt lat="44.42105" lon="1.02381">
        <ele>216</ele>
        <time>2020-01-13T18:20:56Z</time>
      </trkpt>
      <trkpt lat="44.42101" lon="1.02383">
        <ele>216</ele>
        <time>2020-01-13T18:20:57Z</time>
      </trkpt>
      <trkpt lat="44.42098" lon="1.02386">
        <ele>216</ele>
        <time>2020-01-13T18:20:58Z</time>
      </trkpt>
      <trkpt lat="44.42092" lon="1.02395">
        <ele>216</ele>
        <time>2020-01-13T18:20:59Z</time>
      </trkpt>
      <trkpt lat="44.42085" lon="1.02409">
        <ele>216</ele>
        <time>2020-01-13T18:21:00Z</time>
      </trkpt>
      <trkpt lat="44.42083" lon="1.02415">
        <ele>216</ele>
        <time>2020-01-13T18:21:01Z</time>
      </trkpt>
      <trkpt lat="44.42081" lon="1.0242">
        <ele>216</ele>
        <time>2020-01-13T18:21:02Z</time>
      </trkpt>
      <trkpt lat="44.42079" lon="1.02425">
        <ele>216</ele>
        <time>2020-01-13T18:21:03Z</time>
      </trkpt>
      <trkpt lat="44.42077" lon="1.0243">
        <ele>216</ele>
        <time>2020-01-13T18:21:04Z</time>
      </trkpt>
      <trkpt lat="44.42075" lon="1.02434">
        <ele>217</ele>
        <time>2020-01-13T18:21:05Z</time>
      </trkpt>
      <trkpt lat="44.4207" lon="1.02443">
        <ele>217</ele>
        <time>2020-01-13T18:21:06Z</time>
      </trkpt>
      <trkpt lat="44.42068" lon="1.02447">
        <ele>217</ele>
        <time>2020-01-13T18:21:07Z</time>
      </trkpt>
      <trkpt lat="44.42064" lon="1.02456">
        <ele>217</ele>
        <time>2020-01-13T18:21:08Z</time>
      </trkpt>
      <trkpt lat="44.42062" lon="1.0246">
        <ele>217</ele>
        <time>2020-01-13T18:21:09Z</time>
      </trkpt>
      <trkpt lat="44.4206" lon="1.02463">
        <ele>217</ele>
        <time>2020-01-13T18:21:10Z</time>
      </trkpt>
      <trkpt lat="44.42058" lon="1.02465">
        <ele>217</ele>
        <time>2020-01-13T18:21:11Z</time>
      </trkpt>
      <trkpt lat="44.42054" lon="1.02468">
        <ele>217</ele>
        <time>2020-01-13T18:21:12Z</time>
      </trkpt>
      <trkpt lat="44.42052" lon="1.02468">
        <ele>217</ele>
        <time>2020-01-13T18:21:13Z</time>
      </trkpt>
      <trkpt lat="44.42049" lon="1.02467">
        <ele>217</ele>
        <time>2020-01-13T18:21:14Z</time>
      </trkpt>
      <trkpt lat="44.42046" lon="1.02464">
        <ele>217</ele>
        <time>2020-01-13T18:21:15Z</time>
      </trkpt>
      <trkpt lat="44.42041" lon="1.02457">
        <ele>216</ele>
        <time>2020-01-13T18:21:16Z</time>
      </trkpt>
      <trkpt lat="44.42038" lon="1.02452">
        <ele>216</ele>
        <time>2020-01-13T18:21:17Z</time>
      </trkpt>
      <trkpt lat="44.42035" lon="1.02446">
        <ele>216</ele>
        <time>2020-01-13T18:21:18Z</time>
      </trkpt>
      <trkpt lat="44.42027" lon="1.02434">
        <ele>215</ele>
        <time>2020-01-13T18:21:19Z</time>
      </trkpt>
      <trkpt lat="44.42022" lon="1.02427">
        <ele>214</ele>
        <time>2020-01-13T18:21:20Z</time>
      </trkpt>
      <trkpt lat="44.42013" lon="1.02413">
        <ele>213</ele>
        <time>2020-01-13T18:21:21Z</time>
      </trkpt>
      <trkpt lat="44.42003" lon="1.02397">
        <ele>212</ele>
        <time>2020-01-13T18:21:22Z</time>
      </trkpt>
      <trkpt lat="44.41998" lon="1.02389">
        <ele>212</ele>
        <time>2020-01-13T18:21:23Z</time>
      </trkpt>
      <trkpt lat="44.41991" lon="1.02381">
        <ele>211</ele>
        <time>2020-01-13T18:21:24Z</time>
      </trkpt>
      <trkpt lat="44.41985" lon="1.02372">
        <ele>210</ele>
        <time>2020-01-13T18:21:25Z</time>
      </trkpt>
      <trkpt lat="44.41979" lon="1.02363">
        <ele>210</ele>
        <time>2020-01-13T18:21:26Z</time>
      </trkpt>
      <trkpt lat="44.41964" lon="1.02338">
        <ele>209</ele>
        <time>2020-01-13T18:21:27Z</time>
      </trkpt>
      <trkpt lat="44.41954" lon="1.02322">
        <ele>208</ele>
        <time>2020-01-13T18:21:28Z</time>
      </trkpt>
      <trkpt lat="44.41945" lon="1.02307">
        <ele>207</ele>
        <time>2020-01-13T18:21:29Z</time>
      </trkpt>
      <trkpt lat="44.4194" lon="1.02299">
        <ele>207</ele>
        <time>2020-01-13T18:21:30Z</time>
      </trkpt>
      <trkpt lat="44.41929" lon="1.02282">
        <ele>207</ele>
        <time>2020-01-13T18:21:31Z</time>
      </trkpt>
      <trkpt lat="44.41923" lon="1.02274">
        <ele>206</ele>
        <time>2020-01-13T18:21:32Z</time>
      </trkpt>
      <trkpt lat="44.41906" lon="1.02247">
        <ele>206</ele>
        <time>2020-01-13T18:21:33Z</time>
      </trkpt>
      <trkpt lat="44.41887" lon="1.02218">
        <ele>205</ele>
        <time>2020-01-13T18:21:34Z</time>
      </trkpt>
      <trkpt lat="44.4187" lon="1.0219">
        <ele>204</ele>
        <time>2020-01-13T18:21:35Z</time>
      </trkpt>
      <trkpt lat="44.41864" lon="1.02181">
        <ele>204</ele>
        <time>2020-01-13T18:21:36Z</time>
      </trkpt>
      <trkpt lat="44.41859" lon="1.02173">
        <ele>204</ele>
        <time>2020-01-13T18:21:37Z</time>
      </trkpt>
      <trkpt lat="44.41853" lon="1.02164">
        <ele>204</ele>
        <time>2020-01-13T18:21:38Z</time>
      </trkpt>
      <trkpt lat="44.41843" lon="1.02147">
        <ele>203</ele>
        <time>2020-01-13T18:21:39Z</time>
      </trkpt>
      <trkpt lat="44.41838" lon="1.02139">
        <ele>203</ele>
        <time>2020-01-13T18:21:40Z</time>
      </trkpt>
      <trkpt lat="44.41824" lon="1.02114">
        <ele>202</ele>
        <time>2020-01-13T18:21:41Z</time>
      </trkpt>
      <trkpt lat="44.4182" lon="1.02106">
        <ele>202</ele>
        <time>2020-01-13T18:21:42Z</time>
      </trkpt>
      <trkpt lat="44.41814" lon="1.02087">
        <ele>201</ele>
        <time>2020-01-13T18:21:43Z</time>
      </trkpt>
      <trkpt lat="44.41808" lon="1.02078">
        <ele>200</ele>
        <time>2020-01-13T18:21:44Z</time>
      </trkpt>
      <trkpt lat="44.41805" lon="1.02068">
        <ele>199</ele>
        <time>2020-01-13T18:21:45Z</time>
      </trkpt>
      <trkpt lat="44.418" lon="1.02058">
        <ele>199</ele>
        <time>2020-01-13T18:21:46Z</time>
      </trkpt>
      <trkpt lat="44.41795" lon="1.0205">
        <ele>198</ele>
        <time>2020-01-13T18:21:47Z</time>
      </trkpt>
      <trkpt lat="44.4179" lon="1.02044">
        <ele>198</ele>
        <time>2020-01-13T18:21:48Z</time>
      </trkpt>
      <trkpt lat="44.41786" lon="1.0204">
        <ele>197</ele>
        <time>2020-01-13T18:21:49Z</time>
      </trkpt>
      <trkpt lat="44.41781" lon="1.02036">
        <ele>197</ele>
        <time>2020-01-13T18:21:50Z</time>
      </trkpt>
      <trkpt lat="44.41777" lon="1.02033">
        <ele>197</ele>
        <time>2020-01-13T18:21:51Z</time>
      </trkpt>
      <trkpt lat="44.41763" lon="1.0202">
        <ele>196</ele>
        <time>2020-01-13T18:21:52Z</time>
      </trkpt>
      <trkpt lat="44.41759" lon="1.02015">
        <ele>195</ele>
        <time>2020-01-13T18:21:53Z</time>
      </trkpt>
      <trkpt lat="44.41752" lon="1.02002">
        <ele>194</ele>
        <time>2020-01-13T18:21:54Z</time>
      </trkpt>
      <trkpt lat="44.4175" lon="1.01995">
        <ele>194</ele>
        <time>2020-01-13T18:21:55Z</time>
      </trkpt>
      <trkpt lat="44.41747" lon="1.01987">
        <ele>193</ele>
        <time>2020-01-13T18:21:56Z</time>
      </trkpt>
      <trkpt lat="44.41742" lon="1.01971">
        <ele>192</ele>
        <time>2020-01-13T18:21:57Z</time>
      </trkpt>
      <trkpt lat="44.4174" lon="1.01965">
        <ele>192</ele>
        <time>2020-01-13T18:21:58Z</time>
      </trkpt>
      <trkpt lat="44.41739" lon="1.01961">
        <ele>192</ele>
        <time>2020-01-13T18:21:59Z</time>
      </trkpt>
      <trkpt lat="44.41739" lon="1.01959">
        <ele>191</ele>
        <time>2020-01-13T18:22:00Z</time>
      </trkpt>
      <trkpt lat="44.4174" lon="1.01952">
        <ele>191</ele>
        <time>2020-01-13T18:22:01Z</time>
      </trkpt>
      <trkpt lat="44.4174" lon="1.01949">
        <ele>191</ele>
        <time>2020-01-13T18:22:02Z</time>
      </trkpt>
      <trkpt lat="44.41739" lon="1.01945">
        <ele>191</ele>
        <time>2020-01-13T18:22:03Z</time>
      </trkpt>
      <trkpt lat="44.41734" lon="1.01936">
        <ele>190</ele>
        <time>2020-01-13T18:22:04Z</time>
      </trkpt>
      <trkpt lat="44.41732" lon="1.01931">
        <ele>190</ele>
        <time>2020-01-13T18:22:05Z</time>
      </trkpt>
      <trkpt lat="44.4172" lon="1.01907">
        <ele>188</ele>
        <time>2020-01-13T18:22:06Z</time>
      </trkpt>
      <trkpt lat="44.41717" lon="1.01899">
        <ele>188</ele>
        <time>2020-01-13T18:22:07Z</time>
      </trkpt>
      <trkpt lat="44.41713" lon="1.01891">
        <ele>187</ele>
        <time>2020-01-13T18:22:08Z</time>
      </trkpt>
      <trkpt lat="44.41703" lon="1.01864">
        <ele>186</ele>
        <time>2020-01-13T18:22:09Z</time>
      </trkpt>
      <trkpt lat="44.41699" lon="1.01857">
        <ele>186</ele>
        <time>2020-01-13T18:22:10Z</time>
      </trkpt>
      <trkpt lat="44.41694" lon="1.01845">
        <ele>185</ele>
        <time>2020-01-13T18:22:11Z</time>
      </trkpt>
      <trkpt lat="44.41692" lon="1.0184">
        <ele>185</ele>
        <time>2020-01-13T18:22:12Z</time>
      </trkpt>
      <trkpt lat="44.41691" lon="1.01837">
        <ele>185</ele>
        <time>2020-01-13T18:22:13Z</time>
      </trkpt>
      <trkpt lat="44.4169" lon="1.01836">
        <ele>185</ele>
        <time>2020-01-13T18:22:14Z</time>
      </trkpt>
      <trkpt lat="44.4169" lon="1.01831">
        <ele>185</ele>
        <time>2020-01-13T18:22:15Z</time>
      </trkpt>
      <trkpt lat="44.41691" lon="1.01833">
        <ele>185</ele>
        <time>2020-01-13T18:22:16Z</time>
      </trkpt>
      <trkpt lat="44.41692" lon="1.01834">
        <ele>185</ele>
        <time>2020-01-13T18:22:17Z</time>
      </trkpt>
      <trkpt lat="44.41693" lon="1.01835">
        <ele>185</ele>
        <time>2020-01-13T18:22:18Z</time>
      </trkpt>
      <trkpt lat="44.41697" lon="1.01837">
        <ele>185</ele>
        <time>2020-01-13T18:22:19Z</time>
      </trkpt>
      <trkpt lat="44.41698" lon="1.01835">
        <ele>185</ele>
        <time>2020-01-13T18:22:20Z</time>
      </trkpt>
      <trkpt lat="44.417" lon="1.01835">
        <ele>185</ele>
        <time>2020-01-13T18:22:21Z</time>
      </trkpt>
      <trkpt lat="44.41701" lon="1.01834">
        <ele>185</ele>
        <time>2020-01-13T18:22:22Z</time>
      </trkpt>
      <trkpt lat="44.41698" lon="1.01832">
        <ele>185</ele>
        <time>2020-01-13T18:22:23Z</time>
      </trkpt>
      <trkpt lat="44.41697" lon="1.0183">
        <ele>185</ele>
        <time>2020-01-13T18:22:24Z</time>
      </trkpt>
      <trkpt lat="44.41697" lon="1.01826">
        <ele>185</ele>
        <time>2020-01-13T18:22:25Z</time>
      </trkpt>
      <trkpt lat="44.41696" lon="1.01825">
        <ele>186</ele>
        <time>2020-01-13T18:22:26Z</time>
      </trkpt>
      <trkpt lat="44.41694" lon="1.01824">
        <ele>186</ele>
        <time>2020-01-13T18:22:27Z</time>
      </trkpt>
      <trkpt lat="44.4169" lon="1.01826">
        <ele>185</ele>
        <time>2020-01-13T18:22:28Z</time>
      </trkpt>
      <trkpt lat="44.41673" lon="1.01831">
        <ele>184</ele>
        <time>2020-01-13T18:22:29Z</time>
      </trkpt>
      <trkpt lat="44.41669" lon="1.01833">
        <ele>184</ele>
        <time>2020-01-13T18:22:30Z</time>
      </trkpt>
      <trkpt lat="44.41665" lon="1.01834">
        <ele>184</ele>
        <time>2020-01-13T18:22:31Z</time>
      </trkpt>
      <trkpt lat="44.41661" lon="1.01835">
        <ele>184</ele>
        <time>2020-01-13T18:22:32Z</time>
      </trkpt>
      <trkpt lat="44.41656" lon="1.01835">
        <ele>184</ele>
        <time>2020-01-13T18:22:33Z</time>
      </trkpt>
      <trkpt lat="44.41651" lon="1.01834">
        <ele>184</ele>
        <time>2020-01-13T18:22:34Z</time>
      </trkpt>
      <trkpt lat="44.41646" lon="1.01833">
        <ele>184</ele>
        <time>2020-01-13T18:22:35Z</time>
      </trkpt>
      <trkpt lat="44.41637" lon="1.0183">
        <ele>184</ele>
        <time>2020-01-13T18:22:36Z</time>
      </trkpt>
      <trkpt lat="44.41633" lon="1.01828">
        <ele>184</ele>
        <time>2020-01-13T18:22:37Z</time>
      </trkpt>
      <trkpt lat="44.41623" lon="1.01825">
        <ele>184</ele>
        <time>2020-01-13T18:22:38Z</time>
      </trkpt>
      <trkpt lat="44.41617" lon="1.01823">
        <ele>184</ele>
        <time>2020-01-13T18:22:39Z</time>
      </trkpt>
      <trkpt lat="44.41609" lon="1.01818">
        <ele>184</ele>
        <time>2020-01-13T18:22:40Z</time>
      </trkpt>
      <trkpt lat="44.41605" lon="1.01816">
        <ele>184</ele>
        <time>2020-01-13T18:22:41Z</time>
      </trkpt>
      <trkpt lat="44.416" lon="1.01815">
        <ele>184</ele>
        <time>2020-01-13T18:22:42Z</time>
      </trkpt>
      <trkpt lat="44.4159" lon="1.01813">
        <ele>184</ele>
        <time>2020-01-13T18:22:43Z</time>
      </trkpt>
      <trkpt lat="44.41569" lon="1.0181">
        <ele>182</ele>
        <time>2020-01-13T18:22:44Z</time>
      </trkpt>
      <trkpt lat="44.41563" lon="1.0181">
        <ele>182</ele>
        <time>2020-01-13T18:22:45Z</time>
      </trkpt>
      <trkpt lat="44.41552" lon="1.01806">
        <ele>180</ele>
        <time>2020-01-13T18:22:46Z</time>
      </trkpt>
      <trkpt lat="44.41531" lon="1.01795">
        <ele>178</ele>
        <time>2020-01-13T18:22:47Z</time>
      </trkpt>
      <trkpt lat="44.4152" lon="1.0179">
        <ele>177</ele>
        <time>2020-01-13T18:22:48Z</time>
      </trkpt>
      <trkpt lat="44.41512" lon="1.01785">
        <ele>176</ele>
        <time>2020-01-13T18:22:49Z</time>
      </trkpt>
      <trkpt lat="44.41503" lon="1.01781">
        <ele>175</ele>
        <time>2020-01-13T18:22:50Z</time>
      </trkpt>
      <trkpt lat="44.41498" lon="1.01778">
        <ele>175</ele>
        <time>2020-01-13T18:22:51Z</time>
      </trkpt>
      <trkpt lat="44.41494" lon="1.01774">
        <ele>175</ele>
        <time>2020-01-13T18:22:52Z</time>
      </trkpt>
      <trkpt lat="44.4149" lon="1.01768">
        <ele>175</ele>
        <time>2020-01-13T18:22:53Z</time>
      </trkpt>
      <trkpt lat="44.41486" lon="1.01762">
        <ele>175</ele>
        <time>2020-01-13T18:22:54Z</time>
      </trkpt>
      <trkpt lat="44.41472" lon="1.01734">
        <ele>174</ele>
        <time>2020-01-13T18:22:55Z</time>
      </trkpt>
      <trkpt lat="44.41469" lon="1.01728">
        <ele>174</ele>
        <time>2020-01-13T18:22:56Z</time>
      </trkpt>
      <trkpt lat="44.41463" lon="1.0172">
        <ele>174</ele>
        <time>2020-01-13T18:22:57Z</time>
      </trkpt>
      <trkpt lat="44.41456" lon="1.01715">
        <ele>174</ele>
        <time>2020-01-13T18:22:58Z</time>
      </trkpt>
      <trkpt lat="44.41453" lon="1.01715">
        <ele>173</ele>
        <time>2020-01-13T18:22:59Z</time>
      </trkpt>
      <trkpt lat="44.4145" lon="1.01717">
        <ele>173</ele>
        <time>2020-01-13T18:23:00Z</time>
      </trkpt>
      <trkpt lat="44.41448" lon="1.01723">
        <ele>172</ele>
        <time>2020-01-13T18:23:01Z</time>
      </trkpt>
      <trkpt lat="44.41446" lon="1.01727">
        <ele>172</ele>
        <time>2020-01-13T18:23:02Z</time>
      </trkpt>
      <trkpt lat="44.41444" lon="1.01733">
        <ele>172</ele>
        <time>2020-01-13T18:23:03Z</time>
      </trkpt>
      <trkpt lat="44.41445" lon="1.0174">
        <ele>172</ele>
        <time>2020-01-13T18:23:04Z</time>
      </trkpt>
      <trkpt lat="44.41446" lon="1.01753">
        <ele>172</ele>
        <time>2020-01-13T18:23:05Z</time>
      </trkpt>
      <trkpt lat="44.41442" lon="1.01763">
        <ele>171</ele>
        <time>2020-01-13T18:23:06Z</time>
      </trkpt>
      <trkpt lat="44.41439" lon="1.01764">
        <ele>171</ele>
        <time>2020-01-13T18:23:07Z</time>
      </trkpt>
      <trkpt lat="44.41433" lon="1.01763">
        <ele>171</ele>
        <time>2020-01-13T18:23:08Z</time>
      </trkpt>
      <trkpt lat="44.4142" lon="1.0176">
        <ele>170</ele>
        <time>2020-01-13T18:23:09Z</time>
      </trkpt>
      <trkpt lat="44.41414" lon="1.01757">
        <ele>169</ele>
        <time>2020-01-13T18:23:10Z</time>
      </trkpt>
      <trkpt lat="44.41409" lon="1.01754">
        <ele>170</ele>
        <time>2020-01-13T18:23:11Z</time>
      </trkpt>
      <trkpt lat="44.41404" lon="1.01751">
        <ele>170</ele>
        <time>2020-01-13T18:23:12Z</time>
      </trkpt>
      <trkpt lat="44.41399" lon="1.01748">
        <ele>170</ele>
        <time>2020-01-13T18:23:13Z</time>
      </trkpt>
      <trkpt lat="44.41392" lon="1.0174">
        <ele>170</ele>
        <time>2020-01-13T18:23:14Z</time>
      </trkpt>
      <trkpt lat="44.4139" lon="1.01737">
        <ele>170</ele>
        <time>2020-01-13T18:23:15Z</time>
      </trkpt>
      <trkpt lat="44.41387" lon="1.01734">
        <ele>170</ele>
        <time>2020-01-13T18:23:16Z</time>
      </trkpt>
      <trkpt lat="44.41383" lon="1.01733">
        <ele>170</ele>
        <time>2020-01-13T18:23:17Z</time>
      </trkpt>
      <trkpt lat="44.4138" lon="1.01732">
        <ele>170</ele>
        <time>2020-01-13T18:23:18Z</time>
      </trkpt>
      <trkpt lat="44.41377" lon="1.01732">
        <ele>170</ele>
        <time>2020-01-13T18:23:19Z</time>
      </trkpt>
      <trkpt lat="44.41372" lon="1.01732">
        <ele>170</ele>
        <time>2020-01-13T18:23:20Z</time>
      </trkpt>
      <trkpt lat="44.41365" lon="1.01732">
        <ele>171</ele>
        <time>2020-01-13T18:23:21Z</time>
      </trkpt>
      <trkpt lat="44.41354" lon="1.01731">
        <ele>171</ele>
        <time>2020-01-13T18:23:22Z</time>
      </trkpt>
      <trkpt lat="44.41344" lon="1.01728">
        <ele>171</ele>
        <time>2020-01-13T18:23:23Z</time>
      </trkpt>
      <trkpt lat="44.41334" lon="1.01723">
        <ele>171</ele>
        <time>2020-01-13T18:23:24Z</time>
      </trkpt>
      <trkpt lat="44.41329" lon="1.0172">
        <ele>171</ele>
        <time>2020-01-13T18:23:25Z</time>
      </trkpt>
      <trkpt lat="44.41323" lon="1.01718">
        <ele>170</ele>
        <time>2020-01-13T18:23:26Z</time>
      </trkpt>
      <trkpt lat="44.41318" lon="1.01714">
        <ele>170</ele>
        <time>2020-01-13T18:23:27Z</time>
      </trkpt>
      <trkpt lat="44.41307" lon="1.01706">
        <ele>169</ele>
        <time>2020-01-13T18:23:28Z</time>
      </trkpt>
      <trkpt lat="44.41302" lon="1.01702">
        <ele>169</ele>
        <time>2020-01-13T18:23:29Z</time>
      </trkpt>
      <trkpt lat="44.41298" lon="1.01697">
        <ele>169</ele>
        <time>2020-01-13T18:23:30Z</time>
      </trkpt>
      <trkpt lat="44.41292" lon="1.01684">
        <ele>167</ele>
        <time>2020-01-13T18:23:31Z</time>
      </trkpt>
      <trkpt lat="44.41289" lon="1.01676">
        <ele>166</ele>
        <time>2020-01-13T18:23:32Z</time>
      </trkpt>
      <trkpt lat="44.41287" lon="1.01667">
        <ele>165</ele>
        <time>2020-01-13T18:23:33Z</time>
      </trkpt>
      <trkpt lat="44.41284" lon="1.01659">
        <ele>165</ele>
        <time>2020-01-13T18:23:34Z</time>
      </trkpt>
      <trkpt lat="44.41282" lon="1.01653">
        <ele>165</ele>
        <time>2020-01-13T18:23:35Z</time>
      </trkpt>
      <trkpt lat="44.4128" lon="1.01646">
        <ele>164</ele>
        <time>2020-01-13T18:23:36Z</time>
      </trkpt>
      <trkpt lat="44.41277" lon="1.01637">
        <ele>164</ele>
        <time>2020-01-13T18:23:37Z</time>
      </trkpt>
      <trkpt lat="44.41273" lon="1.0163">
        <ele>164</ele>
        <time>2020-01-13T18:23:38Z</time>
      </trkpt>
      <trkpt lat="44.41269" lon="1.01626">
        <ele>163</ele>
        <time>2020-01-13T18:23:39Z</time>
      </trkpt>
      <trkpt lat="44.41264" lon="1.01623">
        <ele>163</ele>
        <time>2020-01-13T18:23:40Z</time>
      </trkpt>
      <trkpt lat="44.41254" lon="1.01619">
        <ele>162</ele>
        <time>2020-01-13T18:23:41Z</time>
      </trkpt>
      <trkpt lat="44.41249" lon="1.01617">
        <ele>162</ele>
        <time>2020-01-13T18:23:42Z</time>
      </trkpt>
      <trkpt lat="44.41245" lon="1.01614">
        <ele>162</ele>
        <time>2020-01-13T18:23:43Z</time>
      </trkpt>
      <trkpt lat="44.41241" lon="1.01609">
        <ele>162</ele>
        <time>2020-01-13T18:23:44Z</time>
      </trkpt>
      <trkpt lat="44.41239" lon="1.01603">
        <ele>162</ele>
        <time>2020-01-13T18:23:45Z</time>
      </trkpt>
      <trkpt lat="44.41236" lon="1.01597">
        <ele>161</ele>
        <time>2020-01-13T18:23:46Z</time>
      </trkpt>
      <trkpt lat="44.41232" lon="1.01583">
        <ele>161</ele>
        <time>2020-01-13T18:23:47Z</time>
      </trkpt>
      <trkpt lat="44.4123" lon="1.01576">
        <ele>161</ele>
        <time>2020-01-13T18:23:48Z</time>
      </trkpt>
      <trkpt lat="44.41225" lon="1.01554">
        <ele>161</ele>
        <time>2020-01-13T18:23:49Z</time>
      </trkpt>
      <trkpt lat="44.41223" lon="1.01547">
        <ele>161</ele>
        <time>2020-01-13T18:23:50Z</time>
      </trkpt>
      <trkpt lat="44.4122" lon="1.0154">
        <ele>161</ele>
        <time>2020-01-13T18:23:51Z</time>
      </trkpt>
      <trkpt lat="44.41217" lon="1.01532">
        <ele>160</ele>
        <time>2020-01-13T18:23:52Z</time>
      </trkpt>
      <trkpt lat="44.41216" lon="1.01525">
        <ele>160</ele>
        <time>2020-01-13T18:23:53Z</time>
      </trkpt>
      <trkpt lat="44.41215" lon="1.01517">
        <ele>160</ele>
        <time>2020-01-13T18:23:54Z</time>
      </trkpt>
      <trkpt lat="44.41214" lon="1.01509">
        <ele>160</ele>
        <time>2020-01-13T18:23:55Z</time>
      </trkpt>
      <trkpt lat="44.41214" lon="1.01502">
        <ele>160</ele>
        <time>2020-01-13T18:23:56Z</time>
      </trkpt>
      <trkpt lat="44.41214" lon="1.01494">
        <ele>160</ele>
        <time>2020-01-13T18:23:57Z</time>
      </trkpt>
      <trkpt lat="44.41214" lon="1.01487">
        <ele>160</ele>
        <time>2020-01-13T18:23:58Z</time>
      </trkpt>
      <trkpt lat="44.41214" lon="1.01472">
        <ele>161</ele>
        <time>2020-01-13T18:23:59Z</time>
      </trkpt>
      <trkpt lat="44.41218" lon="1.01424">
        <ele>162</ele>
        <time>2020-01-13T18:24:00Z</time>
      </trkpt>
      <trkpt lat="44.41219" lon="1.01415">
        <ele>163</ele>
        <time>2020-01-13T18:24:01Z</time>
      </trkpt>
      <trkpt lat="44.41221" lon="1.01406">
        <ele>163</ele>
        <time>2020-01-13T18:24:02Z</time>
      </trkpt>
      <trkpt lat="44.41223" lon="1.01389">
        <ele>163</ele>
        <time>2020-01-13T18:24:03Z</time>
      </trkpt>
      <trkpt lat="44.41224" lon="1.01382">
        <ele>163</ele>
        <time>2020-01-13T18:24:04Z</time>
      </trkpt>
      <trkpt lat="44.41225" lon="1.01374">
        <ele>164</ele>
        <time>2020-01-13T18:24:05Z</time>
      </trkpt>
      <trkpt lat="44.41227" lon="1.01365">
        <ele>164</ele>
        <time>2020-01-13T18:24:06Z</time>
      </trkpt>
      <trkpt lat="44.41228" lon="1.01358">
        <ele>164</ele>
        <time>2020-01-13T18:24:07Z</time>
      </trkpt>
      <trkpt lat="44.4123" lon="1.01351">
        <ele>165</ele>
        <time>2020-01-13T18:24:08Z</time>
      </trkpt>
      <trkpt lat="44.41232" lon="1.01344">
        <ele>165</ele>
        <time>2020-01-13T18:24:09Z</time>
      </trkpt>
      <trkpt lat="44.41234" lon="1.01337">
        <ele>165</ele>
        <time>2020-01-13T18:24:10Z</time>
      </trkpt>
      <trkpt lat="44.41234" lon="1.0133">
        <ele>166</ele>
        <time>2020-01-13T18:24:11Z</time>
      </trkpt>
      <trkpt lat="44.41232" lon="1.01316">
        <ele>166</ele>
        <time>2020-01-13T18:24:12Z</time>
      </trkpt>
      <trkpt lat="44.4123" lon="1.0131">
        <ele>166</ele>
        <time>2020-01-13T18:24:13Z</time>
      </trkpt>
      <trkpt lat="44.41227" lon="1.01305">
        <ele>166</ele>
        <time>2020-01-13T18:24:14Z</time>
      </trkpt>
      <trkpt lat="44.41222" lon="1.01293">
        <ele>166</ele>
        <time>2020-01-13T18:24:15Z</time>
      </trkpt>
      <trkpt lat="44.4122" lon="1.01288">
        <ele>166</ele>
        <time>2020-01-13T18:24:16Z</time>
      </trkpt>
      <trkpt lat="44.41215" lon="1.01277">
        <ele>167</ele>
        <time>2020-01-13T18:24:17Z</time>
      </trkpt>
      <trkpt lat="44.41209" lon="1.01267">
        <ele>167</ele>
        <time>2020-01-13T18:24:18Z</time>
      </trkpt>
      <trkpt lat="44.412" lon="1.01251">
        <ele>167</ele>
        <time>2020-01-13T18:24:19Z</time>
      </trkpt>
      <trkpt lat="44.41192" lon="1.01242">
        <ele>167</ele>
        <time>2020-01-13T18:24:20Z</time>
      </trkpt>
      <trkpt lat="44.41188" lon="1.01237">
        <ele>167</ele>
        <time>2020-01-13T18:24:21Z</time>
      </trkpt>
      <trkpt lat="44.41182" lon="1.01235">
        <ele>167</ele>
        <time>2020-01-13T18:24:22Z</time>
      </trkpt>
      <trkpt lat="44.41172" lon="1.01231">
        <ele>167</ele>
        <time>2020-01-13T18:24:23Z</time>
      </trkpt>
      <trkpt lat="44.41165" lon="1.01229">
        <ele>166</ele>
        <time>2020-01-13T18:24:24Z</time>
      </trkpt>
      <trkpt lat="44.41153" lon="1.0123">
        <ele>166</ele>
        <time>2020-01-13T18:24:25Z</time>
      </trkpt>
      <trkpt lat="44.41145" lon="1.01231">
        <ele>166</ele>
        <time>2020-01-13T18:24:26Z</time>
      </trkpt>
      <trkpt lat="44.41133" lon="1.01235">
        <ele>165</ele>
        <time>2020-01-13T18:24:27Z</time>
      </trkpt>
      <trkpt lat="44.41128" lon="1.01238">
        <ele>165</ele>
        <time>2020-01-13T18:24:28Z</time>
      </trkpt>
      <trkpt lat="44.41115" lon="1.01255">
        <ele>164</ele>
        <time>2020-01-13T18:24:29Z</time>
      </trkpt>
      <trkpt lat="44.41106" lon="1.01267">
        <ele>163</ele>
        <time>2020-01-13T18:24:30Z</time>
      </trkpt>
      <trkpt lat="44.41101" lon="1.01272">
        <ele>162</ele>
        <time>2020-01-13T18:24:31Z</time>
      </trkpt>
      <trkpt lat="44.41097" lon="1.01275">
        <ele>162</ele>
        <time>2020-01-13T18:24:32Z</time>
      </trkpt>
      <trkpt lat="44.41092" lon="1.01278">
        <ele>162</ele>
        <time>2020-01-13T18:24:33Z</time>
      </trkpt>
      <trkpt lat="44.41087" lon="1.01279">
        <ele>162</ele>
        <time>2020-01-13T18:24:34Z</time>
      </trkpt>
      <trkpt lat="44.41066" lon="1.0128">
        <ele>161</ele>
        <time>2020-01-13T18:24:35Z</time>
      </trkpt>
      <trkpt lat="44.41061" lon="1.0128">
        <ele>161</ele>
        <time>2020-01-13T18:24:36Z</time>
      </trkpt>
      <trkpt lat="44.41051" lon="1.01281">
        <ele>161</ele>
        <time>2020-01-13T18:24:37Z</time>
      </trkpt>
      <trkpt lat="44.41041" lon="1.0128">
        <ele>160</ele>
        <time>2020-01-13T18:24:38Z</time>
      </trkpt>
      <trkpt lat="44.41035" lon="1.01279">
        <ele>160</ele>
        <time>2020-01-13T18:24:39Z</time>
      </trkpt>
      <trkpt lat="44.41029" lon="1.01279">
        <ele>160</ele>
        <time>2020-01-13T18:24:40Z</time>
      </trkpt>
      <trkpt lat="44.4101" lon="1.01274">
        <ele>159</ele>
        <time>2020-01-13T18:24:41Z</time>
      </trkpt>
      <trkpt lat="44.41005" lon="1.01272">
        <ele>159</ele>
        <time>2020-01-13T18:24:42Z</time>
      </trkpt>
      <trkpt lat="44.40995" lon="1.0127">
        <ele>159</ele>
        <time>2020-01-13T18:24:43Z</time>
      </trkpt>
      <trkpt lat="44.4099" lon="1.01269">
        <ele>159</ele>
        <time>2020-01-13T18:24:44Z</time>
      </trkpt>
      <trkpt lat="44.40985" lon="1.01267">
        <ele>159</ele>
        <time>2020-01-13T18:24:45Z</time>
      </trkpt>
      <trkpt lat="44.40975" lon="1.01264">
        <ele>158</ele>
        <time>2020-01-13T18:24:46Z</time>
      </trkpt>
      <trkpt lat="44.40965" lon="1.01262">
        <ele>158</ele>
        <time>2020-01-13T18:24:47Z</time>
      </trkpt>
      <trkpt lat="44.4095" lon="1.01262">
        <ele>158</ele>
        <time>2020-01-13T18:24:48Z</time>
      </trkpt>
      <trkpt lat="44.40934" lon="1.01262">
        <ele>158</ele>
        <time>2020-01-13T18:24:49Z</time>
      </trkpt>
      <trkpt lat="44.40924" lon="1.01262">
        <ele>158</ele>
        <time>2020-01-13T18:24:50Z</time>
      </trkpt>
      <trkpt lat="44.40918" lon="1.01262">
        <ele>158</ele>
        <time>2020-01-13T18:24:51Z</time>
      </trkpt>
      <trkpt lat="44.40906" lon="1.01262">
        <ele>157</ele>
        <time>2020-01-13T18:24:52Z</time>
      </trkpt>
      <trkpt lat="44.409" lon="1.01261">
        <ele>157</ele>
        <time>2020-01-13T18:24:53Z</time>
      </trkpt>
      <trkpt lat="44.40885" lon="1.01259">
        <ele>157</ele>
        <time>2020-01-13T18:24:54Z</time>
      </trkpt>
      <trkpt lat="44.4086" lon="1.01257">
        <ele>156</ele>
        <time>2020-01-13T18:24:55Z</time>
      </trkpt>
      <trkpt lat="44.40836" lon="1.01256">
        <ele>156</ele>
        <time>2020-01-13T18:24:56Z</time>
      </trkpt>
      <trkpt lat="44.40827" lon="1.01255">
        <ele>155</ele>
        <time>2020-01-13T18:24:57Z</time>
      </trkpt>
      <trkpt lat="44.4081" lon="1.01252">
        <ele>155</ele>
        <time>2020-01-13T18:24:58Z</time>
      </trkpt>
      <trkpt lat="44.40804" lon="1.0125">
        <ele>154</ele>
        <time>2020-01-13T18:24:59Z</time>
      </trkpt>
      <trkpt lat="44.40764" lon="1.01239">
        <ele>152</ele>
        <time>2020-01-13T18:25:00Z</time>
      </trkpt>
      <trkpt lat="44.40759" lon="1.01238">
        <ele>152</ele>
        <time>2020-01-13T18:25:01Z</time>
      </trkpt>
      <trkpt lat="44.40755" lon="1.01238">
        <ele>152</ele>
        <time>2020-01-13T18:25:02Z</time>
      </trkpt>
      <trkpt lat="44.40751" lon="1.01241">
        <ele>152</ele>
        <time>2020-01-13T18:25:03Z</time>
      </trkpt>
      <trkpt lat="44.40749" lon="1.01245">
        <ele>151</ele>
        <time>2020-01-13T18:25:04Z</time>
      </trkpt>
      <trkpt lat="44.40748" lon="1.0125">
        <ele>151</ele>
        <time>2020-01-13T18:25:05Z</time>
      </trkpt>
      <trkpt lat="44.40748" lon="1.01257">
        <ele>151</ele>
        <time>2020-01-13T18:25:06Z</time>
      </trkpt>
      <trkpt lat="44.40749" lon="1.01264">
        <ele>151</ele>
        <time>2020-01-13T18:25:07Z</time>
      </trkpt>
      <trkpt lat="44.40752" lon="1.01279">
        <ele>150</ele>
        <time>2020-01-13T18:25:08Z</time>
      </trkpt>
      <trkpt lat="44.40754" lon="1.01287">
        <ele>150</ele>
        <time>2020-01-13T18:25:09Z</time>
      </trkpt>
      <trkpt lat="44.40757" lon="1.01302">
        <ele>150</ele>
        <time>2020-01-13T18:25:10Z</time>
      </trkpt>
      <trkpt lat="44.40758" lon="1.0131">
        <ele>150</ele>
        <time>2020-01-13T18:25:11Z</time>
      </trkpt>
      <trkpt lat="44.40759" lon="1.01318">
        <ele>150</ele>
        <time>2020-01-13T18:25:12Z</time>
      </trkpt>
      <trkpt lat="44.4076" lon="1.01326">
        <ele>149</ele>
        <time>2020-01-13T18:25:13Z</time>
      </trkpt>
      <trkpt lat="44.40762" lon="1.01334">
        <ele>149</ele>
        <time>2020-01-13T18:25:14Z</time>
      </trkpt>
      <trkpt lat="44.40764" lon="1.0135">
        <ele>150</ele>
        <time>2020-01-13T18:25:15Z</time>
      </trkpt>
      <trkpt lat="44.40772" lon="1.01401">
        <ele>151</ele>
        <time>2020-01-13T18:25:16Z</time>
      </trkpt>
      <trkpt lat="44.40775" lon="1.01414">
        <ele>152</ele>
        <time>2020-01-13T18:25:17Z</time>
      </trkpt>
      <trkpt lat="44.40775" lon="1.01419">
        <ele>152</ele>
        <time>2020-01-13T18:25:18Z</time>
      </trkpt>
      <trkpt lat="44.40775" lon="1.01435">
        <ele>153</ele>
        <time>2020-01-13T18:25:19Z</time>
      </trkpt>
      <trkpt lat="44.40775" lon="1.01439">
        <ele>153</ele>
        <time>2020-01-13T18:25:20Z</time>
      </trkpt>
      <trkpt lat="44.40776" lon="1.01443">
        <ele>154</ele>
        <time>2020-01-13T18:25:21Z</time>
      </trkpt>
      <trkpt lat="44.40778" lon="1.01452">
        <ele>155</ele>
        <time>2020-01-13T18:25:22Z</time>
      </trkpt>
      <trkpt lat="44.4078" lon="1.01456">
        <ele>155</ele>
        <time>2020-01-13T18:25:23Z</time>
      </trkpt>
      <trkpt lat="44.40781" lon="1.0146">
        <ele>155</ele>
        <time>2020-01-13T18:25:24Z</time>
      </trkpt>
      <trkpt lat="44.40786" lon="1.01482">
        <ele>158</ele>
        <time>2020-01-13T18:25:25Z</time>
      </trkpt>
      <trkpt lat="44.40788" lon="1.01486">
        <ele>158</ele>
        <time>2020-01-13T18:25:26Z</time>
      </trkpt>
      <trkpt lat="44.4079" lon="1.0149">
        <ele>159</ele>
        <time>2020-01-13T18:25:27Z</time>
      </trkpt>
      <trkpt lat="44.40794" lon="1.01499">
        <ele>160</ele>
        <time>2020-01-13T18:25:28Z</time>
      </trkpt>
      <trkpt lat="44.40796" lon="1.01504">
        <ele>160</ele>
        <time>2020-01-13T18:25:29Z</time>
      </trkpt>
      <trkpt lat="44.40797" lon="1.01508">
        <ele>161</ele>
        <time>2020-01-13T18:25:30Z</time>
      </trkpt>
      <trkpt lat="44.40799" lon="1.01512">
        <ele>161</ele>
        <time>2020-01-13T18:25:31Z</time>
      </trkpt>
      <trkpt lat="44.40801" lon="1.01516">
        <ele>161</ele>
        <time>2020-01-13T18:25:32Z</time>
      </trkpt>
      <trkpt lat="44.40802" lon="1.01521">
        <ele>162</ele>
        <time>2020-01-13T18:25:33Z</time>
      </trkpt>
      <trkpt lat="44.40811" lon="1.01535">
        <ele>164</ele>
        <time>2020-01-13T18:25:34Z</time>
      </trkpt>
      <trkpt lat="44.40813" lon="1.01539">
        <ele>164</ele>
        <time>2020-01-13T18:25:35Z</time>
      </trkpt>
      <trkpt lat="44.40816" lon="1.01547">
        <ele>165</ele>
        <time>2020-01-13T18:25:36Z</time>
      </trkpt>
      <trkpt lat="44.40818" lon="1.0155">
        <ele>165</ele>
        <time>2020-01-13T18:25:37Z</time>
      </trkpt>
      <trkpt lat="44.40822" lon="1.01558">
        <ele>166</ele>
        <time>2020-01-13T18:25:38Z</time>
      </trkpt>
      <trkpt lat="44.40827" lon="1.01565">
        <ele>167</ele>
        <time>2020-01-13T18:25:39Z</time>
      </trkpt>
      <trkpt lat="44.4083" lon="1.01569">
        <ele>168</ele>
        <time>2020-01-13T18:25:40Z</time>
      </trkpt>
      <trkpt lat="44.40834" lon="1.01576">
        <ele>169</ele>
        <time>2020-01-13T18:25:41Z</time>
      </trkpt>
      <trkpt lat="44.40844" lon="1.0159">
        <ele>170</ele>
        <time>2020-01-13T18:25:42Z</time>
      </trkpt>
      <trkpt lat="44.40846" lon="1.01593">
        <ele>170</ele>
        <time>2020-01-13T18:25:43Z</time>
      </trkpt>
      <trkpt lat="44.40848" lon="1.01597">
        <ele>170</ele>
        <time>2020-01-13T18:25:44Z</time>
      </trkpt>
      <trkpt lat="44.40854" lon="1.01606">
        <ele>171</ele>
        <time>2020-01-13T18:25:45Z</time>
      </trkpt>
      <trkpt lat="44.40857" lon="1.0161">
        <ele>171</ele>
        <time>2020-01-13T18:25:46Z</time>
      </trkpt>
      <trkpt lat="44.40863" lon="1.01619">
        <ele>172</ele>
        <time>2020-01-13T18:25:47Z</time>
      </trkpt>
      <trkpt lat="44.40865" lon="1.01622">
        <ele>172</ele>
        <time>2020-01-13T18:25:48Z</time>
      </trkpt>
      <trkpt lat="44.40868" lon="1.01626">
        <ele>172</ele>
        <time>2020-01-13T18:25:49Z</time>
      </trkpt>
      <trkpt lat="44.40873" lon="1.01632">
        <ele>173</ele>
        <time>2020-01-13T18:25:50Z</time>
      </trkpt>
      <trkpt lat="44.40877" lon="1.01638">
        <ele>173</ele>
        <time>2020-01-13T18:25:51Z</time>
      </trkpt>
      <trkpt lat="44.4088" lon="1.01641">
        <ele>173</ele>
        <time>2020-01-13T18:25:52Z</time>
      </trkpt>
      <trkpt lat="44.40882" lon="1.01644">
        <ele>174</ele>
        <time>2020-01-13T18:25:53Z</time>
      </trkpt>
      <trkpt lat="44.40885" lon="1.01646">
        <ele>174</ele>
        <time>2020-01-13T18:25:54Z</time>
      </trkpt>
      <trkpt lat="44.40889" lon="1.01652">
        <ele>174</ele>
        <time>2020-01-13T18:25:55Z</time>
      </trkpt>
      <trkpt lat="44.40892" lon="1.01654">
        <ele>175</ele>
        <time>2020-01-13T18:25:56Z</time>
      </trkpt>
      <trkpt lat="44.40899" lon="1.0166">
        <ele>175</ele>
        <time>2020-01-13T18:25:57Z</time>
      </trkpt>
      <trkpt lat="44.40903" lon="1.01663">
        <ele>176</ele>
        <time>2020-01-13T18:25:58Z</time>
      </trkpt>
      <trkpt lat="44.40907" lon="1.01666">
        <ele>176</ele>
        <time>2020-01-13T18:25:59Z</time>
      </trkpt>
      <trkpt lat="44.4091" lon="1.01668">
        <ele>177</ele>
        <time>2020-01-13T18:26:00Z</time>
      </trkpt>
      <trkpt lat="44.40914" lon="1.01671">
        <ele>177</ele>
        <time>2020-01-13T18:26:01Z</time>
      </trkpt>
      <trkpt lat="44.40919" lon="1.01674">
        <ele>177</ele>
        <time>2020-01-13T18:26:02Z</time>
      </trkpt>
      <trkpt lat="44.40924" lon="1.01676">
        <ele>177</ele>
        <time>2020-01-13T18:26:03Z</time>
      </trkpt>
      <trkpt lat="44.4093" lon="1.01678">
        <ele>177</ele>
        <time>2020-01-13T18:26:04Z</time>
      </trkpt>
      <trkpt lat="44.40934" lon="1.01681">
        <ele>177</ele>
        <time>2020-01-13T18:26:05Z</time>
      </trkpt>
      <trkpt lat="44.40937" lon="1.01682">
        <ele>177</ele>
        <time>2020-01-13T18:26:06Z</time>
      </trkpt>
      <trkpt lat="44.40938" lon="1.01682">
        <ele>177</ele>
        <time>2020-01-13T18:26:07Z</time>
      </trkpt>
      <trkpt lat="44.40942" lon="1.01682">
        <ele>177</ele>
        <time>2020-01-13T18:26:08Z</time>
      </trkpt>
      <trkpt lat="44.40946" lon="1.01683">
        <ele>177</ele>
        <time>2020-01-13T18:26:09Z</time>
      </trkpt>
      <trkpt lat="44.40947" lon="1.01684">
        <ele>177</ele>
        <time>2020-01-13T18:26:10Z</time>
      </trkpt>
      <trkpt lat="44.40949" lon="1.01684">
        <ele>177</ele>
        <time>2020-01-13T18:26:11Z</time>
      </trkpt>
      <trkpt lat="44.40952" lon="1.01686">
        <ele>177</ele>
        <time>2020-01-13T18:26:12Z</time>
      </trkpt>
      <trkpt lat="44.40954" lon="1.01689">
        <ele>177</ele>
        <time>2020-01-13T18:26:13Z</time>
      </trkpt>
      <trkpt lat="44.4096" lon="1.01696">
        <ele>177</ele>
        <time>2020-01-13T18:26:14Z</time>
      </trkpt>
      <trkpt lat="44.40963" lon="1.017">
        <ele>177</ele>
        <time>2020-01-13T18:26:15Z</time>
      </trkpt>
      <trkpt lat="44.40972" lon="1.0171">
        <ele>177</ele>
        <time>2020-01-13T18:26:16Z</time>
      </trkpt>
      <trkpt lat="44.40977" lon="1.01716">
        <ele>177</ele>
        <time>2020-01-13T18:26:17Z</time>
      </trkpt>
      <trkpt lat="44.40983" lon="1.0172">
        <ele>176</ele>
        <time>2020-01-13T18:26:18Z</time>
      </trkpt>
      <trkpt lat="44.40994" lon="1.01729">
        <ele>176</ele>
        <time>2020-01-13T18:26:19Z</time>
      </trkpt>
      <trkpt lat="44.41003" lon="1.01737">
        <ele>176</ele>
        <time>2020-01-13T18:26:20Z</time>
      </trkpt>
      <trkpt lat="44.41018" lon="1.01748">
        <ele>176</ele>
        <time>2020-01-13T18:26:21Z</time>
      </trkpt>
      <trkpt lat="44.41022" lon="1.0175">
        <ele>176</ele>
        <time>2020-01-13T18:26:22Z</time>
      </trkpt>
      <trkpt lat="44.41028" lon="1.01752">
        <ele>176</ele>
        <time>2020-01-13T18:26:23Z</time>
      </trkpt>
      <trkpt lat="44.41037" lon="1.01754">
        <ele>177</ele>
        <time>2020-01-13T18:26:24Z</time>
      </trkpt>
      <trkpt lat="44.41046" lon="1.01755">
        <ele>177</ele>
        <time>2020-01-13T18:26:25Z</time>
      </trkpt>
      <trkpt lat="44.41051" lon="1.01757">
        <ele>177</ele>
        <time>2020-01-13T18:26:26Z</time>
      </trkpt>
      <trkpt lat="44.41055" lon="1.01758">
        <ele>177</ele>
        <time>2020-01-13T18:26:27Z</time>
      </trkpt>
      <trkpt lat="44.41068" lon="1.01765">
        <ele>178</ele>
        <time>2020-01-13T18:26:28Z</time>
      </trkpt>
      <trkpt lat="44.41077" lon="1.01769">
        <ele>178</ele>
        <time>2020-01-13T18:26:29Z</time>
      </trkpt>
      <trkpt lat="44.41081" lon="1.0177">
        <ele>178</ele>
        <time>2020-01-13T18:26:30Z</time>
      </trkpt>
      <trkpt lat="44.41085" lon="1.01773">
        <ele>178</ele>
        <time>2020-01-13T18:26:31Z</time>
      </trkpt>
      <trkpt lat="44.41093" lon="1.01778">
        <ele>179</ele>
        <time>2020-01-13T18:26:32Z</time>
      </trkpt>
      <trkpt lat="44.41107" lon="1.01792">
        <ele>180</ele>
        <time>2020-01-13T18:26:33Z</time>
      </trkpt>
      <trkpt lat="44.4112" lon="1.01806">
        <ele>181</ele>
        <time>2020-01-13T18:26:34Z</time>
      </trkpt>
      <trkpt lat="44.41122" lon="1.0181">
        <ele>181</ele>
        <time>2020-01-13T18:26:35Z</time>
      </trkpt>
      <trkpt lat="44.4113" lon="1.01821">
        <ele>182</ele>
        <time>2020-01-13T18:26:36Z</time>
      </trkpt>
      <trkpt lat="44.41132" lon="1.01823">
        <ele>182</ele>
        <time>2020-01-13T18:26:37Z</time>
      </trkpt>
      <trkpt lat="44.41139" lon="1.01829">
        <ele>183</ele>
        <time>2020-01-13T18:26:38Z</time>
      </trkpt>
      <trkpt lat="44.41143" lon="1.01831">
        <ele>183</ele>
        <time>2020-01-13T18:26:39Z</time>
      </trkpt>
      <trkpt lat="44.41145" lon="1.01834">
        <ele>184</ele>
        <time>2020-01-13T18:26:40Z</time>
      </trkpt>
      <trkpt lat="44.41148" lon="1.01836">
        <ele>184</ele>
        <time>2020-01-13T18:26:41Z</time>
      </trkpt>
      <trkpt lat="44.41152" lon="1.01837">
        <ele>184</ele>
        <time>2020-01-13T18:26:42Z</time>
      </trkpt>
      <trkpt lat="44.41162" lon="1.0184">
        <ele>184</ele>
        <time>2020-01-13T18:26:43Z</time>
      </trkpt>
      <trkpt lat="44.41172" lon="1.01842">
        <ele>184</ele>
        <time>2020-01-13T18:26:44Z</time>
      </trkpt>
      <trkpt lat="44.4118" lon="1.01846">
        <ele>185</ele>
        <time>2020-01-13T18:26:45Z</time>
      </trkpt>
      <trkpt lat="44.41187" lon="1.0185">
        <ele>185</ele>
        <time>2020-01-13T18:26:46Z</time>
      </trkpt>
      <trkpt lat="44.41191" lon="1.01854">
        <ele>185</ele>
        <time>2020-01-13T18:26:47Z</time>
      </trkpt>
      <trkpt lat="44.41195" lon="1.01857">
        <ele>185</ele>
        <time>2020-01-13T18:26:48Z</time>
      </trkpt>
      <trkpt lat="44.41198" lon="1.0186">
        <ele>185</ele>
        <time>2020-01-13T18:26:49Z</time>
      </trkpt>
      <trkpt lat="44.41209" lon="1.0187">
        <ele>185</ele>
        <time>2020-01-13T18:26:50Z</time>
      </trkpt>
      <trkpt lat="44.41217" lon="1.01875">
        <ele>185</ele>
        <time>2020-01-13T18:26:51Z</time>
      </trkpt>
      <trkpt lat="44.41224" lon="1.01879">
        <ele>185</ele>
        <time>2020-01-13T18:26:52Z</time>
      </trkpt>
      <trkpt lat="44.41228" lon="1.01881">
        <ele>185</ele>
        <time>2020-01-13T18:26:53Z</time>
      </trkpt>
      <trkpt lat="44.41232" lon="1.01882">
        <ele>185</ele>
        <time>2020-01-13T18:26:54Z</time>
      </trkpt>
      <trkpt lat="44.4124" lon="1.01882">
        <ele>185</ele>
        <time>2020-01-13T18:26:55Z</time>
      </trkpt>
      <trkpt lat="44.41246" lon="1.01884">
        <ele>185</ele>
        <time>2020-01-13T18:26:56Z</time>
      </trkpt>
      <trkpt lat="44.41251" lon="1.01886">
        <ele>185</ele>
        <time>2020-01-13T18:26:57Z</time>
      </trkpt>
      <trkpt lat="44.41266" lon="1.01894">
        <ele>185</ele>
        <time>2020-01-13T18:26:58Z</time>
      </trkpt>
      <trkpt lat="44.4127" lon="1.01896">
        <ele>184</ele>
        <time>2020-01-13T18:26:59Z</time>
      </trkpt>
      <trkpt lat="44.41279" lon="1.01899">
        <ele>184</ele>
        <time>2020-01-13T18:27:00Z</time>
      </trkpt>
      <trkpt lat="44.41289" lon="1.019">
        <ele>184</ele>
        <time>2020-01-13T18:27:01Z</time>
      </trkpt>
      <trkpt lat="44.41305" lon="1.01902">
        <ele>183</ele>
        <time>2020-01-13T18:27:02Z</time>
      </trkpt>
      <trkpt lat="44.41323" lon="1.01902">
        <ele>182</ele>
        <time>2020-01-13T18:27:03Z</time>
      </trkpt>
      <trkpt lat="44.4133" lon="1.01902">
        <ele>182</ele>
        <time>2020-01-13T18:27:04Z</time>
      </trkpt>
      <trkpt lat="44.41336" lon="1.01904">
        <ele>182</ele>
        <time>2020-01-13T18:27:05Z</time>
      </trkpt>
      <trkpt lat="44.41345" lon="1.01909">
        <ele>181</ele>
        <time>2020-01-13T18:27:06Z</time>
      </trkpt>
      <trkpt lat="44.41362" lon="1.01921">
        <ele>179</ele>
        <time>2020-01-13T18:27:07Z</time>
      </trkpt>
      <trkpt lat="44.41364" lon="1.01924">
        <ele>179</ele>
        <time>2020-01-13T18:27:08Z</time>
      </trkpt>
      <trkpt lat="44.41365" lon="1.01926">
        <ele>179</ele>
        <time>2020-01-13T18:27:09Z</time>
      </trkpt>
      <trkpt lat="44.41367" lon="1.0193">
        <ele>178</ele>
        <time>2020-01-13T18:27:10Z</time>
      </trkpt>
      <trkpt lat="44.41367" lon="1.01935">
        <ele>178</ele>
        <time>2020-01-13T18:27:11Z</time>
      </trkpt>
      <trkpt lat="44.41367" lon="1.01939">
        <ele>178</ele>
        <time>2020-01-13T18:27:12Z</time>
      </trkpt>
      <trkpt lat="44.41366" lon="1.01945">
        <ele>178</ele>
        <time>2020-01-13T18:27:13Z</time>
      </trkpt>
      <trkpt lat="44.41366" lon="1.01952">
        <ele>177</ele>
        <time>2020-01-13T18:27:14Z</time>
      </trkpt>
      <trkpt lat="44.41365" lon="1.01958">
        <ele>177</ele>
        <time>2020-01-13T18:27:15Z</time>
      </trkpt>
      <trkpt lat="44.41362" lon="1.01973">
        <ele>176</ele>
        <time>2020-01-13T18:27:16Z</time>
      </trkpt>
      <trkpt lat="44.41359" lon="1.01982">
        <ele>176</ele>
        <time>2020-01-13T18:27:17Z</time>
      </trkpt>
      <trkpt lat="44.41355" lon="1.01993">
        <ele>176</ele>
        <time>2020-01-13T18:27:18Z</time>
      </trkpt>
      <trkpt lat="44.41352" lon="1.02002">
        <ele>175</ele>
        <time>2020-01-13T18:27:19Z</time>
      </trkpt>
      <trkpt lat="44.4135" lon="1.02011">
        <ele>175</ele>
        <time>2020-01-13T18:27:20Z</time>
      </trkpt>
      <trkpt lat="44.41342" lon="1.02027">
        <ele>175</ele>
        <time>2020-01-13T18:27:21Z</time>
      </trkpt>
      <trkpt lat="44.41338" lon="1.02035">
        <ele>174</ele>
        <time>2020-01-13T18:27:22Z</time>
      </trkpt>
      <trkpt lat="44.41333" lon="1.02042">
        <ele>174</ele>
        <time>2020-01-13T18:27:23Z</time>
      </trkpt>
      <trkpt lat="44.41324" lon="1.0206">
        <ele>174</ele>
        <time>2020-01-13T18:27:24Z</time>
      </trkpt>
      <trkpt lat="44.41319" lon="1.02068">
        <ele>174</ele>
        <time>2020-01-13T18:27:25Z</time>
      </trkpt>
      <trkpt lat="44.41315" lon="1.02075">
        <ele>174</ele>
        <time>2020-01-13T18:27:26Z</time>
      </trkpt>
      <trkpt lat="44.41311" lon="1.02083">
        <ele>174</ele>
        <time>2020-01-13T18:27:27Z</time>
      </trkpt>
      <trkpt lat="44.41308" lon="1.0209">
        <ele>174</ele>
        <time>2020-01-13T18:27:28Z</time>
      </trkpt>
      <trkpt lat="44.41308" lon="1.02096">
        <ele>174</ele>
        <time>2020-01-13T18:27:29Z</time>
      </trkpt>
      <trkpt lat="44.41309" lon="1.02106">
        <ele>174</ele>
        <time>2020-01-13T18:27:30Z</time>
      </trkpt>
      <trkpt lat="44.4131" lon="1.02115">
        <ele>174</ele>
        <time>2020-01-13T18:27:31Z</time>
      </trkpt>
      <trkpt lat="44.41311" lon="1.02125">
        <ele>174</ele>
        <time>2020-01-13T18:27:32Z</time>
      </trkpt>
      <trkpt lat="44.41312" lon="1.02134">
        <ele>174</ele>
        <time>2020-01-13T18:27:33Z</time>
      </trkpt>
      <trkpt lat="44.41312" lon="1.02142">
        <ele>174</ele>
        <time>2020-01-13T18:27:34Z</time>
      </trkpt>
      <trkpt lat="44.41313" lon="1.02151">
        <ele>174</ele>
        <time>2020-01-13T18:27:35Z</time>
      </trkpt>
      <trkpt lat="44.41313" lon="1.02158">
        <ele>174</ele>
        <time>2020-01-13T18:27:36Z</time>
      </trkpt>
      <trkpt lat="44.41313" lon="1.02166">
        <ele>175</ele>
        <time>2020-01-13T18:27:37Z</time>
      </trkpt>
      <trkpt lat="44.41313" lon="1.02173">
        <ele>175</ele>
        <time>2020-01-13T18:27:38Z</time>
      </trkpt>
      <trkpt lat="44.4131" lon="1.02186">
        <ele>176</ele>
        <time>2020-01-13T18:27:39Z</time>
      </trkpt>
      <trkpt lat="44.41307" lon="1.02191">
        <ele>176</ele>
        <time>2020-01-13T18:27:40Z</time>
      </trkpt>
      <trkpt lat="44.41302" lon="1.022">
        <ele>177</ele>
        <time>2020-01-13T18:27:41Z</time>
      </trkpt>
      <trkpt lat="44.41299" lon="1.02204">
        <ele>177</ele>
        <time>2020-01-13T18:27:42Z</time>
      </trkpt>
      <trkpt lat="44.41296" lon="1.02209">
        <ele>177</ele>
        <time>2020-01-13T18:27:43Z</time>
      </trkpt>
      <trkpt lat="44.41292" lon="1.02215">
        <ele>177</ele>
        <time>2020-01-13T18:27:44Z</time>
      </trkpt>
      <trkpt lat="44.41291" lon="1.02216">
        <ele>177</ele>
        <time>2020-01-13T18:27:45Z</time>
      </trkpt>
      <trkpt lat="44.4129" lon="1.02216">
        <ele>177</ele>
        <time>2020-01-13T18:27:46Z</time>
      </trkpt>
      <trkpt lat="44.4129" lon="1.02215">
        <ele>177</ele>
        <time>2020-01-13T18:27:47Z</time>
      </trkpt>
      <trkpt lat="44.41288" lon="1.02216">
        <ele>177</ele>
        <time>2020-01-13T18:27:48Z</time>
      </trkpt>
      <trkpt lat="44.41286" lon="1.02215">
        <ele>177</ele>
        <time>2020-01-13T18:27:49Z</time>
      </trkpt>
      <trkpt lat="44.41285" lon="1.02214">
        <ele>177</ele>
        <time>2020-01-13T18:27:50Z</time>
      </trkpt>
      <trkpt lat="44.4128" lon="1.02212">
        <ele>176</ele>
        <time>2020-01-13T18:27:51Z</time>
      </trkpt>
      <trkpt lat="44.41279" lon="1.02213">
        <ele>176</ele>
        <time>2020-01-13T18:27:52Z</time>
      </trkpt>
      <trkpt lat="44.41276" lon="1.0221">
        <ele>176</ele>
        <time>2020-01-13T18:27:53Z</time>
      </trkpt>
      <trkpt lat="44.41275" lon="1.02209">
        <ele>175</ele>
        <time>2020-01-13T18:27:54Z</time>
      </trkpt>
      <trkpt lat="44.41275" lon="1.02208">
        <ele>175</ele>
        <time>2020-01-13T18:27:55Z</time>
      </trkpt>
      <trkpt lat="44.41275" lon="1.02209">
        <ele>175</ele>
        <time>2020-01-13T18:27:56Z</time>
      </trkpt>
      <trkpt lat="44.41275" lon="1.02211">
        <ele>176</ele>
        <time>2020-01-13T18:27:57Z</time>
      </trkpt>
      <trkpt lat="44.41277" lon="1.02213">
        <ele>176</ele>
        <time>2020-01-13T18:27:58Z</time>
      </trkpt>
      <trkpt lat="44.41279" lon="1.02214">
        <ele>176</ele>
        <time>2020-01-13T18:27:59Z</time>
      </trkpt>
      <trkpt lat="44.41279" lon="1.02216">
        <ele>176</ele>
        <time>2020-01-13T18:28:00Z</time>
      </trkpt>
      <trkpt lat="44.4128" lon="1.02217">
        <ele>176</ele>
        <time>2020-01-13T18:28:01Z</time>
      </trkpt>
      <trkpt lat="44.41281" lon="1.02219">
        <ele>176</ele>
        <time>2020-01-13T18:28:02Z</time>
      </trkpt>
      <trkpt lat="44.4128" lon="1.02222">
        <ele>177</ele>
        <time>2020-01-13T18:28:03Z</time>
      </trkpt>
      <trkpt lat="44.41279" lon="1.02224">
        <ele>177</ele>
        <time>2020-01-13T18:28:04Z</time>
      </trkpt>
      <trkpt lat="44.41277" lon="1.02227">
        <ele>176</ele>
        <time>2020-01-13T18:28:05Z</time>
      </trkpt>
      <trkpt lat="44.41275" lon="1.02232">
        <ele>177</ele>
        <time>2020-01-13T18:28:06Z</time>
      </trkpt>
      <trkpt lat="44.41271" lon="1.0224">
        <ele>176</ele>
        <time>2020-01-13T18:28:07Z</time>
      </trkpt>
      <trkpt lat="44.41269" lon="1.02243">
        <ele>176</ele>
        <time>2020-01-13T18:28:08Z</time>
      </trkpt>
      <trkpt lat="44.41268" lon="1.02247">
        <ele>176</ele>
        <time>2020-01-13T18:28:09Z</time>
      </trkpt>
      <trkpt lat="44.41264" lon="1.02253">
        <ele>176</ele>
        <time>2020-01-13T18:28:10Z</time>
      </trkpt>
      <trkpt lat="44.41264" lon="1.02256">
        <ele>177</ele>
        <time>2020-01-13T18:28:11Z</time>
      </trkpt>
      <trkpt lat="44.41262" lon="1.02259">
        <ele>177</ele>
        <time>2020-01-13T18:28:12Z</time>
      </trkpt>
      <trkpt lat="44.41261" lon="1.02263">
        <ele>177</ele>
        <time>2020-01-13T18:28:13Z</time>
      </trkpt>
      <trkpt lat="44.41259" lon="1.02267">
        <ele>177</ele>
        <time>2020-01-13T18:28:14Z</time>
      </trkpt>
      <trkpt lat="44.41257" lon="1.02271">
        <ele>177</ele>
        <time>2020-01-13T18:28:15Z</time>
      </trkpt>
      <trkpt lat="44.41254" lon="1.02278">
        <ele>178</ele>
        <time>2020-01-13T18:28:16Z</time>
      </trkpt>
      <trkpt lat="44.41246" lon="1.02297">
        <ele>179</ele>
        <time>2020-01-13T18:28:17Z</time>
      </trkpt>
      <trkpt lat="44.41242" lon="1.02306">
        <ele>180</ele>
        <time>2020-01-13T18:28:18Z</time>
      </trkpt>
      <trkpt lat="44.41239" lon="1.02317">
        <ele>181</ele>
        <time>2020-01-13T18:28:19Z</time>
      </trkpt>
      <trkpt lat="44.41239" lon="1.02321">
        <ele>181</ele>
        <time>2020-01-13T18:28:20Z</time>
      </trkpt>
      <trkpt lat="44.41238" lon="1.02324">
        <ele>181</ele>
        <time>2020-01-13T18:28:21Z</time>
      </trkpt>
      <trkpt lat="44.41236" lon="1.02334">
        <ele>182</ele>
        <time>2020-01-13T18:28:22Z</time>
      </trkpt>
      <trkpt lat="44.41236" lon="1.02336">
        <ele>182</ele>
        <time>2020-01-13T18:28:23Z</time>
      </trkpt>
      <trkpt lat="44.41233" lon="1.0234">
        <ele>182</ele>
        <time>2020-01-13T18:28:24Z</time>
      </trkpt>
      <trkpt lat="44.41233" lon="1.02342">
        <ele>182</ele>
        <time>2020-01-13T18:28:25Z</time>
      </trkpt>
      <trkpt lat="44.41233" lon="1.02344">
        <ele>182</ele>
        <time>2020-01-13T18:28:26Z</time>
      </trkpt>
      <trkpt lat="44.41234" lon="1.0235">
        <ele>182</ele>
        <time>2020-01-13T18:28:27Z</time>
      </trkpt>
      <trkpt lat="44.41236" lon="1.02351">
        <ele>182</ele>
        <time>2020-01-13T18:28:28Z</time>
      </trkpt>
      <trkpt lat="44.41238" lon="1.0235">
        <ele>183</ele>
        <time>2020-01-13T18:28:29Z</time>
      </trkpt>
      <trkpt lat="44.4124" lon="1.02349">
        <ele>183</ele>
        <time>2020-01-13T18:28:30Z</time>
      </trkpt>
      <trkpt lat="44.41241" lon="1.02348">
        <ele>183</ele>
        <time>2020-01-13T18:28:31Z</time>
      </trkpt>
      <trkpt lat="44.41244" lon="1.02346">
        <ele>183</ele>
        <time>2020-01-13T18:28:32Z</time>
      </trkpt>
      <trkpt lat="44.41246" lon="1.02346">
        <ele>183</ele>
        <time>2020-01-13T18:28:33Z</time>
      </trkpt>
      <trkpt lat="44.41247" lon="1.02346">
        <ele>183</ele>
        <time>2020-01-13T18:28:34Z</time>
      </trkpt>
      <trkpt lat="44.41248" lon="1.02346">
        <ele>183</ele>
        <time>2020-01-13T18:28:35Z</time>
      </trkpt>
      <trkpt lat="44.41251" lon="1.02346">
        <ele>184</ele>
        <time>2020-01-13T18:28:36Z</time>
      </trkpt>
      <trkpt lat="44.41255" lon="1.02345">
        <ele>184</ele>
        <time>2020-01-13T18:28:37Z</time>
      </trkpt>
      <trkpt lat="44.41259" lon="1.02343">
        <ele>185</ele>
        <time>2020-01-13T18:28:38Z</time>
      </trkpt>
      <trkpt lat="44.4126" lon="1.02343">
        <ele>185</ele>
        <time>2020-01-13T18:28:39Z</time>
      </trkpt>
      <trkpt lat="44.41263" lon="1.02341">
        <ele>186</ele>
        <time>2020-01-13T18:28:40Z</time>
      </trkpt>
      <trkpt lat="44.41266" lon="1.0234">
        <ele>186</ele>
        <time>2020-01-13T18:28:41Z</time>
      </trkpt>
      <trkpt lat="44.4127" lon="1.02339">
        <ele>187</ele>
        <time>2020-01-13T18:28:42Z</time>
      </trkpt>
      <trkpt lat="44.41272" lon="1.02339">
        <ele>187</ele>
        <time>2020-01-13T18:28:43Z</time>
      </trkpt>
      <trkpt lat="44.41274" lon="1.02337">
        <ele>187</ele>
        <time>2020-01-13T18:28:44Z</time>
      </trkpt>
      <trkpt lat="44.41284" lon="1.02335">
        <ele>189</ele>
        <time>2020-01-13T18:28:45Z</time>
      </trkpt>
      <trkpt lat="44.41285" lon="1.02334">
        <ele>189</ele>
        <time>2020-01-13T18:28:46Z</time>
      </trkpt>
      <trkpt lat="44.41288" lon="1.02333">
        <ele>190</ele>
        <time>2020-01-13T18:28:47Z</time>
      </trkpt>
      <trkpt lat="44.41293" lon="1.02336">
        <ele>191</ele>
        <time>2020-01-13T18:28:48Z</time>
      </trkpt>
      <trkpt lat="44.41298" lon="1.02336">
        <ele>192</ele>
        <time>2020-01-13T18:28:49Z</time>
      </trkpt>
      <trkpt lat="44.41301" lon="1.02338">
        <ele>192</ele>
        <time>2020-01-13T18:28:50Z</time>
      </trkpt>
      <trkpt lat="44.41304" lon="1.02341">
        <ele>193</ele>
        <time>2020-01-13T18:28:51Z</time>
      </trkpt>
      <trkpt lat="44.41308" lon="1.02342">
        <ele>194</ele>
        <time>2020-01-13T18:28:52Z</time>
      </trkpt>
      <trkpt lat="44.41311" lon="1.02343">
        <ele>194</ele>
        <time>2020-01-13T18:28:53Z</time>
      </trkpt>
      <trkpt lat="44.41316" lon="1.02347">
        <ele>196</ele>
        <time>2020-01-13T18:28:54Z</time>
      </trkpt>
      <trkpt lat="44.41318" lon="1.02347">
        <ele>196</ele>
        <time>2020-01-13T18:28:55Z</time>
      </trkpt>
      <trkpt lat="44.4132" lon="1.02347">
        <ele>196</ele>
        <time>2020-01-13T18:28:56Z</time>
      </trkpt>
      <trkpt lat="44.41324" lon="1.02347">
        <ele>197</ele>
        <time>2020-01-13T18:28:57Z</time>
      </trkpt>
      <trkpt lat="44.41338" lon="1.02352">
        <ele>199</ele>
        <time>2020-01-13T18:28:58Z</time>
      </trkpt>
      <trkpt lat="44.41341" lon="1.02354">
        <ele>199</ele>
        <time>2020-01-13T18:28:59Z</time>
      </trkpt>
      <trkpt lat="44.41343" lon="1.02354">
        <ele>200</ele>
        <time>2020-01-13T18:29:00Z</time>
      </trkpt>
      <trkpt lat="44.41346" lon="1.02356">
        <ele>200</ele>
        <time>2020-01-13T18:29:01Z</time>
      </trkpt>
      <trkpt lat="44.41352" lon="1.0236">
        <ele>200</ele>
        <time>2020-01-13T18:29:02Z</time>
      </trkpt>
      <trkpt lat="44.41354" lon="1.0236">
        <ele>201</ele>
        <time>2020-01-13T18:29:03Z</time>
      </trkpt>
      <trkpt lat="44.41361" lon="1.02363">
        <ele>201</ele>
        <time>2020-01-13T18:29:04Z</time>
      </trkpt>
      <trkpt lat="44.41363" lon="1.02363">
        <ele>201</ele>
        <time>2020-01-13T18:29:05Z</time>
      </trkpt>
      <trkpt lat="44.41365" lon="1.02364">
        <ele>202</ele>
        <time>2020-01-13T18:29:06Z</time>
      </trkpt>
      <trkpt lat="44.41376" lon="1.02368">
        <ele>202</ele>
        <time>2020-01-13T18:29:07Z</time>
      </trkpt>
      <trkpt lat="44.41378" lon="1.02367">
        <ele>203</ele>
        <time>2020-01-13T18:29:08Z</time>
      </trkpt>
      <trkpt lat="44.41382" lon="1.02369">
        <ele>203</ele>
        <time>2020-01-13T18:29:09Z</time>
      </trkpt>
      <trkpt lat="44.41388" lon="1.02371">
        <ele>203</ele>
        <time>2020-01-13T18:29:10Z</time>
      </trkpt>
      <trkpt lat="44.41393" lon="1.02376">
        <ele>204</ele>
        <time>2020-01-13T18:29:11Z</time>
      </trkpt>
      <trkpt lat="44.41394" lon="1.02379">
        <ele>204</ele>
        <time>2020-01-13T18:29:12Z</time>
      </trkpt>
      <trkpt lat="44.41397" lon="1.02384">
        <ele>205</ele>
        <time>2020-01-13T18:29:13Z</time>
      </trkpt>
      <trkpt lat="44.41399" lon="1.02389">
        <ele>205</ele>
        <time>2020-01-13T18:29:14Z</time>
      </trkpt>
      <trkpt lat="44.41402" lon="1.02394">
        <ele>206</ele>
        <time>2020-01-13T18:29:15Z</time>
      </trkpt>
      <trkpt lat="44.41406" lon="1.02399">
        <ele>206</ele>
        <time>2020-01-13T18:29:16Z</time>
      </trkpt>
      <trkpt lat="44.41407" lon="1.02401">
        <ele>206</ele>
        <time>2020-01-13T18:29:17Z</time>
      </trkpt>
      <trkpt lat="44.41408" lon="1.02403">
        <ele>207</ele>
        <time>2020-01-13T18:29:18Z</time>
      </trkpt>
      <trkpt lat="44.41412" lon="1.02408">
        <ele>207</ele>
        <time>2020-01-13T18:29:19Z</time>
      </trkpt>
      <trkpt lat="44.41415" lon="1.02415">
        <ele>208</ele>
        <time>2020-01-13T18:29:20Z</time>
      </trkpt>
      <trkpt lat="44.41416" lon="1.02417">
        <ele>208</ele>
        <time>2020-01-13T18:29:21Z</time>
      </trkpt>
      <trkpt lat="44.41417" lon="1.0242">
        <ele>208</ele>
        <time>2020-01-13T18:29:22Z</time>
      </trkpt>
      <trkpt lat="44.41419" lon="1.02422">
        <ele>208</ele>
        <time>2020-01-13T18:29:23Z</time>
      </trkpt>
      <trkpt lat="44.41423" lon="1.0243">
        <ele>209</ele>
        <time>2020-01-13T18:29:24Z</time>
      </trkpt>
      <trkpt lat="44.41424" lon="1.02433">
        <ele>209</ele>
        <time>2020-01-13T18:29:25Z</time>
      </trkpt>
      <trkpt lat="44.41426" lon="1.02435">
        <ele>209</ele>
        <time>2020-01-13T18:29:26Z</time>
      </trkpt>
      <trkpt lat="44.41428" lon="1.0244">
        <ele>209</ele>
        <time>2020-01-13T18:29:27Z</time>
      </trkpt>
      <trkpt lat="44.4143" lon="1.02443">
        <ele>209</ele>
        <time>2020-01-13T18:29:28Z</time>
      </trkpt>
      <trkpt lat="44.41434" lon="1.02451">
        <ele>210</ele>
        <time>2020-01-13T18:29:29Z</time>
      </trkpt>
      <trkpt lat="44.41435" lon="1.02453">
        <ele>210</ele>
        <time>2020-01-13T18:29:30Z</time>
      </trkpt>
      <trkpt lat="44.41436" lon="1.02456">
        <ele>210</ele>
        <time>2020-01-13T18:29:31Z</time>
      </trkpt>
      <trkpt lat="44.41437" lon="1.02459">
        <ele>210</ele>
        <time>2020-01-13T18:29:32Z</time>
      </trkpt>
      <trkpt lat="44.4144" lon="1.02462">
        <ele>211</ele>
        <time>2020-01-13T18:29:33Z</time>
      </trkpt>
      <trkpt lat="44.41441" lon="1.02465">
        <ele>211</ele>
        <time>2020-01-13T18:29:34Z</time>
      </trkpt>
      <trkpt lat="44.41446" lon="1.02472">
        <ele>211</ele>
        <time>2020-01-13T18:29:35Z</time>
      </trkpt>
      <trkpt lat="44.41449" lon="1.02478">
        <ele>212</ele>
        <time>2020-01-13T18:29:36Z</time>
      </trkpt>
      <trkpt lat="44.41452" lon="1.02483">
        <ele>212</ele>
        <time>2020-01-13T18:29:37Z</time>
      </trkpt>
      <trkpt lat="44.41452" lon="1.02485">
        <ele>212</ele>
        <time>2020-01-13T18:29:38Z</time>
      </trkpt>
      <trkpt lat="44.41454" lon="1.02488">
        <ele>212</ele>
        <time>2020-01-13T18:29:39Z</time>
      </trkpt>
      <trkpt lat="44.41455" lon="1.0249">
        <ele>212</ele>
        <time>2020-01-13T18:29:40Z</time>
      </trkpt>
      <trkpt lat="44.41458" lon="1.02497">
        <ele>213</ele>
        <time>2020-01-13T18:29:41Z</time>
      </trkpt>
      <trkpt lat="44.4146" lon="1.02499">
        <ele>213</ele>
        <time>2020-01-13T18:29:42Z</time>
      </trkpt>
      <trkpt lat="44.41465" lon="1.02508">
        <ele>214</ele>
        <time>2020-01-13T18:29:43Z</time>
      </trkpt>
      <trkpt lat="44.41467" lon="1.0251">
        <ele>214</ele>
        <time>2020-01-13T18:29:44Z</time>
      </trkpt>
      <trkpt lat="44.41473" lon="1.02518">
        <ele>214</ele>
        <time>2020-01-13T18:29:45Z</time>
      </trkpt>
      <trkpt lat="44.41476" lon="1.02523">
        <ele>215</ele>
        <time>2020-01-13T18:29:46Z</time>
      </trkpt>
      <trkpt lat="44.41478" lon="1.02526">
        <ele>215</ele>
        <time>2020-01-13T18:29:47Z</time>
      </trkpt>
      <trkpt lat="44.41488" lon="1.02545">
        <ele>216</ele>
        <time>2020-01-13T18:29:48Z</time>
      </trkpt>
      <trkpt lat="44.4149" lon="1.02548">
        <ele>217</ele>
        <time>2020-01-13T18:29:49Z</time>
      </trkpt>
      <trkpt lat="44.41494" lon="1.02554">
        <ele>217</ele>
        <time>2020-01-13T18:29:50Z</time>
      </trkpt>
      <trkpt lat="44.41501" lon="1.02563">
        <ele>218</ele>
        <time>2020-01-13T18:29:51Z</time>
      </trkpt>
      <trkpt lat="44.41502" lon="1.02567">
        <ele>218</ele>
        <time>2020-01-13T18:29:52Z</time>
      </trkpt>
      <trkpt lat="44.41507" lon="1.02576">
        <ele>219</ele>
        <time>2020-01-13T18:29:53Z</time>
      </trkpt>
      <trkpt lat="44.41508" lon="1.02581">
        <ele>219</ele>
        <time>2020-01-13T18:29:54Z</time>
      </trkpt>
      <trkpt lat="44.41511" lon="1.02586">
        <ele>219</ele>
        <time>2020-01-13T18:29:55Z</time>
      </trkpt>
      <trkpt lat="44.41513" lon="1.02592">
        <ele>219</ele>
        <time>2020-01-13T18:29:56Z</time>
      </trkpt>
      <trkpt lat="44.41513" lon="1.02595">
        <ele>219</ele>
        <time>2020-01-13T18:29:57Z</time>
      </trkpt>
      <trkpt lat="44.41516" lon="1.02602">
        <ele>220</ele>
        <time>2020-01-13T18:29:58Z</time>
      </trkpt>
      <trkpt lat="44.41516" lon="1.02604">
        <ele>220</ele>
        <time>2020-01-13T18:29:59Z</time>
      </trkpt>
      <trkpt lat="44.41518" lon="1.0261">
        <ele>220</ele>
        <time>2020-01-13T18:30:00Z</time>
      </trkpt>
      <trkpt lat="44.41522" lon="1.02619">
        <ele>220</ele>
        <time>2020-01-13T18:30:01Z</time>
      </trkpt>
      <trkpt lat="44.41525" lon="1.02624">
        <ele>220</ele>
        <time>2020-01-13T18:30:02Z</time>
      </trkpt>
      <trkpt lat="44.41527" lon="1.02627">
        <ele>221</ele>
        <time>2020-01-13T18:30:03Z</time>
      </trkpt>
      <trkpt lat="44.41531" lon="1.02631">
        <ele>221</ele>
        <time>2020-01-13T18:30:04Z</time>
      </trkpt>
      <trkpt lat="44.4154" lon="1.0264">
        <ele>221</ele>
        <time>2020-01-13T18:30:05Z</time>
      </trkpt>
      <trkpt lat="44.41544" lon="1.02644">
        <ele>222</ele>
        <time>2020-01-13T18:30:06Z</time>
      </trkpt>
      <trkpt lat="44.41546" lon="1.02646">
        <ele>222</ele>
        <time>2020-01-13T18:30:07Z</time>
      </trkpt>
      <trkpt lat="44.41553" lon="1.02652">
        <ele>222</ele>
        <time>2020-01-13T18:30:08Z</time>
      </trkpt>
      <trkpt lat="44.4156" lon="1.02657">
        <ele>223</ele>
        <time>2020-01-13T18:30:09Z</time>
      </trkpt>
      <trkpt lat="44.41562" lon="1.02658">
        <ele>223</ele>
        <time>2020-01-13T18:30:10Z</time>
      </trkpt>
      <trkpt lat="44.41566" lon="1.02661">
        <ele>223</ele>
        <time>2020-01-13T18:30:11Z</time>
      </trkpt>
      <trkpt lat="44.41573" lon="1.02666">
        <ele>224</ele>
        <time>2020-01-13T18:30:12Z</time>
      </trkpt>
      <trkpt lat="44.41581" lon="1.02672">
        <ele>224</ele>
        <time>2020-01-13T18:30:13Z</time>
      </trkpt>
      <trkpt lat="44.41585" lon="1.02676">
        <ele>224</ele>
        <time>2020-01-13T18:30:14Z</time>
      </trkpt>
      <trkpt lat="44.4159" lon="1.02682">
        <ele>224</ele>
        <time>2020-01-13T18:30:15Z</time>
      </trkpt>
      <trkpt lat="44.41591" lon="1.02685">
        <ele>224</ele>
        <time>2020-01-13T18:30:16Z</time>
      </trkpt>
      <trkpt lat="44.41596" lon="1.02694">
        <ele>225</ele>
        <time>2020-01-13T18:30:17Z</time>
      </trkpt>
      <trkpt lat="44.41597" lon="1.02698">
        <ele>225</ele>
        <time>2020-01-13T18:30:18Z</time>
      </trkpt>
      <trkpt lat="44.416" lon="1.02705">
        <ele>225</ele>
        <time>2020-01-13T18:30:19Z</time>
      </trkpt>
      <trkpt lat="44.41607" lon="1.02715">
        <ele>225</ele>
        <time>2020-01-13T18:30:20Z</time>
      </trkpt>
      <trkpt lat="44.41608" lon="1.02718">
        <ele>226</ele>
        <time>2020-01-13T18:30:21Z</time>
      </trkpt>
      <trkpt lat="44.41612" lon="1.02725">
        <ele>226</ele>
        <time>2020-01-13T18:30:22Z</time>
      </trkpt>
      <trkpt lat="44.41619" lon="1.02739">
        <ele>226</ele>
        <time>2020-01-13T18:30:23Z</time>
      </trkpt>
      <trkpt lat="44.41622" lon="1.02742">
        <ele>227</ele>
        <time>2020-01-13T18:30:24Z</time>
      </trkpt>
      <trkpt lat="44.41628" lon="1.02755">
        <ele>227</ele>
        <time>2020-01-13T18:30:25Z</time>
      </trkpt>
      <trkpt lat="44.4163" lon="1.02758">
        <ele>227</ele>
        <time>2020-01-13T18:30:26Z</time>
      </trkpt>
      <trkpt lat="44.41635" lon="1.02763">
        <ele>228</ele>
        <time>2020-01-13T18:30:27Z</time>
      </trkpt>
      <trkpt lat="44.41637" lon="1.02765">
        <ele>228</ele>
        <time>2020-01-13T18:30:28Z</time>
      </trkpt>
      <trkpt lat="44.4164" lon="1.02769">
        <ele>228</ele>
        <time>2020-01-13T18:30:29Z</time>
      </trkpt>
      <trkpt lat="44.41641" lon="1.02771">
        <ele>228</ele>
        <time>2020-01-13T18:30:30Z</time>
      </trkpt>
      <trkpt lat="44.41643" lon="1.02773">
        <ele>228</ele>
        <time>2020-01-13T18:30:31Z</time>
      </trkpt>
      <trkpt lat="44.41647" lon="1.02779">
        <ele>228</ele>
        <time>2020-01-13T18:30:32Z</time>
      </trkpt>
      <trkpt lat="44.41648" lon="1.02781">
        <ele>229</ele>
        <time>2020-01-13T18:30:33Z</time>
      </trkpt>
      <trkpt lat="44.4165" lon="1.02785">
        <ele>229</ele>
        <time>2020-01-13T18:30:34Z</time>
      </trkpt>
      <trkpt lat="44.41657" lon="1.02794">
        <ele>229</ele>
        <time>2020-01-13T18:30:35Z</time>
      </trkpt>
      <trkpt lat="44.41658" lon="1.02798">
        <ele>230</ele>
        <time>2020-01-13T18:30:36Z</time>
      </trkpt>
      <trkpt lat="44.41663" lon="1.02804">
        <ele>230</ele>
        <time>2020-01-13T18:30:37Z</time>
      </trkpt>
      <trkpt lat="44.41665" lon="1.02808">
        <ele>230</ele>
        <time>2020-01-13T18:30:38Z</time>
      </trkpt>
      <trkpt lat="44.4167" lon="1.02813">
        <ele>231</ele>
        <time>2020-01-13T18:30:39Z</time>
      </trkpt>
      <trkpt lat="44.41674" lon="1.02818">
        <ele>231</ele>
        <time>2020-01-13T18:30:40Z</time>
      </trkpt>
      <trkpt lat="44.41678" lon="1.02823">
        <ele>231</ele>
        <time>2020-01-13T18:30:41Z</time>
      </trkpt>
      <trkpt lat="44.41682" lon="1.0283">
        <ele>231</ele>
        <time>2020-01-13T18:30:42Z</time>
      </trkpt>
      <trkpt lat="44.41684" lon="1.02833">
        <ele>231</ele>
        <time>2020-01-13T18:30:43Z</time>
      </trkpt>
      <trkpt lat="44.41688" lon="1.0284">
        <ele>231</ele>
        <time>2020-01-13T18:30:44Z</time>
      </trkpt>
      <trkpt lat="44.41691" lon="1.02843">
        <ele>231</ele>
        <time>2020-01-13T18:30:45Z</time>
      </trkpt>
      <trkpt lat="44.41698" lon="1.02852">
        <ele>231</ele>
        <time>2020-01-13T18:30:46Z</time>
      </trkpt>
      <trkpt lat="44.41703" lon="1.0286">
        <ele>231</ele>
        <time>2020-01-13T18:30:47Z</time>
      </trkpt>
      <trkpt lat="44.41708" lon="1.02868">
        <ele>231</ele>
        <time>2020-01-13T18:30:48Z</time>
      </trkpt>
      <trkpt lat="44.41717" lon="1.02879">
        <ele>230</ele>
        <time>2020-01-13T18:30:49Z</time>
      </trkpt>
      <trkpt lat="44.4172" lon="1.02883">
        <ele>230</ele>
        <time>2020-01-13T18:30:50Z</time>
      </trkpt>
      <trkpt lat="44.41731" lon="1.02897">
        <ele>230</ele>
        <time>2020-01-13T18:30:51Z</time>
      </trkpt>
      <trkpt lat="44.41734" lon="1.02902">
        <ele>230</ele>
        <time>2020-01-13T18:30:52Z</time>
      </trkpt>
      <trkpt lat="44.41742" lon="1.02912">
        <ele>229</ele>
        <time>2020-01-13T18:30:53Z</time>
      </trkpt>
      <trkpt lat="44.41745" lon="1.02917">
        <ele>229</ele>
        <time>2020-01-13T18:30:54Z</time>
      </trkpt>
      <trkpt lat="44.41748" lon="1.02922">
        <ele>229</ele>
        <time>2020-01-13T18:30:55Z</time>
      </trkpt>
      <trkpt lat="44.41751" lon="1.02928">
        <ele>229</ele>
        <time>2020-01-13T18:30:56Z</time>
      </trkpt>
      <trkpt lat="44.41757" lon="1.02939">
        <ele>228</ele>
        <time>2020-01-13T18:30:57Z</time>
      </trkpt>
      <trkpt lat="44.41764" lon="1.0295">
        <ele>228</ele>
        <time>2020-01-13T18:30:58Z</time>
      </trkpt>
      <trkpt lat="44.41767" lon="1.02955">
        <ele>228</ele>
        <time>2020-01-13T18:30:59Z</time>
      </trkpt>
      <trkpt lat="44.41769" lon="1.0296">
        <ele>228</ele>
        <time>2020-01-13T18:31:00Z</time>
      </trkpt>
      <trkpt lat="44.41772" lon="1.02965">
        <ele>228</ele>
        <time>2020-01-13T18:31:01Z</time>
      </trkpt>
      <trkpt lat="44.41777" lon="1.02976">
        <ele>228</ele>
        <time>2020-01-13T18:31:02Z</time>
      </trkpt>
      <trkpt lat="44.4178" lon="1.0298">
        <ele>228</ele>
        <time>2020-01-13T18:31:03Z</time>
      </trkpt>
      <trkpt lat="44.41783" lon="1.02984">
        <ele>228</ele>
        <time>2020-01-13T18:31:04Z</time>
      </trkpt>
      <trkpt lat="44.41786" lon="1.02989">
        <ele>228</ele>
        <time>2020-01-13T18:31:05Z</time>
      </trkpt>
      <trkpt lat="44.41788" lon="1.02993">
        <ele>228</ele>
        <time>2020-01-13T18:31:06Z</time>
      </trkpt>
      <trkpt lat="44.41793" lon="1.03002">
        <ele>228</ele>
        <time>2020-01-13T18:31:07Z</time>
      </trkpt>
      <trkpt lat="44.41795" lon="1.03006">
        <ele>228</ele>
        <time>2020-01-13T18:31:08Z</time>
      </trkpt>
      <trkpt lat="44.41798" lon="1.0301">
        <ele>228</ele>
        <time>2020-01-13T18:31:09Z</time>
      </trkpt>
      <trkpt lat="44.418" lon="1.03014">
        <ele>228</ele>
        <time>2020-01-13T18:31:10Z</time>
      </trkpt>
      <trkpt lat="44.41802" lon="1.03018">
        <ele>228</ele>
        <time>2020-01-13T18:31:11Z</time>
      </trkpt>
      <trkpt lat="44.41805" lon="1.03022">
        <ele>228</ele>
        <time>2020-01-13T18:31:12Z</time>
      </trkpt>
      <trkpt lat="44.41811" lon="1.03035">
        <ele>228</ele>
        <time>2020-01-13T18:31:13Z</time>
      </trkpt>
      <trkpt lat="44.41812" lon="1.03039">
        <ele>228</ele>
        <time>2020-01-13T18:31:14Z</time>
      </trkpt>
      <trkpt lat="44.41814" lon="1.03043">
        <ele>229</ele>
        <time>2020-01-13T18:31:15Z</time>
      </trkpt>
      <trkpt lat="44.41816" lon="1.03048">
        <ele>229</ele>
        <time>2020-01-13T18:31:16Z</time>
      </trkpt>
      <trkpt lat="44.41819" lon="1.03053">
        <ele>229</ele>
        <time>2020-01-13T18:31:17Z</time>
      </trkpt>
      <trkpt lat="44.41821" lon="1.03057">
        <ele>229</ele>
        <time>2020-01-13T18:31:18Z</time>
      </trkpt>
      <trkpt lat="44.41828" lon="1.03072">
        <ele>230</ele>
        <time>2020-01-13T18:31:19Z</time>
      </trkpt>
      <trkpt lat="44.4183" lon="1.03078">
        <ele>230</ele>
        <time>2020-01-13T18:31:20Z</time>
      </trkpt>
      <trkpt lat="44.41835" lon="1.03088">
        <ele>230</ele>
        <time>2020-01-13T18:31:21Z</time>
      </trkpt>
      <trkpt lat="44.4184" lon="1.031">
        <ele>230</ele>
        <time>2020-01-13T18:31:22Z</time>
      </trkpt>
      <trkpt lat="44.41843" lon="1.03106">
        <ele>230</ele>
        <time>2020-01-13T18:31:23Z</time>
      </trkpt>
      <trkpt lat="44.41852" lon="1.03127">
        <ele>230</ele>
        <time>2020-01-13T18:31:24Z</time>
      </trkpt>
      <trkpt lat="44.41856" lon="1.0314">
        <ele>230</ele>
        <time>2020-01-13T18:31:25Z</time>
      </trkpt>
      <trkpt lat="44.41858" lon="1.03148">
        <ele>229</ele>
        <time>2020-01-13T18:31:26Z</time>
      </trkpt>
      <trkpt lat="44.4186" lon="1.03155">
        <ele>229</ele>
        <time>2020-01-13T18:31:27Z</time>
      </trkpt>
      <trkpt lat="44.41861" lon="1.03161">
        <ele>229</ele>
        <time>2020-01-13T18:31:28Z</time>
      </trkpt>
      <trkpt lat="44.41862" lon="1.03164">
        <ele>229</ele>
        <time>2020-01-13T18:31:29Z</time>
      </trkpt>
      <trkpt lat="44.41862" lon="1.03168">
        <ele>229</ele>
        <time>2020-01-13T18:31:30Z</time>
      </trkpt>
      <trkpt lat="44.41862" lon="1.03171">
        <ele>229</ele>
        <time>2020-01-13T18:31:31Z</time>
      </trkpt>
      <trkpt lat="44.41861" lon="1.03174">
        <ele>229</ele>
        <time>2020-01-13T18:31:32Z</time>
      </trkpt>
      <trkpt lat="44.41856" lon="1.03177">
        <ele>229</ele>
        <time>2020-01-13T18:31:33Z</time>
      </trkpt>
      <trkpt lat="44.41851" lon="1.0318">
        <ele>228</ele>
        <time>2020-01-13T18:31:34Z</time>
      </trkpt>
      <trkpt lat="44.41845" lon="1.03182">
        <ele>228</ele>
        <time>2020-01-13T18:31:35Z</time>
      </trkpt>
      <trkpt lat="44.41829" lon="1.03184">
        <ele>226</ele>
        <time>2020-01-13T18:31:36Z</time>
      </trkpt>
      <trkpt lat="44.41821" lon="1.03186">
        <ele>226</ele>
        <time>2020-01-13T18:31:37Z</time>
      </trkpt>
      <trkpt lat="44.41807" lon="1.0319">
        <ele>225</ele>
        <time>2020-01-13T18:31:38Z</time>
      </trkpt>
      <trkpt lat="44.418" lon="1.03191">
        <ele>224</ele>
        <time>2020-01-13T18:31:39Z</time>
      </trkpt>
      <trkpt lat="44.41779" lon="1.0319">
        <ele>222</ele>
        <time>2020-01-13T18:31:40Z</time>
      </trkpt>
      <trkpt lat="44.41772" lon="1.03189">
        <ele>222</ele>
        <time>2020-01-13T18:31:41Z</time>
      </trkpt>
      <trkpt lat="44.41766" lon="1.03187">
        <ele>221</ele>
        <time>2020-01-13T18:31:42Z</time>
      </trkpt>
      <trkpt lat="44.41749" lon="1.03179">
        <ele>220</ele>
        <time>2020-01-13T18:31:43Z</time>
      </trkpt>
      <trkpt lat="44.41736" lon="1.03175">
        <ele>219</ele>
        <time>2020-01-13T18:31:44Z</time>
      </trkpt>
      <trkpt lat="44.41729" lon="1.03173">
        <ele>218</ele>
        <time>2020-01-13T18:31:45Z</time>
      </trkpt>
      <trkpt lat="44.41721" lon="1.03172">
        <ele>217</ele>
        <time>2020-01-13T18:31:46Z</time>
      </trkpt>
      <trkpt lat="44.41713" lon="1.03172">
        <ele>217</ele>
        <time>2020-01-13T18:31:47Z</time>
      </trkpt>
      <trkpt lat="44.41697" lon="1.03173">
        <ele>215</ele>
        <time>2020-01-13T18:31:48Z</time>
      </trkpt>
      <trkpt lat="44.41685" lon="1.03175">
        <ele>214</ele>
        <time>2020-01-13T18:31:49Z</time>
      </trkpt>
      <trkpt lat="44.41673" lon="1.03177">
        <ele>213</ele>
        <time>2020-01-13T18:31:50Z</time>
      </trkpt>
      <trkpt lat="44.41671" lon="1.03179">
        <ele>213</ele>
        <time>2020-01-13T18:31:51Z</time>
      </trkpt>
      <trkpt lat="44.4167" lon="1.03181">
        <ele>213</ele>
        <time>2020-01-13T18:31:52Z</time>
      </trkpt>
      <trkpt lat="44.41669" lon="1.03184">
        <ele>212</ele>
        <time>2020-01-13T18:31:53Z</time>
      </trkpt>
      <trkpt lat="44.41669" lon="1.03186">
        <ele>212</ele>
        <time>2020-01-13T18:31:54Z</time>
      </trkpt>
      <trkpt lat="44.41667" lon="1.03188">
        <ele>212</ele>
        <time>2020-01-13T18:31:55Z</time>
      </trkpt>
      <trkpt lat="44.41666" lon="1.03194">
        <ele>212</ele>
        <time>2020-01-13T18:31:56Z</time>
      </trkpt>
      <trkpt lat="44.41665" lon="1.032">
        <ele>211</ele>
        <time>2020-01-13T18:31:57Z</time>
      </trkpt>
      <trkpt lat="44.41664" lon="1.03208">
        <ele>211</ele>
        <time>2020-01-13T18:31:58Z</time>
      </trkpt>
      <trkpt lat="44.41661" lon="1.03234">
        <ele>210</ele>
        <time>2020-01-13T18:31:59Z</time>
      </trkpt>
      <trkpt lat="44.41661" lon="1.03244">
        <ele>209</ele>
        <time>2020-01-13T18:32:00Z</time>
      </trkpt>
      <trkpt lat="44.41661" lon="1.03253">
        <ele>209</ele>
        <time>2020-01-13T18:32:01Z</time>
      </trkpt>
      <trkpt lat="44.41657" lon="1.03264">
        <ele>209</ele>
        <time>2020-01-13T18:32:02Z</time>
      </trkpt>
      <trkpt lat="44.41655" lon="1.03273">
        <ele>209</ele>
        <time>2020-01-13T18:32:03Z</time>
      </trkpt>
      <trkpt lat="44.41648" lon="1.03289">
        <ele>209</ele>
        <time>2020-01-13T18:32:04Z</time>
      </trkpt>
      <trkpt lat="44.41629" lon="1.0333">
        <ele>208</ele>
        <time>2020-01-13T18:32:05Z</time>
      </trkpt>
      <trkpt lat="44.41623" lon="1.0334">
        <ele>208</ele>
        <time>2020-01-13T18:32:06Z</time>
      </trkpt>
      <trkpt lat="44.41614" lon="1.03358">
        <ele>207</ele>
        <time>2020-01-13T18:32:07Z</time>
      </trkpt>
      <trkpt lat="44.41606" lon="1.03372">
        <ele>205</ele>
        <time>2020-01-13T18:32:08Z</time>
      </trkpt>
      <trkpt lat="44.41602" lon="1.03378">
        <ele>204</ele>
        <time>2020-01-13T18:32:09Z</time>
      </trkpt>
      <trkpt lat="44.41593" lon="1.03389">
        <ele>203</ele>
        <time>2020-01-13T18:32:10Z</time>
      </trkpt>
      <trkpt lat="44.41589" lon="1.03393">
        <ele>202</ele>
        <time>2020-01-13T18:32:11Z</time>
      </trkpt>
      <trkpt lat="44.41582" lon="1.03404">
        <ele>200</ele>
        <time>2020-01-13T18:32:12Z</time>
      </trkpt>
      <trkpt lat="44.41574" lon="1.03415">
        <ele>198</ele>
        <time>2020-01-13T18:32:13Z</time>
      </trkpt>
      <trkpt lat="44.41571" lon="1.03422">
        <ele>197</ele>
        <time>2020-01-13T18:32:14Z</time>
      </trkpt>
      <trkpt lat="44.41568" lon="1.0343">
        <ele>197</ele>
        <time>2020-01-13T18:32:15Z</time>
      </trkpt>
      <trkpt lat="44.41564" lon="1.03444">
        <ele>196</ele>
        <time>2020-01-13T18:32:16Z</time>
      </trkpt>
      <trkpt lat="44.4156" lon="1.03451">
        <ele>195</ele>
        <time>2020-01-13T18:32:17Z</time>
      </trkpt>
      <trkpt lat="44.41556" lon="1.03456">
        <ele>194</ele>
        <time>2020-01-13T18:32:18Z</time>
      </trkpt>
      <trkpt lat="44.41551" lon="1.03459">
        <ele>193</ele>
        <time>2020-01-13T18:32:19Z</time>
      </trkpt>
      <trkpt lat="44.41546" lon="1.03462">
        <ele>193</ele>
        <time>2020-01-13T18:32:20Z</time>
      </trkpt>
      <trkpt lat="44.41539" lon="1.03462">
        <ele>192</ele>
        <time>2020-01-13T18:32:21Z</time>
      </trkpt>
      <trkpt lat="44.41526" lon="1.03461">
        <ele>191</ele>
        <time>2020-01-13T18:32:22Z</time>
      </trkpt>
      <trkpt lat="44.41518" lon="1.03459">
        <ele>190</ele>
        <time>2020-01-13T18:32:23Z</time>
      </trkpt>
      <trkpt lat="44.41505" lon="1.03458">
        <ele>189</ele>
        <time>2020-01-13T18:32:24Z</time>
      </trkpt>
      <trkpt lat="44.41501" lon="1.03458">
        <ele>188</ele>
        <time>2020-01-13T18:32:25Z</time>
      </trkpt>
      <trkpt lat="44.41486" lon="1.03461">
        <ele>188</ele>
        <time>2020-01-13T18:32:26Z</time>
      </trkpt>
      <trkpt lat="44.41482" lon="1.03462">
        <ele>188</ele>
        <time>2020-01-13T18:32:27Z</time>
      </trkpt>
      <trkpt lat="44.4147" lon="1.03461">
        <ele>189</ele>
        <time>2020-01-13T18:32:28Z</time>
      </trkpt>
      <trkpt lat="44.41462" lon="1.03462">
        <ele>189</ele>
        <time>2020-01-13T18:32:29Z</time>
      </trkpt>
      <trkpt lat="44.41459" lon="1.03464">
        <ele>189</ele>
        <time>2020-01-13T18:32:30Z</time>
      </trkpt>
      <trkpt lat="44.41452" lon="1.03469">
        <ele>189</ele>
        <time>2020-01-13T18:32:31Z</time>
      </trkpt>
      <trkpt lat="44.41447" lon="1.03476">
        <ele>189</ele>
        <time>2020-01-13T18:32:32Z</time>
      </trkpt>
      <trkpt lat="44.41441" lon="1.03485">
        <ele>189</ele>
        <time>2020-01-13T18:32:33Z</time>
      </trkpt>
      <trkpt lat="44.41438" lon="1.03487">
        <ele>190</ele>
        <time>2020-01-13T18:32:34Z</time>
      </trkpt>
      <trkpt lat="44.41434" lon="1.03491">
        <ele>190</ele>
        <time>2020-01-13T18:32:35Z</time>
      </trkpt>
      <trkpt lat="44.41431" lon="1.03492">
        <ele>190</ele>
        <time>2020-01-13T18:32:36Z</time>
      </trkpt>
      <trkpt lat="44.41427" lon="1.03495">
        <ele>190</ele>
        <time>2020-01-13T18:32:37Z</time>
      </trkpt>
      <trkpt lat="44.41424" lon="1.03496">
        <ele>190</ele>
        <time>2020-01-13T18:32:38Z</time>
      </trkpt>
      <trkpt lat="44.41414" lon="1.03501">
        <ele>191</ele>
        <time>2020-01-13T18:32:39Z</time>
      </trkpt>
      <trkpt lat="44.41411" lon="1.03504">
        <ele>191</ele>
        <time>2020-01-13T18:32:40Z</time>
      </trkpt>
      <trkpt lat="44.41405" lon="1.03506">
        <ele>191</ele>
        <time>2020-01-13T18:32:41Z</time>
      </trkpt>
      <trkpt lat="44.41402" lon="1.03508">
        <ele>191</ele>
        <time>2020-01-13T18:32:42Z</time>
      </trkpt>
      <trkpt lat="44.41397" lon="1.03512">
        <ele>191</ele>
        <time>2020-01-13T18:32:43Z</time>
      </trkpt>
      <trkpt lat="44.41384" lon="1.03521">
        <ele>192</ele>
        <time>2020-01-13T18:32:44Z</time>
      </trkpt>
      <trkpt lat="44.41376" lon="1.03525">
        <ele>192</ele>
        <time>2020-01-13T18:32:45Z</time>
      </trkpt>
      <trkpt lat="44.41373" lon="1.03525">
        <ele>192</ele>
        <time>2020-01-13T18:32:46Z</time>
      </trkpt>
      <trkpt lat="44.4137" lon="1.03527">
        <ele>192</ele>
        <time>2020-01-13T18:32:47Z</time>
      </trkpt>
      <trkpt lat="44.41368" lon="1.03527">
        <ele>192</ele>
        <time>2020-01-13T18:32:48Z</time>
      </trkpt>
      <trkpt lat="44.41367" lon="1.03528">
        <ele>192</ele>
        <time>2020-01-13T18:32:49Z</time>
      </trkpt>
      <trkpt lat="44.41365" lon="1.03529">
        <ele>193</ele>
        <time>2020-01-13T18:32:50Z</time>
      </trkpt>
      <trkpt lat="44.41362" lon="1.03533">
        <ele>193</ele>
        <time>2020-01-13T18:32:51Z</time>
      </trkpt>
      <trkpt lat="44.4136" lon="1.03534">
        <ele>193</ele>
        <time>2020-01-13T18:32:52Z</time>
      </trkpt>
      <trkpt lat="44.41356" lon="1.03539">
        <ele>193</ele>
        <time>2020-01-13T18:32:53Z</time>
      </trkpt>
      <trkpt lat="44.41355" lon="1.0354">
        <ele>193</ele>
        <time>2020-01-13T18:32:54Z</time>
      </trkpt>
      <trkpt lat="44.41352" lon="1.03541">
        <ele>194</ele>
        <time>2020-01-13T18:32:55Z</time>
      </trkpt>
      <trkpt lat="44.4135" lon="1.03541">
        <ele>194</ele>
        <time>2020-01-13T18:32:56Z</time>
      </trkpt>
      <trkpt lat="44.41348" lon="1.03542">
        <ele>194</ele>
        <time>2020-01-13T18:32:57Z</time>
      </trkpt>
      <trkpt lat="44.41345" lon="1.03543">
        <ele>194</ele>
        <time>2020-01-13T18:32:58Z</time>
      </trkpt>
      <trkpt lat="44.4134" lon="1.03544">
        <ele>194</ele>
        <time>2020-01-13T18:32:59Z</time>
      </trkpt>
      <trkpt lat="44.41337" lon="1.03545">
        <ele>195</ele>
        <time>2020-01-13T18:33:00Z</time>
      </trkpt>
      <trkpt lat="44.41336" lon="1.03547">
        <ele>195</ele>
        <time>2020-01-13T18:33:01Z</time>
      </trkpt>
      <trkpt lat="44.41333" lon="1.03548">
        <ele>195</ele>
        <time>2020-01-13T18:33:02Z</time>
      </trkpt>
      <trkpt lat="44.4133" lon="1.03549">
        <ele>195</ele>
        <time>2020-01-13T18:33:03Z</time>
      </trkpt>
      <trkpt lat="44.41324" lon="1.03551">
        <ele>196</ele>
        <time>2020-01-13T18:33:04Z</time>
      </trkpt>
      <trkpt lat="44.41322" lon="1.03553">
        <ele>197</ele>
        <time>2020-01-13T18:33:05Z</time>
      </trkpt>
      <trkpt lat="44.41319" lon="1.03554">
        <ele>197</ele>
        <time>2020-01-13T18:33:06Z</time>
      </trkpt>
      <trkpt lat="44.41314" lon="1.03558">
        <ele>198</ele>
        <time>2020-01-13T18:33:07Z</time>
      </trkpt>
      <trkpt lat="44.4131" lon="1.03559">
        <ele>199</ele>
        <time>2020-01-13T18:33:08Z</time>
      </trkpt>
      <trkpt lat="44.41306" lon="1.03561">
        <ele>200</ele>
        <time>2020-01-13T18:33:09Z</time>
      </trkpt>
      <trkpt lat="44.41299" lon="1.03563">
        <ele>201</ele>
        <time>2020-01-13T18:33:10Z</time>
      </trkpt>
      <trkpt lat="44.41298" lon="1.03563">
        <ele>201</ele>
        <time>2020-01-13T18:33:11Z</time>
      </trkpt>
      <trkpt lat="44.41296" lon="1.03563">
        <ele>202</ele>
        <time>2020-01-13T18:33:12Z</time>
      </trkpt>
      <trkpt lat="44.41295" lon="1.03564">
        <ele>202</ele>
        <time>2020-01-13T18:33:13Z</time>
      </trkpt>
      <trkpt lat="44.41294" lon="1.03565">
        <ele>202</ele>
        <time>2020-01-13T18:33:14Z</time>
      </trkpt>
      <trkpt lat="44.4129" lon="1.03566">
        <ele>203</ele>
        <time>2020-01-13T18:33:15Z</time>
      </trkpt>
      <trkpt lat="44.41286" lon="1.03568">
        <ele>204</ele>
        <time>2020-01-13T18:33:16Z</time>
      </trkpt>
      <trkpt lat="44.41285" lon="1.03571">
        <ele>204</ele>
        <time>2020-01-13T18:33:17Z</time>
      </trkpt>
      <trkpt lat="44.41285" lon="1.03573">
        <ele>204</ele>
        <time>2020-01-13T18:33:18Z</time>
      </trkpt>
      <trkpt lat="44.4128" lon="1.03576">
        <ele>205</ele>
        <time>2020-01-13T18:33:19Z</time>
      </trkpt>
      <trkpt lat="44.41274" lon="1.03579">
        <ele>207</ele>
        <time>2020-01-13T18:33:20Z</time>
      </trkpt>
      <trkpt lat="44.41269" lon="1.03583">
        <ele>208</ele>
        <time>2020-01-13T18:33:21Z</time>
      </trkpt>
      <trkpt lat="44.41268" lon="1.03584">
        <ele>208</ele>
        <time>2020-01-13T18:33:22Z</time>
      </trkpt>
      <trkpt lat="44.41262" lon="1.03585">
        <ele>209</ele>
        <time>2020-01-13T18:33:23Z</time>
      </trkpt>
      <trkpt lat="44.41259" lon="1.03586">
        <ele>210</ele>
        <time>2020-01-13T18:33:24Z</time>
      </trkpt>
      <trkpt lat="44.41257" lon="1.03587">
        <ele>210</ele>
        <time>2020-01-13T18:33:25Z</time>
      </trkpt>
      <trkpt lat="44.41254" lon="1.03588">
        <ele>210</ele>
        <time>2020-01-13T18:33:26Z</time>
      </trkpt>
      <trkpt lat="44.41252" lon="1.03588">
        <ele>211</ele>
        <time>2020-01-13T18:33:27Z</time>
      </trkpt>
      <trkpt lat="44.41251" lon="1.03589">
        <ele>211</ele>
        <time>2020-01-13T18:33:28Z</time>
      </trkpt>
      <trkpt lat="44.41249" lon="1.03588">
        <ele>211</ele>
        <time>2020-01-13T18:33:29Z</time>
      </trkpt>
      <trkpt lat="44.41247" lon="1.03586">
        <ele>211</ele>
        <time>2020-01-13T18:33:30Z</time>
      </trkpt>
      <trkpt lat="44.41246" lon="1.03587">
        <ele>211</ele>
        <time>2020-01-13T18:33:31Z</time>
      </trkpt>
      <trkpt lat="44.41246" lon="1.03589">
        <ele>211</ele>
        <time>2020-01-13T18:33:32Z</time>
      </trkpt>
      <trkpt lat="44.41248" lon="1.0359">
        <ele>211</ele>
        <time>2020-01-13T18:33:33Z</time>
      </trkpt>
      <trkpt lat="44.41245" lon="1.0359">
        <ele>211</ele>
        <time>2020-01-13T18:33:34Z</time>
      </trkpt>
      <trkpt lat="44.41244" lon="1.0359">
        <ele>211</ele>
        <time>2020-01-13T18:33:35Z</time>
      </trkpt>
      <trkpt lat="44.41243" lon="1.03588">
        <ele>211</ele>
        <time>2020-01-13T18:33:36Z</time>
      </trkpt>
      <trkpt lat="44.41243" lon="1.0359">
        <ele>211</ele>
        <time>2020-01-13T18:33:37Z</time>
      </trkpt>
      <trkpt lat="44.41241" lon="1.03591">
        <ele>211</ele>
        <time>2020-01-13T18:33:38Z</time>
      </trkpt>
      <trkpt lat="44.41233" lon="1.03596">
        <ele>211</ele>
        <time>2020-01-13T18:33:39Z</time>
      </trkpt>
      <trkpt lat="44.41229" lon="1.03597">
        <ele>211</ele>
        <time>2020-01-13T18:33:40Z</time>
      </trkpt>
      <trkpt lat="44.41225" lon="1.036">
        <ele>211</ele>
        <time>2020-01-13T18:33:41Z</time>
      </trkpt>
      <trkpt lat="44.41217" lon="1.03603">
        <ele>211</ele>
        <time>2020-01-13T18:33:42Z</time>
      </trkpt>
      <trkpt lat="44.41214" lon="1.03605">
        <ele>211</ele>
        <time>2020-01-13T18:33:43Z</time>
      </trkpt>
      <trkpt lat="44.41201" lon="1.03611">
        <ele>211</ele>
        <time>2020-01-13T18:33:44Z</time>
      </trkpt>
      <trkpt lat="44.41198" lon="1.03613">
        <ele>211</ele>
        <time>2020-01-13T18:33:45Z</time>
      </trkpt>
      <trkpt lat="44.41192" lon="1.03619">
        <ele>212</ele>
        <time>2020-01-13T18:33:46Z</time>
      </trkpt>
      <trkpt lat="44.4118" lon="1.03634">
        <ele>213</ele>
        <time>2020-01-13T18:33:47Z</time>
      </trkpt>
      <trkpt lat="44.4117" lon="1.03644">
        <ele>215</ele>
        <time>2020-01-13T18:33:48Z</time>
      </trkpt>
      <trkpt lat="44.41157" lon="1.03655">
        <ele>216</ele>
        <time>2020-01-13T18:33:49Z</time>
      </trkpt>
      <trkpt lat="44.41151" lon="1.03659">
        <ele>216</ele>
        <time>2020-01-13T18:33:50Z</time>
      </trkpt>
      <trkpt lat="44.41148" lon="1.0366">
        <ele>215</ele>
        <time>2020-01-13T18:33:51Z</time>
      </trkpt>
      <trkpt lat="44.4114" lon="1.03662">
        <ele>215</ele>
        <time>2020-01-13T18:33:52Z</time>
      </trkpt>
      <trkpt lat="44.41129" lon="1.03662">
        <ele>214</ele>
        <time>2020-01-13T18:33:53Z</time>
      </trkpt>
      <trkpt lat="44.41116" lon="1.03663">
        <ele>213</ele>
        <time>2020-01-13T18:33:54Z</time>
      </trkpt>
      <trkpt lat="44.41109" lon="1.03664">
        <ele>212</ele>
        <time>2020-01-13T18:33:55Z</time>
      </trkpt>
      <trkpt lat="44.41103" lon="1.03665">
        <ele>212</ele>
        <time>2020-01-13T18:33:56Z</time>
      </trkpt>
      <trkpt lat="44.4109" lon="1.03669">
        <ele>211</ele>
        <time>2020-01-13T18:33:57Z</time>
      </trkpt>
      <trkpt lat="44.41077" lon="1.03672">
        <ele>210</ele>
        <time>2020-01-13T18:33:58Z</time>
      </trkpt>
      <trkpt lat="44.41071" lon="1.03674">
        <ele>209</ele>
        <time>2020-01-13T18:33:59Z</time>
      </trkpt>
      <trkpt lat="44.41065" lon="1.03675">
        <ele>209</ele>
        <time>2020-01-13T18:34:00Z</time>
      </trkpt>
      <trkpt lat="44.41059" lon="1.03677">
        <ele>208</ele>
        <time>2020-01-13T18:34:01Z</time>
      </trkpt>
      <trkpt lat="44.41054" lon="1.03679">
        <ele>208</ele>
        <time>2020-01-13T18:34:02Z</time>
      </trkpt>
      <trkpt lat="44.41049" lon="1.03682">
        <ele>207</ele>
        <time>2020-01-13T18:34:03Z</time>
      </trkpt>
      <trkpt lat="44.41038" lon="1.03691">
        <ele>207</ele>
        <time>2020-01-13T18:34:04Z</time>
      </trkpt>
      <trkpt lat="44.41022" lon="1.03701">
        <ele>205</ele>
        <time>2020-01-13T18:34:05Z</time>
      </trkpt>
      <trkpt lat="44.41005" lon="1.03711">
        <ele>203</ele>
        <time>2020-01-13T18:34:06Z</time>
      </trkpt>
      <trkpt lat="44.40992" lon="1.03723">
        <ele>203</ele>
        <time>2020-01-13T18:34:07Z</time>
      </trkpt>
      <trkpt lat="44.40988" lon="1.03728">
        <ele>204</ele>
        <time>2020-01-13T18:34:08Z</time>
      </trkpt>
      <trkpt lat="44.40977" lon="1.03738">
        <ele>204</ele>
        <time>2020-01-13T18:34:09Z</time>
      </trkpt>
      <trkpt lat="44.40973" lon="1.03739">
        <ele>204</ele>
        <time>2020-01-13T18:34:10Z</time>
      </trkpt>
      <trkpt lat="44.40967" lon="1.0373">
        <ele>204</ele>
        <time>2020-01-13T18:34:11Z</time>
      </trkpt>
      <trkpt lat="44.40964" lon="1.03726">
        <ele>203</ele>
        <time>2020-01-13T18:34:12Z</time>
      </trkpt>
      <trkpt lat="44.40962" lon="1.03722">
        <ele>203</ele>
        <time>2020-01-13T18:34:13Z</time>
      </trkpt>
      <trkpt lat="44.4096" lon="1.03718">
        <ele>203</ele>
        <time>2020-01-13T18:34:14Z</time>
      </trkpt>
      <trkpt lat="44.40956" lon="1.03706">
        <ele>203</ele>
        <time>2020-01-13T18:34:15Z</time>
      </trkpt>
      <trkpt lat="44.40954" lon="1.03703">
        <ele>203</ele>
        <time>2020-01-13T18:34:16Z</time>
      </trkpt>
      <trkpt lat="44.40952" lon="1.037">
        <ele>203</ele>
        <time>2020-01-13T18:34:17Z</time>
      </trkpt>
      <trkpt lat="44.40949" lon="1.03693">
        <ele>203</ele>
        <time>2020-01-13T18:34:18Z</time>
      </trkpt>
      <trkpt lat="44.40946" lon="1.03687">
        <ele>203</ele>
        <time>2020-01-13T18:34:19Z</time>
      </trkpt>
      <trkpt lat="44.40945" lon="1.03682">
        <ele>203</ele>
        <time>2020-01-13T18:34:20Z</time>
      </trkpt>
      <trkpt lat="44.40942" lon="1.03673">
        <ele>203</ele>
        <time>2020-01-13T18:34:21Z</time>
      </trkpt>
      <trkpt lat="44.4094" lon="1.0367">
        <ele>203</ele>
        <time>2020-01-13T18:34:22Z</time>
      </trkpt>
      <trkpt lat="44.40938" lon="1.03667">
        <ele>203</ele>
        <time>2020-01-13T18:34:23Z</time>
      </trkpt>
      <trkpt lat="44.40937" lon="1.03664">
        <ele>203</ele>
        <time>2020-01-13T18:34:24Z</time>
      </trkpt>
      <trkpt lat="44.40934" lon="1.03657">
        <ele>204</ele>
        <time>2020-01-13T18:34:25Z</time>
      </trkpt>
      <trkpt lat="44.40927" lon="1.03644">
        <ele>204</ele>
        <time>2020-01-13T18:34:26Z</time>
      </trkpt>
      <trkpt lat="44.40925" lon="1.0364">
        <ele>205</ele>
        <time>2020-01-13T18:34:27Z</time>
      </trkpt>
      <trkpt lat="44.40924" lon="1.03636">
        <ele>205</ele>
        <time>2020-01-13T18:34:28Z</time>
      </trkpt>
      <trkpt lat="44.40922" lon="1.03633">
        <ele>205</ele>
        <time>2020-01-13T18:34:29Z</time>
      </trkpt>
      <trkpt lat="44.40918" lon="1.03624">
        <ele>206</ele>
        <time>2020-01-13T18:34:30Z</time>
      </trkpt>
      <trkpt lat="44.40916" lon="1.0362">
        <ele>206</ele>
        <time>2020-01-13T18:34:31Z</time>
      </trkpt>
      <trkpt lat="44.40914" lon="1.03619">
        <ele>206</ele>
        <time>2020-01-13T18:34:32Z</time>
      </trkpt>
      <trkpt lat="44.40905" lon="1.03618">
        <ele>207</ele>
        <time>2020-01-13T18:34:33Z</time>
      </trkpt>
      <trkpt lat="44.40903" lon="1.03616">
        <ele>207</ele>
        <time>2020-01-13T18:34:34Z</time>
      </trkpt>
      <trkpt lat="44.40899" lon="1.03613">
        <ele>207</ele>
        <time>2020-01-13T18:34:35Z</time>
      </trkpt>
      <trkpt lat="44.40896" lon="1.03609">
        <ele>207</ele>
        <time>2020-01-13T18:34:36Z</time>
      </trkpt>
      <trkpt lat="44.40892" lon="1.03606">
        <ele>207</ele>
        <time>2020-01-13T18:34:37Z</time>
      </trkpt>
      <trkpt lat="44.40888" lon="1.03602">
        <ele>207</ele>
        <time>2020-01-13T18:34:38Z</time>
      </trkpt>
      <trkpt lat="44.40883" lon="1.03596">
        <ele>207</ele>
        <time>2020-01-13T18:34:39Z</time>
      </trkpt>
      <trkpt lat="44.40875" lon="1.03588">
        <ele>207</ele>
        <time>2020-01-13T18:34:40Z</time>
      </trkpt>
      <trkpt lat="44.40872" lon="1.03586">
        <ele>207</ele>
        <time>2020-01-13T18:34:41Z</time>
      </trkpt>
      <trkpt lat="44.40867" lon="1.03583">
        <ele>207</ele>
        <time>2020-01-13T18:34:42Z</time>
      </trkpt>
      <trkpt lat="44.40863" lon="1.03578">
        <ele>207</ele>
        <time>2020-01-13T18:34:43Z</time>
      </trkpt>
      <trkpt lat="44.40861" lon="1.03576">
        <ele>207</ele>
        <time>2020-01-13T18:34:44Z</time>
      </trkpt>
      <trkpt lat="44.40841" lon="1.03562">
        <ele>206</ele>
        <time>2020-01-13T18:34:45Z</time>
      </trkpt>
      <trkpt lat="44.40832" lon="1.03556">
        <ele>206</ele>
        <time>2020-01-13T18:34:46Z</time>
      </trkpt>
      <trkpt lat="44.4083" lon="1.03554">
        <ele>206</ele>
        <time>2020-01-13T18:34:47Z</time>
      </trkpt>
      <trkpt lat="44.40828" lon="1.03552">
        <ele>206</ele>
        <time>2020-01-13T18:34:48Z</time>
      </trkpt>
      <trkpt lat="44.40825" lon="1.0355">
        <ele>206</ele>
        <time>2020-01-13T18:34:49Z</time>
      </trkpt>
      <trkpt lat="44.40822" lon="1.03548">
        <ele>206</ele>
        <time>2020-01-13T18:34:50Z</time>
      </trkpt>
      <trkpt lat="44.40815" lon="1.03545">
        <ele>205</ele>
        <time>2020-01-13T18:34:51Z</time>
      </trkpt>
      <trkpt lat="44.40807" lon="1.03542">
        <ele>205</ele>
        <time>2020-01-13T18:34:52Z</time>
      </trkpt>
      <trkpt lat="44.40798" lon="1.03537">
        <ele>205</ele>
        <time>2020-01-13T18:34:53Z</time>
      </trkpt>
      <trkpt lat="44.40794" lon="1.03534">
        <ele>205</ele>
        <time>2020-01-13T18:34:54Z</time>
      </trkpt>
      <trkpt lat="44.40777" lon="1.03525">
        <ele>204</ele>
        <time>2020-01-13T18:34:55Z</time>
      </trkpt>
      <trkpt lat="44.40763" lon="1.03514">
        <ele>204</ele>
        <time>2020-01-13T18:34:56Z</time>
      </trkpt>
      <trkpt lat="44.40749" lon="1.03506">
        <ele>203</ele>
        <time>2020-01-13T18:34:57Z</time>
      </trkpt>
      <trkpt lat="44.40737" lon="1.03499">
        <ele>204</ele>
        <time>2020-01-13T18:34:58Z</time>
      </trkpt>
      <trkpt lat="44.40733" lon="1.03496">
        <ele>204</ele>
        <time>2020-01-13T18:34:59Z</time>
      </trkpt>
      <trkpt lat="44.40731" lon="1.03495">
        <ele>205</ele>
        <time>2020-01-13T18:35:00Z</time>
      </trkpt>
      <trkpt lat="44.40729" lon="1.03495">
        <ele>205</ele>
        <time>2020-01-13T18:35:01Z</time>
      </trkpt>
      <trkpt lat="44.40727" lon="1.03495">
        <ele>205</ele>
        <time>2020-01-13T18:35:02Z</time>
      </trkpt>
      <trkpt lat="44.40726" lon="1.03497">
        <ele>205</ele>
        <time>2020-01-13T18:35:03Z</time>
      </trkpt>
      <trkpt lat="44.40726" lon="1.03506">
        <ele>205</ele>
        <time>2020-01-13T18:35:04Z</time>
      </trkpt>
      <trkpt lat="44.40727" lon="1.03509">
        <ele>205</ele>
        <time>2020-01-13T18:35:05Z</time>
      </trkpt>
      <trkpt lat="44.40727" lon="1.03518">
        <ele>205</ele>
        <time>2020-01-13T18:35:06Z</time>
      </trkpt>
      <trkpt lat="44.40727" lon="1.03521">
        <ele>205</ele>
        <time>2020-01-13T18:35:07Z</time>
      </trkpt>
      <trkpt lat="44.40727" lon="1.03525">
        <ele>206</ele>
        <time>2020-01-13T18:35:08Z</time>
      </trkpt>
      <trkpt lat="44.40728" lon="1.03528">
        <ele>206</ele>
        <time>2020-01-13T18:35:09Z</time>
      </trkpt>
      <trkpt lat="44.40728" lon="1.03538">
        <ele>206</ele>
        <time>2020-01-13T18:35:10Z</time>
      </trkpt>
      <trkpt lat="44.40727" lon="1.03544">
        <ele>206</ele>
        <time>2020-01-13T18:35:11Z</time>
      </trkpt>
      <trkpt lat="44.40727" lon="1.03569">
        <ele>207</ele>
        <time>2020-01-13T18:35:12Z</time>
      </trkpt>
      <trkpt lat="44.40727" lon="1.03574">
        <ele>207</ele>
        <time>2020-01-13T18:35:13Z</time>
      </trkpt>
      <trkpt lat="44.40727" lon="1.03578">
        <ele>207</ele>
        <time>2020-01-13T18:35:14Z</time>
      </trkpt>
      <trkpt lat="44.40731" lon="1.03615">
        <ele>208</ele>
        <time>2020-01-13T18:35:15Z</time>
      </trkpt>
      <trkpt lat="44.40731" lon="1.0362">
        <ele>208</ele>
        <time>2020-01-13T18:35:16Z</time>
      </trkpt>
      <trkpt lat="44.40731" lon="1.03625">
        <ele>209</ele>
        <time>2020-01-13T18:35:17Z</time>
      </trkpt>
      <trkpt lat="44.40732" lon="1.0363">
        <ele>209</ele>
        <time>2020-01-13T18:35:18Z</time>
      </trkpt>
      <trkpt lat="44.40732" lon="1.03636">
        <ele>209</ele>
        <time>2020-01-13T18:35:19Z</time>
      </trkpt>
      <trkpt lat="44.40733" lon="1.03653">
        <ele>210</ele>
        <time>2020-01-13T18:35:20Z</time>
      </trkpt>
      <trkpt lat="44.40733" lon="1.03658">
        <ele>210</ele>
        <time>2020-01-13T18:35:21Z</time>
      </trkpt>
      <trkpt lat="44.40734" lon="1.03682">
        <ele>210</ele>
        <time>2020-01-13T18:35:22Z</time>
      </trkpt>
      <trkpt lat="44.40734" lon="1.03699">
        <ele>211</ele>
        <time>2020-01-13T18:35:23Z</time>
      </trkpt>
      <trkpt lat="44.40735" lon="1.03711">
        <ele>211</ele>
        <time>2020-01-13T18:35:24Z</time>
      </trkpt>
      <trkpt lat="44.40735" lon="1.03728">
        <ele>211</ele>
        <time>2020-01-13T18:35:25Z</time>
      </trkpt>
      <trkpt lat="44.40736" lon="1.03734">
        <ele>211</ele>
        <time>2020-01-13T18:35:26Z</time>
      </trkpt>
      <trkpt lat="44.40736" lon="1.03745">
        <ele>211</ele>
        <time>2020-01-13T18:35:27Z</time>
      </trkpt>
      <trkpt lat="44.40736" lon="1.03751">
        <ele>211</ele>
        <time>2020-01-13T18:35:28Z</time>
      </trkpt>
      <trkpt lat="44.40736" lon="1.03762">
        <ele>211</ele>
        <time>2020-01-13T18:35:29Z</time>
      </trkpt>
      <trkpt lat="44.40737" lon="1.03767">
        <ele>211</ele>
        <time>2020-01-13T18:35:30Z</time>
      </trkpt>
      <trkpt lat="44.40737" lon="1.03773">
        <ele>211</ele>
        <time>2020-01-13T18:35:31Z</time>
      </trkpt>
      <trkpt lat="44.40736" lon="1.03778">
        <ele>211</ele>
        <time>2020-01-13T18:35:32Z</time>
      </trkpt>
      <trkpt lat="44.40736" lon="1.03796">
        <ele>210</ele>
        <time>2020-01-13T18:35:33Z</time>
      </trkpt>
      <trkpt lat="44.40737" lon="1.03802">
        <ele>210</ele>
        <time>2020-01-13T18:35:34Z</time>
      </trkpt>
      <trkpt lat="44.40737" lon="1.03828">
        <ele>209</ele>
        <time>2020-01-13T18:35:35Z</time>
      </trkpt>
      <trkpt lat="44.40736" lon="1.03855">
        <ele>209</ele>
        <time>2020-01-13T18:35:36Z</time>
      </trkpt>
      <trkpt lat="44.40735" lon="1.03865">
        <ele>209</ele>
        <time>2020-01-13T18:35:37Z</time>
      </trkpt>
      <trkpt lat="44.40734" lon="1.03876">
        <ele>209</ele>
        <time>2020-01-13T18:35:38Z</time>
      </trkpt>
      <trkpt lat="44.40734" lon="1.03886">
        <ele>209</ele>
        <time>2020-01-13T18:35:39Z</time>
      </trkpt>
      <trkpt lat="44.40733" lon="1.03914">
        <ele>208</ele>
        <time>2020-01-13T18:35:40Z</time>
      </trkpt>
      <trkpt lat="44.40733" lon="1.03923">
        <ele>208</ele>
        <time>2020-01-13T18:35:41Z</time>
      </trkpt>
      <trkpt lat="44.40733" lon="1.03932">
        <ele>209</ele>
        <time>2020-01-13T18:35:42Z</time>
      </trkpt>
      <trkpt lat="44.40734" lon="1.0394">
        <ele>209</ele>
        <time>2020-01-13T18:35:43Z</time>
      </trkpt>
      <trkpt lat="44.40735" lon="1.03948">
        <ele>209</ele>
        <time>2020-01-13T18:35:44Z</time>
      </trkpt>
      <trkpt lat="44.40737" lon="1.03956">
        <ele>209</ele>
        <time>2020-01-13T18:35:45Z</time>
      </trkpt>
      <trkpt lat="44.40744" lon="1.03977">
        <ele>209</ele>
        <time>2020-01-13T18:35:46Z</time>
      </trkpt>
      <trkpt lat="44.40747" lon="1.03984">
        <ele>210</ele>
        <time>2020-01-13T18:35:47Z</time>
      </trkpt>
      <trkpt lat="44.40751" lon="1.03997">
        <ele>210</ele>
        <time>2020-01-13T18:35:48Z</time>
      </trkpt>
      <trkpt lat="44.40754" lon="1.0401">
        <ele>210</ele>
        <time>2020-01-13T18:35:49Z</time>
      </trkpt>
      <trkpt lat="44.40756" lon="1.04017">
        <ele>211</ele>
        <time>2020-01-13T18:35:50Z</time>
      </trkpt>
      <trkpt lat="44.40757" lon="1.04023">
        <ele>211</ele>
        <time>2020-01-13T18:35:51Z</time>
      </trkpt>
      <trkpt lat="44.40759" lon="1.04029">
        <ele>211</ele>
        <time>2020-01-13T18:35:52Z</time>
      </trkpt>
      <trkpt lat="44.40764" lon="1.04041">
        <ele>212</ele>
        <time>2020-01-13T18:35:53Z</time>
      </trkpt>
      <trkpt lat="44.40768" lon="1.04052">
        <ele>213</ele>
        <time>2020-01-13T18:35:54Z</time>
      </trkpt>
      <trkpt lat="44.40771" lon="1.04063">
        <ele>213</ele>
        <time>2020-01-13T18:35:55Z</time>
      </trkpt>
      <trkpt lat="44.40773" lon="1.04068">
        <ele>213</ele>
        <time>2020-01-13T18:35:56Z</time>
      </trkpt>
      <trkpt lat="44.40779" lon="1.04084">
        <ele>214</ele>
        <time>2020-01-13T18:35:57Z</time>
      </trkpt>
      <trkpt lat="44.4078" lon="1.04089">
        <ele>215</ele>
        <time>2020-01-13T18:35:58Z</time>
      </trkpt>
      <trkpt lat="44.40781" lon="1.04094">
        <ele>215</ele>
        <time>2020-01-13T18:35:59Z</time>
      </trkpt>
      <trkpt lat="44.40783" lon="1.04099">
        <ele>215</ele>
        <time>2020-01-13T18:36:00Z</time>
      </trkpt>
      <trkpt lat="44.40784" lon="1.04104">
        <ele>216</ele>
        <time>2020-01-13T18:36:01Z</time>
      </trkpt>
      <trkpt lat="44.40785" lon="1.0411">
        <ele>216</ele>
        <time>2020-01-13T18:36:02Z</time>
      </trkpt>
      <trkpt lat="44.40799" lon="1.04156">
        <ele>219</ele>
        <time>2020-01-13T18:36:03Z</time>
      </trkpt>
      <trkpt lat="44.40805" lon="1.04172">
        <ele>219</ele>
        <time>2020-01-13T18:36:04Z</time>
      </trkpt>
      <trkpt lat="44.40806" lon="1.04176">
        <ele>220</ele>
        <time>2020-01-13T18:36:05Z</time>
      </trkpt>
      <trkpt lat="44.4081" lon="1.04187">
        <ele>220</ele>
        <time>2020-01-13T18:36:06Z</time>
      </trkpt>
      <trkpt lat="44.40815" lon="1.04203">
        <ele>221</ele>
        <time>2020-01-13T18:36:07Z</time>
      </trkpt>
      <trkpt lat="44.40816" lon="1.04208">
        <ele>221</ele>
        <time>2020-01-13T18:36:08Z</time>
      </trkpt>
      <trkpt lat="44.40818" lon="1.04212">
        <ele>221</ele>
        <time>2020-01-13T18:36:09Z</time>
      </trkpt>
      <trkpt lat="44.4082" lon="1.04217">
        <ele>221</ele>
        <time>2020-01-13T18:36:10Z</time>
      </trkpt>
      <trkpt lat="44.40821" lon="1.04222">
        <ele>221</ele>
        <time>2020-01-13T18:36:11Z</time>
      </trkpt>
      <trkpt lat="44.40823" lon="1.04227">
        <ele>221</ele>
        <time>2020-01-13T18:36:12Z</time>
      </trkpt>
      <trkpt lat="44.40826" lon="1.04235">
        <ele>222</ele>
        <time>2020-01-13T18:36:13Z</time>
      </trkpt>
      <trkpt lat="44.40828" lon="1.0424">
        <ele>222</ele>
        <time>2020-01-13T18:36:14Z</time>
      </trkpt>
      <trkpt lat="44.40832" lon="1.0425">
        <ele>222</ele>
        <time>2020-01-13T18:36:15Z</time>
      </trkpt>
      <trkpt lat="44.40839" lon="1.04273">
        <ele>221</ele>
        <time>2020-01-13T18:36:16Z</time>
      </trkpt>
      <trkpt lat="44.40839" lon="1.04277">
        <ele>221</ele>
        <time>2020-01-13T18:36:17Z</time>
      </trkpt>
      <trkpt lat="44.40839" lon="1.04281">
        <ele>221</ele>
        <time>2020-01-13T18:36:18Z</time>
      </trkpt>
      <trkpt lat="44.40837" lon="1.04285">
        <ele>221</ele>
        <time>2020-01-13T18:36:19Z</time>
      </trkpt>
      <trkpt lat="44.40836" lon="1.04289">
        <ele>221</ele>
        <time>2020-01-13T18:36:20Z</time>
      </trkpt>
      <trkpt lat="44.40834" lon="1.04291">
        <ele>221</ele>
        <time>2020-01-13T18:36:21Z</time>
      </trkpt>
      <trkpt lat="44.40833" lon="1.04294">
        <ele>221</ele>
        <time>2020-01-13T18:36:22Z</time>
      </trkpt>
      <trkpt lat="44.4083" lon="1.04299">
        <ele>222</ele>
        <time>2020-01-13T18:36:23Z</time>
      </trkpt>
      <trkpt lat="44.40825" lon="1.04304">
        <ele>222</ele>
        <time>2020-01-13T18:36:24Z</time>
      </trkpt>
      <trkpt lat="44.40822" lon="1.04306">
        <ele>222</ele>
        <time>2020-01-13T18:36:25Z</time>
      </trkpt>
      <trkpt lat="44.40815" lon="1.04312">
        <ele>222</ele>
        <time>2020-01-13T18:36:26Z</time>
      </trkpt>
      <trkpt lat="44.4081" lon="1.04316">
        <ele>222</ele>
        <time>2020-01-13T18:36:27Z</time>
      </trkpt>
      <trkpt lat="44.40808" lon="1.04318">
        <ele>222</ele>
        <time>2020-01-13T18:36:28Z</time>
      </trkpt>
      <trkpt lat="44.40805" lon="1.04321">
        <ele>223</ele>
        <time>2020-01-13T18:36:29Z</time>
      </trkpt>
      <trkpt lat="44.408" lon="1.04325">
        <ele>223</ele>
        <time>2020-01-13T18:36:30Z</time>
      </trkpt>
      <trkpt lat="44.40788" lon="1.04335">
        <ele>224</ele>
        <time>2020-01-13T18:36:31Z</time>
      </trkpt>
      <trkpt lat="44.40761" lon="1.0436">
        <ele>225</ele>
        <time>2020-01-13T18:36:32Z</time>
      </trkpt>
      <trkpt lat="44.40741" lon="1.04374">
        <ele>225</ele>
        <time>2020-01-13T18:36:33Z</time>
      </trkpt>
      <trkpt lat="44.40738" lon="1.04377">
        <ele>225</ele>
        <time>2020-01-13T18:36:34Z</time>
      </trkpt>
      <trkpt lat="44.40729" lon="1.04384">
        <ele>225</ele>
        <time>2020-01-13T18:36:35Z</time>
      </trkpt>
      <trkpt lat="44.40717" lon="1.04393">
        <ele>225</ele>
        <time>2020-01-13T18:36:36Z</time>
      </trkpt>
      <trkpt lat="44.40712" lon="1.04398">
        <ele>225</ele>
        <time>2020-01-13T18:36:37Z</time>
      </trkpt>
      <trkpt lat="44.40694" lon="1.04412">
        <ele>226</ele>
        <time>2020-01-13T18:36:38Z</time>
      </trkpt>
      <trkpt lat="44.40681" lon="1.04421">
        <ele>226</ele>
        <time>2020-01-13T18:36:39Z</time>
      </trkpt>
      <trkpt lat="44.40678" lon="1.04424">
        <ele>226</ele>
        <time>2020-01-13T18:36:40Z</time>
      </trkpt>
      <trkpt lat="44.40674" lon="1.04427">
        <ele>227</ele>
        <time>2020-01-13T18:36:41Z</time>
      </trkpt>
      <trkpt lat="44.40668" lon="1.04435">
        <ele>227</ele>
        <time>2020-01-13T18:36:42Z</time>
      </trkpt>
      <trkpt lat="44.40664" lon="1.04444">
        <ele>227</ele>
        <time>2020-01-13T18:36:43Z</time>
      </trkpt>
      <trkpt lat="44.40661" lon="1.04449">
        <ele>226</ele>
        <time>2020-01-13T18:36:44Z</time>
      </trkpt>
      <trkpt lat="44.40656" lon="1.04464">
        <ele>226</ele>
        <time>2020-01-13T18:36:45Z</time>
      </trkpt>
      <trkpt lat="44.40653" lon="1.04474">
        <ele>226</ele>
        <time>2020-01-13T18:36:46Z</time>
      </trkpt>
      <trkpt lat="44.40652" lon="1.04479">
        <ele>226</ele>
        <time>2020-01-13T18:36:47Z</time>
      </trkpt>
      <trkpt lat="44.40648" lon="1.04493">
        <ele>226</ele>
        <time>2020-01-13T18:36:48Z</time>
      </trkpt>
      <trkpt lat="44.40646" lon="1.04499">
        <ele>226</ele>
        <time>2020-01-13T18:36:49Z</time>
      </trkpt>
      <trkpt lat="44.40644" lon="1.04505">
        <ele>226</ele>
        <time>2020-01-13T18:36:50Z</time>
      </trkpt>
      <trkpt lat="44.40639" lon="1.04516">
        <ele>226</ele>
        <time>2020-01-13T18:36:51Z</time>
      </trkpt>
      <trkpt lat="44.40638" lon="1.04522">
        <ele>226</ele>
        <time>2020-01-13T18:36:52Z</time>
      </trkpt>
      <trkpt lat="44.40638" lon="1.04528">
        <ele>226</ele>
        <time>2020-01-13T18:36:53Z</time>
      </trkpt>
      <trkpt lat="44.40641" lon="1.04551">
        <ele>226</ele>
        <time>2020-01-13T18:36:54Z</time>
      </trkpt>
      <trkpt lat="44.40646" lon="1.04576">
        <ele>226</ele>
        <time>2020-01-13T18:36:55Z</time>
      </trkpt>
      <trkpt lat="44.40652" lon="1.04601">
        <ele>225</ele>
        <time>2020-01-13T18:36:56Z</time>
      </trkpt>
      <trkpt lat="44.40657" lon="1.04618">
        <ele>225</ele>
        <time>2020-01-13T18:36:57Z</time>
      </trkpt>
      <trkpt lat="44.40659" lon="1.04625">
        <ele>225</ele>
        <time>2020-01-13T18:36:58Z</time>
      </trkpt>
      <trkpt lat="44.40663" lon="1.0464">
        <ele>225</ele>
        <time>2020-01-13T18:36:59Z</time>
      </trkpt>
      <trkpt lat="44.40671" lon="1.04668">
        <ele>225</ele>
        <time>2020-01-13T18:37:00Z</time>
      </trkpt>
      <trkpt lat="44.40675" lon="1.04687">
        <ele>224</ele>
        <time>2020-01-13T18:37:01Z</time>
      </trkpt>
      <trkpt lat="44.40676" lon="1.04693">
        <ele>224</ele>
        <time>2020-01-13T18:37:02Z</time>
      </trkpt>
      <trkpt lat="44.40676" lon="1.047">
        <ele>224</ele>
        <time>2020-01-13T18:37:03Z</time>
      </trkpt>
      <trkpt lat="44.40675" lon="1.04707">
        <ele>224</ele>
        <time>2020-01-13T18:37:04Z</time>
      </trkpt>
      <trkpt lat="44.40672" lon="1.04712">
        <ele>224</ele>
        <time>2020-01-13T18:37:05Z</time>
      </trkpt>
      <trkpt lat="44.40665" lon="1.04724">
        <ele>224</ele>
        <time>2020-01-13T18:37:06Z</time>
      </trkpt>
      <trkpt lat="44.40661" lon="1.0473">
        <ele>224</ele>
        <time>2020-01-13T18:37:07Z</time>
      </trkpt>
      <trkpt lat="44.40657" lon="1.04737">
        <ele>224</ele>
        <time>2020-01-13T18:37:08Z</time>
      </trkpt>
      <trkpt lat="44.40655" lon="1.04745">
        <ele>223</ele>
        <time>2020-01-13T18:37:09Z</time>
      </trkpt>
      <trkpt lat="44.40655" lon="1.04753">
        <ele>223</ele>
        <time>2020-01-13T18:37:10Z</time>
      </trkpt>
      <trkpt lat="44.40655" lon="1.04761">
        <ele>223</ele>
        <time>2020-01-13T18:37:11Z</time>
      </trkpt>
      <trkpt lat="44.40659" lon="1.04786">
        <ele>224</ele>
        <time>2020-01-13T18:37:12Z</time>
      </trkpt>
      <trkpt lat="44.40663" lon="1.04801">
        <ele>224</ele>
        <time>2020-01-13T18:37:13Z</time>
      </trkpt>
      <trkpt lat="44.40664" lon="1.04808">
        <ele>224</ele>
        <time>2020-01-13T18:37:14Z</time>
      </trkpt>
      <trkpt lat="44.40667" lon="1.04817">
        <ele>224</ele>
        <time>2020-01-13T18:37:15Z</time>
      </trkpt>
      <trkpt lat="44.40668" lon="1.04824">
        <ele>224</ele>
        <time>2020-01-13T18:37:16Z</time>
      </trkpt>
      <trkpt lat="44.40672" lon="1.04846">
        <ele>225</ele>
        <time>2020-01-13T18:37:17Z</time>
      </trkpt>
      <trkpt lat="44.40673" lon="1.04853">
        <ele>225</ele>
        <time>2020-01-13T18:37:18Z</time>
      </trkpt>
      <trkpt lat="44.40675" lon="1.0486">
        <ele>225</ele>
        <time>2020-01-13T18:37:19Z</time>
      </trkpt>
      <trkpt lat="44.40676" lon="1.04868">
        <ele>226</ele>
        <time>2020-01-13T18:37:20Z</time>
      </trkpt>
      <trkpt lat="44.40678" lon="1.04875">
        <ele>226</ele>
        <time>2020-01-13T18:37:21Z</time>
      </trkpt>
      <trkpt lat="44.40681" lon="1.04889">
        <ele>227</ele>
        <time>2020-01-13T18:37:22Z</time>
      </trkpt>
      <trkpt lat="44.40683" lon="1.04895">
        <ele>227</ele>
        <time>2020-01-13T18:37:23Z</time>
      </trkpt>
      <trkpt lat="44.40685" lon="1.04906">
        <ele>228</ele>
        <time>2020-01-13T18:37:24Z</time>
      </trkpt>
      <trkpt lat="44.40686" lon="1.04911">
        <ele>228</ele>
        <time>2020-01-13T18:37:25Z</time>
      </trkpt>
      <trkpt lat="44.40688" lon="1.0492">
        <ele>229</ele>
        <time>2020-01-13T18:37:26Z</time>
      </trkpt>
      <trkpt lat="44.40691" lon="1.04923">
        <ele>229</ele>
        <time>2020-01-13T18:37:27Z</time>
      </trkpt>
      <trkpt lat="44.40693" lon="1.04926">
        <ele>229</ele>
        <time>2020-01-13T18:37:28Z</time>
      </trkpt>
      <trkpt lat="44.40696" lon="1.04928">
        <ele>229</ele>
        <time>2020-01-13T18:37:29Z</time>
      </trkpt>
      <trkpt lat="44.40702" lon="1.04931">
        <ele>230</ele>
        <time>2020-01-13T18:37:30Z</time>
      </trkpt>
      <trkpt lat="44.40705" lon="1.04932">
        <ele>230</ele>
        <time>2020-01-13T18:37:31Z</time>
      </trkpt>
      <trkpt lat="44.40712" lon="1.04936">
        <ele>230</ele>
        <time>2020-01-13T18:37:32Z</time>
      </trkpt>
      <trkpt lat="44.40715" lon="1.04938">
        <ele>230</ele>
        <time>2020-01-13T18:37:33Z</time>
      </trkpt>
      <trkpt lat="44.40721" lon="1.04945">
        <ele>231</ele>
        <time>2020-01-13T18:37:34Z</time>
      </trkpt>
      <trkpt lat="44.40723" lon="1.04948">
        <ele>231</ele>
        <time>2020-01-13T18:37:35Z</time>
      </trkpt>
      <trkpt lat="44.40727" lon="1.04957">
        <ele>231</ele>
        <time>2020-01-13T18:37:36Z</time>
      </trkpt>
      <trkpt lat="44.40736" lon="1.04983">
        <ele>232</ele>
        <time>2020-01-13T18:37:37Z</time>
      </trkpt>
      <trkpt lat="44.40737" lon="1.04987">
        <ele>232</ele>
        <time>2020-01-13T18:37:38Z</time>
      </trkpt>
      <trkpt lat="44.40739" lon="1.04995">
        <ele>233</ele>
        <time>2020-01-13T18:37:39Z</time>
      </trkpt>
      <trkpt lat="44.4074" lon="1.04998">
        <ele>233</ele>
        <time>2020-01-13T18:37:40Z</time>
      </trkpt>
      <trkpt lat="44.40741" lon="1.05002">
        <ele>233</ele>
        <time>2020-01-13T18:37:41Z</time>
      </trkpt>
      <trkpt lat="44.40742" lon="1.05006">
        <ele>232</ele>
        <time>2020-01-13T18:37:42Z</time>
      </trkpt>
      <trkpt lat="44.40742" lon="1.0501">
        <ele>232</ele>
        <time>2020-01-13T18:37:43Z</time>
      </trkpt>
      <trkpt lat="44.4074" lon="1.05022">
        <ele>232</ele>
        <time>2020-01-13T18:37:44Z</time>
      </trkpt>
      <trkpt lat="44.40739" lon="1.05026">
        <ele>232</ele>
        <time>2020-01-13T18:37:45Z</time>
      </trkpt>
      <trkpt lat="44.40737" lon="1.0503">
        <ele>233</ele>
        <time>2020-01-13T18:37:46Z</time>
      </trkpt>
      <trkpt lat="44.40736" lon="1.05034">
        <ele>233</ele>
        <time>2020-01-13T18:37:47Z</time>
      </trkpt>
      <trkpt lat="44.40735" lon="1.05038">
        <ele>233</ele>
        <time>2020-01-13T18:37:48Z</time>
      </trkpt>
      <trkpt lat="44.40731" lon="1.05047">
        <ele>233</ele>
        <time>2020-01-13T18:37:49Z</time>
      </trkpt>
      <trkpt lat="44.4073" lon="1.05049">
        <ele>233</ele>
        <time>2020-01-13T18:37:50Z</time>
      </trkpt>
      <trkpt lat="44.40725" lon="1.0506">
        <ele>234</ele>
        <time>2020-01-13T18:37:51Z</time>
      </trkpt>
      <trkpt lat="44.40722" lon="1.05068">
        <ele>234</ele>
        <time>2020-01-13T18:37:52Z</time>
      </trkpt>
      <trkpt lat="44.40719" lon="1.05075">
        <ele>234</ele>
        <time>2020-01-13T18:37:53Z</time>
      </trkpt>
      <trkpt lat="44.40717" lon="1.05082">
        <ele>235</ele>
        <time>2020-01-13T18:37:54Z</time>
      </trkpt>
      <trkpt lat="44.40715" lon="1.05086">
        <ele>235</ele>
        <time>2020-01-13T18:37:55Z</time>
      </trkpt>
      <trkpt lat="44.40714" lon="1.05089">
        <ele>235</ele>
        <time>2020-01-13T18:37:56Z</time>
      </trkpt>
      <trkpt lat="44.4071" lon="1.05102">
        <ele>235</ele>
        <time>2020-01-13T18:37:57Z</time>
      </trkpt>
      <trkpt lat="44.40702" lon="1.05134">
        <ele>233</ele>
        <time>2020-01-13T18:37:58Z</time>
      </trkpt>
      <trkpt lat="44.407" lon="1.05141">
        <ele>233</ele>
        <time>2020-01-13T18:37:59Z</time>
      </trkpt>
      <trkpt lat="44.40697" lon="1.05147">
        <ele>233</ele>
        <time>2020-01-13T18:38:00Z</time>
      </trkpt>
      <trkpt lat="44.40694" lon="1.05154">
        <ele>233</ele>
        <time>2020-01-13T18:38:01Z</time>
      </trkpt>
      <trkpt lat="44.4069" lon="1.05159">
        <ele>233</ele>
        <time>2020-01-13T18:38:02Z</time>
      </trkpt>
      <trkpt lat="44.40686" lon="1.05165">
        <ele>233</ele>
        <time>2020-01-13T18:38:03Z</time>
      </trkpt>
      <trkpt lat="44.40677" lon="1.05173">
        <ele>233</ele>
        <time>2020-01-13T18:38:04Z</time>
      </trkpt>
      <trkpt lat="44.40656" lon="1.05188">
        <ele>233</ele>
        <time>2020-01-13T18:38:05Z</time>
      </trkpt>
      <trkpt lat="44.40653" lon="1.05191">
        <ele>233</ele>
        <time>2020-01-13T18:38:06Z</time>
      </trkpt>
      <trkpt lat="44.40651" lon="1.05196">
        <ele>232</ele>
        <time>2020-01-13T18:38:07Z</time>
      </trkpt>
      <trkpt lat="44.40651" lon="1.05202">
        <ele>232</ele>
        <time>2020-01-13T18:38:08Z</time>
      </trkpt>
      <trkpt lat="44.40652" lon="1.0521">
        <ele>231</ele>
        <time>2020-01-13T18:38:09Z</time>
      </trkpt>
      <trkpt lat="44.40653" lon="1.05219">
        <ele>230</ele>
        <time>2020-01-13T18:38:10Z</time>
      </trkpt>
      <trkpt lat="44.40655" lon="1.05247">
        <ele>228</ele>
        <time>2020-01-13T18:38:11Z</time>
      </trkpt>
      <trkpt lat="44.40655" lon="1.05257">
        <ele>227</ele>
        <time>2020-01-13T18:38:12Z</time>
      </trkpt>
      <trkpt lat="44.40659" lon="1.05309">
        <ele>225</ele>
        <time>2020-01-13T18:38:13Z</time>
      </trkpt>
      <trkpt lat="44.4066" lon="1.05318">
        <ele>225</ele>
        <time>2020-01-13T18:38:14Z</time>
      </trkpt>
      <trkpt lat="44.40661" lon="1.05326">
        <ele>225</ele>
        <time>2020-01-13T18:38:15Z</time>
      </trkpt>
      <trkpt lat="44.40662" lon="1.05339">
        <ele>224</ele>
        <time>2020-01-13T18:38:16Z</time>
      </trkpt>
      <trkpt lat="44.40663" lon="1.05347">
        <ele>224</ele>
        <time>2020-01-13T18:38:17Z</time>
      </trkpt>
      <trkpt lat="44.40665" lon="1.0535">
        <ele>224</ele>
        <time>2020-01-13T18:38:18Z</time>
      </trkpt>
      <trkpt lat="44.4067" lon="1.05353">
        <ele>223</ele>
        <time>2020-01-13T18:38:19Z</time>
      </trkpt>
      <trkpt lat="44.40673" lon="1.05355">
        <ele>223</ele>
        <time>2020-01-13T18:38:20Z</time>
      </trkpt>
      <trkpt lat="44.40676" lon="1.05368">
        <ele>223</ele>
        <time>2020-01-13T18:38:21Z</time>
      </trkpt>
      <trkpt lat="44.40676" lon="1.05374">
        <ele>223</ele>
        <time>2020-01-13T18:38:22Z</time>
      </trkpt>
      <trkpt lat="44.40677" lon="1.05379">
        <ele>223</ele>
        <time>2020-01-13T18:38:23Z</time>
      </trkpt>
      <trkpt lat="44.40678" lon="1.05397">
        <ele>222</ele>
        <time>2020-01-13T18:38:24Z</time>
      </trkpt>
      <trkpt lat="44.40679" lon="1.05405">
        <ele>222</ele>
        <time>2020-01-13T18:38:25Z</time>
      </trkpt>
      <trkpt lat="44.4068" lon="1.0542">
        <ele>222</ele>
        <time>2020-01-13T18:38:26Z</time>
      </trkpt>
      <trkpt lat="44.40679" lon="1.05428">
        <ele>222</ele>
        <time>2020-01-13T18:38:27Z</time>
      </trkpt>
      <trkpt lat="44.40673" lon="1.05454">
        <ele>222</ele>
        <time>2020-01-13T18:38:28Z</time>
      </trkpt>
      <trkpt lat="44.40673" lon="1.05458">
        <ele>222</ele>
        <time>2020-01-13T18:38:29Z</time>
      </trkpt>
      <trkpt lat="44.40675" lon="1.05463">
        <ele>222</ele>
        <time>2020-01-13T18:38:30Z</time>
      </trkpt>
      <trkpt lat="44.40677" lon="1.05467">
        <ele>222</ele>
        <time>2020-01-13T18:38:31Z</time>
      </trkpt>
      <trkpt lat="44.4068" lon="1.0547">
        <ele>222</ele>
        <time>2020-01-13T18:38:32Z</time>
      </trkpt>
      <trkpt lat="44.40684" lon="1.05472">
        <ele>222</ele>
        <time>2020-01-13T18:38:33Z</time>
      </trkpt>
      <trkpt lat="44.40688" lon="1.05472">
        <ele>222</ele>
        <time>2020-01-13T18:38:34Z</time>
      </trkpt>
      <trkpt lat="44.40691" lon="1.05471">
        <ele>222</ele>
        <time>2020-01-13T18:38:35Z</time>
      </trkpt>
      <trkpt lat="44.40701" lon="1.05466">
        <ele>222</ele>
        <time>2020-01-13T18:38:36Z</time>
      </trkpt>
      <trkpt lat="44.40711" lon="1.05462">
        <ele>222</ele>
        <time>2020-01-13T18:38:37Z</time>
      </trkpt>
      <trkpt lat="44.40715" lon="1.05461">
        <ele>222</ele>
        <time>2020-01-13T18:38:38Z</time>
      </trkpt>
      <trkpt lat="44.40718" lon="1.0546">
        <ele>222</ele>
        <time>2020-01-13T18:38:39Z</time>
      </trkpt>
      <trkpt lat="44.4072" lon="1.05462">
        <ele>222</ele>
        <time>2020-01-13T18:38:40Z</time>
      </trkpt>
      <trkpt lat="44.40722" lon="1.05466">
        <ele>222</ele>
        <time>2020-01-13T18:38:41Z</time>
      </trkpt>
      <trkpt lat="44.40723" lon="1.05471">
        <ele>222</ele>
        <time>2020-01-13T18:38:42Z</time>
      </trkpt>
      <trkpt lat="44.40723" lon="1.05487">
        <ele>222</ele>
        <time>2020-01-13T18:38:43Z</time>
      </trkpt>
      <trkpt lat="44.40724" lon="1.05497">
        <ele>222</ele>
        <time>2020-01-13T18:38:44Z</time>
      </trkpt>
      <trkpt lat="44.40725" lon="1.05501">
        <ele>222</ele>
        <time>2020-01-13T18:38:45Z</time>
      </trkpt>
      <trkpt lat="44.40725" lon="1.05506">
        <ele>223</ele>
        <time>2020-01-13T18:38:46Z</time>
      </trkpt>
      <trkpt lat="44.40728" lon="1.05532">
        <ele>225</ele>
        <time>2020-01-13T18:38:47Z</time>
      </trkpt>
      <trkpt lat="44.40728" lon="1.05536">
        <ele>226</ele>
        <time>2020-01-13T18:38:48Z</time>
      </trkpt>
      <trkpt lat="44.40729" lon="1.05544">
        <ele>227</ele>
        <time>2020-01-13T18:38:49Z</time>
      </trkpt>
      <trkpt lat="44.4073" lon="1.05554">
        <ele>228</ele>
        <time>2020-01-13T18:38:50Z</time>
      </trkpt>
      <trkpt lat="44.4073" lon="1.05557">
        <ele>228</ele>
        <time>2020-01-13T18:38:51Z</time>
      </trkpt>
      <trkpt lat="44.4073" lon="1.05562">
        <ele>229</ele>
        <time>2020-01-13T18:38:52Z</time>
      </trkpt>
      <trkpt lat="44.4073" lon="1.05565">
        <ele>229</ele>
        <time>2020-01-13T18:38:53Z</time>
      </trkpt>
      <trkpt lat="44.4073" lon="1.05568">
        <ele>229</ele>
        <time>2020-01-13T18:38:54Z</time>
      </trkpt>
      <trkpt lat="44.40731" lon="1.0557">
        <ele>230</ele>
        <time>2020-01-13T18:38:55Z</time>
      </trkpt>
      <trkpt lat="44.40731" lon="1.05575">
        <ele>230</ele>
        <time>2020-01-13T18:38:56Z</time>
      </trkpt>
      <trkpt lat="44.40732" lon="1.05581">
        <ele>231</ele>
        <time>2020-01-13T18:38:57Z</time>
      </trkpt>
      <trkpt lat="44.40732" lon="1.05585">
        <ele>231</ele>
        <time>2020-01-13T18:38:58Z</time>
      </trkpt>
      <trkpt lat="44.40731" lon="1.05587">
        <ele>231</ele>
        <time>2020-01-13T18:38:59Z</time>
      </trkpt>
      <trkpt lat="44.40732" lon="1.05591">
        <ele>232</ele>
        <time>2020-01-13T18:39:00Z</time>
      </trkpt>
      <trkpt lat="44.40732" lon="1.05595">
        <ele>232</ele>
        <time>2020-01-13T18:39:01Z</time>
      </trkpt>
      <trkpt lat="44.40733" lon="1.05601">
        <ele>233</ele>
        <time>2020-01-13T18:39:02Z</time>
      </trkpt>
      <trkpt lat="44.40733" lon="1.05603">
        <ele>233</ele>
        <time>2020-01-13T18:39:03Z</time>
      </trkpt>
      <trkpt lat="44.40733" lon="1.05605">
        <ele>233</ele>
        <time>2020-01-13T18:39:04Z</time>
      </trkpt>
      <trkpt lat="44.40733" lon="1.05611">
        <ele>234</ele>
        <time>2020-01-13T18:39:05Z</time>
      </trkpt>
      <trkpt lat="44.40734" lon="1.05613">
        <ele>234</ele>
        <time>2020-01-13T18:39:06Z</time>
      </trkpt>
      <trkpt lat="44.40734" lon="1.0562">
        <ele>234</ele>
        <time>2020-01-13T18:39:07Z</time>
      </trkpt>
      <trkpt lat="44.40734" lon="1.05622">
        <ele>235</ele>
        <time>2020-01-13T18:39:08Z</time>
      </trkpt>
      <trkpt lat="44.40734" lon="1.05624">
        <ele>235</ele>
        <time>2020-01-13T18:39:09Z</time>
      </trkpt>
      <trkpt lat="44.40734" lon="1.05626">
        <ele>235</ele>
        <time>2020-01-13T18:39:10Z</time>
      </trkpt>
      <trkpt lat="44.40734" lon="1.05633">
        <ele>236</ele>
        <time>2020-01-13T18:39:11Z</time>
      </trkpt>
      <trkpt lat="44.40735" lon="1.05636">
        <ele>236</ele>
        <time>2020-01-13T18:39:12Z</time>
      </trkpt>
      <trkpt lat="44.40735" lon="1.0564">
        <ele>236</ele>
        <time>2020-01-13T18:39:13Z</time>
      </trkpt>
      <trkpt lat="44.40734" lon="1.05645">
        <ele>237</ele>
        <time>2020-01-13T18:39:14Z</time>
      </trkpt>
      <trkpt lat="44.40734" lon="1.05652">
        <ele>237</ele>
        <time>2020-01-13T18:39:15Z</time>
      </trkpt>
      <trkpt lat="44.40735" lon="1.05657">
        <ele>238</ele>
        <time>2020-01-13T18:39:16Z</time>
      </trkpt>
      <trkpt lat="44.40735" lon="1.05659">
        <ele>238</ele>
        <time>2020-01-13T18:39:17Z</time>
      </trkpt>
      <trkpt lat="44.40736" lon="1.05665">
        <ele>239</ele>
        <time>2020-01-13T18:39:18Z</time>
      </trkpt>
      <trkpt lat="44.40738" lon="1.05671">
        <ele>239</ele>
        <time>2020-01-13T18:39:19Z</time>
      </trkpt>
      <trkpt lat="44.40739" lon="1.05673">
        <ele>239</ele>
        <time>2020-01-13T18:39:20Z</time>
      </trkpt>
      <trkpt lat="44.40745" lon="1.05673">
        <ele>239</ele>
        <time>2020-01-13T18:39:21Z</time>
      </trkpt>
      <trkpt lat="44.40751" lon="1.05672">
        <ele>239</ele>
        <time>2020-01-13T18:39:22Z</time>
      </trkpt>
      <trkpt lat="44.40758" lon="1.05672">
        <ele>239</ele>
        <time>2020-01-13T18:39:23Z</time>
      </trkpt>
      <trkpt lat="44.40767" lon="1.05672">
        <ele>239</ele>
        <time>2020-01-13T18:39:24Z</time>
      </trkpt>
      <trkpt lat="44.4077" lon="1.05672">
        <ele>239</ele>
        <time>2020-01-13T18:39:25Z</time>
      </trkpt>
      <trkpt lat="44.40794" lon="1.05672">
        <ele>240</ele>
        <time>2020-01-13T18:39:26Z</time>
      </trkpt>
      <trkpt lat="44.40805" lon="1.0567">
        <ele>240</ele>
        <time>2020-01-13T18:39:27Z</time>
      </trkpt>
      <trkpt lat="44.40808" lon="1.0567">
        <ele>240</ele>
        <time>2020-01-13T18:39:28Z</time>
      </trkpt>
      <trkpt lat="44.40821" lon="1.05668">
        <ele>241</ele>
        <time>2020-01-13T18:39:29Z</time>
      </trkpt>
      <trkpt lat="44.40834" lon="1.05664">
        <ele>241</ele>
        <time>2020-01-13T18:39:30Z</time>
      </trkpt>
      <trkpt lat="44.40846" lon="1.05662">
        <ele>240</ele>
        <time>2020-01-13T18:39:31Z</time>
      </trkpt>
      <trkpt lat="44.40849" lon="1.05662">
        <ele>239</ele>
        <time>2020-01-13T18:39:32Z</time>
      </trkpt>
      <trkpt lat="44.40859" lon="1.0566">
        <ele>238</ele>
        <time>2020-01-13T18:39:33Z</time>
      </trkpt>
      <trkpt lat="44.4087" lon="1.05659">
        <ele>238</ele>
        <time>2020-01-13T18:39:34Z</time>
      </trkpt>
      <trkpt lat="44.40873" lon="1.05659">
        <ele>237</ele>
        <time>2020-01-13T18:39:35Z</time>
      </trkpt>
      <trkpt lat="44.40877" lon="1.05658">
        <ele>237</ele>
        <time>2020-01-13T18:39:36Z</time>
      </trkpt>
      <trkpt lat="44.4088" lon="1.05656">
        <ele>237</ele>
        <time>2020-01-13T18:39:37Z</time>
      </trkpt>
      <trkpt lat="44.40882" lon="1.05654">
        <ele>236</ele>
        <time>2020-01-13T18:39:38Z</time>
      </trkpt>
      <trkpt lat="44.40884" lon="1.0565">
        <ele>236</ele>
        <time>2020-01-13T18:39:39Z</time>
      </trkpt>
      <trkpt lat="44.40886" lon="1.05646">
        <ele>235</ele>
        <time>2020-01-13T18:39:40Z</time>
      </trkpt>
      <trkpt lat="44.40886" lon="1.0564">
        <ele>234</ele>
        <time>2020-01-13T18:39:41Z</time>
      </trkpt>
      <trkpt lat="44.40886" lon="1.05635">
        <ele>234</ele>
        <time>2020-01-13T18:39:42Z</time>
      </trkpt>
      <trkpt lat="44.40886" lon="1.0563">
        <ele>233</ele>
        <time>2020-01-13T18:39:43Z</time>
      </trkpt>
      <trkpt lat="44.40887" lon="1.05625">
        <ele>233</ele>
        <time>2020-01-13T18:39:44Z</time>
      </trkpt>
      <trkpt lat="44.40889" lon="1.05621">
        <ele>232</ele>
        <time>2020-01-13T18:39:45Z</time>
      </trkpt>
      <trkpt lat="44.40892" lon="1.05617">
        <ele>232</ele>
        <time>2020-01-13T18:39:46Z</time>
      </trkpt>
      <trkpt lat="44.40897" lon="1.05615">
        <ele>231</ele>
        <time>2020-01-13T18:39:47Z</time>
      </trkpt>
      <trkpt lat="44.40902" lon="1.05612">
        <ele>231</ele>
        <time>2020-01-13T18:39:48Z</time>
      </trkpt>
      <trkpt lat="44.40908" lon="1.05611">
        <ele>230</ele>
        <time>2020-01-13T18:39:49Z</time>
      </trkpt>
      <trkpt lat="44.40915" lon="1.05611">
        <ele>230</ele>
        <time>2020-01-13T18:39:50Z</time>
      </trkpt>
      <trkpt lat="44.40922" lon="1.05613">
        <ele>229</ele>
        <time>2020-01-13T18:39:51Z</time>
      </trkpt>
      <trkpt lat="44.40929" lon="1.05613">
        <ele>229</ele>
        <time>2020-01-13T18:39:52Z</time>
      </trkpt>
      <trkpt lat="44.40936" lon="1.05613">
        <ele>228</ele>
        <time>2020-01-13T18:39:53Z</time>
      </trkpt>
      <trkpt lat="44.40944" lon="1.05611">
        <ele>227</ele>
        <time>2020-01-13T18:39:54Z</time>
      </trkpt>
      <trkpt lat="44.4095" lon="1.05607">
        <ele>226</ele>
        <time>2020-01-13T18:39:55Z</time>
      </trkpt>
      <trkpt lat="44.40957" lon="1.05602">
        <ele>225</ele>
        <time>2020-01-13T18:39:56Z</time>
      </trkpt>
      <trkpt lat="44.40964" lon="1.05595">
        <ele>225</ele>
        <time>2020-01-13T18:39:57Z</time>
      </trkpt>
      <trkpt lat="44.40971" lon="1.05588">
        <ele>224</ele>
        <time>2020-01-13T18:39:58Z</time>
      </trkpt>
      <trkpt lat="44.4098" lon="1.05583">
        <ele>223</ele>
        <time>2020-01-13T18:39:59Z</time>
      </trkpt>
      <trkpt lat="44.40997" lon="1.05573">
        <ele>222</ele>
        <time>2020-01-13T18:40:00Z</time>
      </trkpt>
      <trkpt lat="44.41004" lon="1.05568">
        <ele>222</ele>
        <time>2020-01-13T18:40:01Z</time>
      </trkpt>
      <trkpt lat="44.41011" lon="1.05562">
        <ele>221</ele>
        <time>2020-01-13T18:40:02Z</time>
      </trkpt>
      <trkpt lat="44.41019" lon="1.05555">
        <ele>221</ele>
        <time>2020-01-13T18:40:03Z</time>
      </trkpt>
      <trkpt lat="44.41026" lon="1.05548">
        <ele>221</ele>
        <time>2020-01-13T18:40:04Z</time>
      </trkpt>
      <trkpt lat="44.41033" lon="1.05542">
        <ele>221</ele>
        <time>2020-01-13T18:40:05Z</time>
      </trkpt>
      <trkpt lat="44.4104" lon="1.05536">
        <ele>221</ele>
        <time>2020-01-13T18:40:06Z</time>
      </trkpt>
      <trkpt lat="44.41048" lon="1.05531">
        <ele>221</ele>
        <time>2020-01-13T18:40:07Z</time>
      </trkpt>
      <trkpt lat="44.41065" lon="1.05521">
        <ele>220</ele>
        <time>2020-01-13T18:40:08Z</time>
      </trkpt>
      <trkpt lat="44.41081" lon="1.05512">
        <ele>220</ele>
        <time>2020-01-13T18:40:09Z</time>
      </trkpt>
      <trkpt lat="44.41096" lon="1.05504">
        <ele>221</ele>
        <time>2020-01-13T18:40:10Z</time>
      </trkpt>
      <trkpt lat="44.41111" lon="1.05496">
        <ele>221</ele>
        <time>2020-01-13T18:40:11Z</time>
      </trkpt>
      <trkpt lat="44.41119" lon="1.05493">
        <ele>221</ele>
        <time>2020-01-13T18:40:12Z</time>
      </trkpt>
      <trkpt lat="44.41127" lon="1.0549">
        <ele>221</ele>
        <time>2020-01-13T18:40:13Z</time>
      </trkpt>
      <trkpt lat="44.41134" lon="1.05488">
        <ele>221</ele>
        <time>2020-01-13T18:40:14Z</time>
      </trkpt>
      <trkpt lat="44.41141" lon="1.05486">
        <ele>221</ele>
        <time>2020-01-13T18:40:15Z</time>
      </trkpt>
      <trkpt lat="44.41148" lon="1.05484">
        <ele>221</ele>
        <time>2020-01-13T18:40:16Z</time>
      </trkpt>
      <trkpt lat="44.41156" lon="1.05482">
        <ele>220</ele>
        <time>2020-01-13T18:40:17Z</time>
      </trkpt>
      <trkpt lat="44.41171" lon="1.0548">
        <ele>220</ele>
        <time>2020-01-13T18:40:18Z</time>
      </trkpt>
      <trkpt lat="44.41193" lon="1.05475">
        <ele>220</ele>
        <time>2020-01-13T18:40:19Z</time>
      </trkpt>
      <trkpt lat="44.41222" lon="1.05467">
        <ele>220</ele>
        <time>2020-01-13T18:40:20Z</time>
      </trkpt>
      <trkpt lat="44.41225" lon="1.05466">
        <ele>219</ele>
        <time>2020-01-13T18:40:21Z</time>
      </trkpt>
      <trkpt lat="44.41228" lon="1.05463">
        <ele>220</ele>
        <time>2020-01-13T18:40:22Z</time>
      </trkpt>
      <trkpt lat="44.41229" lon="1.05459">
        <ele>220</ele>
        <time>2020-01-13T18:40:23Z</time>
      </trkpt>
      <trkpt lat="44.41229" lon="1.05455">
        <ele>220</ele>
        <time>2020-01-13T18:40:24Z</time>
      </trkpt>
      <trkpt lat="44.41228" lon="1.05451">
        <ele>220</ele>
        <time>2020-01-13T18:40:25Z</time>
      </trkpt>
      <trkpt lat="44.41224" lon="1.05438">
        <ele>221</ele>
        <time>2020-01-13T18:40:26Z</time>
      </trkpt>
      <trkpt lat="44.41219" lon="1.0543">
        <ele>222</ele>
        <time>2020-01-13T18:40:27Z</time>
      </trkpt>
      <trkpt lat="44.41214" lon="1.05423">
        <ele>222</ele>
        <time>2020-01-13T18:40:28Z</time>
      </trkpt>
      <trkpt lat="44.41211" lon="1.05419">
        <ele>223</ele>
        <time>2020-01-13T18:40:29Z</time>
      </trkpt>
      <trkpt lat="44.41204" lon="1.05414">
        <ele>223</ele>
        <time>2020-01-13T18:40:30Z</time>
      </trkpt>
      <trkpt lat="44.412" lon="1.05411">
        <ele>223</ele>
        <time>2020-01-13T18:40:31Z</time>
      </trkpt>
      <trkpt lat="44.41196" lon="1.05408">
        <ele>224</ele>
        <time>2020-01-13T18:40:32Z</time>
      </trkpt>
      <trkpt lat="44.41185" lon="1.05401">
        <ele>224</ele>
        <time>2020-01-13T18:40:33Z</time>
      </trkpt>
      <trkpt lat="44.41174" lon="1.05395">
        <ele>225</ele>
        <time>2020-01-13T18:40:34Z</time>
      </trkpt>
      <trkpt lat="44.41157" lon="1.05385">
        <ele>225</ele>
        <time>2020-01-13T18:40:35Z</time>
      </trkpt>
      <trkpt lat="44.4115" lon="1.0538">
        <ele>225</ele>
        <time>2020-01-13T18:40:36Z</time>
      </trkpt>
      <trkpt lat="44.41143" lon="1.05376">
        <ele>225</ele>
        <time>2020-01-13T18:40:37Z</time>
      </trkpt>
      <trkpt lat="44.41138" lon="1.05374">
        <ele>225</ele>
        <time>2020-01-13T18:40:38Z</time>
      </trkpt>
      <trkpt lat="44.41124" lon="1.05364">
        <ele>225</ele>
        <time>2020-01-13T18:40:39Z</time>
      </trkpt>
      <trkpt lat="44.41111" lon="1.05357">
        <ele>225</ele>
        <time>2020-01-13T18:40:40Z</time>
      </trkpt>
      <trkpt lat="44.41106" lon="1.05353">
        <ele>224</ele>
        <time>2020-01-13T18:40:41Z</time>
      </trkpt>
      <trkpt lat="44.41102" lon="1.0535">
        <ele>224</ele>
        <time>2020-01-13T18:40:42Z</time>
      </trkpt>
      <trkpt lat="44.41098" lon="1.05345">
        <ele>224</ele>
        <time>2020-01-13T18:40:43Z</time>
      </trkpt>
      <trkpt lat="44.41096" lon="1.05339">
        <ele>224</ele>
        <time>2020-01-13T18:40:44Z</time>
      </trkpt>
      <trkpt lat="44.41094" lon="1.05332">
        <ele>224</ele>
        <time>2020-01-13T18:40:45Z</time>
      </trkpt>
      <trkpt lat="44.41093" lon="1.05309">
        <ele>224</ele>
        <time>2020-01-13T18:40:46Z</time>
      </trkpt>
      <trkpt lat="44.41093" lon="1.05301">
        <ele>224</ele>
        <time>2020-01-13T18:40:47Z</time>
      </trkpt>
      <trkpt lat="44.41093" lon="1.05287">
        <ele>225</ele>
        <time>2020-01-13T18:40:48Z</time>
      </trkpt>
      <trkpt lat="44.41092" lon="1.05268">
        <ele>225</ele>
        <time>2020-01-13T18:40:49Z</time>
      </trkpt>
      <trkpt lat="44.41092" lon="1.05261">
        <ele>225</ele>
        <time>2020-01-13T18:40:50Z</time>
      </trkpt>
      <trkpt lat="44.41091" lon="1.05254">
        <ele>225</ele>
        <time>2020-01-13T18:40:51Z</time>
      </trkpt>
      <trkpt lat="44.41091" lon="1.05247">
        <ele>225</ele>
        <time>2020-01-13T18:40:52Z</time>
      </trkpt>
      <trkpt lat="44.4109" lon="1.05233">
        <ele>225</ele>
        <time>2020-01-13T18:40:53Z</time>
      </trkpt>
      <trkpt lat="44.41089" lon="1.05219">
        <ele>226</ele>
        <time>2020-01-13T18:40:54Z</time>
      </trkpt>
      <trkpt lat="44.41087" lon="1.05212">
        <ele>226</ele>
        <time>2020-01-13T18:40:55Z</time>
      </trkpt>
      <trkpt lat="44.41082" lon="1.05193">
        <ele>226</ele>
        <time>2020-01-13T18:40:56Z</time>
      </trkpt>
      <trkpt lat="44.41079" lon="1.05187">
        <ele>226</ele>
        <time>2020-01-13T18:40:57Z</time>
      </trkpt>
      <trkpt lat="44.41077" lon="1.05181">
        <ele>226</ele>
        <time>2020-01-13T18:40:58Z</time>
      </trkpt>
      <trkpt lat="44.41071" lon="1.05164">
        <ele>226</ele>
        <time>2020-01-13T18:40:59Z</time>
      </trkpt>
      <trkpt lat="44.41069" lon="1.05158">
        <ele>226</ele>
        <time>2020-01-13T18:41:00Z</time>
      </trkpt>
      <trkpt lat="44.41068" lon="1.05152">
        <ele>226</ele>
        <time>2020-01-13T18:41:01Z</time>
      </trkpt>
      <trkpt lat="44.41069" lon="1.05147">
        <ele>226</ele>
        <time>2020-01-13T18:41:02Z</time>
      </trkpt>
      <trkpt lat="44.41071" lon="1.0514">
        <ele>226</ele>
        <time>2020-01-13T18:41:03Z</time>
      </trkpt>
      <trkpt lat="44.41074" lon="1.05135">
        <ele>226</ele>
        <time>2020-01-13T18:41:04Z</time>
      </trkpt>
      <trkpt lat="44.41081" lon="1.05118">
        <ele>227</ele>
        <time>2020-01-13T18:41:05Z</time>
      </trkpt>
      <trkpt lat="44.41082" lon="1.05113">
        <ele>228</ele>
        <time>2020-01-13T18:41:06Z</time>
      </trkpt>
      <trkpt lat="44.41088" lon="1.05095">
        <ele>228</ele>
        <time>2020-01-13T18:41:07Z</time>
      </trkpt>
      <trkpt lat="44.4109" lon="1.05088">
        <ele>227</ele>
        <time>2020-01-13T18:41:08Z</time>
      </trkpt>
      <trkpt lat="44.41093" lon="1.05081">
        <ele>227</ele>
        <time>2020-01-13T18:41:09Z</time>
      </trkpt>
      <trkpt lat="44.41095" lon="1.05073">
        <ele>226</ele>
        <time>2020-01-13T18:41:10Z</time>
      </trkpt>
      <trkpt lat="44.41098" lon="1.05066">
        <ele>226</ele>
        <time>2020-01-13T18:41:11Z</time>
      </trkpt>
      <trkpt lat="44.41103" lon="1.05052">
        <ele>225</ele>
        <time>2020-01-13T18:41:12Z</time>
      </trkpt>
      <trkpt lat="44.41106" lon="1.05044">
        <ele>224</ele>
        <time>2020-01-13T18:41:13Z</time>
      </trkpt>
      <trkpt lat="44.4111" lon="1.05038">
        <ele>223</ele>
        <time>2020-01-13T18:41:14Z</time>
      </trkpt>
      <trkpt lat="44.41114" lon="1.05031">
        <ele>223</ele>
        <time>2020-01-13T18:41:15Z</time>
      </trkpt>
      <trkpt lat="44.41126" lon="1.05014">
        <ele>222</ele>
        <time>2020-01-13T18:41:16Z</time>
      </trkpt>
      <trkpt lat="44.4114" lon="1.04997">
        <ele>221</ele>
        <time>2020-01-13T18:41:17Z</time>
      </trkpt>
      <trkpt lat="44.41154" lon="1.04981">
        <ele>221</ele>
        <time>2020-01-13T18:41:18Z</time>
      </trkpt>
      <trkpt lat="44.41159" lon="1.04976">
        <ele>220</ele>
        <time>2020-01-13T18:41:19Z</time>
      </trkpt>
      <trkpt lat="44.41164" lon="1.04969">
        <ele>220</ele>
        <time>2020-01-13T18:41:20Z</time>
      </trkpt>
      <trkpt lat="44.41169" lon="1.04962">
        <ele>219</ele>
        <time>2020-01-13T18:41:21Z</time>
      </trkpt>
      <trkpt lat="44.4118" lon="1.04947">
        <ele>217</ele>
        <time>2020-01-13T18:41:22Z</time>
      </trkpt>
      <trkpt lat="44.41191" lon="1.04931">
        <ele>216</ele>
        <time>2020-01-13T18:41:23Z</time>
      </trkpt>
      <trkpt lat="44.41203" lon="1.04915">
        <ele>215</ele>
        <time>2020-01-13T18:41:24Z</time>
      </trkpt>
      <trkpt lat="44.4122" lon="1.04892">
        <ele>214</ele>
        <time>2020-01-13T18:41:25Z</time>
      </trkpt>
      <trkpt lat="44.41231" lon="1.04876">
        <ele>214</ele>
        <time>2020-01-13T18:41:26Z</time>
      </trkpt>
      <trkpt lat="44.41236" lon="1.04868">
        <ele>214</ele>
        <time>2020-01-13T18:41:27Z</time>
      </trkpt>
      <trkpt lat="44.41241" lon="1.04861">
        <ele>214</ele>
        <time>2020-01-13T18:41:28Z</time>
      </trkpt>
      <trkpt lat="44.41251" lon="1.04846">
        <ele>214</ele>
        <time>2020-01-13T18:41:29Z</time>
      </trkpt>
      <trkpt lat="44.4126" lon="1.04833">
        <ele>214</ele>
        <time>2020-01-13T18:41:30Z</time>
      </trkpt>
      <trkpt lat="44.4127" lon="1.04823">
        <ele>213</ele>
        <time>2020-01-13T18:41:31Z</time>
      </trkpt>
      <trkpt lat="44.4128" lon="1.04814">
        <ele>213</ele>
        <time>2020-01-13T18:41:32Z</time>
      </trkpt>
      <trkpt lat="44.41285" lon="1.04811">
        <ele>212</ele>
        <time>2020-01-13T18:41:33Z</time>
      </trkpt>
      <trkpt lat="44.41295" lon="1.04806">
        <ele>212</ele>
        <time>2020-01-13T18:41:34Z</time>
      </trkpt>
      <trkpt lat="44.41307" lon="1.04798">
        <ele>211</ele>
        <time>2020-01-13T18:41:35Z</time>
      </trkpt>
      <trkpt lat="44.41312" lon="1.04795">
        <ele>211</ele>
        <time>2020-01-13T18:41:36Z</time>
      </trkpt>
      <trkpt lat="44.41333" lon="1.04787">
        <ele>211</ele>
        <time>2020-01-13T18:41:37Z</time>
      </trkpt>
      <trkpt lat="44.41341" lon="1.04785">
        <ele>210</ele>
        <time>2020-01-13T18:41:38Z</time>
      </trkpt>
      <trkpt lat="44.4135" lon="1.04783">
        <ele>209</ele>
        <time>2020-01-13T18:41:39Z</time>
      </trkpt>
      <trkpt lat="44.41375" lon="1.0478">
        <ele>206</ele>
        <time>2020-01-13T18:41:40Z</time>
      </trkpt>
      <trkpt lat="44.41393" lon="1.04779">
        <ele>205</ele>
        <time>2020-01-13T18:41:41Z</time>
      </trkpt>
      <trkpt lat="44.4141" lon="1.04777">
        <ele>203</ele>
        <time>2020-01-13T18:41:42Z</time>
      </trkpt>
      <trkpt lat="44.41419" lon="1.04775">
        <ele>202</ele>
        <time>2020-01-13T18:41:43Z</time>
      </trkpt>
      <trkpt lat="44.41434" lon="1.0477">
        <ele>202</ele>
        <time>2020-01-13T18:41:44Z</time>
      </trkpt>
      <trkpt lat="44.41442" lon="1.04769">
        <ele>202</ele>
        <time>2020-01-13T18:41:45Z</time>
      </trkpt>
      <trkpt lat="44.41449" lon="1.04767">
        <ele>202</ele>
        <time>2020-01-13T18:41:46Z</time>
      </trkpt>
      <trkpt lat="44.41459" lon="1.04764">
        <ele>201</ele>
        <time>2020-01-13T18:41:47Z</time>
      </trkpt>
      <trkpt lat="44.41462" lon="1.04762">
        <ele>201</ele>
        <time>2020-01-13T18:41:48Z</time>
      </trkpt>
      <trkpt lat="44.41465" lon="1.0476">
        <ele>201</ele>
        <time>2020-01-13T18:41:49Z</time>
      </trkpt>
      <trkpt lat="44.41467" lon="1.04756">
        <ele>201</ele>
        <time>2020-01-13T18:41:50Z</time>
      </trkpt>
      <trkpt lat="44.41468" lon="1.04753">
        <ele>201</ele>
        <time>2020-01-13T18:41:51Z</time>
      </trkpt>
      <trkpt lat="44.41468" lon="1.04749">
        <ele>201</ele>
        <time>2020-01-13T18:41:52Z</time>
      </trkpt>
      <trkpt lat="44.41467" lon="1.04739">
        <ele>201</ele>
        <time>2020-01-13T18:41:53Z</time>
      </trkpt>
      <trkpt lat="44.41464" lon="1.04733">
        <ele>202</ele>
        <time>2020-01-13T18:41:54Z</time>
      </trkpt>
      <trkpt lat="44.4146" lon="1.04726">
        <ele>202</ele>
        <time>2020-01-13T18:41:55Z</time>
      </trkpt>
      <trkpt lat="44.41456" lon="1.04722">
        <ele>203</ele>
        <time>2020-01-13T18:41:56Z</time>
      </trkpt>
      <trkpt lat="44.41452" lon="1.04718">
        <ele>203</ele>
        <time>2020-01-13T18:41:57Z</time>
      </trkpt>
      <trkpt lat="44.4144" lon="1.04713">
        <ele>203</ele>
        <time>2020-01-13T18:41:58Z</time>
      </trkpt>
      <trkpt lat="44.41435" lon="1.04713">
        <ele>203</ele>
        <time>2020-01-13T18:41:59Z</time>
      </trkpt>
      <trkpt lat="44.41429" lon="1.04713">
        <ele>203</ele>
        <time>2020-01-13T18:42:00Z</time>
      </trkpt>
      <trkpt lat="44.41425" lon="1.04709">
        <ele>203</ele>
        <time>2020-01-13T18:42:01Z</time>
      </trkpt>
      <trkpt lat="44.41425" lon="1.04708">
        <ele>203</ele>
        <time>2020-01-13T18:42:02Z</time>
      </trkpt>
      <trkpt lat="44.41429" lon="1.04705">
        <ele>204</ele>
        <time>2020-01-13T18:42:03Z</time>
      </trkpt>
      <trkpt lat="44.4143" lon="1.04704">
        <ele>204</ele>
        <time>2020-01-13T18:42:04Z</time>
      </trkpt>
      <trkpt lat="44.41433" lon="1.04702">
        <ele>204</ele>
        <time>2020-01-13T18:42:05Z</time>
      </trkpt>
      <trkpt lat="44.41438" lon="1.04699">
        <ele>204</ele>
        <time>2020-01-13T18:42:06Z</time>
      </trkpt>
      <trkpt lat="44.41443" lon="1.04695">
        <ele>204</ele>
        <time>2020-01-13T18:42:07Z</time>
      </trkpt>
      <trkpt lat="44.41444" lon="1.04694">
        <ele>204</ele>
        <time>2020-01-13T18:42:08Z</time>
      </trkpt>
      <trkpt lat="44.41448" lon="1.04693">
        <ele>204</ele>
        <time>2020-01-13T18:42:09Z</time>
      </trkpt>
      <trkpt lat="44.41452" lon="1.04691">
        <ele>204</ele>
        <time>2020-01-13T18:42:10Z</time>
      </trkpt>
      <trkpt lat="44.41454" lon="1.04691">
        <ele>204</ele>
        <time>2020-01-13T18:42:11Z</time>
      </trkpt>
      <trkpt lat="44.41462" lon="1.04687">
        <ele>204</ele>
        <time>2020-01-13T18:42:12Z</time>
      </trkpt>
      <trkpt lat="44.41465" lon="1.04685">
        <ele>205</ele>
        <time>2020-01-13T18:42:13Z</time>
      </trkpt>
      <trkpt lat="44.41466" lon="1.04684">
        <ele>205</ele>
        <time>2020-01-13T18:42:14Z</time>
      </trkpt>
      <trkpt lat="44.41471" lon="1.04681">
        <ele>205</ele>
        <time>2020-01-13T18:42:15Z</time>
      </trkpt>
      <trkpt lat="44.41478" lon="1.04675">
        <ele>205</ele>
        <time>2020-01-13T18:42:16Z</time>
      </trkpt>
      <trkpt lat="44.4148" lon="1.04675">
        <ele>205</ele>
        <time>2020-01-13T18:42:17Z</time>
      </trkpt>
      <trkpt lat="44.41484" lon="1.04673">
        <ele>205</ele>
        <time>2020-01-13T18:42:18Z</time>
      </trkpt>
      <trkpt lat="44.41485" lon="1.04672">
        <ele>205</ele>
        <time>2020-01-13T18:42:19Z</time>
      </trkpt>
      <trkpt lat="44.41494" lon="1.04666">
        <ele>206</ele>
        <time>2020-01-13T18:42:20Z</time>
      </trkpt>
      <trkpt lat="44.415" lon="1.04664">
        <ele>206</ele>
        <time>2020-01-13T18:42:21Z</time>
      </trkpt>
      <trkpt lat="44.41506" lon="1.04661">
        <ele>206</ele>
        <time>2020-01-13T18:42:22Z</time>
      </trkpt>
      <trkpt lat="44.41517" lon="1.04659">
        <ele>207</ele>
        <time>2020-01-13T18:42:23Z</time>
      </trkpt>
      <trkpt lat="44.41524" lon="1.04658">
        <ele>207</ele>
        <time>2020-01-13T18:42:24Z</time>
      </trkpt>
      <trkpt lat="44.41528" lon="1.04657">
        <ele>207</ele>
        <time>2020-01-13T18:42:25Z</time>
      </trkpt>
      <trkpt lat="44.41536" lon="1.04657">
        <ele>208</ele>
        <time>2020-01-13T18:42:26Z</time>
      </trkpt>
      <trkpt lat="44.4154" lon="1.04656">
        <ele>208</ele>
        <time>2020-01-13T18:42:27Z</time>
      </trkpt>
      <trkpt lat="44.41548" lon="1.04656">
        <ele>208</ele>
        <time>2020-01-13T18:42:28Z</time>
      </trkpt>
      <trkpt lat="44.41559" lon="1.04654">
        <ele>209</ele>
        <time>2020-01-13T18:42:29Z</time>
      </trkpt>
      <trkpt lat="44.41572" lon="1.04651">
        <ele>209</ele>
        <time>2020-01-13T18:42:30Z</time>
      </trkpt>
      <trkpt lat="44.41581" lon="1.04649">
        <ele>210</ele>
        <time>2020-01-13T18:42:31Z</time>
      </trkpt>
      <trkpt lat="44.41589" lon="1.04646">
        <ele>211</ele>
        <time>2020-01-13T18:42:32Z</time>
      </trkpt>
      <trkpt lat="44.41597" lon="1.04643">
        <ele>211</ele>
        <time>2020-01-13T18:42:33Z</time>
      </trkpt>
      <trkpt lat="44.41611" lon="1.04641">
        <ele>213</ele>
        <time>2020-01-13T18:42:34Z</time>
      </trkpt>
      <trkpt lat="44.41618" lon="1.04639">
        <ele>213</ele>
        <time>2020-01-13T18:42:35Z</time>
      </trkpt>
      <trkpt lat="44.41622" lon="1.04637">
        <ele>214</ele>
        <time>2020-01-13T18:42:36Z</time>
      </trkpt>
      <trkpt lat="44.41634" lon="1.04635">
        <ele>215</ele>
        <time>2020-01-13T18:42:37Z</time>
      </trkpt>
      <trkpt lat="44.41647" lon="1.04632">
        <ele>216</ele>
        <time>2020-01-13T18:42:38Z</time>
      </trkpt>
      <trkpt lat="44.41652" lon="1.04632">
        <ele>216</ele>
        <time>2020-01-13T18:42:39Z</time>
      </trkpt>
      <trkpt lat="44.41653" lon="1.04632">
        <ele>216</ele>
        <time>2020-01-13T18:42:40Z</time>
      </trkpt>
      <trkpt lat="44.4166" lon="1.04629">
        <ele>217</ele>
        <time>2020-01-13T18:42:41Z</time>
      </trkpt>
      <trkpt lat="44.41668" lon="1.04628">
        <ele>218</ele>
        <time>2020-01-13T18:42:42Z</time>
      </trkpt>
      <trkpt lat="44.41676" lon="1.04628">
        <ele>219</ele>
        <time>2020-01-13T18:42:43Z</time>
      </trkpt>
      <trkpt lat="44.41689" lon="1.04626">
        <ele>221</ele>
        <time>2020-01-13T18:42:44Z</time>
      </trkpt>
      <trkpt lat="44.4169" lon="1.04627">
        <ele>222</ele>
        <time>2020-01-13T18:42:45Z</time>
      </trkpt>
      <trkpt lat="44.41694" lon="1.04626">
        <ele>222</ele>
        <time>2020-01-13T18:42:46Z</time>
      </trkpt>
      <trkpt lat="44.41702" lon="1.04623">
        <ele>224</ele>
        <time>2020-01-13T18:42:47Z</time>
      </trkpt>
      <trkpt lat="44.41705" lon="1.04623">
        <ele>224</ele>
        <time>2020-01-13T18:42:48Z</time>
      </trkpt>
      <trkpt lat="44.41709" lon="1.04622">
        <ele>225</ele>
        <time>2020-01-13T18:42:49Z</time>
      </trkpt>
      <trkpt lat="44.4171" lon="1.04622">
        <ele>225</ele>
        <time>2020-01-13T18:42:50Z</time>
      </trkpt>
      <trkpt lat="44.41717" lon="1.04621">
        <ele>226</ele>
        <time>2020-01-13T18:42:51Z</time>
      </trkpt>
      <trkpt lat="44.4172" lon="1.04621">
        <ele>227</ele>
        <time>2020-01-13T18:42:52Z</time>
      </trkpt>
      <trkpt lat="44.41724" lon="1.0462">
        <ele>228</ele>
        <time>2020-01-13T18:42:53Z</time>
      </trkpt>
      <trkpt lat="44.41729" lon="1.04619">
        <ele>228</ele>
        <time>2020-01-13T18:42:54Z</time>
      </trkpt>
      <trkpt lat="44.41735" lon="1.04619">
        <ele>229</ele>
        <time>2020-01-13T18:42:55Z</time>
      </trkpt>
      <trkpt lat="44.41742" lon="1.04617">
        <ele>231</ele>
        <time>2020-01-13T18:42:56Z</time>
      </trkpt>
      <trkpt lat="44.41748" lon="1.04618">
        <ele>232</ele>
        <time>2020-01-13T18:42:57Z</time>
      </trkpt>
      <trkpt lat="44.41754" lon="1.04618">
        <ele>233</ele>
        <time>2020-01-13T18:42:58Z</time>
      </trkpt>
      <trkpt lat="44.4177" lon="1.04613">
        <ele>234</ele>
        <time>2020-01-13T18:42:59Z</time>
      </trkpt>
      <trkpt lat="44.41774" lon="1.04613">
        <ele>235</ele>
        <time>2020-01-13T18:43:00Z</time>
      </trkpt>
      <trkpt lat="44.41776" lon="1.04613">
        <ele>235</ele>
        <time>2020-01-13T18:43:01Z</time>
      </trkpt>
      <trkpt lat="44.41778" lon="1.04613">
        <ele>235</ele>
        <time>2020-01-13T18:43:02Z</time>
      </trkpt>
      <trkpt lat="44.4178" lon="1.04613">
        <ele>235</ele>
        <time>2020-01-13T18:43:03Z</time>
      </trkpt>
      <trkpt lat="44.41791" lon="1.04612">
        <ele>236</ele>
        <time>2020-01-13T18:43:04Z</time>
      </trkpt>
      <trkpt lat="44.41793" lon="1.04611">
        <ele>237</ele>
        <time>2020-01-13T18:43:05Z</time>
      </trkpt>
      <trkpt lat="44.418" lon="1.04611">
        <ele>237</ele>
        <time>2020-01-13T18:43:06Z</time>
      </trkpt>
      <trkpt lat="44.41803" lon="1.04611">
        <ele>238</ele>
        <time>2020-01-13T18:43:07Z</time>
      </trkpt>
      <trkpt lat="44.41806" lon="1.04611">
        <ele>238</ele>
        <time>2020-01-13T18:43:08Z</time>
      </trkpt>
      <trkpt lat="44.41808" lon="1.0461">
        <ele>238</ele>
        <time>2020-01-13T18:43:09Z</time>
      </trkpt>
      <trkpt lat="44.41814" lon="1.0461">
        <ele>239</ele>
        <time>2020-01-13T18:43:10Z</time>
      </trkpt>
      <trkpt lat="44.41815" lon="1.0461">
        <ele>239</ele>
        <time>2020-01-13T18:43:11Z</time>
      </trkpt>
      <trkpt lat="44.4182" lon="1.04608">
        <ele>239</ele>
        <time>2020-01-13T18:43:12Z</time>
      </trkpt>
      <trkpt lat="44.41822" lon="1.0461">
        <ele>240</ele>
        <time>2020-01-13T18:43:13Z</time>
      </trkpt>
      <trkpt lat="44.41824" lon="1.04613">
        <ele>240</ele>
        <time>2020-01-13T18:43:14Z</time>
      </trkpt>
      <trkpt lat="44.41821" lon="1.04615">
        <ele>239</ele>
        <time>2020-01-13T18:43:15Z</time>
      </trkpt>
      <trkpt lat="44.41819" lon="1.04616">
        <ele>239</ele>
        <time>2020-01-13T18:43:16Z</time>
      </trkpt>
      <trkpt lat="44.41818" lon="1.04612">
        <ele>239</ele>
        <time>2020-01-13T18:43:17Z</time>
      </trkpt>
      <trkpt lat="44.41817" lon="1.04612">
        <ele>239</ele>
        <time>2020-01-13T18:43:18Z</time>
      </trkpt>
      <trkpt lat="44.41816" lon="1.0461">
        <ele>239</ele>
        <time>2020-01-13T18:43:19Z</time>
      </trkpt>
      <trkpt lat="44.41817" lon="1.04609">
        <ele>239</ele>
        <time>2020-01-13T18:43:20Z</time>
      </trkpt>
      <trkpt lat="44.41819" lon="1.04608">
        <ele>239</ele>
        <time>2020-01-13T18:43:21Z</time>
      </trkpt>
      <trkpt lat="44.4182" lon="1.04607">
        <ele>239</ele>
        <time>2020-01-13T18:43:22Z</time>
      </trkpt>
      <trkpt lat="44.41821" lon="1.04608">
        <ele>239</ele>
        <time>2020-01-13T18:43:23Z</time>
      </trkpt>
      <trkpt lat="44.41827" lon="1.04606">
        <ele>240</ele>
        <time>2020-01-13T18:43:24Z</time>
      </trkpt>
      <trkpt lat="44.4183" lon="1.04605">
        <ele>240</ele>
        <time>2020-01-13T18:43:25Z</time>
      </trkpt>
      <trkpt lat="44.41835" lon="1.04604">
        <ele>241</ele>
        <time>2020-01-13T18:43:26Z</time>
      </trkpt>
      <trkpt lat="44.41842" lon="1.04604">
        <ele>241</ele>
        <time>2020-01-13T18:43:27Z</time>
      </trkpt>
      <trkpt lat="44.41845" lon="1.04603">
        <ele>241</ele>
        <time>2020-01-13T18:43:28Z</time>
      </trkpt>
      <trkpt lat="44.41862" lon="1.04602">
        <ele>241</ele>
        <time>2020-01-13T18:43:29Z</time>
      </trkpt>
      <trkpt lat="44.41869" lon="1.04601">
        <ele>241</ele>
        <time>2020-01-13T18:43:30Z</time>
      </trkpt>
      <trkpt lat="44.41883" lon="1.04601">
        <ele>242</ele>
        <time>2020-01-13T18:43:31Z</time>
      </trkpt>
      <trkpt lat="44.4189" lon="1.04601">
        <ele>242</ele>
        <time>2020-01-13T18:43:32Z</time>
      </trkpt>
      <trkpt lat="44.41902" lon="1.04602">
        <ele>242</ele>
        <time>2020-01-13T18:43:33Z</time>
      </trkpt>
      <trkpt lat="44.41906" lon="1.04602">
        <ele>242</ele>
        <time>2020-01-13T18:43:34Z</time>
      </trkpt>
      <trkpt lat="44.41931" lon="1.04602">
        <ele>242</ele>
        <time>2020-01-13T18:43:35Z</time>
      </trkpt>
      <trkpt lat="44.4194" lon="1.04603">
        <ele>242</ele>
        <time>2020-01-13T18:43:36Z</time>
      </trkpt>
      <trkpt lat="44.41949" lon="1.04603">
        <ele>242</ele>
        <time>2020-01-13T18:43:37Z</time>
      </trkpt>
      <trkpt lat="44.41953" lon="1.04604">
        <ele>242</ele>
        <time>2020-01-13T18:43:38Z</time>
      </trkpt>
      <trkpt lat="44.41966" lon="1.04604">
        <ele>242</ele>
        <time>2020-01-13T18:43:39Z</time>
      </trkpt>
      <trkpt lat="44.41985" lon="1.04605">
        <ele>241</ele>
        <time>2020-01-13T18:43:40Z</time>
      </trkpt>
      <trkpt lat="44.41994" lon="1.04606">
        <ele>241</ele>
        <time>2020-01-13T18:43:41Z</time>
      </trkpt>
      <trkpt lat="44.42009" lon="1.04609">
        <ele>241</ele>
        <time>2020-01-13T18:43:42Z</time>
      </trkpt>
      <trkpt lat="44.42013" lon="1.0461">
        <ele>241</ele>
        <time>2020-01-13T18:43:43Z</time>
      </trkpt>
      <trkpt lat="44.42024" lon="1.04612">
        <ele>241</ele>
        <time>2020-01-13T18:43:44Z</time>
      </trkpt>
      <trkpt lat="44.4203" lon="1.04612">
        <ele>241</ele>
        <time>2020-01-13T18:43:45Z</time>
      </trkpt>
      <trkpt lat="44.42041" lon="1.04613">
        <ele>241</ele>
        <time>2020-01-13T18:43:46Z</time>
      </trkpt>
      <trkpt lat="44.42046" lon="1.04613">
        <ele>240</ele>
        <time>2020-01-13T18:43:47Z</time>
      </trkpt>
      <trkpt lat="44.42058" lon="1.04612">
        <ele>240</ele>
        <time>2020-01-13T18:43:48Z</time>
      </trkpt>
      <trkpt lat="44.4207" lon="1.04611">
        <ele>240</ele>
        <time>2020-01-13T18:43:49Z</time>
      </trkpt>
      <trkpt lat="44.42082" lon="1.04609">
        <ele>240</ele>
        <time>2020-01-13T18:43:50Z</time>
      </trkpt>
      <trkpt lat="44.42119" lon="1.04599">
        <ele>239</ele>
        <time>2020-01-13T18:43:51Z</time>
      </trkpt>
      <trkpt lat="44.42131" lon="1.04597">
        <ele>239</ele>
        <time>2020-01-13T18:43:52Z</time>
      </trkpt>
      <trkpt lat="44.42137" lon="1.04597">
        <ele>238</ele>
        <time>2020-01-13T18:43:53Z</time>
      </trkpt>
      <trkpt lat="44.42149" lon="1.04594">
        <ele>238</ele>
        <time>2020-01-13T18:43:54Z</time>
      </trkpt>
      <trkpt lat="44.42155" lon="1.04592">
        <ele>238</ele>
        <time>2020-01-13T18:43:55Z</time>
      </trkpt>
      <trkpt lat="44.4216" lon="1.04589">
        <ele>238</ele>
        <time>2020-01-13T18:43:56Z</time>
      </trkpt>
      <trkpt lat="44.42171" lon="1.04582">
        <ele>238</ele>
        <time>2020-01-13T18:43:57Z</time>
      </trkpt>
      <trkpt lat="44.42195" lon="1.04567">
        <ele>238</ele>
        <time>2020-01-13T18:43:58Z</time>
      </trkpt>
      <trkpt lat="44.42206" lon="1.0456">
        <ele>239</ele>
        <time>2020-01-13T18:43:59Z</time>
      </trkpt>
      <trkpt lat="44.42218" lon="1.04555">
        <ele>239</ele>
        <time>2020-01-13T18:44:00Z</time>
      </trkpt>
      <trkpt lat="44.42229" lon="1.0455">
        <ele>239</ele>
        <time>2020-01-13T18:44:01Z</time>
      </trkpt>
      <trkpt lat="44.42242" lon="1.04545">
        <ele>239</ele>
        <time>2020-01-13T18:44:02Z</time>
      </trkpt>
      <trkpt lat="44.42249" lon="1.04543">
        <ele>239</ele>
        <time>2020-01-13T18:44:03Z</time>
      </trkpt>
      <trkpt lat="44.42262" lon="1.04541">
        <ele>239</ele>
        <time>2020-01-13T18:44:04Z</time>
      </trkpt>
      <trkpt lat="44.42282" lon="1.04539">
        <ele>239</ele>
        <time>2020-01-13T18:44:05Z</time>
      </trkpt>
      <trkpt lat="44.42301" lon="1.0454">
        <ele>239</ele>
        <time>2020-01-13T18:44:06Z</time>
      </trkpt>
      <trkpt lat="44.42374" lon="1.04549">
        <ele>239</ele>
        <time>2020-01-13T18:44:07Z</time>
      </trkpt>
      <trkpt lat="44.42414" lon="1.04555">
        <ele>239</ele>
        <time>2020-01-13T18:44:08Z</time>
      </trkpt>
      <trkpt lat="44.42427" lon="1.04557">
        <ele>240</ele>
        <time>2020-01-13T18:44:09Z</time>
      </trkpt>
      <trkpt lat="44.42444" lon="1.04558">
        <ele>240</ele>
        <time>2020-01-13T18:44:10Z</time>
      </trkpt>
      <trkpt lat="44.42449" lon="1.04559">
        <ele>240</ele>
        <time>2020-01-13T18:44:11Z</time>
      </trkpt>
      <trkpt lat="44.42454" lon="1.04561">
        <ele>240</ele>
        <time>2020-01-13T18:44:12Z</time>
      </trkpt>
      <trkpt lat="44.42457" lon="1.04565">
        <ele>240</ele>
        <time>2020-01-13T18:44:13Z</time>
      </trkpt>
      <trkpt lat="44.4246" lon="1.04571">
        <ele>240</ele>
        <time>2020-01-13T18:44:14Z</time>
      </trkpt>
      <trkpt lat="44.42461" lon="1.04578">
        <ele>240</ele>
        <time>2020-01-13T18:44:15Z</time>
      </trkpt>
      <trkpt lat="44.42463" lon="1.04584">
        <ele>240</ele>
        <time>2020-01-13T18:44:16Z</time>
      </trkpt>
      <trkpt lat="44.42466" lon="1.04598">
        <ele>240</ele>
        <time>2020-01-13T18:44:17Z</time>
      </trkpt>
      <trkpt lat="44.42469" lon="1.04612">
        <ele>240</ele>
        <time>2020-01-13T18:44:18Z</time>
      </trkpt>
      <trkpt lat="44.42469" lon="1.04627">
        <ele>240</ele>
        <time>2020-01-13T18:44:19Z</time>
      </trkpt>
      <trkpt lat="44.42469" lon="1.04635">
        <ele>240</ele>
        <time>2020-01-13T18:44:20Z</time>
      </trkpt>
      <trkpt lat="44.42469" lon="1.04642">
        <ele>240</ele>
        <time>2020-01-13T18:44:21Z</time>
      </trkpt>
      <trkpt lat="44.42468" lon="1.0465">
        <ele>240</ele>
        <time>2020-01-13T18:44:22Z</time>
      </trkpt>
      <trkpt lat="44.42467" lon="1.04657">
        <ele>240</ele>
        <time>2020-01-13T18:44:23Z</time>
      </trkpt>
      <trkpt lat="44.42465" lon="1.04665">
        <ele>240</ele>
        <time>2020-01-13T18:44:24Z</time>
      </trkpt>
      <trkpt lat="44.42462" lon="1.04673">
        <ele>240</ele>
        <time>2020-01-13T18:44:25Z</time>
      </trkpt>
      <trkpt lat="44.4246" lon="1.04681">
        <ele>241</ele>
        <time>2020-01-13T18:44:26Z</time>
      </trkpt>
      <trkpt lat="44.42457" lon="1.04689">
        <ele>241</ele>
        <time>2020-01-13T18:44:27Z</time>
      </trkpt>
      <trkpt lat="44.42454" lon="1.04704">
        <ele>241</ele>
        <time>2020-01-13T18:44:28Z</time>
      </trkpt>
      <trkpt lat="44.42453" lon="1.04712">
        <ele>242</ele>
        <time>2020-01-13T18:44:29Z</time>
      </trkpt>
      <trkpt lat="44.42453" lon="1.0472">
        <ele>242</ele>
        <time>2020-01-13T18:44:30Z</time>
      </trkpt>
      <trkpt lat="44.42454" lon="1.04727">
        <ele>242</ele>
        <time>2020-01-13T18:44:31Z</time>
      </trkpt>
      <trkpt lat="44.42455" lon="1.04735">
        <ele>242</ele>
        <time>2020-01-13T18:44:32Z</time>
      </trkpt>
      <trkpt lat="44.42459" lon="1.04756">
        <ele>243</ele>
        <time>2020-01-13T18:44:33Z</time>
      </trkpt>
      <trkpt lat="44.42461" lon="1.04762">
        <ele>243</ele>
        <time>2020-01-13T18:44:34Z</time>
      </trkpt>
      <trkpt lat="44.42467" lon="1.04781">
        <ele>244</ele>
        <time>2020-01-13T18:44:35Z</time>
      </trkpt>
      <trkpt lat="44.42475" lon="1.04807">
        <ele>245</ele>
        <time>2020-01-13T18:44:36Z</time>
      </trkpt>
      <trkpt lat="44.42476" lon="1.04813">
        <ele>246</ele>
        <time>2020-01-13T18:44:37Z</time>
      </trkpt>
      <trkpt lat="44.42484" lon="1.04836">
        <ele>247</ele>
        <time>2020-01-13T18:44:38Z</time>
      </trkpt>
      <trkpt lat="44.42485" lon="1.04842">
        <ele>247</ele>
        <time>2020-01-13T18:44:39Z</time>
      </trkpt>
      <trkpt lat="44.42487" lon="1.04849">
        <ele>247</ele>
        <time>2020-01-13T18:44:40Z</time>
      </trkpt>
      <trkpt lat="44.4249" lon="1.0486">
        <ele>247</ele>
        <time>2020-01-13T18:44:41Z</time>
      </trkpt>
      <trkpt lat="44.42492" lon="1.04866">
        <ele>247</ele>
        <time>2020-01-13T18:44:42Z</time>
      </trkpt>
      <trkpt lat="44.42497" lon="1.04882">
        <ele>247</ele>
        <time>2020-01-13T18:44:43Z</time>
      </trkpt>
      <trkpt lat="44.42498" lon="1.04888">
        <ele>247</ele>
        <time>2020-01-13T18:44:44Z</time>
      </trkpt>
      <trkpt lat="44.425" lon="1.04893">
        <ele>247</ele>
        <time>2020-01-13T18:44:45Z</time>
      </trkpt>
      <trkpt lat="44.42503" lon="1.04903">
        <ele>247</ele>
        <time>2020-01-13T18:44:46Z</time>
      </trkpt>
      <trkpt lat="44.42505" lon="1.04907">
        <ele>247</ele>
        <time>2020-01-13T18:44:47Z</time>
      </trkpt>
      <trkpt lat="44.42508" lon="1.0491">
        <ele>247</ele>
        <time>2020-01-13T18:44:48Z</time>
      </trkpt>
      <trkpt lat="44.42511" lon="1.04912">
        <ele>247</ele>
        <time>2020-01-13T18:44:49Z</time>
      </trkpt>
      <trkpt lat="44.42515" lon="1.04913">
        <ele>247</ele>
        <time>2020-01-13T18:44:50Z</time>
      </trkpt>
      <trkpt lat="44.4252" lon="1.04913">
        <ele>247</ele>
        <time>2020-01-13T18:44:51Z</time>
      </trkpt>
      <trkpt lat="44.42524" lon="1.04914">
        <ele>247</ele>
        <time>2020-01-13T18:44:52Z</time>
      </trkpt>
      <trkpt lat="44.42532" lon="1.04916">
        <ele>247</ele>
        <time>2020-01-13T18:44:53Z</time>
      </trkpt>
      <trkpt lat="44.42536" lon="1.04916">
        <ele>247</ele>
        <time>2020-01-13T18:44:54Z</time>
      </trkpt>
      <trkpt lat="44.42545" lon="1.04915">
        <ele>248</ele>
        <time>2020-01-13T18:44:55Z</time>
      </trkpt>
      <trkpt lat="44.42553" lon="1.04917">
        <ele>248</ele>
        <time>2020-01-13T18:44:56Z</time>
      </trkpt>
      <trkpt lat="44.42558" lon="1.04917">
        <ele>248</ele>
        <time>2020-01-13T18:44:57Z</time>
      </trkpt>
      <trkpt lat="44.42567" lon="1.04918">
        <ele>248</ele>
        <time>2020-01-13T18:44:58Z</time>
      </trkpt>
      <trkpt lat="44.42576" lon="1.0492">
        <ele>248</ele>
        <time>2020-01-13T18:44:59Z</time>
      </trkpt>
      <trkpt lat="44.4259" lon="1.04922">
        <ele>248</ele>
        <time>2020-01-13T18:45:00Z</time>
      </trkpt>
      <trkpt lat="44.42602" lon="1.04923">
        <ele>248</ele>
        <time>2020-01-13T18:45:01Z</time>
      </trkpt>
      <trkpt lat="44.42607" lon="1.04924">
        <ele>248</ele>
        <time>2020-01-13T18:45:02Z</time>
      </trkpt>
      <trkpt lat="44.42624" lon="1.04929">
        <ele>248</ele>
        <time>2020-01-13T18:45:03Z</time>
      </trkpt>
      <trkpt lat="44.42641" lon="1.04932">
        <ele>248</ele>
        <time>2020-01-13T18:45:04Z</time>
      </trkpt>
      <trkpt lat="44.42646" lon="1.04933">
        <ele>248</ele>
        <time>2020-01-13T18:45:05Z</time>
      </trkpt>
      <trkpt lat="44.42658" lon="1.04936">
        <ele>248</ele>
        <time>2020-01-13T18:45:06Z</time>
      </trkpt>
      <trkpt lat="44.42664" lon="1.04937">
        <ele>248</ele>
        <time>2020-01-13T18:45:07Z</time>
      </trkpt>
      <trkpt lat="44.42676" lon="1.04939">
        <ele>248</ele>
        <time>2020-01-13T18:45:08Z</time>
      </trkpt>
      <trkpt lat="44.42691" lon="1.04944">
        <ele>247</ele>
        <time>2020-01-13T18:45:09Z</time>
      </trkpt>
      <trkpt lat="44.42698" lon="1.04946">
        <ele>246</ele>
        <time>2020-01-13T18:45:10Z</time>
      </trkpt>
      <trkpt lat="44.42704" lon="1.04949">
        <ele>246</ele>
        <time>2020-01-13T18:45:11Z</time>
      </trkpt>
      <trkpt lat="44.42711" lon="1.04952">
        <ele>245</ele>
        <time>2020-01-13T18:45:12Z</time>
      </trkpt>
      <trkpt lat="44.42718" lon="1.04954">
        <ele>245</ele>
        <time>2020-01-13T18:45:13Z</time>
      </trkpt>
      <trkpt lat="44.42725" lon="1.04955">
        <ele>244</ele>
        <time>2020-01-13T18:45:14Z</time>
      </trkpt>
      <trkpt lat="44.42752" lon="1.04952">
        <ele>242</ele>
        <time>2020-01-13T18:45:15Z</time>
      </trkpt>
      <trkpt lat="44.42759" lon="1.04952">
        <ele>242</ele>
        <time>2020-01-13T18:45:16Z</time>
      </trkpt>
      <trkpt lat="44.42777" lon="1.04949">
        <ele>241</ele>
        <time>2020-01-13T18:45:17Z</time>
      </trkpt>
      <trkpt lat="44.42793" lon="1.04947">
        <ele>241</ele>
        <time>2020-01-13T18:45:18Z</time>
      </trkpt>
      <trkpt lat="44.42799" lon="1.04947">
        <ele>241</ele>
        <time>2020-01-13T18:45:19Z</time>
      </trkpt>
      <trkpt lat="44.42809" lon="1.04945">
        <ele>241</ele>
        <time>2020-01-13T18:45:20Z</time>
      </trkpt>
      <trkpt lat="44.42828" lon="1.04939">
        <ele>240</ele>
        <time>2020-01-13T18:45:21Z</time>
      </trkpt>
      <trkpt lat="44.42846" lon="1.04934">
        <ele>240</ele>
        <time>2020-01-13T18:45:22Z</time>
      </trkpt>
      <trkpt lat="44.42857" lon="1.04932">
        <ele>240</ele>
        <time>2020-01-13T18:45:23Z</time>
      </trkpt>
      <trkpt lat="44.42862" lon="1.0493">
        <ele>239</ele>
        <time>2020-01-13T18:45:24Z</time>
      </trkpt>
      <trkpt lat="44.42868" lon="1.04928">
        <ele>239</ele>
        <time>2020-01-13T18:45:25Z</time>
      </trkpt>
      <trkpt lat="44.4289" lon="1.04915">
        <ele>239</ele>
        <time>2020-01-13T18:45:26Z</time>
      </trkpt>
      <trkpt lat="44.429" lon="1.04909">
        <ele>238</ele>
        <time>2020-01-13T18:45:27Z</time>
      </trkpt>
      <trkpt lat="44.42909" lon="1.04903">
        <ele>238</ele>
        <time>2020-01-13T18:45:28Z</time>
      </trkpt>
      <trkpt lat="44.42923" lon="1.04891">
        <ele>237</ele>
        <time>2020-01-13T18:45:29Z</time>
      </trkpt>
      <trkpt lat="44.42934" lon="1.04884">
        <ele>236</ele>
        <time>2020-01-13T18:45:30Z</time>
      </trkpt>
      <trkpt lat="44.42939" lon="1.04879">
        <ele>236</ele>
        <time>2020-01-13T18:45:31Z</time>
      </trkpt>
      <trkpt lat="44.42949" lon="1.04867">
        <ele>235</ele>
        <time>2020-01-13T18:45:32Z</time>
      </trkpt>
      <trkpt lat="44.4296" lon="1.04854">
        <ele>235</ele>
        <time>2020-01-13T18:45:33Z</time>
      </trkpt>
      <trkpt lat="44.4297" lon="1.04839">
        <ele>234</ele>
        <time>2020-01-13T18:45:34Z</time>
      </trkpt>
      <trkpt lat="44.42983" lon="1.0482">
        <ele>234</ele>
        <time>2020-01-13T18:45:35Z</time>
      </trkpt>
      <trkpt lat="44.42992" lon="1.04807">
        <ele>234</ele>
        <time>2020-01-13T18:45:36Z</time>
      </trkpt>
      <trkpt lat="44.43007" lon="1.04787">
        <ele>234</ele>
        <time>2020-01-13T18:45:37Z</time>
      </trkpt>
      <trkpt lat="44.43017" lon="1.04772">
        <ele>234</ele>
        <time>2020-01-13T18:45:38Z</time>
      </trkpt>
      <trkpt lat="44.43028" lon="1.0475">
        <ele>234</ele>
        <time>2020-01-13T18:45:39Z</time>
      </trkpt>
      <trkpt lat="44.43032" lon="1.04743">
        <ele>234</ele>
        <time>2020-01-13T18:45:40Z</time>
      </trkpt>
      <trkpt lat="44.43037" lon="1.04736">
        <ele>234</ele>
        <time>2020-01-13T18:45:41Z</time>
      </trkpt>
      <trkpt lat="44.43041" lon="1.04731">
        <ele>234</ele>
        <time>2020-01-13T18:45:42Z</time>
      </trkpt>
      <trkpt lat="44.43046" lon="1.04727">
        <ele>234</ele>
        <time>2020-01-13T18:45:43Z</time>
      </trkpt>
      <trkpt lat="44.43052" lon="1.04724">
        <ele>234</ele>
        <time>2020-01-13T18:45:44Z</time>
      </trkpt>
      <trkpt lat="44.43068" lon="1.04717">
        <ele>234</ele>
        <time>2020-01-13T18:45:45Z</time>
      </trkpt>
      <trkpt lat="44.43084" lon="1.0471">
        <ele>233</ele>
        <time>2020-01-13T18:45:46Z</time>
      </trkpt>
      <trkpt lat="44.43087" lon="1.04706">
        <ele>233</ele>
        <time>2020-01-13T18:45:47Z</time>
      </trkpt>
      <trkpt lat="44.4309" lon="1.04702">
        <ele>233</ele>
        <time>2020-01-13T18:45:48Z</time>
      </trkpt>
      <trkpt lat="44.43092" lon="1.04696">
        <ele>234</ele>
        <time>2020-01-13T18:45:49Z</time>
      </trkpt>
      <trkpt lat="44.43092" lon="1.04691">
        <ele>234</ele>
        <time>2020-01-13T18:45:50Z</time>
      </trkpt>
      <trkpt lat="44.43091" lon="1.04686">
        <ele>234</ele>
        <time>2020-01-13T18:45:51Z</time>
      </trkpt>
      <trkpt lat="44.43089" lon="1.04683">
        <ele>234</ele>
        <time>2020-01-13T18:45:52Z</time>
      </trkpt>
      <trkpt lat="44.43087" lon="1.04678">
        <ele>234</ele>
        <time>2020-01-13T18:45:53Z</time>
      </trkpt>
      <trkpt lat="44.43084" lon="1.04675">
        <ele>235</ele>
        <time>2020-01-13T18:45:54Z</time>
      </trkpt>
      <trkpt lat="44.43077" lon="1.04663">
        <ele>235</ele>
        <time>2020-01-13T18:45:55Z</time>
      </trkpt>
      <trkpt lat="44.43069" lon="1.04652">
        <ele>236</ele>
        <time>2020-01-13T18:45:56Z</time>
      </trkpt>
      <trkpt lat="44.43063" lon="1.0464">
        <ele>237</ele>
        <time>2020-01-13T18:45:57Z</time>
      </trkpt>
      <trkpt lat="44.43061" lon="1.04637">
        <ele>237</ele>
        <time>2020-01-13T18:45:58Z</time>
      </trkpt>
      <trkpt lat="44.43058" lon="1.04633">
        <ele>238</ele>
        <time>2020-01-13T18:45:59Z</time>
      </trkpt>
      <trkpt lat="44.43053" lon="1.04626">
        <ele>238</ele>
        <time>2020-01-13T18:46:00Z</time>
      </trkpt>
      <trkpt lat="44.43051" lon="1.04622">
        <ele>239</ele>
        <time>2020-01-13T18:46:01Z</time>
      </trkpt>
      <trkpt lat="44.43048" lon="1.04613">
        <ele>240</ele>
        <time>2020-01-13T18:46:02Z</time>
      </trkpt>
      <trkpt lat="44.43048" lon="1.04609">
        <ele>240</ele>
        <time>2020-01-13T18:46:03Z</time>
      </trkpt>
      <trkpt lat="44.43049" lon="1.04604">
        <ele>240</ele>
        <time>2020-01-13T18:46:04Z</time>
      </trkpt>
      <trkpt lat="44.43051" lon="1.04599">
        <ele>240</ele>
        <time>2020-01-13T18:46:05Z</time>
      </trkpt>
      <trkpt lat="44.43053" lon="1.04594">
        <ele>240</ele>
        <time>2020-01-13T18:46:06Z</time>
      </trkpt>
      <trkpt lat="44.43058" lon="1.04584">
        <ele>240</ele>
        <time>2020-01-13T18:46:07Z</time>
      </trkpt>
      <trkpt lat="44.4306" lon="1.04579">
        <ele>240</ele>
        <time>2020-01-13T18:46:08Z</time>
      </trkpt>
      <trkpt lat="44.43063" lon="1.04564">
        <ele>240</ele>
        <time>2020-01-13T18:46:09Z</time>
      </trkpt>
      <trkpt lat="44.43064" lon="1.04559">
        <ele>240</ele>
        <time>2020-01-13T18:46:10Z</time>
      </trkpt>
      <trkpt lat="44.43064" lon="1.04554">
        <ele>240</ele>
        <time>2020-01-13T18:46:11Z</time>
      </trkpt>
      <trkpt lat="44.43066" lon="1.04542">
        <ele>240</ele>
        <time>2020-01-13T18:46:12Z</time>
      </trkpt>
      <trkpt lat="44.43067" lon="1.04536">
        <ele>240</ele>
        <time>2020-01-13T18:46:13Z</time>
      </trkpt>
      <trkpt lat="44.43068" lon="1.0453">
        <ele>241</ele>
        <time>2020-01-13T18:46:14Z</time>
      </trkpt>
      <trkpt lat="44.4307" lon="1.04524">
        <ele>241</ele>
        <time>2020-01-13T18:46:15Z</time>
      </trkpt>
      <trkpt lat="44.43072" lon="1.04517">
        <ele>241</ele>
        <time>2020-01-13T18:46:16Z</time>
      </trkpt>
      <trkpt lat="44.43074" lon="1.04511">
        <ele>241</ele>
        <time>2020-01-13T18:46:17Z</time>
      </trkpt>
      <trkpt lat="44.4308" lon="1.04498">
        <ele>240</ele>
        <time>2020-01-13T18:46:18Z</time>
      </trkpt>
      <trkpt lat="44.43084" lon="1.04484">
        <ele>240</ele>
        <time>2020-01-13T18:46:19Z</time>
      </trkpt>
      <trkpt lat="44.43087" lon="1.04477">
        <ele>240</ele>
        <time>2020-01-13T18:46:20Z</time>
      </trkpt>
      <trkpt lat="44.43092" lon="1.04463">
        <ele>240</ele>
        <time>2020-01-13T18:46:21Z</time>
      </trkpt>
      <trkpt lat="44.43094" lon="1.04455">
        <ele>240</ele>
        <time>2020-01-13T18:46:22Z</time>
      </trkpt>
      <trkpt lat="44.43095" lon="1.0444">
        <ele>240</ele>
        <time>2020-01-13T18:46:23Z</time>
      </trkpt>
      <trkpt lat="44.43097" lon="1.04433">
        <ele>240</ele>
        <time>2020-01-13T18:46:24Z</time>
      </trkpt>
      <trkpt lat="44.43099" lon="1.04427">
        <ele>240</ele>
        <time>2020-01-13T18:46:25Z</time>
      </trkpt>
      <trkpt lat="44.43101" lon="1.04422">
        <ele>240</ele>
        <time>2020-01-13T18:46:26Z</time>
      </trkpt>
      <trkpt lat="44.43111" lon="1.04408">
        <ele>239</ele>
        <time>2020-01-13T18:46:27Z</time>
      </trkpt>
      <trkpt lat="44.4312" lon="1.04397">
        <ele>239</ele>
        <time>2020-01-13T18:46:28Z</time>
      </trkpt>
      <trkpt lat="44.43124" lon="1.04391">
        <ele>238</ele>
        <time>2020-01-13T18:46:29Z</time>
      </trkpt>
      <trkpt lat="44.43127" lon="1.04385">
        <ele>238</ele>
        <time>2020-01-13T18:46:30Z</time>
      </trkpt>
      <trkpt lat="44.43136" lon="1.04372">
        <ele>238</ele>
        <time>2020-01-13T18:46:31Z</time>
      </trkpt>
      <trkpt lat="44.43155" lon="1.04349">
        <ele>238</ele>
        <time>2020-01-13T18:46:32Z</time>
      </trkpt>
      <trkpt lat="44.4316" lon="1.04344">
        <ele>238</ele>
        <time>2020-01-13T18:46:33Z</time>
      </trkpt>
      <trkpt lat="44.43171" lon="1.04333">
        <ele>238</ele>
        <time>2020-01-13T18:46:34Z</time>
      </trkpt>
      <trkpt lat="44.43203" lon="1.04309">
        <ele>235</ele>
        <time>2020-01-13T18:46:35Z</time>
      </trkpt>
      <trkpt lat="44.43222" lon="1.04295">
        <ele>234</ele>
        <time>2020-01-13T18:46:36Z</time>
      </trkpt>
      <trkpt lat="44.43234" lon="1.04286">
        <ele>233</ele>
        <time>2020-01-13T18:46:37Z</time>
      </trkpt>
      <trkpt lat="44.4324" lon="1.04282">
        <ele>233</ele>
        <time>2020-01-13T18:46:38Z</time>
      </trkpt>
      <trkpt lat="44.43251" lon="1.04272">
        <ele>233</ele>
        <time>2020-01-13T18:46:39Z</time>
      </trkpt>
      <trkpt lat="44.4327" lon="1.04257">
        <ele>232</ele>
        <time>2020-01-13T18:46:40Z</time>
      </trkpt>
      <trkpt lat="44.43276" lon="1.04252">
        <ele>232</ele>
        <time>2020-01-13T18:46:41Z</time>
      </trkpt>
      <trkpt lat="44.43282" lon="1.04246">
        <ele>232</ele>
        <time>2020-01-13T18:46:42Z</time>
      </trkpt>
      <trkpt lat="44.43287" lon="1.0424">
        <ele>231</ele>
        <time>2020-01-13T18:46:43Z</time>
      </trkpt>
      <trkpt lat="44.43293" lon="1.04233">
        <ele>230</ele>
        <time>2020-01-13T18:46:44Z</time>
      </trkpt>
      <trkpt lat="44.43297" lon="1.04225">
        <ele>230</ele>
        <time>2020-01-13T18:46:45Z</time>
      </trkpt>
      <trkpt lat="44.43301" lon="1.04216">
        <ele>229</ele>
        <time>2020-01-13T18:46:46Z</time>
      </trkpt>
      <trkpt lat="44.43304" lon="1.04207">
        <ele>229</ele>
        <time>2020-01-13T18:46:47Z</time>
      </trkpt>
      <trkpt lat="44.43305" lon="1.04198">
        <ele>228</ele>
        <time>2020-01-13T18:46:48Z</time>
      </trkpt>
      <trkpt lat="44.43307" lon="1.04172">
        <ele>227</ele>
        <time>2020-01-13T18:46:49Z</time>
      </trkpt>
      <trkpt lat="44.43309" lon="1.04164">
        <ele>227</ele>
        <time>2020-01-13T18:46:50Z</time>
      </trkpt>
      <trkpt lat="44.43315" lon="1.04156">
        <ele>226</ele>
        <time>2020-01-13T18:46:51Z</time>
      </trkpt>
      <trkpt lat="44.43324" lon="1.0415">
        <ele>225</ele>
        <time>2020-01-13T18:46:52Z</time>
      </trkpt>
      <trkpt lat="44.43341" lon="1.04138">
        <ele>223</ele>
        <time>2020-01-13T18:46:53Z</time>
      </trkpt>
      <trkpt lat="44.4335" lon="1.04132">
        <ele>223</ele>
        <time>2020-01-13T18:46:54Z</time>
      </trkpt>
      <trkpt lat="44.43359" lon="1.04127">
        <ele>223</ele>
        <time>2020-01-13T18:46:55Z</time>
      </trkpt>
      <trkpt lat="44.43367" lon="1.04122">
        <ele>223</ele>
        <time>2020-01-13T18:46:56Z</time>
      </trkpt>
      <trkpt lat="44.43376" lon="1.04116">
        <ele>223</ele>
        <time>2020-01-13T18:46:57Z</time>
      </trkpt>
      <trkpt lat="44.43384" lon="1.0411">
        <ele>223</ele>
        <time>2020-01-13T18:46:58Z</time>
      </trkpt>
      <trkpt lat="44.43392" lon="1.04104">
        <ele>224</ele>
        <time>2020-01-13T18:46:59Z</time>
      </trkpt>
      <trkpt lat="44.43399" lon="1.04099">
        <ele>224</ele>
        <time>2020-01-13T18:47:00Z</time>
      </trkpt>
      <trkpt lat="44.43413" lon="1.04089">
        <ele>224</ele>
        <time>2020-01-13T18:47:01Z</time>
      </trkpt>
      <trkpt lat="44.43417" lon="1.04088">
        <ele>224</ele>
        <time>2020-01-13T18:47:02Z</time>
      </trkpt>
      <trkpt lat="44.43421" lon="1.04089">
        <ele>224</ele>
        <time>2020-01-13T18:47:03Z</time>
      </trkpt>
      <trkpt lat="44.43423" lon="1.04092">
        <ele>225</ele>
        <time>2020-01-13T18:47:04Z</time>
      </trkpt>
      <trkpt lat="44.43425" lon="1.04095">
        <ele>225</ele>
        <time>2020-01-13T18:47:05Z</time>
      </trkpt>
      <trkpt lat="44.4343" lon="1.04107">
        <ele>225</ele>
        <time>2020-01-13T18:47:06Z</time>
      </trkpt>
      <trkpt lat="44.43432" lon="1.0411">
        <ele>226</ele>
        <time>2020-01-13T18:47:07Z</time>
      </trkpt>
      <trkpt lat="44.43439" lon="1.04121">
        <ele>226</ele>
        <time>2020-01-13T18:47:08Z</time>
      </trkpt>
      <trkpt lat="44.43443" lon="1.0413">
        <ele>227</ele>
        <time>2020-01-13T18:47:09Z</time>
      </trkpt>
      <trkpt lat="44.43447" lon="1.04138">
        <ele>227</ele>
        <time>2020-01-13T18:47:10Z</time>
      </trkpt>
      <trkpt lat="44.43459" lon="1.04154">
        <ele>228</ele>
        <time>2020-01-13T18:47:11Z</time>
      </trkpt>
      <trkpt lat="44.43471" lon="1.04169">
        <ele>229</ele>
        <time>2020-01-13T18:47:12Z</time>
      </trkpt>
      <trkpt lat="44.43476" lon="1.04176">
        <ele>229</ele>
        <time>2020-01-13T18:47:13Z</time>
      </trkpt>
      <trkpt lat="44.43483" lon="1.04185">
        <ele>230</ele>
        <time>2020-01-13T18:47:14Z</time>
      </trkpt>
      <trkpt lat="44.43489" lon="1.04193">
        <ele>230</ele>
        <time>2020-01-13T18:47:15Z</time>
      </trkpt>
      <trkpt lat="44.43492" lon="1.04198">
        <ele>230</ele>
        <time>2020-01-13T18:47:16Z</time>
      </trkpt>
      <trkpt lat="44.43502" lon="1.04211">
        <ele>231</ele>
        <time>2020-01-13T18:47:17Z</time>
      </trkpt>
      <trkpt lat="44.43505" lon="1.04216">
        <ele>231</ele>
        <time>2020-01-13T18:47:18Z</time>
      </trkpt>
      <trkpt lat="44.43509" lon="1.04221">
        <ele>231</ele>
        <time>2020-01-13T18:47:19Z</time>
      </trkpt>
      <trkpt lat="44.43523" lon="1.0424">
        <ele>232</ele>
        <time>2020-01-13T18:47:20Z</time>
      </trkpt>
      <trkpt lat="44.43527" lon="1.04244">
        <ele>232</ele>
        <time>2020-01-13T18:47:21Z</time>
      </trkpt>
      <trkpt lat="44.43532" lon="1.04249">
        <ele>233</ele>
        <time>2020-01-13T18:47:22Z</time>
      </trkpt>
      <trkpt lat="44.43536" lon="1.04253">
        <ele>233</ele>
        <time>2020-01-13T18:47:23Z</time>
      </trkpt>
      <trkpt lat="44.4354" lon="1.04256">
        <ele>233</ele>
        <time>2020-01-13T18:47:24Z</time>
      </trkpt>
      <trkpt lat="44.43545" lon="1.04259">
        <ele>233</ele>
        <time>2020-01-13T18:47:25Z</time>
      </trkpt>
      <trkpt lat="44.43555" lon="1.04263">
        <ele>234</ele>
        <time>2020-01-13T18:47:26Z</time>
      </trkpt>
      <trkpt lat="44.43565" lon="1.04268">
        <ele>234</ele>
        <time>2020-01-13T18:47:27Z</time>
      </trkpt>
      <trkpt lat="44.4357" lon="1.0427">
        <ele>234</ele>
        <time>2020-01-13T18:47:28Z</time>
      </trkpt>
      <trkpt lat="44.43575" lon="1.04272">
        <ele>235</ele>
        <time>2020-01-13T18:47:29Z</time>
      </trkpt>
      <trkpt lat="44.43594" lon="1.04281">
        <ele>235</ele>
        <time>2020-01-13T18:47:30Z</time>
      </trkpt>
      <trkpt lat="44.43611" lon="1.04293">
        <ele>236</ele>
        <time>2020-01-13T18:47:31Z</time>
      </trkpt>
      <trkpt lat="44.43626" lon="1.04306">
        <ele>236</ele>
        <time>2020-01-13T18:47:32Z</time>
      </trkpt>
      <trkpt lat="44.43636" lon="1.04314">
        <ele>237</ele>
        <time>2020-01-13T18:47:33Z</time>
      </trkpt>
      <trkpt lat="44.4364" lon="1.04317">
        <ele>237</ele>
        <time>2020-01-13T18:47:34Z</time>
      </trkpt>
      <trkpt lat="44.43647" lon="1.04321">
        <ele>237</ele>
        <time>2020-01-13T18:47:35Z</time>
      </trkpt>
      <trkpt lat="44.43654" lon="1.04324">
        <ele>237</ele>
        <time>2020-01-13T18:47:36Z</time>
      </trkpt>
      <trkpt lat="44.43663" lon="1.04328">
        <ele>237</ele>
        <time>2020-01-13T18:47:37Z</time>
      </trkpt>
      <trkpt lat="44.43674" lon="1.04332">
        <ele>236</ele>
        <time>2020-01-13T18:47:38Z</time>
      </trkpt>
      <trkpt lat="44.43701" lon="1.04341">
        <ele>233</ele>
        <time>2020-01-13T18:47:39Z</time>
      </trkpt>
      <trkpt lat="44.43718" lon="1.04346">
        <ele>231</ele>
        <time>2020-01-13T18:47:40Z</time>
      </trkpt>
      <trkpt lat="44.43737" lon="1.04351">
        <ele>229</ele>
        <time>2020-01-13T18:47:41Z</time>
      </trkpt>
      <trkpt lat="44.43768" lon="1.04358">
        <ele>227</ele>
        <time>2020-01-13T18:47:42Z</time>
      </trkpt>
      <trkpt lat="44.43779" lon="1.0436">
        <ele>226</ele>
        <time>2020-01-13T18:47:43Z</time>
      </trkpt>
      <trkpt lat="44.438" lon="1.04366">
        <ele>224</ele>
        <time>2020-01-13T18:47:44Z</time>
      </trkpt>
      <trkpt lat="44.43812" lon="1.04367">
        <ele>223</ele>
        <time>2020-01-13T18:47:45Z</time>
      </trkpt>
      <trkpt lat="44.43834" lon="1.0437">
        <ele>221</ele>
        <time>2020-01-13T18:47:46Z</time>
      </trkpt>
      <trkpt lat="44.43845" lon="1.04373">
        <ele>221</ele>
        <time>2020-01-13T18:47:47Z</time>
      </trkpt>
      <trkpt lat="44.43866" lon="1.04382">
        <ele>221</ele>
        <time>2020-01-13T18:47:48Z</time>
      </trkpt>
      <trkpt lat="44.43896" lon="1.04397">
        <ele>221</ele>
        <time>2020-01-13T18:47:49Z</time>
      </trkpt>
      <trkpt lat="44.43906" lon="1.04403">
        <ele>221</ele>
        <time>2020-01-13T18:47:50Z</time>
      </trkpt>
      <trkpt lat="44.43915" lon="1.0441">
        <ele>221</ele>
        <time>2020-01-13T18:47:51Z</time>
      </trkpt>
      <trkpt lat="44.43924" lon="1.04417">
        <ele>221</ele>
        <time>2020-01-13T18:47:52Z</time>
      </trkpt>
      <trkpt lat="44.43931" lon="1.04425">
        <ele>221</ele>
        <time>2020-01-13T18:47:53Z</time>
      </trkpt>
      <trkpt lat="44.43938" lon="1.04432">
        <ele>221</ele>
        <time>2020-01-13T18:47:54Z</time>
      </trkpt>
      <trkpt lat="44.43944" lon="1.0444">
        <ele>221</ele>
        <time>2020-01-13T18:47:55Z</time>
      </trkpt>
      <trkpt lat="44.43959" lon="1.04461">
        <ele>221</ele>
        <time>2020-01-13T18:47:56Z</time>
      </trkpt>
      <trkpt lat="44.43968" lon="1.04474">
        <ele>221</ele>
        <time>2020-01-13T18:47:57Z</time>
      </trkpt>
      <trkpt lat="44.43972" lon="1.04481">
        <ele>221</ele>
        <time>2020-01-13T18:47:58Z</time>
      </trkpt>
      <trkpt lat="44.43975" lon="1.04488">
        <ele>221</ele>
        <time>2020-01-13T18:47:59Z</time>
      </trkpt>
      <trkpt lat="44.43978" lon="1.04495">
        <ele>221</ele>
        <time>2020-01-13T18:48:00Z</time>
      </trkpt>
      <trkpt lat="44.43981" lon="1.04503">
        <ele>221</ele>
        <time>2020-01-13T18:48:01Z</time>
      </trkpt>
      <trkpt lat="44.43983" lon="1.04511">
        <ele>221</ele>
        <time>2020-01-13T18:48:02Z</time>
      </trkpt>
      <trkpt lat="44.43985" lon="1.04521">
        <ele>221</ele>
        <time>2020-01-13T18:48:03Z</time>
      </trkpt>
      <trkpt lat="44.43995" lon="1.04558">
        <ele>221</ele>
        <time>2020-01-13T18:48:04Z</time>
      </trkpt>
      <trkpt lat="44.43996" lon="1.04567">
        <ele>221</ele>
        <time>2020-01-13T18:48:05Z</time>
      </trkpt>
      <trkpt lat="44.43999" lon="1.04584">
        <ele>221</ele>
        <time>2020-01-13T18:48:06Z</time>
      </trkpt>
      <trkpt lat="44.44003" lon="1.04598">
        <ele>222</ele>
        <time>2020-01-13T18:48:07Z</time>
      </trkpt>
      <trkpt lat="44.44005" lon="1.04605">
        <ele>222</ele>
        <time>2020-01-13T18:48:08Z</time>
      </trkpt>
      <trkpt lat="44.44008" lon="1.04611">
        <ele>222</ele>
        <time>2020-01-13T18:48:09Z</time>
      </trkpt>
      <trkpt lat="44.44012" lon="1.04614">
        <ele>222</ele>
        <time>2020-01-13T18:48:10Z</time>
      </trkpt>
      <trkpt lat="44.44017" lon="1.04615">
        <ele>222</ele>
        <time>2020-01-13T18:48:11Z</time>
      </trkpt>
      <trkpt lat="44.44022" lon="1.04613">
        <ele>222</ele>
        <time>2020-01-13T18:48:12Z</time>
      </trkpt>
      <trkpt lat="44.44027" lon="1.04611">
        <ele>222</ele>
        <time>2020-01-13T18:48:13Z</time>
      </trkpt>
      <trkpt lat="44.44037" lon="1.04604">
        <ele>221</ele>
        <time>2020-01-13T18:48:14Z</time>
      </trkpt>
      <trkpt lat="44.44053" lon="1.04594">
        <ele>221</ele>
        <time>2020-01-13T18:48:15Z</time>
      </trkpt>
      <trkpt lat="44.44069" lon="1.04584">
        <ele>220</ele>
        <time>2020-01-13T18:48:16Z</time>
      </trkpt>
      <trkpt lat="44.44078" lon="1.04576">
        <ele>220</ele>
        <time>2020-01-13T18:48:17Z</time>
      </trkpt>
      <trkpt lat="44.44083" lon="1.04573">
        <ele>220</ele>
        <time>2020-01-13T18:48:18Z</time>
      </trkpt>
      <trkpt lat="44.44087" lon="1.04572">
        <ele>220</ele>
        <time>2020-01-13T18:48:19Z</time>
      </trkpt>
      <trkpt lat="44.44091" lon="1.04573">
        <ele>220</ele>
        <time>2020-01-13T18:48:20Z</time>
      </trkpt>
      <trkpt lat="44.44094" lon="1.04577">
        <ele>220</ele>
        <time>2020-01-13T18:48:21Z</time>
      </trkpt>
      <trkpt lat="44.44097" lon="1.0459">
        <ele>220</ele>
        <time>2020-01-13T18:48:22Z</time>
      </trkpt>
      <trkpt lat="44.44098" lon="1.04598">
        <ele>220</ele>
        <time>2020-01-13T18:48:23Z</time>
      </trkpt>
      <trkpt lat="44.44098" lon="1.04606">
        <ele>220</ele>
        <time>2020-01-13T18:48:24Z</time>
      </trkpt>
      <trkpt lat="44.44103" lon="1.04632">
        <ele>221</ele>
        <time>2020-01-13T18:48:25Z</time>
      </trkpt>
      <trkpt lat="44.44106" lon="1.0465">
        <ele>221</ele>
        <time>2020-01-13T18:48:26Z</time>
      </trkpt>
      <trkpt lat="44.44107" lon="1.04668">
        <ele>222</ele>
        <time>2020-01-13T18:48:27Z</time>
      </trkpt>
      <trkpt lat="44.44107" lon="1.04677">
        <ele>222</ele>
        <time>2020-01-13T18:48:28Z</time>
      </trkpt>
      <trkpt lat="44.44107" lon="1.04685">
        <ele>222</ele>
        <time>2020-01-13T18:48:29Z</time>
      </trkpt>
      <trkpt lat="44.44107" lon="1.04693">
        <ele>222</ele>
        <time>2020-01-13T18:48:30Z</time>
      </trkpt>
      <trkpt lat="44.44107" lon="1.047">
        <ele>222</ele>
        <time>2020-01-13T18:48:31Z</time>
      </trkpt>
      <trkpt lat="44.44108" lon="1.04707">
        <ele>222</ele>
        <time>2020-01-13T18:48:32Z</time>
      </trkpt>
      <trkpt lat="44.44111" lon="1.04714">
        <ele>222</ele>
        <time>2020-01-13T18:48:33Z</time>
      </trkpt>
      <trkpt lat="44.44115" lon="1.04721">
        <ele>221</ele>
        <time>2020-01-13T18:48:34Z</time>
      </trkpt>
      <trkpt lat="44.44119" lon="1.04728">
        <ele>221</ele>
        <time>2020-01-13T18:48:35Z</time>
      </trkpt>
      <trkpt lat="44.44125" lon="1.04734">
        <ele>221</ele>
        <time>2020-01-13T18:48:36Z</time>
      </trkpt>
      <trkpt lat="44.44136" lon="1.04748">
        <ele>220</ele>
        <time>2020-01-13T18:48:37Z</time>
      </trkpt>
      <trkpt lat="44.44141" lon="1.04755">
        <ele>220</ele>
        <time>2020-01-13T18:48:38Z</time>
      </trkpt>
      <trkpt lat="44.44156" lon="1.04777">
        <ele>219</ele>
        <time>2020-01-13T18:48:39Z</time>
      </trkpt>
      <trkpt lat="44.44161" lon="1.04784">
        <ele>218</ele>
        <time>2020-01-13T18:48:40Z</time>
      </trkpt>
      <trkpt lat="44.44165" lon="1.04791">
        <ele>218</ele>
        <time>2020-01-13T18:48:41Z</time>
      </trkpt>
      <trkpt lat="44.4417" lon="1.04798">
        <ele>218</ele>
        <time>2020-01-13T18:48:42Z</time>
      </trkpt>
      <trkpt lat="44.44174" lon="1.04805">
        <ele>218</ele>
        <time>2020-01-13T18:48:43Z</time>
      </trkpt>
      <trkpt lat="44.44179" lon="1.04812">
        <ele>218</ele>
        <time>2020-01-13T18:48:44Z</time>
      </trkpt>
      <trkpt lat="44.44183" lon="1.04818">
        <ele>218</ele>
        <time>2020-01-13T18:48:45Z</time>
      </trkpt>
      <trkpt lat="44.44192" lon="1.04833">
        <ele>218</ele>
        <time>2020-01-13T18:48:46Z</time>
      </trkpt>
      <trkpt lat="44.44196" lon="1.0484">
        <ele>218</ele>
        <time>2020-01-13T18:48:47Z</time>
      </trkpt>
      <trkpt lat="44.44217" lon="1.04877">
        <ele>220</ele>
        <time>2020-01-13T18:48:48Z</time>
      </trkpt>
      <trkpt lat="44.44221" lon="1.04884">
        <ele>220</ele>
        <time>2020-01-13T18:48:49Z</time>
      </trkpt>
      <trkpt lat="44.44225" lon="1.04891">
        <ele>221</ele>
        <time>2020-01-13T18:48:50Z</time>
      </trkpt>
      <trkpt lat="44.44228" lon="1.04898">
        <ele>221</ele>
        <time>2020-01-13T18:48:51Z</time>
      </trkpt>
      <trkpt lat="44.44235" lon="1.04912">
        <ele>222</ele>
        <time>2020-01-13T18:48:52Z</time>
      </trkpt>
      <trkpt lat="44.44238" lon="1.04919">
        <ele>222</ele>
        <time>2020-01-13T18:48:53Z</time>
      </trkpt>
      <trkpt lat="44.44241" lon="1.04927">
        <ele>222</ele>
        <time>2020-01-13T18:48:54Z</time>
      </trkpt>
      <trkpt lat="44.44242" lon="1.04935">
        <ele>223</ele>
        <time>2020-01-13T18:48:55Z</time>
      </trkpt>
      <trkpt lat="44.44244" lon="1.04943">
        <ele>223</ele>
        <time>2020-01-13T18:48:56Z</time>
      </trkpt>
      <trkpt lat="44.44249" lon="1.04962">
        <ele>223</ele>
        <time>2020-01-13T18:48:57Z</time>
      </trkpt>
      <trkpt lat="44.4425" lon="1.04969">
        <ele>224</ele>
        <time>2020-01-13T18:48:58Z</time>
      </trkpt>
      <trkpt lat="44.44251" lon="1.04977">
        <ele>224</ele>
        <time>2020-01-13T18:48:59Z</time>
      </trkpt>
      <trkpt lat="44.44252" lon="1.04991">
        <ele>224</ele>
        <time>2020-01-13T18:49:00Z</time>
      </trkpt>
      <trkpt lat="44.44253" lon="1.04998">
        <ele>224</ele>
        <time>2020-01-13T18:49:01Z</time>
      </trkpt>
      <trkpt lat="44.44254" lon="1.05004">
        <ele>224</ele>
        <time>2020-01-13T18:49:02Z</time>
      </trkpt>
      <trkpt lat="44.44254" lon="1.05011">
        <ele>224</ele>
        <time>2020-01-13T18:49:03Z</time>
      </trkpt>
      <trkpt lat="44.44255" lon="1.05018">
        <ele>224</ele>
        <time>2020-01-13T18:49:04Z</time>
      </trkpt>
      <trkpt lat="44.44255" lon="1.05024">
        <ele>225</ele>
        <time>2020-01-13T18:49:05Z</time>
      </trkpt>
      <trkpt lat="44.44256" lon="1.05031">
        <ele>225</ele>
        <time>2020-01-13T18:49:06Z</time>
      </trkpt>
      <trkpt lat="44.44257" lon="1.05038">
        <ele>225</ele>
        <time>2020-01-13T18:49:07Z</time>
      </trkpt>
      <trkpt lat="44.44257" lon="1.05045">
        <ele>225</ele>
        <time>2020-01-13T18:49:08Z</time>
      </trkpt>
      <trkpt lat="44.4426" lon="1.05069">
        <ele>226</ele>
        <time>2020-01-13T18:49:09Z</time>
      </trkpt>
      <trkpt lat="44.4426" lon="1.05077">
        <ele>226</ele>
        <time>2020-01-13T18:49:10Z</time>
      </trkpt>
      <trkpt lat="44.4426" lon="1.05093">
        <ele>227</ele>
        <time>2020-01-13T18:49:11Z</time>
      </trkpt>
      <trkpt lat="44.44261" lon="1.051">
        <ele>227</ele>
        <time>2020-01-13T18:49:12Z</time>
      </trkpt>
      <trkpt lat="44.44263" lon="1.05107">
        <ele>227</ele>
        <time>2020-01-13T18:49:13Z</time>
      </trkpt>
      <trkpt lat="44.44267" lon="1.05122">
        <ele>227</ele>
        <time>2020-01-13T18:49:14Z</time>
      </trkpt>
      <trkpt lat="44.44269" lon="1.05128">
        <ele>227</ele>
        <time>2020-01-13T18:49:15Z</time>
      </trkpt>
      <trkpt lat="44.44271" lon="1.05134">
        <ele>227</ele>
        <time>2020-01-13T18:49:16Z</time>
      </trkpt>
      <trkpt lat="44.4428" lon="1.05161">
        <ele>228</ele>
        <time>2020-01-13T18:49:17Z</time>
      </trkpt>
      <trkpt lat="44.44282" lon="1.05168">
        <ele>228</ele>
        <time>2020-01-13T18:49:18Z</time>
      </trkpt>
      <trkpt lat="44.44283" lon="1.05175">
        <ele>228</ele>
        <time>2020-01-13T18:49:19Z</time>
      </trkpt>
      <trkpt lat="44.44284" lon="1.05182">
        <ele>228</ele>
        <time>2020-01-13T18:49:20Z</time>
      </trkpt>
      <trkpt lat="44.44285" lon="1.05187">
        <ele>227</ele>
        <time>2020-01-13T18:49:21Z</time>
      </trkpt>
      <trkpt lat="44.44286" lon="1.05191">
        <ele>227</ele>
        <time>2020-01-13T18:49:22Z</time>
      </trkpt>
      <trkpt lat="44.44287" lon="1.05193">
        <ele>227</ele>
        <time>2020-01-13T18:49:23Z</time>
      </trkpt>
      <trkpt lat="44.44289" lon="1.05193">
        <ele>227</ele>
        <time>2020-01-13T18:49:24Z</time>
      </trkpt>
      <trkpt lat="44.44293" lon="1.05193">
        <ele>227</ele>
        <time>2020-01-13T18:49:25Z</time>
      </trkpt>
      <trkpt lat="44.44299" lon="1.0519">
        <ele>227</ele>
        <time>2020-01-13T18:49:26Z</time>
      </trkpt>
      <trkpt lat="44.44303" lon="1.05187">
        <ele>227</ele>
        <time>2020-01-13T18:49:27Z</time>
      </trkpt>
      <trkpt lat="44.44308" lon="1.05185">
        <ele>226</ele>
        <time>2020-01-13T18:49:28Z</time>
      </trkpt>
      <trkpt lat="44.44319" lon="1.05179">
        <ele>226</ele>
        <time>2020-01-13T18:49:29Z</time>
      </trkpt>
      <trkpt lat="44.44338" lon="1.05168">
        <ele>226</ele>
        <time>2020-01-13T18:49:30Z</time>
      </trkpt>
      <trkpt lat="44.44345" lon="1.05165">
        <ele>226</ele>
        <time>2020-01-13T18:49:31Z</time>
      </trkpt>
      <trkpt lat="44.44358" lon="1.05159">
        <ele>225</ele>
        <time>2020-01-13T18:49:32Z</time>
      </trkpt>
      <trkpt lat="44.44365" lon="1.05156">
        <ele>225</ele>
        <time>2020-01-13T18:49:33Z</time>
      </trkpt>
      <trkpt lat="44.44372" lon="1.05153">
        <ele>225</ele>
        <time>2020-01-13T18:49:34Z</time>
      </trkpt>
      <trkpt lat="44.44384" lon="1.05147">
        <ele>225</ele>
        <time>2020-01-13T18:49:35Z</time>
      </trkpt>
      <trkpt lat="44.44395" lon="1.05142">
        <ele>224</ele>
        <time>2020-01-13T18:49:36Z</time>
      </trkpt>
      <trkpt lat="44.44403" lon="1.05137">
        <ele>224</ele>
        <time>2020-01-13T18:49:37Z</time>
      </trkpt>
      <trkpt lat="44.4441" lon="1.05136">
        <ele>224</ele>
        <time>2020-01-13T18:49:38Z</time>
      </trkpt>
      <trkpt lat="44.44416" lon="1.05137">
        <ele>224</ele>
        <time>2020-01-13T18:49:39Z</time>
      </trkpt>
      <trkpt lat="44.44422" lon="1.05137">
        <ele>224</ele>
        <time>2020-01-13T18:49:40Z</time>
      </trkpt>
      <trkpt lat="44.44427" lon="1.05136">
        <ele>224</ele>
        <time>2020-01-13T18:49:41Z</time>
      </trkpt>
      <trkpt lat="44.44431" lon="1.05131">
        <ele>223</ele>
        <time>2020-01-13T18:49:42Z</time>
      </trkpt>
      <trkpt lat="44.44434" lon="1.05125">
        <ele>223</ele>
        <time>2020-01-13T18:49:43Z</time>
      </trkpt>
      <trkpt lat="44.44436" lon="1.0512">
        <ele>223</ele>
        <time>2020-01-13T18:49:44Z</time>
      </trkpt>
      <trkpt lat="44.44444" lon="1.05107">
        <ele>223</ele>
        <time>2020-01-13T18:49:45Z</time>
      </trkpt>
      <trkpt lat="44.44448" lon="1.051">
        <ele>223</ele>
        <time>2020-01-13T18:49:46Z</time>
      </trkpt>
      <trkpt lat="44.44461" lon="1.05082">
        <ele>222</ele>
        <time>2020-01-13T18:49:47Z</time>
      </trkpt>
      <trkpt lat="44.44466" lon="1.05073">
        <ele>222</ele>
        <time>2020-01-13T18:49:48Z</time>
      </trkpt>
      <trkpt lat="44.44471" lon="1.05065">
        <ele>222</ele>
        <time>2020-01-13T18:49:49Z</time>
      </trkpt>
      <trkpt lat="44.44482" lon="1.05046">
        <ele>221</ele>
        <time>2020-01-13T18:49:50Z</time>
      </trkpt>
      <trkpt lat="44.44492" lon="1.05029">
        <ele>221</ele>
        <time>2020-01-13T18:49:51Z</time>
      </trkpt>
      <trkpt lat="44.44499" lon="1.05013">
        <ele>221</ele>
        <time>2020-01-13T18:49:52Z</time>
      </trkpt>
      <trkpt lat="44.44509" lon="1.04996">
        <ele>220</ele>
        <time>2020-01-13T18:49:53Z</time>
      </trkpt>
      <trkpt lat="44.44513" lon="1.04987">
        <ele>220</ele>
        <time>2020-01-13T18:49:54Z</time>
      </trkpt>
      <trkpt lat="44.44523" lon="1.04969">
        <ele>220</ele>
        <time>2020-01-13T18:49:55Z</time>
      </trkpt>
      <trkpt lat="44.44545" lon="1.04933">
        <ele>218</ele>
        <time>2020-01-13T18:49:56Z</time>
      </trkpt>
      <trkpt lat="44.4455" lon="1.04926">
        <ele>218</ele>
        <time>2020-01-13T18:49:57Z</time>
      </trkpt>
      <trkpt lat="44.44558" lon="1.04912">
        <ele>218</ele>
        <time>2020-01-13T18:49:58Z</time>
      </trkpt>
      <trkpt lat="44.44562" lon="1.04905">
        <ele>217</ele>
        <time>2020-01-13T18:49:59Z</time>
      </trkpt>
      <trkpt lat="44.44567" lon="1.04899">
        <ele>217</ele>
        <time>2020-01-13T18:50:00Z</time>
      </trkpt>
      <trkpt lat="44.4457" lon="1.04894">
        <ele>217</ele>
        <time>2020-01-13T18:50:01Z</time>
      </trkpt>
      <trkpt lat="44.44573" lon="1.04891">
        <ele>217</ele>
        <time>2020-01-13T18:50:02Z</time>
      </trkpt>
      <trkpt lat="44.44577" lon="1.04888">
        <ele>217</ele>
        <time>2020-01-13T18:50:03Z</time>
      </trkpt>
      <trkpt lat="44.44582" lon="1.04885">
        <ele>217</ele>
        <time>2020-01-13T18:50:04Z</time>
      </trkpt>
      <trkpt lat="44.44592" lon="1.04881">
        <ele>217</ele>
        <time>2020-01-13T18:50:05Z</time>
      </trkpt>
      <trkpt lat="44.44609" lon="1.04876">
        <ele>216</ele>
        <time>2020-01-13T18:50:06Z</time>
      </trkpt>
      <trkpt lat="44.44628" lon="1.04871">
        <ele>215</ele>
        <time>2020-01-13T18:50:07Z</time>
      </trkpt>
      <trkpt lat="44.44635" lon="1.0487">
        <ele>215</ele>
        <time>2020-01-13T18:50:08Z</time>
      </trkpt>
      <trkpt lat="44.44642" lon="1.04869">
        <ele>215</ele>
        <time>2020-01-13T18:50:09Z</time>
      </trkpt>
      <trkpt lat="44.44649" lon="1.04868">
        <ele>215</ele>
        <time>2020-01-13T18:50:10Z</time>
      </trkpt>
      <trkpt lat="44.44655" lon="1.04869">
        <ele>214</ele>
        <time>2020-01-13T18:50:11Z</time>
      </trkpt>
      <trkpt lat="44.44662" lon="1.0487">
        <ele>214</ele>
        <time>2020-01-13T18:50:12Z</time>
      </trkpt>
      <trkpt lat="44.44669" lon="1.04871">
        <ele>214</ele>
        <time>2020-01-13T18:50:13Z</time>
      </trkpt>
      <trkpt lat="44.44675" lon="1.04874">
        <ele>214</ele>
        <time>2020-01-13T18:50:14Z</time>
      </trkpt>
      <trkpt lat="44.44682" lon="1.04877">
        <ele>214</ele>
        <time>2020-01-13T18:50:15Z</time>
      </trkpt>
      <trkpt lat="44.44688" lon="1.04881">
        <ele>214</ele>
        <time>2020-01-13T18:50:16Z</time>
      </trkpt>
      <trkpt lat="44.44701" lon="1.0489">
        <ele>214</ele>
        <time>2020-01-13T18:50:17Z</time>
      </trkpt>
      <trkpt lat="44.44713" lon="1.04899">
        <ele>214</ele>
        <time>2020-01-13T18:50:18Z</time>
      </trkpt>
      <trkpt lat="44.44725" lon="1.04907">
        <ele>214</ele>
        <time>2020-01-13T18:50:19Z</time>
      </trkpt>
      <trkpt lat="44.44732" lon="1.0491">
        <ele>214</ele>
        <time>2020-01-13T18:50:20Z</time>
      </trkpt>
      <trkpt lat="44.44739" lon="1.04911">
        <ele>214</ele>
        <time>2020-01-13T18:50:21Z</time>
      </trkpt>
      <trkpt lat="44.44746" lon="1.04911">
        <ele>214</ele>
        <time>2020-01-13T18:50:22Z</time>
      </trkpt>
      <trkpt lat="44.44754" lon="1.04911">
        <ele>214</ele>
        <time>2020-01-13T18:50:23Z</time>
      </trkpt>
      <trkpt lat="44.4477" lon="1.04908">
        <ele>213</ele>
        <time>2020-01-13T18:50:24Z</time>
      </trkpt>
      <trkpt lat="44.44787" lon="1.04903">
        <ele>213</ele>
        <time>2020-01-13T18:50:25Z</time>
      </trkpt>
      <trkpt lat="44.44815" lon="1.04896">
        <ele>213</ele>
        <time>2020-01-13T18:50:26Z</time>
      </trkpt>
      <trkpt lat="44.44845" lon="1.04887">
        <ele>212</ele>
        <time>2020-01-13T18:50:27Z</time>
      </trkpt>
      <trkpt lat="44.44855" lon="1.04885">
        <ele>212</ele>
        <time>2020-01-13T18:50:28Z</time>
      </trkpt>
      <trkpt lat="44.44941" lon="1.04869">
        <ele>210</ele>
        <time>2020-01-13T18:50:29Z</time>
      </trkpt>
      <trkpt lat="44.44973" lon="1.04865">
        <ele>210</ele>
        <time>2020-01-13T18:50:30Z</time>
      </trkpt>
      <trkpt lat="44.44983" lon="1.04863">
        <ele>210</ele>
        <time>2020-01-13T18:50:31Z</time>
      </trkpt>
      <trkpt lat="44.44994" lon="1.04861">
        <ele>210</ele>
        <time>2020-01-13T18:50:32Z</time>
      </trkpt>
      <trkpt lat="44.45005" lon="1.0486">
        <ele>210</ele>
        <time>2020-01-13T18:50:33Z</time>
      </trkpt>
      <trkpt lat="44.45026" lon="1.04857">
        <ele>210</ele>
        <time>2020-01-13T18:50:34Z</time>
      </trkpt>
      <trkpt lat="44.45057" lon="1.04851">
        <ele>209</ele>
        <time>2020-01-13T18:50:35Z</time>
      </trkpt>
      <trkpt lat="44.45066" lon="1.0485">
        <ele>209</ele>
        <time>2020-01-13T18:50:36Z</time>
      </trkpt>
      <trkpt lat="44.45075" lon="1.04851">
        <ele>209</ele>
        <time>2020-01-13T18:50:37Z</time>
      </trkpt>
      <trkpt lat="44.45092" lon="1.04855">
        <ele>209</ele>
        <time>2020-01-13T18:50:38Z</time>
      </trkpt>
      <trkpt lat="44.451" lon="1.04857">
        <ele>209</ele>
        <time>2020-01-13T18:50:39Z</time>
      </trkpt>
      <trkpt lat="44.45108" lon="1.04857">
        <ele>209</ele>
        <time>2020-01-13T18:50:40Z</time>
      </trkpt>
      <trkpt lat="44.45116" lon="1.04857">
        <ele>209</ele>
        <time>2020-01-13T18:50:41Z</time>
      </trkpt>
      <trkpt lat="44.45123" lon="1.04855">
        <ele>209</ele>
        <time>2020-01-13T18:50:42Z</time>
      </trkpt>
      <trkpt lat="44.45129" lon="1.04851">
        <ele>209</ele>
        <time>2020-01-13T18:50:43Z</time>
      </trkpt>
      <trkpt lat="44.45135" lon="1.04847">
        <ele>209</ele>
        <time>2020-01-13T18:50:44Z</time>
      </trkpt>
      <trkpt lat="44.45141" lon="1.04844">
        <ele>210</ele>
        <time>2020-01-13T18:50:45Z</time>
      </trkpt>
      <trkpt lat="44.45148" lon="1.04841">
        <ele>210</ele>
        <time>2020-01-13T18:50:46Z</time>
      </trkpt>
      <trkpt lat="44.45169" lon="1.04834">
        <ele>210</ele>
        <time>2020-01-13T18:50:47Z</time>
      </trkpt>
      <trkpt lat="44.45184" lon="1.04827">
        <ele>210</ele>
        <time>2020-01-13T18:50:48Z</time>
      </trkpt>
      <trkpt lat="44.45191" lon="1.04824">
        <ele>211</ele>
        <time>2020-01-13T18:50:49Z</time>
      </trkpt>
      <trkpt lat="44.45198" lon="1.0482">
        <ele>211</ele>
        <time>2020-01-13T18:50:50Z</time>
      </trkpt>
      <trkpt lat="44.45213" lon="1.04813">
        <ele>211</ele>
        <time>2020-01-13T18:50:51Z</time>
      </trkpt>
      <trkpt lat="44.45221" lon="1.0481">
        <ele>211</ele>
        <time>2020-01-13T18:50:52Z</time>
      </trkpt>
      <trkpt lat="44.45241" lon="1.04801">
        <ele>211</ele>
        <time>2020-01-13T18:50:53Z</time>
      </trkpt>
      <trkpt lat="44.45249" lon="1.04797">
        <ele>212</ele>
        <time>2020-01-13T18:50:54Z</time>
      </trkpt>
      <trkpt lat="44.45261" lon="1.04793">
        <ele>212</ele>
        <time>2020-01-13T18:50:55Z</time>
      </trkpt>
      <trkpt lat="44.45268" lon="1.04789">
        <ele>211</ele>
        <time>2020-01-13T18:50:56Z</time>
      </trkpt>
      <trkpt lat="44.45279" lon="1.04784">
        <ele>211</ele>
        <time>2020-01-13T18:50:57Z</time>
      </trkpt>
      <trkpt lat="44.45285" lon="1.04783">
        <ele>211</ele>
        <time>2020-01-13T18:50:58Z</time>
      </trkpt>
      <trkpt lat="44.45291" lon="1.04783">
        <ele>211</ele>
        <time>2020-01-13T18:50:59Z</time>
      </trkpt>
      <trkpt lat="44.45296" lon="1.04784">
        <ele>212</ele>
        <time>2020-01-13T18:51:00Z</time>
      </trkpt>
      <trkpt lat="44.453" lon="1.04787">
        <ele>212</ele>
        <time>2020-01-13T18:51:01Z</time>
      </trkpt>
      <trkpt lat="44.45303" lon="1.04791">
        <ele>212</ele>
        <time>2020-01-13T18:51:02Z</time>
      </trkpt>
      <trkpt lat="44.45311" lon="1.04808">
        <ele>211</ele>
        <time>2020-01-13T18:51:03Z</time>
      </trkpt>
      <trkpt lat="44.45314" lon="1.04812">
        <ele>211</ele>
        <time>2020-01-13T18:51:04Z</time>
      </trkpt>
      <trkpt lat="44.45318" lon="1.04814">
        <ele>211</ele>
        <time>2020-01-13T18:51:05Z</time>
      </trkpt>
      <trkpt lat="44.4532" lon="1.04814">
        <ele>211</ele>
        <time>2020-01-13T18:51:06Z</time>
      </trkpt>
      <trkpt lat="44.45322" lon="1.04813">
        <ele>211</ele>
        <time>2020-01-13T18:51:07Z</time>
      </trkpt>
      <trkpt lat="44.45326" lon="1.04807">
        <ele>211</ele>
        <time>2020-01-13T18:51:08Z</time>
      </trkpt>
      <trkpt lat="44.45328" lon="1.04803">
        <ele>211</ele>
        <time>2020-01-13T18:51:09Z</time>
      </trkpt>
      <trkpt lat="44.45332" lon="1.04792">
        <ele>211</ele>
        <time>2020-01-13T18:51:10Z</time>
      </trkpt>
      <trkpt lat="44.45334" lon="1.04788">
        <ele>212</ele>
        <time>2020-01-13T18:51:11Z</time>
      </trkpt>
      <trkpt lat="44.45336" lon="1.04786">
        <ele>212</ele>
        <time>2020-01-13T18:51:12Z</time>
      </trkpt>
      <trkpt lat="44.4534" lon="1.04783">
        <ele>212</ele>
        <time>2020-01-13T18:51:13Z</time>
      </trkpt>
      <trkpt lat="44.45343" lon="1.04782">
        <ele>212</ele>
        <time>2020-01-13T18:51:14Z</time>
      </trkpt>
      <trkpt lat="44.45349" lon="1.04782">
        <ele>212</ele>
        <time>2020-01-13T18:51:15Z</time>
      </trkpt>
      <trkpt lat="44.45352" lon="1.04782">
        <ele>212</ele>
        <time>2020-01-13T18:51:16Z</time>
      </trkpt>
      <trkpt lat="44.45354" lon="1.04782">
        <ele>212</ele>
        <time>2020-01-13T18:51:17Z</time>
      </trkpt>
      <trkpt lat="44.45356" lon="1.04782">
        <ele>212</ele>
        <time>2020-01-13T18:51:18Z</time>
      </trkpt>
      <trkpt lat="44.45358" lon="1.04782">
        <ele>212</ele>
        <time>2020-01-13T18:51:19Z</time>
      </trkpt>
      <trkpt lat="44.45357" lon="1.0478">
        <ele>212</ele>
        <time>2020-01-13T18:51:20Z</time>
      </trkpt>
      <trkpt lat="44.45358" lon="1.04779">
        <ele>212</ele>
        <time>2020-01-13T18:51:21Z</time>
      </trkpt>
      <trkpt lat="44.45359" lon="1.0478">
        <ele>212</ele>
        <time>2020-01-13T18:51:22Z</time>
      </trkpt>
    </trkseg>
  </trk>
  <trk>
    <name><![CDATA[Tournon - Ladenaud 35km]]></name>
    <trkseg>
      <trkpt lat="44.4068" lon="1.00813">
        <ele>153</ele>
        <time>2020-01-13T19:41:29Z</time>
      </trkpt>
      <trkpt lat="44.40676" lon="1.00817">
        <ele>153</ele>
        <time>2020-01-13T19:41:30Z</time>
      </trkpt>
      <trkpt lat="44.40675" lon="1.00829">
        <ele>153</ele>
        <time>2020-01-13T19:41:32Z</time>
      </trkpt>
      <trkpt lat="44.40682" lon="1.00854">
        <ele>154</ele>
        <time>2020-01-13T19:41:37Z</time>
      </trkpt>
      <trkpt lat="44.40686" lon="1.009">
        <ele>155</ele>
        <time>2020-01-13T19:41:44Z</time>
      </trkpt>
      <trkpt lat="44.40686" lon="1.00927">
        <ele>155</ele>
        <time>2020-01-13T19:41:49Z</time>
      </trkpt>
      <trkpt lat="44.40677" lon="1.01008">
        <ele>154</ele>
        <time>2020-01-13T19:42:03Z</time>
      </trkpt>
      <trkpt lat="44.40682" lon="1.01042">
        <ele>154</ele>
        <time>2020-01-13T19:42:08Z</time>
      </trkpt>
      <trkpt lat="44.40744" lon="1.01216">
        <ele>153</ele>
        <time>2020-01-13T19:42:41Z</time>
      </trkpt>
      <trkpt lat="44.40751" lon="1.01242">
        <ele>152</ele>
        <time>2020-01-13T19:42:45Z</time>
      </trkpt>
      <trkpt lat="44.40762" lon="1.01302">
        <ele>150</ele>
        <time>2020-01-13T19:42:56Z</time>
      </trkpt>
      <trkpt lat="44.40785" lon="1.01462">
        <ele>156</ele>
        <time>2020-01-13T19:43:23Z</time>
      </trkpt>
      <trkpt lat="44.40805" lon="1.01526">
        <ele>162</ele>
        <time>2020-01-13T19:43:35Z</time>
      </trkpt>
      <trkpt lat="44.40824" lon="1.01563">
        <ele>167</ele>
        <time>2020-01-13T19:43:42Z</time>
      </trkpt>
      <trkpt lat="44.40874" lon="1.01636">
        <ele>173</ele>
        <time>2020-01-13T19:43:59Z</time>
      </trkpt>
      <trkpt lat="44.40896" lon="1.01659">
        <ele>175</ele>
        <time>2020-01-13T19:44:06Z</time>
      </trkpt>
      <trkpt lat="44.40937" lon="1.01684">
        <ele>177</ele>
        <time>2020-01-13T19:44:16Z</time>
      </trkpt>
      <trkpt lat="44.40941" lon="1.01689">
        <ele>177</ele>
        <time>2020-01-13T19:44:17Z</time>
      </trkpt>
      <trkpt lat="44.40906" lon="1.01785">
        <ele>181</ele>
        <time>2020-01-13T19:44:35Z</time>
      </trkpt>
      <trkpt lat="44.40878" lon="1.01825">
        <ele>183</ele>
        <time>2020-01-13T19:44:45Z</time>
      </trkpt>
      <trkpt lat="44.40848" lon="1.01859">
        <ele>185</ele>
        <time>2020-01-13T19:44:54Z</time>
      </trkpt>
      <trkpt lat="44.40831" lon="1.01894">
        <ele>187</ele>
        <time>2020-01-13T19:45:01Z</time>
      </trkpt>
      <trkpt lat="44.40806" lon="1.01957">
        <ele>184</ele>
        <time>2020-01-13T19:45:13Z</time>
      </trkpt>
      <trkpt lat="44.4074" lon="1.0217">
        <ele>180</ele>
        <time>2020-01-13T19:45:51Z</time>
      </trkpt>
      <trkpt lat="44.40607" lon="1.0246">
        <ele>188</ele>
        <time>2020-01-13T19:46:49Z</time>
      </trkpt>
      <trkpt lat="44.40588" lon="1.02508">
        <ele>188</ele>
        <time>2020-01-13T19:46:58Z</time>
      </trkpt>
      <trkpt lat="44.40587" lon="1.02521">
        <ele>188</ele>
        <time>2020-01-13T19:47:00Z</time>
      </trkpt>
      <trkpt lat="44.40591" lon="1.02526">
        <ele>188</ele>
        <time>2020-01-13T19:47:01Z</time>
      </trkpt>
      <trkpt lat="44.40606" lon="1.02533">
        <ele>187</ele>
        <time>2020-01-13T19:47:05Z</time>
      </trkpt>
      <trkpt lat="44.40638" lon="1.02557">
        <ele>187</ele>
        <time>2020-01-13T19:47:14Z</time>
      </trkpt>
      <trkpt lat="44.40677" lon="1.02582">
        <ele>188</ele>
        <time>2020-01-13T19:47:24Z</time>
      </trkpt>
      <trkpt lat="44.40864" lon="1.02692">
        <ele>195</ele>
        <time>2020-01-13T19:48:11Z</time>
      </trkpt>
      <trkpt lat="44.40875" lon="1.02702">
        <ele>195</ele>
        <time>2020-01-13T19:48:14Z</time>
      </trkpt>
      <trkpt lat="44.40865" lon="1.02853">
        <ele>197</ele>
        <time>2020-01-13T19:48:39Z</time>
      </trkpt>
      <trkpt lat="44.40851" lon="1.02877">
        <ele>198</ele>
        <time>2020-01-13T19:48:45Z</time>
      </trkpt>
      <trkpt lat="44.40833" lon="1.02888">
        <ele>200</ele>
        <time>2020-01-13T19:48:49Z</time>
      </trkpt>
      <trkpt lat="44.40775" lon="1.02933">
        <ele>202</ele>
        <time>2020-01-13T19:49:05Z</time>
      </trkpt>
      <trkpt lat="44.40726" lon="1.02986">
        <ele>204</ele>
        <time>2020-01-13T19:49:19Z</time>
      </trkpt>
      <trkpt lat="44.40716" lon="1.03001">
        <ele>206</ele>
        <time>2020-01-13T19:49:22Z</time>
      </trkpt>
      <trkpt lat="44.40714" lon="1.03009">
        <ele>207</ele>
        <time>2020-01-13T19:49:24Z</time>
      </trkpt>
      <trkpt lat="44.40713" lon="1.03079">
        <ele>210</ele>
        <time>2020-01-13T19:49:36Z</time>
      </trkpt>
      <trkpt lat="44.40715" lon="1.03136">
        <ele>209</ele>
        <time>2020-01-13T19:49:45Z</time>
      </trkpt>
      <trkpt lat="44.40727" lon="1.03303">
        <ele>203</ele>
        <time>2020-01-13T19:50:13Z</time>
      </trkpt>
      <trkpt lat="44.40726" lon="1.03498">
        <ele>205</ele>
        <time>2020-01-13T19:50:46Z</time>
      </trkpt>
      <trkpt lat="44.40728" lon="1.03494">
        <ele>205</ele>
        <time>2020-01-13T19:50:46Z</time>
      </trkpt>
      <trkpt lat="44.40736" lon="1.03493">
        <ele>204</ele>
        <time>2020-01-13T19:50:48Z</time>
      </trkpt>
      <trkpt lat="44.40764" lon="1.03508">
        <ele>203</ele>
        <time>2020-01-13T19:50:55Z</time>
      </trkpt>
      <trkpt lat="44.40797" lon="1.03531">
        <ele>205</ele>
        <time>2020-01-13T19:51:04Z</time>
      </trkpt>
      <trkpt lat="44.40839" lon="1.03553">
        <ele>206</ele>
        <time>2020-01-13T19:51:14Z</time>
      </trkpt>
      <trkpt lat="44.40918" lon="1.03625">
        <ele>206</ele>
        <time>2020-01-13T19:51:36Z</time>
      </trkpt>
      <trkpt lat="44.40936" lon="1.03658">
        <ele>203</ele>
        <time>2020-01-13T19:51:43Z</time>
      </trkpt>
      <trkpt lat="44.40961" lon="1.03719">
        <ele>203</ele>
        <time>2020-01-13T19:51:55Z</time>
      </trkpt>
      <trkpt lat="44.40974" lon="1.03734">
        <ele>204</ele>
        <time>2020-01-13T19:51:59Z</time>
      </trkpt>
      <trkpt lat="44.40981" lon="1.03731">
        <ele>204</ele>
        <time>2020-01-13T19:52:01Z</time>
      </trkpt>
      <trkpt lat="44.41002" lon="1.03712">
        <ele>203</ele>
        <time>2020-01-13T19:52:07Z</time>
      </trkpt>
      <trkpt lat="44.41028" lon="1.03697">
        <ele>206</ele>
        <time>2020-01-13T19:52:13Z</time>
      </trkpt>
      <trkpt lat="44.41043" lon="1.03683">
        <ele>207</ele>
        <time>2020-01-13T19:52:17Z</time>
      </trkpt>
      <trkpt lat="44.41096" lon="1.03666">
        <ele>211</ele>
        <time>2020-01-13T19:52:30Z</time>
      </trkpt>
      <trkpt lat="44.41134" lon="1.03661">
        <ele>214</ele>
        <time>2020-01-13T19:52:39Z</time>
      </trkpt>
      <trkpt lat="44.41141" lon="1.03658">
        <ele>214</ele>
        <time>2020-01-13T19:52:41Z</time>
      </trkpt>
      <trkpt lat="44.41166" lon="1.03641">
        <ele>215</ele>
        <time>2020-01-13T19:52:47Z</time>
      </trkpt>
      <trkpt lat="44.41197" lon="1.03615">
        <ele>211</ele>
        <time>2020-01-13T19:52:56Z</time>
      </trkpt>
      <trkpt lat="44.41246" lon="1.03589">
        <ele>211</ele>
        <time>2020-01-13T19:53:08Z</time>
      </trkpt>
      <trkpt lat="44.41253" lon="1.03586">
        <ele>211</ele>
        <time>2020-01-13T19:53:10Z</time>
      </trkpt>
      <trkpt lat="44.41256" lon="1.03588">
        <ele>210</ele>
        <time>2020-01-13T19:53:10Z</time>
      </trkpt>
      <trkpt lat="44.4125" lon="1.03631">
        <ele>212</ele>
        <time>2020-01-13T19:53:18Z</time>
      </trkpt>
      <trkpt lat="44.41233" lon="1.03661">
        <ele>214</ele>
        <time>2020-01-13T19:53:24Z</time>
      </trkpt>
      <trkpt lat="44.4122" lon="1.03692">
        <ele>215</ele>
        <time>2020-01-13T19:53:30Z</time>
      </trkpt>
      <trkpt lat="44.41182" lon="1.03759">
        <ele>222</ele>
        <time>2020-01-13T19:53:44Z</time>
      </trkpt>
      <trkpt lat="44.41162" lon="1.03806">
        <ele>226</ele>
        <time>2020-01-13T19:53:53Z</time>
      </trkpt>
      <trkpt lat="44.41155" lon="1.03841">
        <ele>227</ele>
        <time>2020-01-13T19:53:59Z</time>
      </trkpt>
      <trkpt lat="44.41157" lon="1.03862">
        <ele>226</ele>
        <time>2020-01-13T19:54:03Z</time>
      </trkpt>
      <trkpt lat="44.41156" lon="1.03946">
        <ele>223</ele>
        <time>2020-01-13T19:54:17Z</time>
      </trkpt>
      <trkpt lat="44.41164" lon="1.04004">
        <ele>224</ele>
        <time>2020-01-13T19:54:27Z</time>
      </trkpt>
      <trkpt lat="44.41168" lon="1.0407">
        <ele>222</ele>
        <time>2020-01-13T19:54:38Z</time>
      </trkpt>
      <trkpt lat="44.41168" lon="1.04223">
        <ele>219</ele>
        <time>2020-01-13T19:55:03Z</time>
      </trkpt>
      <trkpt lat="44.4116" lon="1.04357">
        <ele>219</ele>
        <time>2020-01-13T19:55:26Z</time>
      </trkpt>
      <trkpt lat="44.41163" lon="1.04386">
        <ele>219</ele>
        <time>2020-01-13T19:55:31Z</time>
      </trkpt>
      <trkpt lat="44.41172" lon="1.04412">
        <ele>218</ele>
        <time>2020-01-13T19:55:36Z</time>
      </trkpt>
      <trkpt lat="44.41216" lon="1.0449">
        <ele>215</ele>
        <time>2020-01-13T19:55:52Z</time>
      </trkpt>
      <trkpt lat="44.41227" lon="1.04516">
        <ele>213</ele>
        <time>2020-01-13T19:55:57Z</time>
      </trkpt>
      <trkpt lat="44.41227" lon="1.04542">
        <ele>211</ele>
        <time>2020-01-13T19:56:02Z</time>
      </trkpt>
      <trkpt lat="44.41215" lon="1.04616">
        <ele>209</ele>
        <time>2020-01-13T19:56:14Z</time>
      </trkpt>
      <trkpt lat="44.41216" lon="1.04621">
        <ele>209</ele>
        <time>2020-01-13T19:56:15Z</time>
      </trkpt>
      <trkpt lat="44.41225" lon="1.04619">
        <ele>208</ele>
        <time>2020-01-13T19:56:17Z</time>
      </trkpt>
      <trkpt lat="44.41248" lon="1.04596">
        <ele>206</ele>
        <time>2020-01-13T19:56:24Z</time>
      </trkpt>
      <trkpt lat="44.41268" lon="1.04587">
        <ele>205</ele>
        <time>2020-01-13T19:56:29Z</time>
      </trkpt>
      <trkpt lat="44.41284" lon="1.04584">
        <ele>204</ele>
        <time>2020-01-13T19:56:32Z</time>
      </trkpt>
      <trkpt lat="44.4131" lon="1.04606">
        <ele>203</ele>
        <time>2020-01-13T19:56:40Z</time>
      </trkpt>
      <trkpt lat="44.4132" lon="1.04618">
        <ele>203</ele>
        <time>2020-01-13T19:56:43Z</time>
      </trkpt>
      <trkpt lat="44.4133" lon="1.04625">
        <ele>203</ele>
        <time>2020-01-13T19:56:45Z</time>
      </trkpt>
      <trkpt lat="44.41342" lon="1.04626">
        <ele>203</ele>
        <time>2020-01-13T19:56:48Z</time>
      </trkpt>
      <trkpt lat="44.41347" lon="1.0463">
        <ele>204</ele>
        <time>2020-01-13T19:56:49Z</time>
      </trkpt>
      <trkpt lat="44.4135" lon="1.0464">
        <ele>204</ele>
        <time>2020-01-13T19:56:51Z</time>
      </trkpt>
      <trkpt lat="44.41356" lon="1.04649">
        <ele>205</ele>
        <time>2020-01-13T19:56:53Z</time>
      </trkpt>
      <trkpt lat="44.41372" lon="1.04666">
        <ele>206</ele>
        <time>2020-01-13T19:56:58Z</time>
      </trkpt>
      <trkpt lat="44.41399" lon="1.04704">
        <ele>205</ele>
        <time>2020-01-13T19:57:07Z</time>
      </trkpt>
      <trkpt lat="44.41415" lon="1.04706">
        <ele>204</ele>
        <time>2020-01-13T19:57:11Z</time>
      </trkpt>
      <trkpt lat="44.41432" lon="1.04714">
        <ele>203</ele>
        <time>2020-01-13T19:57:15Z</time>
      </trkpt>
      <trkpt lat="44.41449" lon="1.04717">
        <ele>203</ele>
        <time>2020-01-13T19:57:19Z</time>
      </trkpt>
      <trkpt lat="44.41455" lon="1.04721">
        <ele>203</ele>
        <time>2020-01-13T19:57:20Z</time>
      </trkpt>
      <trkpt lat="44.41463" lon="1.0475">
        <ele>201</ele>
        <time>2020-01-13T19:57:26Z</time>
      </trkpt>
      <trkpt lat="44.4146" lon="1.0476">
        <ele>201</ele>
        <time>2020-01-13T19:57:27Z</time>
      </trkpt>
      <trkpt lat="44.41453" lon="1.04765">
        <ele>202</ele>
        <time>2020-01-13T19:57:29Z</time>
      </trkpt>
      <trkpt lat="44.41409" lon="1.0478">
        <ele>203</ele>
        <time>2020-01-13T19:57:40Z</time>
      </trkpt>
      <trkpt lat="44.41338" lon="1.04791">
        <ele>210</ele>
        <time>2020-01-13T19:57:56Z</time>
      </trkpt>
      <trkpt lat="44.41294" lon="1.04812">
        <ele>212</ele>
        <time>2020-01-13T19:58:07Z</time>
      </trkpt>
      <trkpt lat="44.41265" lon="1.04836">
        <ele>214</ele>
        <time>2020-01-13T19:58:15Z</time>
      </trkpt>
      <trkpt lat="44.41252" lon="1.0485">
        <ele>214</ele>
        <time>2020-01-13T19:58:19Z</time>
      </trkpt>
      <trkpt lat="44.41235" lon="1.04877">
        <ele>214</ele>
        <time>2020-01-13T19:58:25Z</time>
      </trkpt>
      <trkpt lat="44.41162" lon="1.04978">
        <ele>221</ele>
        <time>2020-01-13T19:58:49Z</time>
      </trkpt>
      <trkpt lat="44.41121" lon="1.05025">
        <ele>223</ele>
        <time>2020-01-13T19:59:01Z</time>
      </trkpt>
      <trkpt lat="44.41111" lon="1.0504">
        <ele>224</ele>
        <time>2020-01-13T19:59:05Z</time>
      </trkpt>
      <trkpt lat="44.41098" lon="1.05072">
        <ele>226</ele>
        <time>2020-01-13T19:59:11Z</time>
      </trkpt>
      <trkpt lat="44.41091" lon="1.05098">
        <ele>227</ele>
        <time>2020-01-13T19:59:16Z</time>
      </trkpt>
      <trkpt lat="44.4107" lon="1.05146">
        <ele>226</ele>
        <time>2020-01-13T19:59:25Z</time>
      </trkpt>
      <trkpt lat="44.4107" lon="1.05157">
        <ele>226</ele>
        <time>2020-01-13T19:59:27Z</time>
      </trkpt>
      <trkpt lat="44.41081" lon="1.05181">
        <ele>226</ele>
        <time>2020-01-13T19:59:32Z</time>
      </trkpt>
      <trkpt lat="44.41093" lon="1.05225">
        <ele>225</ele>
        <time>2020-01-13T19:59:39Z</time>
      </trkpt>
      <trkpt lat="44.411" lon="1.0534">
        <ele>224</ele>
        <time>2020-01-13T19:59:59Z</time>
      </trkpt>
      <trkpt lat="44.41111" lon="1.05354">
        <ele>224</ele>
        <time>2020-01-13T20:00:02Z</time>
      </trkpt>
      <trkpt lat="44.41207" lon="1.05419">
        <ele>223</ele>
        <time>2020-01-13T20:00:27Z</time>
      </trkpt>
      <trkpt lat="44.4122" lon="1.05437">
        <ele>221</ele>
        <time>2020-01-13T20:00:31Z</time>
      </trkpt>
      <trkpt lat="44.41225" lon="1.05453">
        <ele>220</ele>
        <time>2020-01-13T20:00:34Z</time>
      </trkpt>
      <trkpt lat="44.41227" lon="1.05465">
        <ele>219</ele>
        <time>2020-01-13T20:00:36Z</time>
      </trkpt>
      <trkpt lat="44.41219" lon="1.05474">
        <ele>219</ele>
        <time>2020-01-13T20:00:39Z</time>
      </trkpt>
      <trkpt lat="44.41137" lon="1.0549">
        <ele>220</ele>
        <time>2020-01-13T20:00:58Z</time>
      </trkpt>
      <trkpt lat="44.41105" lon="1.05501">
        <ele>220</ele>
        <time>2020-01-13T20:01:06Z</time>
      </trkpt>
      <trkpt lat="44.41036" lon="1.05541">
        <ele>221</ele>
        <time>2020-01-13T20:01:23Z</time>
      </trkpt>
      <trkpt lat="44.40997" lon="1.05576">
        <ele>222</ele>
        <time>2020-01-13T20:01:34Z</time>
      </trkpt>
      <trkpt lat="44.40961" lon="1.05598">
        <ele>225</ele>
        <time>2020-01-13T20:01:43Z</time>
      </trkpt>
      <trkpt lat="44.40945" lon="1.05618">
        <ele>227</ele>
        <time>2020-01-13T20:01:48Z</time>
      </trkpt>
      <trkpt lat="44.40934" lon="1.05622">
        <ele>229</ele>
        <time>2020-01-13T20:01:51Z</time>
      </trkpt>
      <trkpt lat="44.40906" lon="1.05617">
        <ele>231</ele>
        <time>2020-01-13T20:01:57Z</time>
      </trkpt>
      <trkpt lat="44.40893" lon="1.05622">
        <ele>232</ele>
        <time>2020-01-13T20:02:01Z</time>
      </trkpt>
      <trkpt lat="44.40887" lon="1.05628">
        <ele>233</ele>
        <time>2020-01-13T20:02:02Z</time>
      </trkpt>
      <trkpt lat="44.40883" lon="1.05637">
        <ele>234</ele>
        <time>2020-01-13T20:02:04Z</time>
      </trkpt>
      <trkpt lat="44.40881" lon="1.05657">
        <ele>237</ele>
        <time>2020-01-13T20:02:07Z</time>
      </trkpt>
      <trkpt lat="44.40876" lon="1.05664">
        <ele>238</ele>
        <time>2020-01-13T20:02:09Z</time>
      </trkpt>
      <trkpt lat="44.40816" lon="1.05671">
        <ele>240</ele>
        <time>2020-01-13T20:02:23Z</time>
      </trkpt>
      <trkpt lat="44.40785" lon="1.05671">
        <ele>240</ele>
        <time>2020-01-13T20:02:30Z</time>
      </trkpt>
      <trkpt lat="44.40778" lon="1.05675">
        <ele>240</ele>
        <time>2020-01-13T20:02:32Z</time>
      </trkpt>
      <trkpt lat="44.40772" lon="1.05675">
        <ele>239</ele>
        <time>2020-01-13T20:02:34Z</time>
      </trkpt>
      <trkpt lat="44.40734" lon="1.0567">
        <ele>239</ele>
        <time>2020-01-13T20:02:42Z</time>
      </trkpt>
      <trkpt lat="44.4068" lon="1.05659">
        <ele>237</ele>
        <time>2020-01-13T20:02:55Z</time>
      </trkpt>
      <trkpt lat="44.40639" lon="1.05669">
        <ele>238</ele>
        <time>2020-01-13T20:03:05Z</time>
      </trkpt>
      <trkpt lat="44.40601" lon="1.05671">
        <ele>239</ele>
        <time>2020-01-13T20:03:14Z</time>
      </trkpt>
      <trkpt lat="44.40533" lon="1.05699">
        <ele>239</ele>
        <time>2020-01-13T20:03:30Z</time>
      </trkpt>
      <trkpt lat="44.40446" lon="1.05751">
        <ele>240</ele>
        <time>2020-01-13T20:03:52Z</time>
      </trkpt>
      <trkpt lat="44.40425" lon="1.05767">
        <ele>239</ele>
        <time>2020-01-13T20:03:58Z</time>
      </trkpt>
      <trkpt lat="44.40325" lon="1.05948">
        <ele>238</ele>
        <time>2020-01-13T20:04:36Z</time>
      </trkpt>
      <trkpt lat="44.40266" lon="1.06">
        <ele>237</ele>
        <time>2020-01-13T20:04:52Z</time>
      </trkpt>
      <trkpt lat="44.40252" lon="1.06021">
        <ele>238</ele>
        <time>2020-01-13T20:04:57Z</time>
      </trkpt>
      <trkpt lat="44.40212" lon="1.06115">
        <ele>240</ele>
        <time>2020-01-13T20:05:16Z</time>
      </trkpt>
      <trkpt lat="44.40209" lon="1.06142">
        <ele>240</ele>
        <time>2020-01-13T20:05:20Z</time>
      </trkpt>
      <trkpt lat="44.402" lon="1.06165">
        <ele>241</ele>
        <time>2020-01-13T20:05:24Z</time>
      </trkpt>
      <trkpt lat="44.402" lon="1.06179">
        <ele>242</ele>
        <time>2020-01-13T20:05:27Z</time>
      </trkpt>
      <trkpt lat="44.40237" lon="1.06249">
        <ele>244</ele>
        <time>2020-01-13T20:05:41Z</time>
      </trkpt>
      <trkpt lat="44.40246" lon="1.06303">
        <ele>245</ele>
        <time>2020-01-13T20:05:51Z</time>
      </trkpt>
      <trkpt lat="44.40247" lon="1.06344">
        <ele>246</ele>
        <time>2020-01-13T20:05:57Z</time>
      </trkpt>
      <trkpt lat="44.40251" lon="1.06368">
        <ele>247</ele>
        <time>2020-01-13T20:06:02Z</time>
      </trkpt>
      <trkpt lat="44.40275" lon="1.06422">
        <ele>250</ele>
        <time>2020-01-13T20:06:12Z</time>
      </trkpt>
      <trkpt lat="44.40296" lon="1.06478">
        <ele>251</ele>
        <time>2020-01-13T20:06:23Z</time>
      </trkpt>
      <trkpt lat="44.40317" lon="1.06556">
        <ele>251</ele>
        <time>2020-01-13T20:06:37Z</time>
      </trkpt>
      <trkpt lat="44.40323" lon="1.06603">
        <ele>250</ele>
        <time>2020-01-13T20:06:45Z</time>
      </trkpt>
      <trkpt lat="44.4033" lon="1.06626">
        <ele>250</ele>
        <time>2020-01-13T20:06:49Z</time>
      </trkpt>
      <trkpt lat="44.40349" lon="1.06668">
        <ele>248</ele>
        <time>2020-01-13T20:06:57Z</time>
      </trkpt>
      <trkpt lat="44.40371" lon="1.06699">
        <ele>246</ele>
        <time>2020-01-13T20:07:04Z</time>
      </trkpt>
      <trkpt lat="44.40394" lon="1.06723">
        <ele>244</ele>
        <time>2020-01-13T20:07:11Z</time>
      </trkpt>
      <trkpt lat="44.4041" lon="1.06746">
        <ele>243</ele>
        <time>2020-01-13T20:07:16Z</time>
      </trkpt>
      <trkpt lat="44.40447" lon="1.06835">
        <ele>240</ele>
        <time>2020-01-13T20:07:34Z</time>
      </trkpt>
      <trkpt lat="44.40488" lon="1.06957">
        <ele>240</ele>
        <time>2020-01-13T20:07:56Z</time>
      </trkpt>
      <trkpt lat="44.40494" lon="1.06982">
        <ele>241</ele>
        <time>2020-01-13T20:08:00Z</time>
      </trkpt>
      <trkpt lat="44.40497" lon="1.06996">
        <ele>241</ele>
        <time>2020-01-13T20:08:03Z</time>
      </trkpt>
      <trkpt lat="44.40491" lon="1.07064">
        <ele>242</ele>
        <time>2020-01-13T20:08:14Z</time>
      </trkpt>
      <trkpt lat="44.40474" lon="1.07155">
        <ele>243</ele>
        <time>2020-01-13T20:08:30Z</time>
      </trkpt>
      <trkpt lat="44.40468" lon="1.07169">
        <ele>243</ele>
        <time>2020-01-13T20:08:33Z</time>
      </trkpt>
      <trkpt lat="44.4047" lon="1.07245">
        <ele>242</ele>
        <time>2020-01-13T20:08:45Z</time>
      </trkpt>
      <trkpt lat="44.40477" lon="1.07298">
        <ele>241</ele>
        <time>2020-01-13T20:08:54Z</time>
      </trkpt>
      <trkpt lat="44.40488" lon="1.07341">
        <ele>241</ele>
        <time>2020-01-13T20:09:02Z</time>
      </trkpt>
      <trkpt lat="44.40519" lon="1.07424">
        <ele>243</ele>
        <time>2020-01-13T20:09:18Z</time>
      </trkpt>
      <trkpt lat="44.40541" lon="1.07507">
        <ele>247</ele>
        <time>2020-01-13T20:09:32Z</time>
      </trkpt>
      <trkpt lat="44.40554" lon="1.07536">
        <ele>247</ele>
        <time>2020-01-13T20:09:38Z</time>
      </trkpt>
      <trkpt lat="44.40591" lon="1.07597">
        <ele>244</ele>
        <time>2020-01-13T20:09:52Z</time>
      </trkpt>
      <trkpt lat="44.40635" lon="1.0771">
        <ele>241</ele>
        <time>2020-01-13T20:10:13Z</time>
      </trkpt>
      <trkpt lat="44.4065" lon="1.07765">
        <ele>241</ele>
        <time>2020-01-13T20:10:23Z</time>
      </trkpt>
      <trkpt lat="44.40668" lon="1.07873">
        <ele>238</ele>
        <time>2020-01-13T20:10:41Z</time>
      </trkpt>
      <trkpt lat="44.40695" lon="1.07983">
        <ele>235</ele>
        <time>2020-01-13T20:11:01Z</time>
      </trkpt>
      <trkpt lat="44.407" lon="1.08123">
        <ele>237</ele>
        <time>2020-01-13T20:11:24Z</time>
      </trkpt>
      <trkpt lat="44.40706" lon="1.08214">
        <ele>238</ele>
        <time>2020-01-13T20:11:39Z</time>
      </trkpt>
      <trkpt lat="44.40772" lon="1.0844">
        <ele>237</ele>
        <time>2020-01-13T20:12:20Z</time>
      </trkpt>
      <trkpt lat="44.40786" lon="1.08501">
        <ele>235</ele>
        <time>2020-01-13T20:12:31Z</time>
      </trkpt>
      <trkpt lat="44.40824" lon="1.08599">
        <ele>239</ele>
        <time>2020-01-13T20:12:49Z</time>
      </trkpt>
      <trkpt lat="44.40834" lon="1.08653">
        <ele>241</ele>
        <time>2020-01-13T20:12:59Z</time>
      </trkpt>
      <trkpt lat="44.40844" lon="1.08732">
        <ele>241</ele>
        <time>2020-01-13T20:13:12Z</time>
      </trkpt>
      <trkpt lat="44.40849" lon="1.08797">
        <ele>239</ele>
        <time>2020-01-13T20:13:23Z</time>
      </trkpt>
      <trkpt lat="44.40849" lon="1.08874">
        <ele>237</ele>
        <time>2020-01-13T20:13:36Z</time>
      </trkpt>
      <trkpt lat="44.40843" lon="1.08976">
        <ele>237</ele>
        <time>2020-01-13T20:13:53Z</time>
      </trkpt>
      <trkpt lat="44.40874" lon="1.08998">
        <ele>236</ele>
        <time>2020-01-13T20:14:01Z</time>
      </trkpt>
      <trkpt lat="44.409" lon="1.08966">
        <ele>235</ele>
        <time>2020-01-13T20:14:09Z</time>
      </trkpt>
      <trkpt lat="44.40943" lon="1.08922">
        <ele>234</ele>
        <time>2020-01-13T20:14:22Z</time>
      </trkpt>
      <trkpt lat="44.40964" lon="1.08903">
        <ele>234</ele>
        <time>2020-01-13T20:14:27Z</time>
      </trkpt>
      <trkpt lat="44.40985" lon="1.08889">
        <ele>233</ele>
        <time>2020-01-13T20:14:33Z</time>
      </trkpt>
      <trkpt lat="44.4104" lon="1.08807">
        <ele>229</ele>
        <time>2020-01-13T20:14:52Z</time>
      </trkpt>
      <trkpt lat="44.41042" lon="1.08746">
        <ele>229</ele>
        <time>2020-01-13T20:15:02Z</time>
      </trkpt>
      <trkpt lat="44.41062" lon="1.08697">
        <ele>228</ele>
        <time>2020-01-13T20:15:11Z</time>
      </trkpt>
      <trkpt lat="44.41095" lon="1.08698">
        <ele>227</ele>
        <time>2020-01-13T20:15:19Z</time>
      </trkpt>
      <trkpt lat="44.41103" lon="1.08687">
        <ele>227</ele>
        <time>2020-01-13T20:15:21Z</time>
      </trkpt>
      <trkpt lat="44.41123" lon="1.08594">
        <ele>227</ele>
        <time>2020-01-13T20:15:38Z</time>
      </trkpt>
      <trkpt lat="44.41135" lon="1.08565">
        <ele>227</ele>
        <time>2020-01-13T20:15:43Z</time>
      </trkpt>
      <trkpt lat="44.41167" lon="1.08525">
        <ele>227</ele>
        <time>2020-01-13T20:15:53Z</time>
      </trkpt>
      <trkpt lat="44.41203" lon="1.08498">
        <ele>229</ele>
        <time>2020-01-13T20:16:03Z</time>
      </trkpt>
      <trkpt lat="44.41277" lon="1.08388">
        <ele>229</ele>
        <time>2020-01-13T20:16:28Z</time>
      </trkpt>
      <trkpt lat="44.41311" lon="1.08331">
        <ele>229</ele>
        <time>2020-01-13T20:16:40Z</time>
      </trkpt>
      <trkpt lat="44.41342" lon="1.0827">
        <ele>227</ele>
        <time>2020-01-13T20:16:53Z</time>
      </trkpt>
      <trkpt lat="44.41389" lon="1.08205">
        <ele>225</ele>
        <time>2020-01-13T20:17:08Z</time>
      </trkpt>
      <trkpt lat="44.41433" lon="1.08135">
        <ele>222</ele>
        <time>2020-01-13T20:17:24Z</time>
      </trkpt>
      <trkpt lat="44.41472" lon="1.08103">
        <ele>221</ele>
        <time>2020-01-13T20:17:34Z</time>
      </trkpt>
      <trkpt lat="44.4156" lon="1.07966">
        <ele>222</ele>
        <time>2020-01-13T20:18:05Z</time>
      </trkpt>
      <trkpt lat="44.41576" lon="1.08019">
        <ele>223</ele>
        <time>2020-01-13T20:18:15Z</time>
      </trkpt>
      <trkpt lat="44.41618" lon="1.081">
        <ele>225</ele>
        <time>2020-01-13T20:18:31Z</time>
      </trkpt>
      <trkpt lat="44.41663" lon="1.08203">
        <ele>230</ele>
        <time>2020-01-13T20:18:52Z</time>
      </trkpt>
      <trkpt lat="44.41677" lon="1.08239">
        <ele>229</ele>
        <time>2020-01-13T20:18:58Z</time>
      </trkpt>
      <trkpt lat="44.4169" lon="1.08282">
        <ele>230</ele>
        <time>2020-01-13T20:19:06Z</time>
      </trkpt>
      <trkpt lat="44.41703" lon="1.083">
        <ele>230</ele>
        <time>2020-01-13T20:19:11Z</time>
      </trkpt>
      <trkpt lat="44.41764" lon="1.08371">
        <ele>229</ele>
        <time>2020-01-13T20:19:29Z</time>
      </trkpt>
      <trkpt lat="44.41797" lon="1.08418">
        <ele>230</ele>
        <time>2020-01-13T20:19:40Z</time>
      </trkpt>
      <trkpt lat="44.418" lon="1.08431">
        <ele>230</ele>
        <time>2020-01-13T20:19:42Z</time>
      </trkpt>
      <trkpt lat="44.41803" lon="1.08492">
        <ele>231</ele>
        <time>2020-01-13T20:19:53Z</time>
      </trkpt>
      <trkpt lat="44.41801" lon="1.08555">
        <ele>233</ele>
        <time>2020-01-13T20:20:03Z</time>
      </trkpt>
      <trkpt lat="44.41804" lon="1.08574">
        <ele>234</ele>
        <time>2020-01-13T20:20:06Z</time>
      </trkpt>
      <trkpt lat="44.41835" lon="1.08584">
        <ele>236</ele>
        <time>2020-01-13T20:20:14Z</time>
      </trkpt>
      <trkpt lat="44.41851" lon="1.08593">
        <ele>237</ele>
        <time>2020-01-13T20:20:18Z</time>
      </trkpt>
      <trkpt lat="44.41858" lon="1.086">
        <ele>237</ele>
        <time>2020-01-13T20:20:20Z</time>
      </trkpt>
      <trkpt lat="44.41877" lon="1.08632">
        <ele>238</ele>
        <time>2020-01-13T20:20:27Z</time>
      </trkpt>
      <trkpt lat="44.41894" lon="1.08648">
        <ele>239</ele>
        <time>2020-01-13T20:20:31Z</time>
      </trkpt>
      <trkpt lat="44.41952" lon="1.08631">
        <ele>239</ele>
        <time>2020-01-13T20:20:45Z</time>
      </trkpt>
      <trkpt lat="44.41962" lon="1.08631">
        <ele>239</ele>
        <time>2020-01-13T20:20:48Z</time>
      </trkpt>
      <trkpt lat="44.41967" lon="1.08634">
        <ele>239</ele>
        <time>2020-01-13T20:20:49Z</time>
      </trkpt>
      <trkpt lat="44.41979" lon="1.08714">
        <ele>242</ele>
        <time>2020-01-13T20:21:03Z</time>
      </trkpt>
      <trkpt lat="44.42003" lon="1.08787">
        <ele>244</ele>
        <time>2020-01-13T20:21:16Z</time>
      </trkpt>
      <trkpt lat="44.4201" lon="1.08821">
        <ele>244</ele>
        <time>2020-01-13T20:21:22Z</time>
      </trkpt>
      <trkpt lat="44.42043" lon="1.08892">
        <ele>247</ele>
        <time>2020-01-13T20:21:36Z</time>
      </trkpt>
      <trkpt lat="44.42066" lon="1.08955">
        <ele>249</ele>
        <time>2020-01-13T20:21:48Z</time>
      </trkpt>
      <trkpt lat="44.42091" lon="1.09005">
        <ele>250</ele>
        <time>2020-01-13T20:21:58Z</time>
      </trkpt>
      <trkpt lat="44.42102" lon="1.09022">
        <ele>251</ele>
        <time>2020-01-13T20:22:02Z</time>
      </trkpt>
      <trkpt lat="44.42104" lon="1.0903">
        <ele>252</ele>
        <time>2020-01-13T20:22:03Z</time>
      </trkpt>
      <trkpt lat="44.42143" lon="1.09093">
        <ele>255</ele>
        <time>2020-01-13T20:22:17Z</time>
      </trkpt>
      <trkpt lat="44.42155" lon="1.09101">
        <ele>255</ele>
        <time>2020-01-13T20:22:20Z</time>
      </trkpt>
      <trkpt lat="44.42161" lon="1.09109">
        <ele>254</ele>
        <time>2020-01-13T20:22:22Z</time>
      </trkpt>
      <trkpt lat="44.42166" lon="1.09122">
        <ele>254</ele>
        <time>2020-01-13T20:22:25Z</time>
      </trkpt>
      <trkpt lat="44.42184" lon="1.09153">
        <ele>255</ele>
        <time>2020-01-13T20:22:31Z</time>
      </trkpt>
      <trkpt lat="44.42292" lon="1.09389">
        <ele>250</ele>
        <time>2020-01-13T20:23:18Z</time>
      </trkpt>
      <trkpt lat="44.423" lon="1.09388">
        <ele>250</ele>
        <time>2020-01-13T20:23:20Z</time>
      </trkpt>
      <trkpt lat="44.42365" lon="1.09342">
        <ele>250</ele>
        <time>2020-01-13T20:23:37Z</time>
      </trkpt>
      <trkpt lat="44.42385" lon="1.09331">
        <ele>250</ele>
        <time>2020-01-13T20:23:42Z</time>
      </trkpt>
      <trkpt lat="44.42404" lon="1.09325">
        <ele>250</ele>
        <time>2020-01-13T20:23:46Z</time>
      </trkpt>
      <trkpt lat="44.42441" lon="1.09303">
        <ele>250</ele>
        <time>2020-01-13T20:23:56Z</time>
      </trkpt>
      <trkpt lat="44.42467" lon="1.09281">
        <ele>250</ele>
        <time>2020-01-13T20:24:03Z</time>
      </trkpt>
      <trkpt lat="44.42486" lon="1.0926">
        <ele>250</ele>
        <time>2020-01-13T20:24:09Z</time>
      </trkpt>
      <trkpt lat="44.42501" lon="1.09237">
        <ele>250</ele>
        <time>2020-01-13T20:24:14Z</time>
      </trkpt>
      <trkpt lat="44.42548" lon="1.09152">
        <ele>248</ele>
        <time>2020-01-13T20:24:32Z</time>
      </trkpt>
      <trkpt lat="44.42564" lon="1.09128">
        <ele>248</ele>
        <time>2020-01-13T20:24:37Z</time>
      </trkpt>
      <trkpt lat="44.42608" lon="1.09092">
        <ele>248</ele>
        <time>2020-01-13T20:24:49Z</time>
      </trkpt>
      <trkpt lat="44.42647" lon="1.09047">
        <ele>248</ele>
        <time>2020-01-13T20:25:01Z</time>
      </trkpt>
      <trkpt lat="44.42676" lon="1.09004">
        <ele>246</ele>
        <time>2020-01-13T20:25:11Z</time>
      </trkpt>
      <trkpt lat="44.42713" lon="1.08976">
        <ele>246</ele>
        <time>2020-01-13T20:25:21Z</time>
      </trkpt>
      <trkpt lat="44.4274" lon="1.08963">
        <ele>246</ele>
        <time>2020-01-13T20:25:27Z</time>
      </trkpt>
      <trkpt lat="44.428" lon="1.08946">
        <ele>246</ele>
        <time>2020-01-13T20:25:42Z</time>
      </trkpt>
      <trkpt lat="44.42833" lon="1.08934">
        <ele>246</ele>
        <time>2020-01-13T20:25:50Z</time>
      </trkpt>
      <trkpt lat="44.42853" lon="1.08921">
        <ele>246</ele>
        <time>2020-01-13T20:25:55Z</time>
      </trkpt>
      <trkpt lat="44.429" lon="1.08847">
        <ele>245</ele>
        <time>2020-01-13T20:26:11Z</time>
      </trkpt>
      <trkpt lat="44.4292" lon="1.08824">
        <ele>245</ele>
        <time>2020-01-13T20:26:17Z</time>
      </trkpt>
      <trkpt lat="44.42943" lon="1.08809">
        <ele>245</ele>
        <time>2020-01-13T20:26:23Z</time>
      </trkpt>
      <trkpt lat="44.42977" lon="1.08798">
        <ele>244</ele>
        <time>2020-01-13T20:26:31Z</time>
      </trkpt>
      <trkpt lat="44.43043" lon="1.08797">
        <ele>242</ele>
        <time>2020-01-13T20:26:47Z</time>
      </trkpt>
      <trkpt lat="44.43063" lon="1.088">
        <ele>241</ele>
        <time>2020-01-13T20:26:51Z</time>
      </trkpt>
      <trkpt lat="44.43104" lon="1.08816">
        <ele>241</ele>
        <time>2020-01-13T20:27:01Z</time>
      </trkpt>
      <trkpt lat="44.43119" lon="1.08813">
        <ele>240</ele>
        <time>2020-01-13T20:27:05Z</time>
      </trkpt>
      <trkpt lat="44.43152" lon="1.088">
        <ele>240</ele>
        <time>2020-01-13T20:27:13Z</time>
      </trkpt>
      <trkpt lat="44.43281" lon="1.0876">
        <ele>240</ele>
        <time>2020-01-13T20:27:44Z</time>
      </trkpt>
      <trkpt lat="44.4333" lon="1.08748">
        <ele>241</ele>
        <time>2020-01-13T20:27:55Z</time>
      </trkpt>
      <trkpt lat="44.43366" lon="1.08744">
        <ele>241</ele>
        <time>2020-01-13T20:28:04Z</time>
      </trkpt>
      <trkpt lat="44.43398" lon="1.08734">
        <ele>241</ele>
        <time>2020-01-13T20:28:11Z</time>
      </trkpt>
      <trkpt lat="44.43463" lon="1.08704">
        <ele>241</ele>
        <time>2020-01-13T20:28:27Z</time>
      </trkpt>
      <trkpt lat="44.43533" lon="1.08686">
        <ele>239</ele>
        <time>2020-01-13T20:28:44Z</time>
      </trkpt>
      <trkpt lat="44.43611" lon="1.08654">
        <ele>237</ele>
        <time>2020-01-13T20:29:03Z</time>
      </trkpt>
      <trkpt lat="44.4364" lon="1.0864">
        <ele>238</ele>
        <time>2020-01-13T20:29:10Z</time>
      </trkpt>
      <trkpt lat="44.43702" lon="1.086">
        <ele>237</ele>
        <time>2020-01-13T20:29:26Z</time>
      </trkpt>
      <trkpt lat="44.43723" lon="1.08592">
        <ele>236</ele>
        <time>2020-01-13T20:29:31Z</time>
      </trkpt>
      <trkpt lat="44.43796" lon="1.0855">
        <ele>236</ele>
        <time>2020-01-13T20:29:50Z</time>
      </trkpt>
      <trkpt lat="44.4382" lon="1.08533">
        <ele>234</ele>
        <time>2020-01-13T20:29:56Z</time>
      </trkpt>
      <trkpt lat="44.43889" lon="1.08499">
        <ele>230</ele>
        <time>2020-01-13T20:30:13Z</time>
      </trkpt>
      <trkpt lat="44.43926" lon="1.08487">
        <ele>229</ele>
        <time>2020-01-13T20:30:22Z</time>
      </trkpt>
      <trkpt lat="44.44004" lon="1.08493">
        <ele>230</ele>
        <time>2020-01-13T20:30:40Z</time>
      </trkpt>
      <trkpt lat="44.44041" lon="1.085">
        <ele>228</ele>
        <time>2020-01-13T20:30:49Z</time>
      </trkpt>
      <trkpt lat="44.44052" lon="1.08505">
        <ele>228</ele>
        <time>2020-01-13T20:30:52Z</time>
      </trkpt>
      <trkpt lat="44.44084" lon="1.08526">
        <ele>227</ele>
        <time>2020-01-13T20:31:00Z</time>
      </trkpt>
      <trkpt lat="44.44127" lon="1.08565">
        <ele>229</ele>
        <time>2020-01-13T20:31:12Z</time>
      </trkpt>
      <trkpt lat="44.44185" lon="1.08599">
        <ele>228</ele>
        <time>2020-01-13T20:31:26Z</time>
      </trkpt>
      <trkpt lat="44.44236" lon="1.08633">
        <ele>228</ele>
        <time>2020-01-13T20:31:40Z</time>
      </trkpt>
      <trkpt lat="44.44267" lon="1.08648">
        <ele>227</ele>
        <time>2020-01-13T20:31:47Z</time>
      </trkpt>
      <trkpt lat="44.443" lon="1.08651">
        <ele>226</ele>
        <time>2020-01-13T20:31:55Z</time>
      </trkpt>
      <trkpt lat="44.44346" lon="1.08662">
        <ele>225</ele>
        <time>2020-01-13T20:32:06Z</time>
      </trkpt>
      <trkpt lat="44.44411" lon="1.0867">
        <ele>221</ele>
        <time>2020-01-13T20:32:21Z</time>
      </trkpt>
      <trkpt lat="44.4446" lon="1.08671">
        <ele>222</ele>
        <time>2020-01-13T20:32:33Z</time>
      </trkpt>
      <trkpt lat="44.4448" lon="1.08678">
        <ele>223</ele>
        <time>2020-01-13T20:32:37Z</time>
      </trkpt>
      <trkpt lat="44.44529" lon="1.08749">
        <ele>227</ele>
        <time>2020-01-13T20:32:54Z</time>
      </trkpt>
      <trkpt lat="44.44554" lon="1.08791">
        <ele>229</ele>
        <time>2020-01-13T20:33:03Z</time>
      </trkpt>
      <trkpt lat="44.44561" lon="1.0881">
        <ele>230</ele>
        <time>2020-01-13T20:33:07Z</time>
      </trkpt>
      <trkpt lat="44.44571" lon="1.08869">
        <ele>231</ele>
        <time>2020-01-13T20:33:17Z</time>
      </trkpt>
      <trkpt lat="44.4457" lon="1.08929">
        <ele>234</ele>
        <time>2020-01-13T20:33:27Z</time>
      </trkpt>
      <trkpt lat="44.44579" lon="1.09009">
        <ele>236</ele>
        <time>2020-01-13T20:33:40Z</time>
      </trkpt>
      <trkpt lat="44.44577" lon="1.09101">
        <ele>237</ele>
        <time>2020-01-13T20:33:56Z</time>
      </trkpt>
      <trkpt lat="44.44566" lon="1.09216">
        <ele>234</ele>
        <time>2020-01-13T20:34:15Z</time>
      </trkpt>
      <trkpt lat="44.44557" lon="1.09256">
        <ele>232</ele>
        <time>2020-01-13T20:34:22Z</time>
      </trkpt>
      <trkpt lat="44.44525" lon="1.09355">
        <ele>229</ele>
        <time>2020-01-13T20:34:40Z</time>
      </trkpt>
      <trkpt lat="44.44525" lon="1.09363">
        <ele>229</ele>
        <time>2020-01-13T20:34:41Z</time>
      </trkpt>
      <trkpt lat="44.44529" lon="1.09366">
        <ele>229</ele>
        <time>2020-01-13T20:34:42Z</time>
      </trkpt>
      <trkpt lat="44.44532" lon="1.09365">
        <ele>229</ele>
        <time>2020-01-13T20:34:43Z</time>
      </trkpt>
      <trkpt lat="44.44561" lon="1.09326">
        <ele>229</ele>
        <time>2020-01-13T20:34:52Z</time>
      </trkpt>
      <trkpt lat="44.44579" lon="1.09295">
        <ele>230</ele>
        <time>2020-01-13T20:34:59Z</time>
      </trkpt>
      <trkpt lat="44.44601" lon="1.0927">
        <ele>230</ele>
        <time>2020-01-13T20:35:06Z</time>
      </trkpt>
      <trkpt lat="44.44619" lon="1.09259">
        <ele>229</ele>
        <time>2020-01-13T20:35:10Z</time>
      </trkpt>
      <trkpt lat="44.44639" lon="1.09252">
        <ele>229</ele>
        <time>2020-01-13T20:35:15Z</time>
      </trkpt>
      <trkpt lat="44.44669" lon="1.09232">
        <ele>228</ele>
        <time>2020-01-13T20:35:23Z</time>
      </trkpt>
      <trkpt lat="44.44699" lon="1.09223">
        <ele>227</ele>
        <time>2020-01-13T20:35:30Z</time>
      </trkpt>
      <trkpt lat="44.44727" lon="1.09206">
        <ele>225</ele>
        <time>2020-01-13T20:35:37Z</time>
      </trkpt>
      <trkpt lat="44.44743" lon="1.09203">
        <ele>224</ele>
        <time>2020-01-13T20:35:41Z</time>
      </trkpt>
      <trkpt lat="44.44763" lon="1.09204">
        <ele>224</ele>
        <time>2020-01-13T20:35:46Z</time>
      </trkpt>
      <trkpt lat="44.44774" lon="1.09194">
        <ele>225</ele>
        <time>2020-01-13T20:35:49Z</time>
      </trkpt>
      <trkpt lat="44.44784" lon="1.0918">
        <ele>225</ele>
        <time>2020-01-13T20:35:52Z</time>
      </trkpt>
      <trkpt lat="44.44804" lon="1.09122">
        <ele>224</ele>
        <time>2020-01-13T20:36:03Z</time>
      </trkpt>
      <trkpt lat="44.44835" lon="1.09056">
        <ele>223</ele>
        <time>2020-01-13T20:36:16Z</time>
      </trkpt>
      <trkpt lat="44.44868" lon="1.09015">
        <ele>223</ele>
        <time>2020-01-13T20:36:26Z</time>
      </trkpt>
      <trkpt lat="44.44897" lon="1.08953">
        <ele>222</ele>
        <time>2020-01-13T20:36:39Z</time>
      </trkpt>
      <trkpt lat="44.44916" lon="1.08892">
        <ele>220</ele>
        <time>2020-01-13T20:36:50Z</time>
      </trkpt>
      <trkpt lat="44.44929" lon="1.08839">
        <ele>220</ele>
        <time>2020-01-13T20:36:59Z</time>
      </trkpt>
      <trkpt lat="44.44929" lon="1.08824">
        <ele>219</ele>
        <time>2020-01-13T20:37:02Z</time>
      </trkpt>
      <trkpt lat="44.44923" lon="1.08793">
        <ele>219</ele>
        <time>2020-01-13T20:37:07Z</time>
      </trkpt>
      <trkpt lat="44.44913" lon="1.0876">
        <ele>219</ele>
        <time>2020-01-13T20:37:13Z</time>
      </trkpt>
      <trkpt lat="44.44898" lon="1.0873">
        <ele>220</ele>
        <time>2020-01-13T20:37:19Z</time>
      </trkpt>
      <trkpt lat="44.44876" lon="1.08694">
        <ele>221</ele>
        <time>2020-01-13T20:37:27Z</time>
      </trkpt>
      <trkpt lat="44.44874" lon="1.0868">
        <ele>222</ele>
        <time>2020-01-13T20:37:29Z</time>
      </trkpt>
      <trkpt lat="44.44876" lon="1.08674">
        <ele>222</ele>
        <time>2020-01-13T20:37:30Z</time>
      </trkpt>
      <trkpt lat="44.44943" lon="1.08609">
        <ele>229</ele>
        <time>2020-01-13T20:37:49Z</time>
      </trkpt>
      <trkpt lat="44.4496" lon="1.08584">
        <ele>232</ele>
        <time>2020-01-13T20:37:55Z</time>
      </trkpt>
      <trkpt lat="44.44971" lon="1.08581">
        <ele>232</ele>
        <time>2020-01-13T20:37:58Z</time>
      </trkpt>
      <trkpt lat="44.44996" lon="1.08589">
        <ele>235</ele>
        <time>2020-01-13T20:38:04Z</time>
      </trkpt>
      <trkpt lat="44.45004" lon="1.08596">
        <ele>235</ele>
        <time>2020-01-13T20:38:06Z</time>
      </trkpt>
      <trkpt lat="44.45013" lon="1.08617">
        <ele>234</ele>
        <time>2020-01-13T20:38:10Z</time>
      </trkpt>
      <trkpt lat="44.45026" lon="1.0863">
        <ele>234</ele>
        <time>2020-01-13T20:38:14Z</time>
      </trkpt>
      <trkpt lat="44.45047" lon="1.08641">
        <ele>235</ele>
        <time>2020-01-13T20:38:19Z</time>
      </trkpt>
      <trkpt lat="44.45066" lon="1.08655">
        <ele>235</ele>
        <time>2020-01-13T20:38:24Z</time>
      </trkpt>
      <trkpt lat="44.45078" lon="1.08658">
        <ele>236</ele>
        <time>2020-01-13T20:38:27Z</time>
      </trkpt>
      <trkpt lat="44.45097" lon="1.08646">
        <ele>236</ele>
        <time>2020-01-13T20:38:32Z</time>
      </trkpt>
      <trkpt lat="44.45115" lon="1.08653">
        <ele>236</ele>
        <time>2020-01-13T20:38:36Z</time>
      </trkpt>
      <trkpt lat="44.45151" lon="1.0868">
        <ele>237</ele>
        <time>2020-01-13T20:38:46Z</time>
      </trkpt>
      <trkpt lat="44.45174" lon="1.08701">
        <ele>236</ele>
        <time>2020-01-13T20:38:52Z</time>
      </trkpt>
      <trkpt lat="44.45187" lon="1.0873">
        <ele>235</ele>
        <time>2020-01-13T20:38:58Z</time>
      </trkpt>
      <trkpt lat="44.45187" lon="1.08736">
        <ele>235</ele>
        <time>2020-01-13T20:38:59Z</time>
      </trkpt>
      <trkpt lat="44.45199" lon="1.08759">
        <ele>235</ele>
        <time>2020-01-13T20:39:03Z</time>
      </trkpt>
      <trkpt lat="44.45263" lon="1.08823">
        <ele>235</ele>
        <time>2020-01-13T20:39:22Z</time>
      </trkpt>
      <trkpt lat="44.45272" lon="1.08827">
        <ele>234</ele>
        <time>2020-01-13T20:39:24Z</time>
      </trkpt>
      <trkpt lat="44.45281" lon="1.08823">
        <ele>234</ele>
        <time>2020-01-13T20:39:26Z</time>
      </trkpt>
      <trkpt lat="44.4529" lon="1.08815">
        <ele>233</ele>
        <time>2020-01-13T20:39:29Z</time>
      </trkpt>
      <trkpt lat="44.453" lon="1.08795">
        <ele>232</ele>
        <time>2020-01-13T20:39:33Z</time>
      </trkpt>
      <trkpt lat="44.45306" lon="1.08789">
        <ele>231</ele>
        <time>2020-01-13T20:39:35Z</time>
      </trkpt>
      <trkpt lat="44.45352" lon="1.08767">
        <ele>230</ele>
        <time>2020-01-13T20:39:46Z</time>
      </trkpt>
      <trkpt lat="44.45366" lon="1.08757">
        <ele>230</ele>
        <time>2020-01-13T20:39:50Z</time>
      </trkpt>
      <trkpt lat="44.45386" lon="1.087">
        <ele>228</ele>
        <time>2020-01-13T20:40:00Z</time>
      </trkpt>
      <trkpt lat="44.45388" lon="1.08685">
        <ele>228</ele>
        <time>2020-01-13T20:40:03Z</time>
      </trkpt>
      <trkpt lat="44.45386" lon="1.08679">
        <ele>227</ele>
        <time>2020-01-13T20:40:04Z</time>
      </trkpt>
      <trkpt lat="44.45359" lon="1.08672">
        <ele>227</ele>
        <time>2020-01-13T20:40:10Z</time>
      </trkpt>
      <trkpt lat="44.45345" lon="1.08662">
        <ele>227</ele>
        <time>2020-01-13T20:40:14Z</time>
      </trkpt>
      <trkpt lat="44.45345" lon="1.08658">
        <ele>227</ele>
        <time>2020-01-13T20:40:15Z</time>
      </trkpt>
      <trkpt lat="44.45363" lon="1.08604">
        <ele>224</ele>
        <time>2020-01-13T20:40:24Z</time>
      </trkpt>
      <trkpt lat="44.4539" lon="1.08541">
        <ele>223</ele>
        <time>2020-01-13T20:40:37Z</time>
      </trkpt>
      <trkpt lat="44.45396" lon="1.08516">
        <ele>223</ele>
        <time>2020-01-13T20:40:41Z</time>
      </trkpt>
      <trkpt lat="44.45392" lon="1.08503">
        <ele>223</ele>
        <time>2020-01-13T20:40:43Z</time>
      </trkpt>
      <trkpt lat="44.45358" lon="1.08484">
        <ele>222</ele>
        <time>2020-01-13T20:40:52Z</time>
      </trkpt>
      <trkpt lat="44.4535" lon="1.08473">
        <ele>221</ele>
        <time>2020-01-13T20:40:55Z</time>
      </trkpt>
      <trkpt lat="44.45351" lon="1.0847">
        <ele>221</ele>
        <time>2020-01-13T20:40:55Z</time>
      </trkpt>
      <trkpt lat="44.45392" lon="1.0844">
        <ele>224</ele>
        <time>2020-01-13T20:41:06Z</time>
      </trkpt>
      <trkpt lat="44.4544" lon="1.08413">
        <ele>228</ele>
        <time>2020-01-13T20:41:18Z</time>
      </trkpt>
      <trkpt lat="44.45462" lon="1.08387">
        <ele>230</ele>
        <time>2020-01-13T20:41:25Z</time>
      </trkpt>
      <trkpt lat="44.45471" lon="1.0837">
        <ele>231</ele>
        <time>2020-01-13T20:41:28Z</time>
      </trkpt>
      <trkpt lat="44.4548" lon="1.08343">
        <ele>232</ele>
        <time>2020-01-13T20:41:33Z</time>
      </trkpt>
      <trkpt lat="44.45501" lon="1.08225">
        <ele>231</ele>
        <time>2020-01-13T20:41:54Z</time>
      </trkpt>
      <trkpt lat="44.4551" lon="1.08205">
        <ele>231</ele>
        <time>2020-01-13T20:41:58Z</time>
      </trkpt>
      <trkpt lat="44.45511" lon="1.08181">
        <ele>230</ele>
        <time>2020-01-13T20:42:02Z</time>
      </trkpt>
      <trkpt lat="44.45517" lon="1.08154">
        <ele>230</ele>
        <time>2020-01-13T20:42:06Z</time>
      </trkpt>
      <trkpt lat="44.45533" lon="1.08115">
        <ele>230</ele>
        <time>2020-01-13T20:42:14Z</time>
      </trkpt>
      <trkpt lat="44.45574" lon="1.08065">
        <ele>231</ele>
        <time>2020-01-13T20:42:26Z</time>
      </trkpt>
      <trkpt lat="44.45614" lon="1.07974">
        <ele>232</ele>
        <time>2020-01-13T20:42:44Z</time>
      </trkpt>
      <trkpt lat="44.45623" lon="1.07942">
        <ele>232</ele>
        <time>2020-01-13T20:42:50Z</time>
      </trkpt>
      <trkpt lat="44.45631" lon="1.07885">
        <ele>231</ele>
        <time>2020-01-13T20:43:00Z</time>
      </trkpt>
      <trkpt lat="44.45644" lon="1.0784">
        <ele>231</ele>
        <time>2020-01-13T20:43:08Z</time>
      </trkpt>
      <trkpt lat="44.45654" lon="1.07782">
        <ele>229</ele>
        <time>2020-01-13T20:43:18Z</time>
      </trkpt>
      <trkpt lat="44.45673" lon="1.07731">
        <ele>229</ele>
        <time>2020-01-13T20:43:27Z</time>
      </trkpt>
      <trkpt lat="44.45705" lon="1.07681">
        <ele>228</ele>
        <time>2020-01-13T20:43:38Z</time>
      </trkpt>
      <trkpt lat="44.45717" lon="1.07654">
        <ele>228</ele>
        <time>2020-01-13T20:43:44Z</time>
      </trkpt>
      <trkpt lat="44.45738" lon="1.07595">
        <ele>225</ele>
        <time>2020-01-13T20:43:55Z</time>
      </trkpt>
      <trkpt lat="44.45752" lon="1.07533">
        <ele>226</ele>
        <time>2020-01-13T20:44:06Z</time>
      </trkpt>
      <trkpt lat="44.45751" lon="1.07526">
        <ele>226</ele>
        <time>2020-01-13T20:44:07Z</time>
      </trkpt>
      <trkpt lat="44.45732" lon="1.07509">
        <ele>226</ele>
        <time>2020-01-13T20:44:12Z</time>
      </trkpt>
      <trkpt lat="44.45656" lon="1.07416">
        <ele>224</ele>
        <time>2020-01-13T20:44:36Z</time>
      </trkpt>
      <trkpt lat="44.4565" lon="1.074">
        <ele>224</ele>
        <time>2020-01-13T20:44:39Z</time>
      </trkpt>
      <trkpt lat="44.45652" lon="1.07334">
        <ele>225</ele>
        <time>2020-01-13T20:44:50Z</time>
      </trkpt>
      <trkpt lat="44.45647" lon="1.07279">
        <ele>226</ele>
        <time>2020-01-13T20:44:59Z</time>
      </trkpt>
      <trkpt lat="44.45651" lon="1.07255">
        <ele>227</ele>
        <time>2020-01-13T20:45:03Z</time>
      </trkpt>
      <trkpt lat="44.45651" lon="1.07219">
        <ele>228</ele>
        <time>2020-01-13T20:45:09Z</time>
      </trkpt>
      <trkpt lat="44.45654" lon="1.07211">
        <ele>229</ele>
        <time>2020-01-13T20:45:11Z</time>
      </trkpt>
      <trkpt lat="44.45659" lon="1.07167">
        <ele>231</ele>
        <time>2020-01-13T20:45:18Z</time>
      </trkpt>
      <trkpt lat="44.4566" lon="1.07137">
        <ele>231</ele>
        <time>2020-01-13T20:45:23Z</time>
      </trkpt>
      <trkpt lat="44.45657" lon="1.0711">
        <ele>231</ele>
        <time>2020-01-13T20:45:28Z</time>
      </trkpt>
      <trkpt lat="44.4565" lon="1.07091">
        <ele>231</ele>
        <time>2020-01-13T20:45:31Z</time>
      </trkpt>
      <trkpt lat="44.45698" lon="1.07039">
        <ele>229</ele>
        <time>2020-01-13T20:45:45Z</time>
      </trkpt>
      <trkpt lat="44.45748" lon="1.06974">
        <ele>224</ele>
        <time>2020-01-13T20:46:01Z</time>
      </trkpt>
      <trkpt lat="44.4577" lon="1.06911">
        <ele>221</ele>
        <time>2020-01-13T20:46:13Z</time>
      </trkpt>
      <trkpt lat="44.45777" lon="1.06899">
        <ele>220</ele>
        <time>2020-01-13T20:46:15Z</time>
      </trkpt>
      <trkpt lat="44.45798" lon="1.06878">
        <ele>219</ele>
        <time>2020-01-13T20:46:21Z</time>
      </trkpt>
      <trkpt lat="44.45812" lon="1.06872">
        <ele>219</ele>
        <time>2020-01-13T20:46:25Z</time>
      </trkpt>
      <trkpt lat="44.45878" lon="1.06781">
        <ele>217</ele>
        <time>2020-01-13T20:46:47Z</time>
      </trkpt>
      <trkpt lat="44.45907" lon="1.06739">
        <ele>218</ele>
        <time>2020-01-13T20:46:56Z</time>
      </trkpt>
      <trkpt lat="44.45929" lon="1.06685">
        <ele>219</ele>
        <time>2020-01-13T20:47:07Z</time>
      </trkpt>
      <trkpt lat="44.45976" lon="1.06624">
        <ele>218</ele>
        <time>2020-01-13T20:47:22Z</time>
      </trkpt>
      <trkpt lat="44.46032" lon="1.06544">
        <ele>214</ele>
        <time>2020-01-13T20:47:40Z</time>
      </trkpt>
      <trkpt lat="44.46082" lon="1.06455">
        <ele>214</ele>
        <time>2020-01-13T20:47:59Z</time>
      </trkpt>
      <trkpt lat="44.46116" lon="1.06409">
        <ele>216</ele>
        <time>2020-01-13T20:48:10Z</time>
      </trkpt>
      <trkpt lat="44.46139" lon="1.06385">
        <ele>217</ele>
        <time>2020-01-13T20:48:17Z</time>
      </trkpt>
      <trkpt lat="44.46174" lon="1.06342">
        <ele>219</ele>
        <time>2020-01-13T20:48:28Z</time>
      </trkpt>
      <trkpt lat="44.4624" lon="1.06283">
        <ele>223</ele>
        <time>2020-01-13T20:48:46Z</time>
      </trkpt>
      <trkpt lat="44.46296" lon="1.06217">
        <ele>225</ele>
        <time>2020-01-13T20:49:03Z</time>
      </trkpt>
      <trkpt lat="44.46337" lon="1.06178">
        <ele>226</ele>
        <time>2020-01-13T20:49:15Z</time>
      </trkpt>
      <trkpt lat="44.46347" lon="1.06154">
        <ele>226</ele>
        <time>2020-01-13T20:49:19Z</time>
      </trkpt>
      <trkpt lat="44.4636" lon="1.06138">
        <ele>226</ele>
        <time>2020-01-13T20:49:23Z</time>
      </trkpt>
      <trkpt lat="44.46378" lon="1.06122">
        <ele>226</ele>
        <time>2020-01-13T20:49:28Z</time>
      </trkpt>
      <trkpt lat="44.46402" lon="1.06107">
        <ele>227</ele>
        <time>2020-01-13T20:49:34Z</time>
      </trkpt>
      <trkpt lat="44.46421" lon="1.06091">
        <ele>226</ele>
        <time>2020-01-13T20:49:40Z</time>
      </trkpt>
      <trkpt lat="44.46497" lon="1.06011">
        <ele>225</ele>
        <time>2020-01-13T20:50:02Z</time>
      </trkpt>
      <trkpt lat="44.46521" lon="1.05993">
        <ele>225</ele>
        <time>2020-01-13T20:50:08Z</time>
      </trkpt>
      <trkpt lat="44.46558" lon="1.05971">
        <ele>225</ele>
        <time>2020-01-13T20:50:18Z</time>
      </trkpt>
      <trkpt lat="44.46583" lon="1.05951">
        <ele>226</ele>
        <time>2020-01-13T20:50:24Z</time>
      </trkpt>
      <trkpt lat="44.46633" lon="1.05834">
        <ele>229</ele>
        <time>2020-01-13T20:50:47Z</time>
      </trkpt>
      <trkpt lat="44.46661" lon="1.05783">
        <ele>230</ele>
        <time>2020-01-13T20:50:58Z</time>
      </trkpt>
      <trkpt lat="44.4667" lon="1.05762">
        <ele>231</ele>
        <time>2020-01-13T20:51:02Z</time>
      </trkpt>
      <trkpt lat="44.46688" lon="1.05706">
        <ele>229</ele>
        <time>2020-01-13T20:51:12Z</time>
      </trkpt>
      <trkpt lat="44.46693" lon="1.0564">
        <ele>227</ele>
        <time>2020-01-13T20:51:23Z</time>
      </trkpt>
      <trkpt lat="44.46686" lon="1.05555">
        <ele>226</ele>
        <time>2020-01-13T20:51:37Z</time>
      </trkpt>
      <trkpt lat="44.46685" lon="1.05503">
        <ele>226</ele>
        <time>2020-01-13T20:51:46Z</time>
      </trkpt>
      <trkpt lat="44.4669" lon="1.05479">
        <ele>226</ele>
        <time>2020-01-13T20:51:50Z</time>
      </trkpt>
      <trkpt lat="44.46711" lon="1.05435">
        <ele>224</ele>
        <time>2020-01-13T20:51:59Z</time>
      </trkpt>
      <trkpt lat="44.46814" lon="1.05435">
        <ele>227</ele>
        <time>2020-01-13T20:52:23Z</time>
      </trkpt>
      <trkpt lat="44.46918" lon="1.05442">
        <ele>229</ele>
        <time>2020-01-13T20:52:47Z</time>
      </trkpt>
      <trkpt lat="44.46987" lon="1.05434">
        <ele>233</ele>
        <time>2020-01-13T20:53:04Z</time>
      </trkpt>
      <trkpt lat="44.47" lon="1.05361">
        <ele>233</ele>
        <time>2020-01-13T20:53:16Z</time>
      </trkpt>
      <trkpt lat="44.47077" lon="1.05253">
        <ele>233</ele>
        <time>2020-01-13T20:53:42Z</time>
      </trkpt>
      <trkpt lat="44.47115" lon="1.05224">
        <ele>230</ele>
        <time>2020-01-13T20:53:52Z</time>
      </trkpt>
      <trkpt lat="44.47148" lon="1.05176">
        <ele>228</ele>
        <time>2020-01-13T20:54:03Z</time>
      </trkpt>
      <trkpt lat="44.47192" lon="1.0509">
        <ele>224</ele>
        <time>2020-01-13T20:54:20Z</time>
      </trkpt>
      <trkpt lat="44.4711" lon="1.05017">
        <ele>226</ele>
        <time>2020-01-13T20:54:43Z</time>
      </trkpt>
      <trkpt lat="44.46922" lon="1.04864">
        <ele>225</ele>
        <time>2020-01-13T20:55:34Z</time>
      </trkpt>
      <trkpt lat="44.4689" lon="1.04783">
        <ele>223</ele>
        <time>2020-01-13T20:55:49Z</time>
      </trkpt>
      <trkpt lat="44.46853" lon="1.04712">
        <ele>222</ele>
        <time>2020-01-13T20:56:04Z</time>
      </trkpt>
      <trkpt lat="44.46796" lon="1.04685">
        <ele>218</ele>
        <time>2020-01-13T20:56:18Z</time>
      </trkpt>
      <trkpt lat="44.46758" lon="1.04664">
        <ele>215</ele>
        <time>2020-01-13T20:56:28Z</time>
      </trkpt>
      <trkpt lat="44.46767" lon="1.04622">
        <ele>216</ele>
        <time>2020-01-13T20:56:35Z</time>
      </trkpt>
      <trkpt lat="44.46803" lon="1.04541">
        <ele>217</ele>
        <time>2020-01-13T20:56:51Z</time>
      </trkpt>
      <trkpt lat="44.46804" lon="1.04506">
        <ele>217</ele>
        <time>2020-01-13T20:56:57Z</time>
      </trkpt>
      <trkpt lat="44.4677" lon="1.04238">
        <ele>225</ele>
        <time>2020-01-13T20:57:42Z</time>
      </trkpt>
      <trkpt lat="44.46762" lon="1.04208">
        <ele>225</ele>
        <time>2020-01-13T20:57:47Z</time>
      </trkpt>
      <trkpt lat="44.46726" lon="1.04149">
        <ele>226</ele>
        <time>2020-01-13T20:58:00Z</time>
      </trkpt>
      <trkpt lat="44.46705" lon="1.04109">
        <ele>226</ele>
        <time>2020-01-13T20:58:09Z</time>
      </trkpt>
      <trkpt lat="44.46693" lon="1.0408">
        <ele>227</ele>
        <time>2020-01-13T20:58:14Z</time>
      </trkpt>
      <trkpt lat="44.46667" lon="1.03999">
        <ele>224</ele>
        <time>2020-01-13T20:58:29Z</time>
      </trkpt>
      <trkpt lat="44.4662" lon="1.03812">
        <ele>224</ele>
        <time>2020-01-13T20:59:02Z</time>
      </trkpt>
      <trkpt lat="44.46604" lon="1.03739">
        <ele>224</ele>
        <time>2020-01-13T20:59:15Z</time>
      </trkpt>
      <trkpt lat="44.46584" lon="1.03598">
        <ele>224</ele>
        <time>2020-01-13T20:59:39Z</time>
      </trkpt>
      <trkpt lat="44.46562" lon="1.03498">
        <ele>222</ele>
        <time>2020-01-13T20:59:56Z</time>
      </trkpt>
      <trkpt lat="44.46546" lon="1.03438">
        <ele>220</ele>
        <time>2020-01-13T21:00:07Z</time>
      </trkpt>
      <trkpt lat="44.46525" lon="1.03388">
        <ele>219</ele>
        <time>2020-01-13T21:00:16Z</time>
      </trkpt>
      <trkpt lat="44.46449" lon="1.03241">
        <ele>223</ele>
        <time>2020-01-13T21:00:47Z</time>
      </trkpt>
      <trkpt lat="44.46406" lon="1.03164">
        <ele>224</ele>
        <time>2020-01-13T21:01:03Z</time>
      </trkpt>
      <trkpt lat="44.46336" lon="1.03061">
        <ele>223</ele>
        <time>2020-01-13T21:01:27Z</time>
      </trkpt>
      <trkpt lat="44.46303" lon="1.03008">
        <ele>222</ele>
        <time>2020-01-13T21:01:38Z</time>
      </trkpt>
      <trkpt lat="44.4629" lon="1.02982">
        <ele>221</ele>
        <time>2020-01-13T21:01:44Z</time>
      </trkpt>
      <trkpt lat="44.46243" lon="1.02869">
        <ele>215</ele>
        <time>2020-01-13T21:02:05Z</time>
      </trkpt>
      <trkpt lat="44.46193" lon="1.02789">
        <ele>208</ele>
        <time>2020-01-13T21:02:23Z</time>
      </trkpt>
      <trkpt lat="44.46163" lon="1.02764">
        <ele>205</ele>
        <time>2020-01-13T21:02:31Z</time>
      </trkpt>
      <trkpt lat="44.46159" lon="1.02765">
        <ele>204</ele>
        <time>2020-01-13T21:02:32Z</time>
      </trkpt>
      <trkpt lat="44.46147" lon="1.02776">
        <ele>203</ele>
        <time>2020-01-13T21:02:36Z</time>
      </trkpt>
      <trkpt lat="44.46128" lon="1.02786">
        <ele>201</ele>
        <time>2020-01-13T21:02:40Z</time>
      </trkpt>
      <trkpt lat="44.4611" lon="1.02801">
        <ele>200</ele>
        <time>2020-01-13T21:02:45Z</time>
      </trkpt>
      <trkpt lat="44.46078" lon="1.02784">
        <ele>196</ele>
        <time>2020-01-13T21:02:53Z</time>
      </trkpt>
      <trkpt lat="44.46007" lon="1.02733">
        <ele>188</ele>
        <time>2020-01-13T21:03:12Z</time>
      </trkpt>
      <trkpt lat="44.46002" lon="1.02727">
        <ele>187</ele>
        <time>2020-01-13T21:03:13Z</time>
      </trkpt>
      <trkpt lat="44.46002" lon="1.02722">
        <ele>188</ele>
        <time>2020-01-13T21:03:14Z</time>
      </trkpt>
      <trkpt lat="44.46013" lon="1.02708">
        <ele>190</ele>
        <time>2020-01-13T21:03:18Z</time>
      </trkpt>
      <trkpt lat="44.46011" lon="1.02691">
        <ele>190</ele>
        <time>2020-01-13T21:03:21Z</time>
      </trkpt>
      <trkpt lat="44.46" lon="1.02684">
        <ele>189</ele>
        <time>2020-01-13T21:03:23Z</time>
      </trkpt>
      <trkpt lat="44.45962" lon="1.02677">
        <ele>184</ele>
        <time>2020-01-13T21:03:32Z</time>
      </trkpt>
      <trkpt lat="44.4593" lon="1.02668">
        <ele>180</ele>
        <time>2020-01-13T21:03:40Z</time>
      </trkpt>
      <trkpt lat="44.45906" lon="1.02657">
        <ele>177</ele>
        <time>2020-01-13T21:03:46Z</time>
      </trkpt>
      <trkpt lat="44.45907" lon="1.02682">
        <ele>175</ele>
        <time>2020-01-13T21:03:50Z</time>
      </trkpt>
      <trkpt lat="44.45905" lon="1.02692">
        <ele>174</ele>
        <time>2020-01-13T21:03:52Z</time>
      </trkpt>
      <trkpt lat="44.45902" lon="1.02694">
        <ele>173</ele>
        <time>2020-01-13T21:03:53Z</time>
      </trkpt>
      <trkpt lat="44.45866" lon="1.02695">
        <ele>167</ele>
        <time>2020-01-13T21:04:01Z</time>
      </trkpt>
      <trkpt lat="44.45856" lon="1.02719">
        <ele>164</ele>
        <time>2020-01-13T21:04:06Z</time>
      </trkpt>
      <trkpt lat="44.45852" lon="1.02716">
        <ele>163</ele>
        <time>2020-01-13T21:04:07Z</time>
      </trkpt>
      <trkpt lat="44.45838" lon="1.02683">
        <ele>162</ele>
        <time>2020-01-13T21:04:13Z</time>
      </trkpt>
      <trkpt lat="44.45831" lon="1.02646">
        <ele>161</ele>
        <time>2020-01-13T21:04:19Z</time>
      </trkpt>
      <trkpt lat="44.45833" lon="1.02588">
        <ele>162</ele>
        <time>2020-01-13T21:04:29Z</time>
      </trkpt>
      <trkpt lat="44.45831" lon="1.0256">
        <ele>162</ele>
        <time>2020-01-13T21:04:34Z</time>
      </trkpt>
      <trkpt lat="44.45818" lon="1.02507">
        <ele>162</ele>
        <time>2020-01-13T21:04:43Z</time>
      </trkpt>
      <trkpt lat="44.45785" lon="1.02437">
        <ele>163</ele>
        <time>2020-01-13T21:04:57Z</time>
      </trkpt>
      <trkpt lat="44.45767" lon="1.02325">
        <ele>162</ele>
        <time>2020-01-13T21:05:16Z</time>
      </trkpt>
      <trkpt lat="44.45757" lon="1.02297">
        <ele>162</ele>
        <time>2020-01-13T21:05:22Z</time>
      </trkpt>
      <trkpt lat="44.45754" lon="1.02293">
        <ele>161</ele>
        <time>2020-01-13T21:05:23Z</time>
      </trkpt>
      <trkpt lat="44.45722" lon="1.02288">
        <ele>162</ele>
        <time>2020-01-13T21:05:30Z</time>
      </trkpt>
      <trkpt lat="44.45693" lon="1.02267">
        <ele>161</ele>
        <time>2020-01-13T21:05:38Z</time>
      </trkpt>
      <trkpt lat="44.45618" lon="1.02242">
        <ele>163</ele>
        <time>2020-01-13T21:05:56Z</time>
      </trkpt>
      <trkpt lat="44.45596" lon="1.02225">
        <ele>163</ele>
        <time>2020-01-13T21:06:02Z</time>
      </trkpt>
      <trkpt lat="44.45571" lon="1.02201">
        <ele>160</ele>
        <time>2020-01-13T21:06:09Z</time>
      </trkpt>
      <trkpt lat="44.45554" lon="1.02175">
        <ele>156</ele>
        <time>2020-01-13T21:06:14Z</time>
      </trkpt>
      <trkpt lat="44.45545" lon="1.02156">
        <ele>154</ele>
        <time>2020-01-13T21:06:18Z</time>
      </trkpt>
      <trkpt lat="44.45536" lon="1.02155">
        <ele>155</ele>
        <time>2020-01-13T21:06:20Z</time>
      </trkpt>
      <trkpt lat="44.45529" lon="1.02158">
        <ele>155</ele>
        <time>2020-01-13T21:06:22Z</time>
      </trkpt>
      <trkpt lat="44.45499" lon="1.02176">
        <ele>158</ele>
        <time>2020-01-13T21:06:30Z</time>
      </trkpt>
      <trkpt lat="44.45447" lon="1.02214">
        <ele>161</ele>
        <time>2020-01-13T21:06:43Z</time>
      </trkpt>
      <trkpt lat="44.45412" lon="1.02243">
        <ele>161</ele>
        <time>2020-01-13T21:06:53Z</time>
      </trkpt>
      <trkpt lat="44.45363" lon="1.02293">
        <ele>166</ele>
        <time>2020-01-13T21:07:07Z</time>
      </trkpt>
      <trkpt lat="44.45347" lon="1.02305">
        <ele>166</ele>
        <time>2020-01-13T21:07:11Z</time>
      </trkpt>
      <trkpt lat="44.45262" lon="1.02345">
        <ele>168</ele>
        <time>2020-01-13T21:07:32Z</time>
      </trkpt>
      <trkpt lat="44.45231" lon="1.02356">
        <ele>169</ele>
        <time>2020-01-13T21:07:40Z</time>
      </trkpt>
      <trkpt lat="44.45186" lon="1.02368">
        <ele>170</ele>
        <time>2020-01-13T21:07:50Z</time>
      </trkpt>
      <trkpt lat="44.45159" lon="1.02384">
        <ele>169</ele>
        <time>2020-01-13T21:07:57Z</time>
      </trkpt>
      <trkpt lat="44.45117" lon="1.02447">
        <ele>172</ele>
        <time>2020-01-13T21:08:12Z</time>
      </trkpt>
      <trkpt lat="44.45109" lon="1.02452">
        <ele>172</ele>
        <time>2020-01-13T21:08:14Z</time>
      </trkpt>
      <trkpt lat="44.45104" lon="1.0245">
        <ele>171</ele>
        <time>2020-01-13T21:08:15Z</time>
      </trkpt>
      <trkpt lat="44.4506" lon="1.02396">
        <ele>170</ele>
        <time>2020-01-13T21:08:29Z</time>
      </trkpt>
      <trkpt lat="44.45041" lon="1.02383">
        <ele>171</ele>
        <time>2020-01-13T21:08:33Z</time>
      </trkpt>
      <trkpt lat="44.45013" lon="1.02336">
        <ele>168</ele>
        <time>2020-01-13T21:08:44Z</time>
      </trkpt>
      <trkpt lat="44.44964" lon="1.02276">
        <ele>175</ele>
        <time>2020-01-13T21:08:59Z</time>
      </trkpt>
      <trkpt lat="44.44945" lon="1.02234">
        <ele>177</ele>
        <time>2020-01-13T21:09:07Z</time>
      </trkpt>
      <trkpt lat="44.4494" lon="1.02213">
        <ele>177</ele>
        <time>2020-01-13T21:09:11Z</time>
      </trkpt>
      <trkpt lat="44.44932" lon="1.02193">
        <ele>176</ele>
        <time>2020-01-13T21:09:15Z</time>
      </trkpt>
      <trkpt lat="44.44903" lon="1.02175">
        <ele>175</ele>
        <time>2020-01-13T21:09:22Z</time>
      </trkpt>
      <trkpt lat="44.44863" lon="1.02161">
        <ele>175</ele>
        <time>2020-01-13T21:09:32Z</time>
      </trkpt>
      <trkpt lat="44.44749" lon="1.02151">
        <ele>179</ele>
        <time>2020-01-13T21:09:58Z</time>
      </trkpt>
      <trkpt lat="44.44731" lon="1.02146">
        <ele>180</ele>
        <time>2020-01-13T21:10:03Z</time>
      </trkpt>
      <trkpt lat="44.447" lon="1.02131">
        <ele>181</ele>
        <time>2020-01-13T21:10:10Z</time>
      </trkpt>
      <trkpt lat="44.44681" lon="1.02118">
        <ele>182</ele>
        <time>2020-01-13T21:10:15Z</time>
      </trkpt>
      <trkpt lat="44.44646" lon="1.02119">
        <ele>182</ele>
        <time>2020-01-13T21:10:23Z</time>
      </trkpt>
      <trkpt lat="44.44625" lon="1.02124">
        <ele>183</ele>
        <time>2020-01-13T21:10:28Z</time>
      </trkpt>
      <trkpt lat="44.44595" lon="1.02122">
        <ele>184</ele>
        <time>2020-01-13T21:10:35Z</time>
      </trkpt>
      <trkpt lat="44.44579" lon="1.02118">
        <ele>184</ele>
        <time>2020-01-13T21:10:39Z</time>
      </trkpt>
      <trkpt lat="44.44532" lon="1.02098">
        <ele>184</ele>
        <time>2020-01-13T21:10:51Z</time>
      </trkpt>
      <trkpt lat="44.44519" lon="1.0209">
        <ele>184</ele>
        <time>2020-01-13T21:10:54Z</time>
      </trkpt>
      <trkpt lat="44.44513" lon="1.02076">
        <ele>184</ele>
        <time>2020-01-13T21:10:57Z</time>
      </trkpt>
      <trkpt lat="44.44512" lon="1.02041">
        <ele>186</ele>
        <time>2020-01-13T21:11:03Z</time>
      </trkpt>
      <trkpt lat="44.44505" lon="1.02021">
        <ele>186</ele>
        <time>2020-01-13T21:11:06Z</time>
      </trkpt>
      <trkpt lat="44.44484" lon="1.02">
        <ele>188</ele>
        <time>2020-01-13T21:11:12Z</time>
      </trkpt>
      <trkpt lat="44.4447" lon="1.01969">
        <ele>191</ele>
        <time>2020-01-13T21:11:18Z</time>
      </trkpt>
      <trkpt lat="44.44445" lon="1.01939">
        <ele>194</ele>
        <time>2020-01-13T21:11:26Z</time>
      </trkpt>
      <trkpt lat="44.44434" lon="1.01932">
        <ele>195</ele>
        <time>2020-01-13T21:11:29Z</time>
      </trkpt>
      <trkpt lat="44.44425" lon="1.01922">
        <ele>196</ele>
        <time>2020-01-13T21:11:32Z</time>
      </trkpt>
      <trkpt lat="44.44403" lon="1.01888">
        <ele>197</ele>
        <time>2020-01-13T21:11:39Z</time>
      </trkpt>
      <trkpt lat="44.4439" lon="1.01878">
        <ele>197</ele>
        <time>2020-01-13T21:11:43Z</time>
      </trkpt>
      <trkpt lat="44.44379" lon="1.01878">
        <ele>198</ele>
        <time>2020-01-13T21:11:45Z</time>
      </trkpt>
      <trkpt lat="44.44354" lon="1.01897">
        <ele>198</ele>
        <time>2020-01-13T21:11:52Z</time>
      </trkpt>
      <trkpt lat="44.44334" lon="1.01906">
        <ele>199</ele>
        <time>2020-01-13T21:11:57Z</time>
      </trkpt>
      <trkpt lat="44.44326" lon="1.01913">
        <ele>199</ele>
        <time>2020-01-13T21:11:59Z</time>
      </trkpt>
      <trkpt lat="44.44312" lon="1.01944">
        <ele>200</ele>
        <time>2020-01-13T21:12:05Z</time>
      </trkpt>
      <trkpt lat="44.44302" lon="1.01952">
        <ele>201</ele>
        <time>2020-01-13T21:12:08Z</time>
      </trkpt>
      <trkpt lat="44.44273" lon="1.01953">
        <ele>203</ele>
        <time>2020-01-13T21:12:15Z</time>
      </trkpt>
      <trkpt lat="44.44257" lon="1.0195">
        <ele>204</ele>
        <time>2020-01-13T21:12:18Z</time>
      </trkpt>
      <trkpt lat="44.44246" lon="1.01944">
        <ele>205</ele>
        <time>2020-01-13T21:12:21Z</time>
      </trkpt>
      <trkpt lat="44.44241" lon="1.01944">
        <ele>205</ele>
        <time>2020-01-13T21:12:22Z</time>
      </trkpt>
      <trkpt lat="44.44237" lon="1.0194">
        <ele>206</ele>
        <time>2020-01-13T21:12:23Z</time>
      </trkpt>
      <trkpt lat="44.44231" lon="1.01897">
        <ele>205</ele>
        <time>2020-01-13T21:12:31Z</time>
      </trkpt>
      <trkpt lat="44.44215" lon="1.01861">
        <ele>206</ele>
        <time>2020-01-13T21:12:38Z</time>
      </trkpt>
      <trkpt lat="44.44196" lon="1.01826">
        <ele>207</ele>
        <time>2020-01-13T21:12:45Z</time>
      </trkpt>
      <trkpt lat="44.4419" lon="1.01803">
        <ele>208</ele>
        <time>2020-01-13T21:12:49Z</time>
      </trkpt>
      <trkpt lat="44.44185" lon="1.0166">
        <ele>212</ele>
        <time>2020-01-13T21:13:13Z</time>
      </trkpt>
      <trkpt lat="44.4418" lon="1.01623">
        <ele>213</ele>
        <time>2020-01-13T21:13:19Z</time>
      </trkpt>
      <trkpt lat="44.44168" lon="1.01579">
        <ele>213</ele>
        <time>2020-01-13T21:13:27Z</time>
      </trkpt>
      <trkpt lat="44.4417" lon="1.01564">
        <ele>213</ele>
        <time>2020-01-13T21:13:30Z</time>
      </trkpt>
      <trkpt lat="44.44202" lon="1.01529">
        <ele>215</ele>
        <time>2020-01-13T21:13:39Z</time>
      </trkpt>
      <trkpt lat="44.44228" lon="1.0148">
        <ele>216</ele>
        <time>2020-01-13T21:13:49Z</time>
      </trkpt>
      <trkpt lat="44.44255" lon="1.01437">
        <ele>217</ele>
        <time>2020-01-13T21:13:59Z</time>
      </trkpt>
      <trkpt lat="44.44258" lon="1.01419">
        <ele>217</ele>
        <time>2020-01-13T21:14:02Z</time>
      </trkpt>
      <trkpt lat="44.44234" lon="1.01348">
        <ele>217</ele>
        <time>2020-01-13T21:14:15Z</time>
      </trkpt>
      <trkpt lat="44.44193" lon="1.01252">
        <ele>221</ele>
        <time>2020-01-13T21:14:34Z</time>
      </trkpt>
      <trkpt lat="44.44195" lon="1.01243">
        <ele>222</ele>
        <time>2020-01-13T21:14:35Z</time>
      </trkpt>
      <trkpt lat="44.44203" lon="1.01236">
        <ele>222</ele>
        <time>2020-01-13T21:14:38Z</time>
      </trkpt>
      <trkpt lat="44.44211" lon="1.01223">
        <ele>223</ele>
        <time>2020-01-13T21:14:41Z</time>
      </trkpt>
      <trkpt lat="44.44232" lon="1.01178">
        <ele>225</ele>
        <time>2020-01-13T21:14:49Z</time>
      </trkpt>
      <trkpt lat="44.44264" lon="1.01134">
        <ele>226</ele>
        <time>2020-01-13T21:15:00Z</time>
      </trkpt>
      <trkpt lat="44.44268" lon="1.01119">
        <ele>226</ele>
        <time>2020-01-13T21:15:03Z</time>
      </trkpt>
      <trkpt lat="44.44256" lon="1.01098">
        <ele>227</ele>
        <time>2020-01-13T21:15:07Z</time>
      </trkpt>
      <trkpt lat="44.44255" lon="1.01092">
        <ele>228</ele>
        <time>2020-01-13T21:15:08Z</time>
      </trkpt>
      <trkpt lat="44.44279" lon="1.01066">
        <ele>227</ele>
        <time>2020-01-13T21:15:15Z</time>
      </trkpt>
      <trkpt lat="44.44293" lon="1.01047">
        <ele>226</ele>
        <time>2020-01-13T21:15:20Z</time>
      </trkpt>
      <trkpt lat="44.44323" lon="1.01029">
        <ele>226</ele>
        <time>2020-01-13T21:15:27Z</time>
      </trkpt>
      <trkpt lat="44.4434" lon="1.00995">
        <ele>226</ele>
        <time>2020-01-13T21:15:34Z</time>
      </trkpt>
      <trkpt lat="44.44379" lon="1.00891">
        <ele>219</ele>
        <time>2020-01-13T21:15:54Z</time>
      </trkpt>
      <trkpt lat="44.44379" lon="1.00853">
        <ele>216</ele>
        <time>2020-01-13T21:16:00Z</time>
      </trkpt>
      <trkpt lat="44.44371" lon="1.00846">
        <ele>215</ele>
        <time>2020-01-13T21:16:02Z</time>
      </trkpt>
      <trkpt lat="44.44355" lon="1.00843">
        <ele>215</ele>
        <time>2020-01-13T21:16:06Z</time>
      </trkpt>
      <trkpt lat="44.44335" lon="1.00824">
        <ele>213</ele>
        <time>2020-01-13T21:16:12Z</time>
      </trkpt>
      <trkpt lat="44.44271" lon="1.00804">
        <ele>208</ele>
        <time>2020-01-13T21:16:27Z</time>
      </trkpt>
      <trkpt lat="44.44266" lon="1.00796">
        <ele>207</ele>
        <time>2020-01-13T21:16:29Z</time>
      </trkpt>
      <trkpt lat="44.44265" lon="1.00789">
        <ele>206</ele>
        <time>2020-01-13T21:16:30Z</time>
      </trkpt>
      <trkpt lat="44.44271" lon="1.00739">
        <ele>200</ele>
        <time>2020-01-13T21:16:39Z</time>
      </trkpt>
      <trkpt lat="44.44267" lon="1.00723">
        <ele>199</ele>
        <time>2020-01-13T21:16:41Z</time>
      </trkpt>
      <trkpt lat="44.44247" lon="1.00693">
        <ele>196</ele>
        <time>2020-01-13T21:16:48Z</time>
      </trkpt>
      <trkpt lat="44.44243" lon="1.00645">
        <ele>192</ele>
        <time>2020-01-13T21:16:56Z</time>
      </trkpt>
      <trkpt lat="44.44249" lon="1.00611">
        <ele>188</ele>
        <time>2020-01-13T21:17:02Z</time>
      </trkpt>
      <trkpt lat="44.44262" lon="1.00582">
        <ele>185</ele>
        <time>2020-01-13T21:17:08Z</time>
      </trkpt>
      <trkpt lat="44.44281" lon="1.00566">
        <ele>185</ele>
        <time>2020-01-13T21:17:13Z</time>
      </trkpt>
      <trkpt lat="44.44293" lon="1.00567">
        <ele>186</ele>
        <time>2020-01-13T21:17:16Z</time>
      </trkpt>
      <trkpt lat="44.44304" lon="1.00576">
        <ele>187</ele>
        <time>2020-01-13T21:17:19Z</time>
      </trkpt>
      <trkpt lat="44.44324" lon="1.00606">
        <ele>191</ele>
        <time>2020-01-13T21:17:26Z</time>
      </trkpt>
      <trkpt lat="44.44328" lon="1.00605">
        <ele>191</ele>
        <time>2020-01-13T21:17:27Z</time>
      </trkpt>
      <trkpt lat="44.44331" lon="1.00601">
        <ele>191</ele>
        <time>2020-01-13T21:17:28Z</time>
      </trkpt>
      <trkpt lat="44.44329" lon="1.0053">
        <ele>187</ele>
        <time>2020-01-13T21:17:39Z</time>
      </trkpt>
      <trkpt lat="44.44326" lon="1.00513">
        <ele>186</ele>
        <time>2020-01-13T21:17:42Z</time>
      </trkpt>
      <trkpt lat="44.44315" lon="1.00487">
        <ele>185</ele>
        <time>2020-01-13T21:17:47Z</time>
      </trkpt>
      <trkpt lat="44.44304" lon="1.00472">
        <ele>184</ele>
        <time>2020-01-13T21:17:51Z</time>
      </trkpt>
      <trkpt lat="44.44276" lon="1.00446">
        <ele>181</ele>
        <time>2020-01-13T21:17:59Z</time>
      </trkpt>
      <trkpt lat="44.4424" lon="1.00426">
        <ele>176</ele>
        <time>2020-01-13T21:18:08Z</time>
      </trkpt>
      <trkpt lat="44.44176" lon="1.00385">
        <ele>175</ele>
        <time>2020-01-13T21:18:24Z</time>
      </trkpt>
      <trkpt lat="44.44162" lon="1.00383">
        <ele>174</ele>
        <time>2020-01-13T21:18:28Z</time>
      </trkpt>
      <trkpt lat="44.44147" lon="1.00387">
        <ele>173</ele>
        <time>2020-01-13T21:18:31Z</time>
      </trkpt>
      <trkpt lat="44.44113" lon="1.00387">
        <ele>171</ele>
        <time>2020-01-13T21:18:39Z</time>
      </trkpt>
      <trkpt lat="44.44088" lon="1.00384">
        <ele>171</ele>
        <time>2020-01-13T21:18:45Z</time>
      </trkpt>
      <trkpt lat="44.44049" lon="1.00369">
        <ele>169</ele>
        <time>2020-01-13T21:18:54Z</time>
      </trkpt>
      <trkpt lat="44.44032" lon="1.00355">
        <ele>167</ele>
        <time>2020-01-13T21:18:59Z</time>
      </trkpt>
      <trkpt lat="44.43984" lon="1.00299">
        <ele>163</ele>
        <time>2020-01-13T21:19:14Z</time>
      </trkpt>
      <trkpt lat="44.43967" lon="1.00272">
        <ele>163</ele>
        <time>2020-01-13T21:19:20Z</time>
      </trkpt>
      <trkpt lat="44.43956" lon="1.00249">
        <ele>161</ele>
        <time>2020-01-13T21:19:24Z</time>
      </trkpt>
      <trkpt lat="44.43941" lon="1.00184">
        <ele>160</ele>
        <time>2020-01-13T21:19:36Z</time>
      </trkpt>
      <trkpt lat="44.43925" lon="1.00146">
        <ele>155</ele>
        <time>2020-01-13T21:19:43Z</time>
      </trkpt>
      <trkpt lat="44.43907" lon="1.00091">
        <ele>149</ele>
        <time>2020-01-13T21:19:53Z</time>
      </trkpt>
      <trkpt lat="44.43891" lon="0.99999">
        <ele>140</ele>
        <time>2020-01-13T21:20:09Z</time>
      </trkpt>
      <trkpt lat="44.43891" lon="0.99938">
        <ele>138</ele>
        <time>2020-01-13T21:20:19Z</time>
      </trkpt>
      <trkpt lat="44.43893" lon="0.99923">
        <ele>137</ele>
        <time>2020-01-13T21:20:22Z</time>
      </trkpt>
      <trkpt lat="44.43931" lon="0.99882">
        <ele>138</ele>
        <time>2020-01-13T21:20:33Z</time>
      </trkpt>
      <trkpt lat="44.43945" lon="0.99871">
        <ele>138</ele>
        <time>2020-01-13T21:20:36Z</time>
      </trkpt>
      <trkpt lat="44.44027" lon="0.99832">
        <ele>136</ele>
        <time>2020-01-13T21:20:57Z</time>
      </trkpt>
      <trkpt lat="44.44099" lon="0.99788">
        <ele>137</ele>
        <time>2020-01-13T21:21:15Z</time>
      </trkpt>
      <trkpt lat="44.44136" lon="0.99756">
        <ele>136</ele>
        <time>2020-01-13T21:21:25Z</time>
      </trkpt>
      <trkpt lat="44.44162" lon="0.99722">
        <ele>136</ele>
        <time>2020-01-13T21:21:34Z</time>
      </trkpt>
      <trkpt lat="44.44238" lon="0.99554">
        <ele>130</ele>
        <time>2020-01-13T21:22:07Z</time>
      </trkpt>
      <trkpt lat="44.44233" lon="0.99548">
        <ele>129</ele>
        <time>2020-01-13T21:22:08Z</time>
      </trkpt>
      <trkpt lat="44.44222" lon="0.99551">
        <ele>129</ele>
        <time>2020-01-13T21:22:11Z</time>
      </trkpt>
      <trkpt lat="44.44162" lon="0.99557">
        <ele>127</ele>
        <time>2020-01-13T21:22:25Z</time>
      </trkpt>
      <trkpt lat="44.44117" lon="0.99555">
        <ele>128</ele>
        <time>2020-01-13T21:22:35Z</time>
      </trkpt>
      <trkpt lat="44.44092" lon="0.9956">
        <ele>129</ele>
        <time>2020-01-13T21:22:41Z</time>
      </trkpt>
      <trkpt lat="44.44014" lon="0.99577">
        <ele>130</ele>
        <time>2020-01-13T21:23:00Z</time>
      </trkpt>
      <trkpt lat="44.43942" lon="0.99611">
        <ele>135</ele>
        <time>2020-01-13T21:23:17Z</time>
      </trkpt>
      <trkpt lat="44.43926" lon="0.99617">
        <ele>137</ele>
        <time>2020-01-13T21:23:21Z</time>
      </trkpt>
      <trkpt lat="44.43907" lon="0.99619">
        <ele>138</ele>
        <time>2020-01-13T21:23:26Z</time>
      </trkpt>
      <trkpt lat="44.43892" lon="0.99616">
        <ele>139</ele>
        <time>2020-01-13T21:23:29Z</time>
      </trkpt>
      <trkpt lat="44.43859" lon="0.99604">
        <ele>139</ele>
        <time>2020-01-13T21:23:37Z</time>
      </trkpt>
      <trkpt lat="44.43804" lon="0.99578">
        <ele>137</ele>
        <time>2020-01-13T21:23:51Z</time>
      </trkpt>
      <trkpt lat="44.4375" lon="0.99566">
        <ele>139</ele>
        <time>2020-01-13T21:24:04Z</time>
      </trkpt>
      <trkpt lat="44.43688" lon="0.99558">
        <ele>145</ele>
        <time>2020-01-13T21:24:18Z</time>
      </trkpt>
      <trkpt lat="44.4359" lon="0.9953">
        <ele>148</ele>
        <time>2020-01-13T21:24:42Z</time>
      </trkpt>
      <trkpt lat="44.43558" lon="0.99528">
        <ele>148</ele>
        <time>2020-01-13T21:24:49Z</time>
      </trkpt>
      <trkpt lat="44.43494" lon="0.99533">
        <ele>150</ele>
        <time>2020-01-13T21:25:04Z</time>
      </trkpt>
      <trkpt lat="44.43486" lon="0.99529">
        <ele>150</ele>
        <time>2020-01-13T21:25:06Z</time>
      </trkpt>
      <trkpt lat="44.43453" lon="0.99522">
        <ele>150</ele>
        <time>2020-01-13T21:25:14Z</time>
      </trkpt>
      <trkpt lat="44.43415" lon="0.99504">
        <ele>149</ele>
        <time>2020-01-13T21:25:23Z</time>
      </trkpt>
      <trkpt lat="44.43385" lon="0.99484">
        <ele>153</ele>
        <time>2020-01-13T21:25:31Z</time>
      </trkpt>
      <trkpt lat="44.43369" lon="0.99468">
        <ele>155</ele>
        <time>2020-01-13T21:25:35Z</time>
      </trkpt>
      <trkpt lat="44.43282" lon="0.99357">
        <ele>153</ele>
        <time>2020-01-13T21:26:03Z</time>
      </trkpt>
      <trkpt lat="44.43257" lon="0.99338">
        <ele>152</ele>
        <time>2020-01-13T21:26:10Z</time>
      </trkpt>
      <trkpt lat="44.43231" lon="0.99314">
        <ele>153</ele>
        <time>2020-01-13T21:26:17Z</time>
      </trkpt>
      <trkpt lat="44.43189" lon="0.99296">
        <ele>156</ele>
        <time>2020-01-13T21:26:27Z</time>
      </trkpt>
      <trkpt lat="44.43175" lon="0.99287">
        <ele>156</ele>
        <time>2020-01-13T21:26:31Z</time>
      </trkpt>
      <trkpt lat="44.43159" lon="0.99273">
        <ele>156</ele>
        <time>2020-01-13T21:26:35Z</time>
      </trkpt>
      <trkpt lat="44.43105" lon="0.99204">
        <ele>157</ele>
        <time>2020-01-13T21:26:52Z</time>
      </trkpt>
      <trkpt lat="44.43079" lon="0.99185">
        <ele>155</ele>
        <time>2020-01-13T21:26:59Z</time>
      </trkpt>
      <trkpt lat="44.43058" lon="0.99176">
        <ele>156</ele>
        <time>2020-01-13T21:27:04Z</time>
      </trkpt>
      <trkpt lat="44.43002" lon="0.99168">
        <ele>158</ele>
        <time>2020-01-13T21:27:17Z</time>
      </trkpt>
      <trkpt lat="44.42984" lon="0.9917">
        <ele>159</ele>
        <time>2020-01-13T21:27:22Z</time>
      </trkpt>
      <trkpt lat="44.42953" lon="0.99181">
        <ele>160</ele>
        <time>2020-01-13T21:27:29Z</time>
      </trkpt>
      <trkpt lat="44.42921" lon="0.99198">
        <ele>162</ele>
        <time>2020-01-13T21:27:37Z</time>
      </trkpt>
      <trkpt lat="44.42856" lon="0.99261">
        <ele>165</ele>
        <time>2020-01-13T21:27:55Z</time>
      </trkpt>
      <trkpt lat="44.42818" lon="0.99292">
        <ele>167</ele>
        <time>2020-01-13T21:28:06Z</time>
      </trkpt>
      <trkpt lat="44.42783" lon="0.99313">
        <ele>167</ele>
        <time>2020-01-13T21:28:15Z</time>
      </trkpt>
      <trkpt lat="44.4277" lon="0.99324">
        <ele>166</ele>
        <time>2020-01-13T21:28:18Z</time>
      </trkpt>
      <trkpt lat="44.42757" lon="0.99327">
        <ele>165</ele>
        <time>2020-01-13T21:28:21Z</time>
      </trkpt>
      <trkpt lat="44.42727" lon="0.99343">
        <ele>166</ele>
        <time>2020-01-13T21:28:29Z</time>
      </trkpt>
      <trkpt lat="44.42696" lon="0.99367">
        <ele>167</ele>
        <time>2020-01-13T21:28:37Z</time>
      </trkpt>
      <trkpt lat="44.4268" lon="0.99384">
        <ele>166</ele>
        <time>2020-01-13T21:28:42Z</time>
      </trkpt>
      <trkpt lat="44.4265" lon="0.99437">
        <ele>168</ele>
        <time>2020-01-13T21:28:53Z</time>
      </trkpt>
      <trkpt lat="44.42617" lon="0.99477">
        <ele>170</ele>
        <time>2020-01-13T21:29:03Z</time>
      </trkpt>
      <trkpt lat="44.42582" lon="0.99514">
        <ele>168</ele>
        <time>2020-01-13T21:29:13Z</time>
      </trkpt>
      <trkpt lat="44.42575" lon="0.99543">
        <ele>170</ele>
        <time>2020-01-13T21:29:19Z</time>
      </trkpt>
      <trkpt lat="44.42572" lon="0.99578">
        <ele>172</ele>
        <time>2020-01-13T21:29:24Z</time>
      </trkpt>
      <trkpt lat="44.42554" lon="0.99628">
        <ele>175</ele>
        <time>2020-01-13T21:29:34Z</time>
      </trkpt>
      <trkpt lat="44.42539" lon="0.99656">
        <ele>176</ele>
        <time>2020-01-13T21:29:40Z</time>
      </trkpt>
      <trkpt lat="44.42534" lon="0.99673">
        <ele>176</ele>
        <time>2020-01-13T21:29:43Z</time>
      </trkpt>
      <trkpt lat="44.4251" lon="0.99713">
        <ele>175</ele>
        <time>2020-01-13T21:29:51Z</time>
      </trkpt>
      <trkpt lat="44.42507" lon="0.99727">
        <ele>174</ele>
        <time>2020-01-13T21:29:54Z</time>
      </trkpt>
      <trkpt lat="44.42494" lon="0.99752">
        <ele>173</ele>
        <time>2020-01-13T21:29:59Z</time>
      </trkpt>
      <trkpt lat="44.42489" lon="0.99775">
        <ele>176</ele>
        <time>2020-01-13T21:30:03Z</time>
      </trkpt>
      <trkpt lat="44.42485" lon="0.99783">
        <ele>176</ele>
        <time>2020-01-13T21:30:05Z</time>
      </trkpt>
      <trkpt lat="44.42478" lon="0.99788">
        <ele>177</ele>
        <time>2020-01-13T21:30:06Z</time>
      </trkpt>
      <trkpt lat="44.4246" lon="0.99809">
        <ele>178</ele>
        <time>2020-01-13T21:30:12Z</time>
      </trkpt>
      <trkpt lat="44.42442" lon="0.99824">
        <ele>177</ele>
        <time>2020-01-13T21:30:17Z</time>
      </trkpt>
      <trkpt lat="44.42426" lon="0.99844">
        <ele>175</ele>
        <time>2020-01-13T21:30:22Z</time>
      </trkpt>
      <trkpt lat="44.42391" lon="0.99909">
        <ele>179</ele>
        <time>2020-01-13T21:30:35Z</time>
      </trkpt>
      <trkpt lat="44.42381" lon="0.99939">
        <ele>180</ele>
        <time>2020-01-13T21:30:41Z</time>
      </trkpt>
      <trkpt lat="44.42359" lon="0.99981">
        <ele>178</ele>
        <time>2020-01-13T21:30:50Z</time>
      </trkpt>
      <trkpt lat="44.42352" lon="1.00002">
        <ele>177</ele>
        <time>2020-01-13T21:30:53Z</time>
      </trkpt>
      <trkpt lat="44.42342" lon="1.00096">
        <ele>177</ele>
        <time>2020-01-13T21:31:09Z</time>
      </trkpt>
      <trkpt lat="44.42335" lon="1.00096">
        <ele>176</ele>
        <time>2020-01-13T21:31:11Z</time>
      </trkpt>
      <trkpt lat="44.4231" lon="1.00069">
        <ele>177</ele>
        <time>2020-01-13T21:31:18Z</time>
      </trkpt>
      <trkpt lat="44.42289" lon="1.00052">
        <ele>178</ele>
        <time>2020-01-13T21:31:24Z</time>
      </trkpt>
      <trkpt lat="44.42269" lon="1.00052">
        <ele>180</ele>
        <time>2020-01-13T21:31:29Z</time>
      </trkpt>
      <trkpt lat="44.42254" lon="1.00056">
        <ele>181</ele>
        <time>2020-01-13T21:31:32Z</time>
      </trkpt>
      <trkpt lat="44.42192" lon="1.00094">
        <ele>184</ele>
        <time>2020-01-13T21:31:48Z</time>
      </trkpt>
      <trkpt lat="44.42127" lon="1.00126">
        <ele>187</ele>
        <time>2020-01-13T21:32:04Z</time>
      </trkpt>
      <trkpt lat="44.42117" lon="1.00139">
        <ele>187</ele>
        <time>2020-01-13T21:32:07Z</time>
      </trkpt>
      <trkpt lat="44.42102" lon="1.00167">
        <ele>188</ele>
        <time>2020-01-13T21:32:13Z</time>
      </trkpt>
      <trkpt lat="44.42066" lon="1.00216">
        <ele>191</ele>
        <time>2020-01-13T21:32:25Z</time>
      </trkpt>
      <trkpt lat="44.4203" lon="1.00252">
        <ele>195</ele>
        <time>2020-01-13T21:32:35Z</time>
      </trkpt>
      <trkpt lat="44.42002" lon="1.00272">
        <ele>197</ele>
        <time>2020-01-13T21:32:43Z</time>
      </trkpt>
      <trkpt lat="44.41966" lon="1.00307">
        <ele>197</ele>
        <time>2020-01-13T21:32:53Z</time>
      </trkpt>
      <trkpt lat="44.41943" lon="1.00322">
        <ele>197</ele>
        <time>2020-01-13T21:32:59Z</time>
      </trkpt>
      <trkpt lat="44.41925" lon="1.00328">
        <ele>197</ele>
        <time>2020-01-13T21:33:03Z</time>
      </trkpt>
      <trkpt lat="44.41866" lon="1.00358">
        <ele>197</ele>
        <time>2020-01-13T21:33:18Z</time>
      </trkpt>
      <trkpt lat="44.4185" lon="1.00383">
        <ele>198</ele>
        <time>2020-01-13T21:33:23Z</time>
      </trkpt>
      <trkpt lat="44.41811" lon="1.00459">
        <ele>202</ele>
        <time>2020-01-13T21:33:39Z</time>
      </trkpt>
      <trkpt lat="44.41807" lon="1.00477">
        <ele>203</ele>
        <time>2020-01-13T21:33:42Z</time>
      </trkpt>
      <trkpt lat="44.41802" lon="1.00531">
        <ele>207</ele>
        <time>2020-01-13T21:33:51Z</time>
      </trkpt>
      <trkpt lat="44.41806" lon="1.00539">
        <ele>208</ele>
        <time>2020-01-13T21:33:53Z</time>
      </trkpt>
      <trkpt lat="44.41838" lon="1.00545">
        <ele>210</ele>
        <time>2020-01-13T21:34:00Z</time>
      </trkpt>
      <trkpt lat="44.41872" lon="1.00564">
        <ele>210</ele>
        <time>2020-01-13T21:34:09Z</time>
      </trkpt>
      <trkpt lat="44.41896" lon="1.00581">
        <ele>210</ele>
        <time>2020-01-13T21:34:15Z</time>
      </trkpt>
      <trkpt lat="44.41918" lon="1.00605">
        <ele>209</ele>
        <time>2020-01-13T21:34:22Z</time>
      </trkpt>
      <trkpt lat="44.41928" lon="1.00626">
        <ele>207</ele>
        <time>2020-01-13T21:34:26Z</time>
      </trkpt>
      <trkpt lat="44.41941" lon="1.00699">
        <ele>205</ele>
        <time>2020-01-13T21:34:38Z</time>
      </trkpt>
      <trkpt lat="44.41954" lon="1.00748">
        <ele>205</ele>
        <time>2020-01-13T21:34:47Z</time>
      </trkpt>
      <trkpt lat="44.41983" lon="1.00823">
        <ele>203</ele>
        <time>2020-01-13T21:35:01Z</time>
      </trkpt>
      <trkpt lat="44.41983" lon="1.00851">
        <ele>203</ele>
        <time>2020-01-13T21:35:06Z</time>
      </trkpt>
      <trkpt lat="44.41888" lon="1.00967">
        <ele>210</ele>
        <time>2020-01-13T21:35:35Z</time>
      </trkpt>
      <trkpt lat="44.41819" lon="1.01022">
        <ele>212</ele>
        <time>2020-01-13T21:35:54Z</time>
      </trkpt>
      <trkpt lat="44.41714" lon="1.01049">
        <ele>210</ele>
        <time>2020-01-13T21:36:19Z</time>
      </trkpt>
      <trkpt lat="44.41656" lon="1.01091">
        <ele>206</ele>
        <time>2020-01-13T21:36:34Z</time>
      </trkpt>
      <trkpt lat="44.41575" lon="1.01121">
        <ele>200</ele>
        <time>2020-01-13T21:36:54Z</time>
      </trkpt>
      <trkpt lat="44.41533" lon="1.01176">
        <ele>198</ele>
        <time>2020-01-13T21:37:07Z</time>
      </trkpt>
      <trkpt lat="44.4152" lon="1.01202">
        <ele>197</ele>
        <time>2020-01-13T21:37:12Z</time>
      </trkpt>
      <trkpt lat="44.4151" lon="1.01216">
        <ele>195</ele>
        <time>2020-01-13T21:37:16Z</time>
      </trkpt>
      <trkpt lat="44.41508" lon="1.01222">
        <ele>195</ele>
        <time>2020-01-13T21:37:17Z</time>
      </trkpt>
      <trkpt lat="44.41508" lon="1.01248">
        <ele>195</ele>
        <time>2020-01-13T21:37:21Z</time>
      </trkpt>
      <trkpt lat="44.41423" lon="1.01341">
        <ele>186</ele>
        <time>2020-01-13T21:37:46Z</time>
      </trkpt>
      <trkpt lat="44.41378" lon="1.0137">
        <ele>179</ele>
        <time>2020-01-13T21:37:58Z</time>
      </trkpt>
      <trkpt lat="44.41371" lon="1.01371">
        <ele>178</ele>
        <time>2020-01-13T21:38:00Z</time>
      </trkpt>
      <trkpt lat="44.41352" lon="1.01368">
        <ele>176</ele>
        <time>2020-01-13T21:38:04Z</time>
      </trkpt>
      <trkpt lat="44.41342" lon="1.0137">
        <ele>174</ele>
        <time>2020-01-13T21:38:06Z</time>
      </trkpt>
      <trkpt lat="44.41324" lon="1.01365">
        <ele>172</ele>
        <time>2020-01-13T21:38:11Z</time>
      </trkpt>
      <trkpt lat="44.41316" lon="1.01351">
        <ele>172</ele>
        <time>2020-01-13T21:38:14Z</time>
      </trkpt>
      <trkpt lat="44.41303" lon="1.01347">
        <ele>171</ele>
        <time>2020-01-13T21:38:17Z</time>
      </trkpt>
      <trkpt lat="44.41299" lon="1.0134">
        <ele>171</ele>
        <time>2020-01-13T21:38:18Z</time>
      </trkpt>
      <trkpt lat="44.41294" lon="1.01337">
        <ele>171</ele>
        <time>2020-01-13T21:38:20Z</time>
      </trkpt>
      <trkpt lat="44.41286" lon="1.0134">
        <ele>170</ele>
        <time>2020-01-13T21:38:21Z</time>
      </trkpt>
      <trkpt lat="44.41276" lon="1.0134">
        <ele>169</ele>
        <time>2020-01-13T21:38:24Z</time>
      </trkpt>
      <trkpt lat="44.41264" lon="1.01336">
        <ele>168</ele>
        <time>2020-01-13T21:38:27Z</time>
      </trkpt>
      <trkpt lat="44.41246" lon="1.01334">
        <ele>167</ele>
        <time>2020-01-13T21:38:31Z</time>
      </trkpt>
      <trkpt lat="44.41238" lon="1.01324">
        <ele>166</ele>
        <time>2020-01-13T21:38:33Z</time>
      </trkpt>
      <trkpt lat="44.41222" lon="1.01281">
        <ele>167</ele>
        <time>2020-01-13T21:38:42Z</time>
      </trkpt>
      <trkpt lat="44.41201" lon="1.01246">
        <ele>167</ele>
        <time>2020-01-13T21:38:49Z</time>
      </trkpt>
      <trkpt lat="44.41188" lon="1.01236">
        <ele>167</ele>
        <time>2020-01-13T21:38:53Z</time>
      </trkpt>
      <trkpt lat="44.4117" lon="1.01232">
        <ele>166</ele>
        <time>2020-01-13T21:38:57Z</time>
      </trkpt>
      <trkpt lat="44.41145" lon="1.01234">
        <ele>166</ele>
        <time>2020-01-13T21:39:03Z</time>
      </trkpt>
      <trkpt lat="44.41131" lon="1.01243">
        <ele>165</ele>
        <time>2020-01-13T21:39:06Z</time>
      </trkpt>
      <trkpt lat="44.411" lon="1.01273">
        <ele>162</ele>
        <time>2020-01-13T21:39:15Z</time>
      </trkpt>
      <trkpt lat="44.41081" lon="1.01279">
        <ele>162</ele>
        <time>2020-01-13T21:39:20Z</time>
      </trkpt>
      <trkpt lat="44.41053" lon="1.01281">
        <ele>161</ele>
        <time>2020-01-13T21:39:26Z</time>
      </trkpt>
      <trkpt lat="44.4102" lon="1.01278">
        <ele>159</ele>
        <time>2020-01-13T21:39:34Z</time>
      </trkpt>
      <trkpt lat="44.40953" lon="1.01262">
        <ele>158</ele>
        <time>2020-01-13T21:39:50Z</time>
      </trkpt>
      <trkpt lat="44.4087" lon="1.01261">
        <ele>156</ele>
        <time>2020-01-13T21:40:09Z</time>
      </trkpt>
      <trkpt lat="44.40815" lon="1.01252">
        <ele>155</ele>
        <time>2020-01-13T21:40:22Z</time>
      </trkpt>
      <trkpt lat="44.40756" lon="1.01234">
        <ele>152</ele>
        <time>2020-01-13T21:40:36Z</time>
      </trkpt>
      <trkpt lat="44.40748" lon="1.01229">
        <ele>152</ele>
        <time>2020-01-13T21:40:38Z</time>
      </trkpt>
      <trkpt lat="44.40705" lon="1.01107">
        <ele>155</ele>
        <time>2020-01-13T21:41:01Z</time>
      </trkpt>
      <trkpt lat="44.40686" lon="1.0106">
        <ele>155</ele>
        <time>2020-01-13T21:41:10Z</time>
      </trkpt>
      <trkpt lat="44.4068" lon="1.01036">
        <ele>154</ele>
        <time>2020-01-13T21:41:14Z</time>
      </trkpt>
      <trkpt lat="44.40676" lon="1.0101">
        <ele>154</ele>
        <time>2020-01-13T21:41:19Z</time>
      </trkpt>
      <trkpt lat="44.40677" lon="1.00977">
        <ele>154</ele>
        <time>2020-01-13T21:41:24Z</time>
      </trkpt>
      <trkpt lat="44.40683" lon="1.00932">
        <ele>155</ele>
        <time>2020-01-13T21:41:32Z</time>
      </trkpt>
      <trkpt lat="44.40684" lon="1.00894">
        <ele>155</ele>
        <time>2020-01-13T21:41:38Z</time>
      </trkpt>
      <trkpt lat="44.40681" lon="1.00834">
        <ele>154</ele>
        <time>2020-01-13T21:41:48Z</time>
      </trkpt>
      <trkpt lat="44.40675" lon="1.00811">
        <ele>153</ele>
        <time>2020-01-13T21:41:52Z</time>
      </trkpt>
    </trkseg>
  </trk>
</gpx>